<?xml version='1.0' encoding='UTF-8'?><gpx version="1.1" creator="JPX - https://github.com/jenetics/jpx" xmlns="http://www.topografix.com/GPX/1/1"><trk><trkseg><trkpt lat="44.7977591" lon="7.4651018"><ele>263.0</ele><time>2026-05-03T12:59:53.1Z</time></trkpt><trkpt lat="44.7977689" lon="7.4651997"><ele>263.0</ele><time>2026-05-03T13:02:51.103Z</time></trkpt><trkpt lat="44.7978119" lon="7.4653588"><ele>263.0</ele><time>2026-05-03T13:02:53.114Z</time></trkpt><trkpt lat="44.7978394" lon="7.4655197"><ele>263.0</ele><time>2026-05-03T13:02:55.117Z</time></trkpt><trkpt lat="44.7978636" lon="7.4656924"><ele>263.0</ele><time>2026-05-03T13:02:57.122Z</time></trkpt><trkpt lat="44.797881" lon="7.4657906"><ele>263.0</ele><time>2026-05-03T13:02:58.13Z</time></trkpt><trkpt lat="44.7979021" lon="7.4659036"><ele>263.0</ele><time>2026-05-03T13:02:59.118Z</time></trkpt><trkpt lat="44.7979248" lon="7.4660147"><ele>263.0</ele><time>2026-05-03T13:03:00.119Z</time></trkpt><trkpt lat="44.7979427" lon="7.4661218"><ele>263.0</ele><time>2026-05-03T13:03:01.116Z</time></trkpt><trkpt lat="44.7979596" lon="7.4662336"><ele>263.0</ele><time>2026-05-03T13:03:02.118Z</time></trkpt><trkpt lat="44.7979787" lon="7.4663486"><ele>263.0</ele><time>2026-05-03T13:03:03.114Z</time></trkpt><trkpt lat="44.7979951" lon="7.4664691"><ele>262.83333333333337</ele><time>2026-05-03T13:03:04.108Z</time></trkpt><trkpt lat="44.7980148" lon="7.4665874"><ele>262.6666666666667</ele><time>2026-05-03T13:03:05.105Z</time></trkpt><trkpt lat="44.7980339" lon="7.4666957"><ele>262.5</ele><time>2026-05-03T13:03:06.114Z</time></trkpt><trkpt lat="44.7980528" lon="7.4667987"><ele>262.3333333333333</ele><time>2026-05-03T13:03:07.11Z</time></trkpt><trkpt lat="44.798076" lon="7.4668985"><ele>262.16666666666663</ele><time>2026-05-03T13:03:08.135Z</time></trkpt><trkpt lat="44.7980952" lon="7.4669952"><ele>262.0</ele><time>2026-05-03T13:03:09.122Z</time></trkpt><trkpt lat="44.7981157" lon="7.4670994"><ele>261.8</ele><time>2026-05-03T13:03:10.112Z</time></trkpt><trkpt lat="44.7981357" lon="7.4672015"><ele>261.6</ele><time>2026-05-03T13:03:11.106Z</time></trkpt><trkpt lat="44.7981605" lon="7.467315"><ele>261.40000000000003</ele><time>2026-05-03T13:03:12.103Z</time></trkpt><trkpt lat="44.7981904" lon="7.4674375"><ele>261.2</ele><time>2026-05-03T13:03:13.113Z</time></trkpt><trkpt lat="44.7982236" lon="7.4675802"><ele>261.0</ele><time>2026-05-03T13:03:14.106Z</time></trkpt><trkpt lat="44.7982588" lon="7.4677371"><ele>261.0</ele><time>2026-05-03T13:03:15.114Z</time></trkpt><trkpt lat="44.798293" lon="7.4678941"><ele>261.0</ele><time>2026-05-03T13:03:16.102Z</time></trkpt><trkpt lat="44.7983318" lon="7.4680531"><ele>261.0</ele><time>2026-05-03T13:03:17.124Z</time></trkpt><trkpt lat="44.7983653" lon="7.4682213"><ele>261.0</ele><time>2026-05-03T13:03:18.104Z</time></trkpt><trkpt lat="44.7984018" lon="7.4683925"><ele>261.25</ele><time>2026-05-03T13:03:19.109Z</time></trkpt><trkpt lat="44.7984341" lon="7.4685569"><ele>261.5</ele><time>2026-05-03T13:03:20.114Z</time></trkpt><trkpt lat="44.7984627" lon="7.4687306"><ele>261.75</ele><time>2026-05-03T13:03:21.124Z</time></trkpt><trkpt lat="44.7984847" lon="7.4689207"><ele>262.0</ele><time>2026-05-03T13:03:22.118Z</time></trkpt><trkpt lat="44.7985047" lon="7.4691254"><ele>262.0</ele><time>2026-05-03T13:03:23.118Z</time></trkpt><trkpt lat="44.798527" lon="7.4693343"><ele>262.0</ele><time>2026-05-03T13:03:24.168Z</time></trkpt><trkpt lat="44.7985479" lon="7.4695504"><ele>262.0</ele><time>2026-05-03T13:03:25.112Z</time></trkpt><trkpt lat="44.7985662" lon="7.4697731"><ele>262.66666666666663</ele><time>2026-05-03T13:03:26.118Z</time></trkpt><trkpt lat="44.7985845" lon="7.4699934"><ele>263.3333333333333</ele><time>2026-05-03T13:03:27.117Z</time></trkpt><trkpt lat="44.7986069" lon="7.4702092"><ele>264.0</ele><time>2026-05-03T13:03:28.117Z</time></trkpt><trkpt lat="44.7986292" lon="7.4704207"><ele>264.3333333333333</ele><time>2026-05-03T13:03:29.119Z</time></trkpt><trkpt lat="44.7986586" lon="7.4706289"><ele>264.66666666666663</ele><time>2026-05-03T13:03:30.114Z</time></trkpt><trkpt lat="44.7986931" lon="7.4708426"><ele>265.0</ele><time>2026-05-03T13:03:31.125Z</time></trkpt><trkpt lat="44.7987307" lon="7.4710536"><ele>265.0</ele><time>2026-05-03T13:03:32.11Z</time></trkpt><trkpt lat="44.7987674" lon="7.4712706"><ele>265.0</ele><time>2026-05-03T13:03:33.121Z</time></trkpt><trkpt lat="44.7988039" lon="7.4714794"><ele>265.0</ele><time>2026-05-03T13:03:34.115Z</time></trkpt><trkpt lat="44.798834" lon="7.4716847"><ele>264.0</ele><time>2026-05-03T13:03:35.111Z</time></trkpt><trkpt lat="44.7988475" lon="7.471897"><ele>263.0</ele><time>2026-05-03T13:03:36.115Z</time></trkpt><trkpt lat="44.7988563" lon="7.4721168"><ele>262.0</ele><time>2026-05-03T13:03:37.112Z</time></trkpt><trkpt lat="44.7988702" lon="7.4723435"><ele>262.0</ele><time>2026-05-03T13:03:38.106Z</time></trkpt><trkpt lat="44.7988853" lon="7.4725623"><ele>262.0</ele><time>2026-05-03T13:03:39.103Z</time></trkpt><trkpt lat="44.7989015" lon="7.4727769"><ele>262.0</ele><time>2026-05-03T13:03:40.12Z</time></trkpt><trkpt lat="44.7989207" lon="7.4729872"><ele>262.25</ele><time>2026-05-03T13:03:41.103Z</time></trkpt><trkpt lat="44.7989389" lon="7.4731864"><ele>262.5</ele><time>2026-05-03T13:03:42.114Z</time></trkpt><trkpt lat="44.7989583" lon="7.4733806"><ele>262.75</ele><time>2026-05-03T13:03:43.11Z</time></trkpt><trkpt lat="44.7989762" lon="7.4735676"><ele>263.0</ele><time>2026-05-03T13:03:44.147Z</time></trkpt><trkpt lat="44.7989943" lon="7.4737449"><ele>262.75</ele><time>2026-05-03T13:03:45.112Z</time></trkpt><trkpt lat="44.7990081" lon="7.4739252"><ele>262.5</ele><time>2026-05-03T13:03:46.104Z</time></trkpt><trkpt lat="44.7990189" lon="7.4741169"><ele>262.25</ele><time>2026-05-03T13:03:47.111Z</time></trkpt><trkpt lat="44.799023" lon="7.4743072"><ele>262.0</ele><time>2026-05-03T13:03:48.115Z</time></trkpt><trkpt lat="44.7990237" lon="7.4744913"><ele>262.0</ele><time>2026-05-03T13:03:49.106Z</time></trkpt><trkpt lat="44.7990252" lon="7.4746715"><ele>262.0</ele><time>2026-05-03T13:03:50.124Z</time></trkpt><trkpt lat="44.7990222" lon="7.474855"><ele>262.0</ele><time>2026-05-03T13:03:51.12Z</time></trkpt><trkpt lat="44.7990207" lon="7.475046"><ele>262.0</ele><time>2026-05-03T13:03:52.11Z</time></trkpt><trkpt lat="44.7990184" lon="7.4752421"><ele>261.75</ele><time>2026-05-03T13:03:53.109Z</time></trkpt><trkpt lat="44.7990101" lon="7.4754381"><ele>261.5</ele><time>2026-05-03T13:03:54.127Z</time></trkpt><trkpt lat="44.798995" lon="7.4756381"><ele>261.25</ele><time>2026-05-03T13:03:55.124Z</time></trkpt><trkpt lat="44.7989827" lon="7.475837"><ele>261.0</ele><time>2026-05-03T13:03:56.123Z</time></trkpt><trkpt lat="44.7989683" lon="7.4760342"><ele>261.0</ele><time>2026-05-03T13:03:57.098Z</time></trkpt><trkpt lat="44.7989491" lon="7.4762231"><ele>261.0</ele><time>2026-05-03T13:03:58.111Z</time></trkpt><trkpt lat="44.7989298" lon="7.4763977"><ele>261.0</ele><time>2026-05-03T13:03:59.113Z</time></trkpt><trkpt lat="44.798914" lon="7.4765574"><ele>261.0</ele><time>2026-05-03T13:04:00.146Z</time></trkpt><trkpt lat="44.7989051" lon="7.4766943"><ele>261.0</ele><time>2026-05-03T13:04:01.114Z</time></trkpt><trkpt lat="44.7988934" lon="7.4768165"><ele>261.0</ele><time>2026-05-03T13:04:02.112Z</time></trkpt><trkpt lat="44.7988913" lon="7.4769079"><ele>261.0</ele><time>2026-05-03T13:04:03.109Z</time></trkpt><trkpt lat="44.7989084" lon="7.4770284"><ele>261.0</ele><time>2026-05-03T13:04:05.101Z</time></trkpt><trkpt lat="44.7989731" lon="7.4770401"><ele>261.0</ele><time>2026-05-03T13:04:07.101Z</time></trkpt><trkpt lat="44.7990568" lon="7.4769305"><ele>261.0</ele><time>2026-05-03T13:04:09.105Z</time></trkpt><trkpt lat="44.7991082" lon="7.4768289"><ele>261.0</ele><time>2026-05-03T13:04:10.109Z</time></trkpt><trkpt lat="44.7991712" lon="7.4767201"><ele>261.0</ele><time>2026-05-03T13:04:11.107Z</time></trkpt><trkpt lat="44.7992413" lon="7.4766017"><ele>261.0</ele><time>2026-05-03T13:04:12.116Z</time></trkpt><trkpt lat="44.799316" lon="7.4764752"><ele>261.0</ele><time>2026-05-03T13:04:13.098Z</time></trkpt><trkpt lat="44.7993996" lon="7.4763492"><ele>261.0</ele><time>2026-05-03T13:04:14.118Z</time></trkpt><trkpt lat="44.7994865" lon="7.4762153"><ele>261.5</ele><time>2026-05-03T13:04:15.125Z</time></trkpt><trkpt lat="44.7995759" lon="7.4760747"><ele>262.0</ele><time>2026-05-03T13:04:16.124Z</time></trkpt><trkpt lat="44.7996713" lon="7.4759217"><ele>262.5</ele><time>2026-05-03T13:04:17.112Z</time></trkpt><trkpt lat="44.7997671" lon="7.475766"><ele>263.0</ele><time>2026-05-03T13:04:18.121Z</time></trkpt><trkpt lat="44.7998642" lon="7.4756104"><ele>263.0</ele><time>2026-05-03T13:04:19.105Z</time></trkpt><trkpt lat="44.7999601" lon="7.4754499"><ele>263.0</ele><time>2026-05-03T13:04:20.111Z</time></trkpt><trkpt lat="44.8000587" lon="7.4752826"><ele>263.0</ele><time>2026-05-03T13:04:21.103Z</time></trkpt><trkpt lat="44.8001611" lon="7.4751243"><ele>262.6666666666667</ele><time>2026-05-03T13:04:22.1Z</time></trkpt><trkpt lat="44.8002589" lon="7.4749613"><ele>262.3333333333333</ele><time>2026-05-03T13:04:23.104Z</time></trkpt><trkpt lat="44.8003553" lon="7.4747954"><ele>262.0</ele><time>2026-05-03T13:04:24.097Z</time></trkpt><trkpt lat="44.8004531" lon="7.47463"><ele>262.0</ele><time>2026-05-03T13:04:25.121Z</time></trkpt><trkpt lat="44.800549" lon="7.4744611"><ele>262.0</ele><time>2026-05-03T13:04:26.108Z</time></trkpt><trkpt lat="44.8006472" lon="7.4742897"><ele>262.0</ele><time>2026-05-03T13:04:27.115Z</time></trkpt><trkpt lat="44.8007428" lon="7.4741121"><ele>262.0</ele><time>2026-05-03T13:04:28.106Z</time></trkpt><trkpt lat="44.8008372" lon="7.4739465"><ele>262.0</ele><time>2026-05-03T13:04:29.119Z</time></trkpt><trkpt lat="44.800925" lon="7.4737879"><ele>262.0</ele><time>2026-05-03T13:04:30.208Z</time></trkpt><trkpt lat="44.8010047" lon="7.4736463"><ele>262.0</ele><time>2026-05-03T13:04:31.168Z</time></trkpt><trkpt lat="44.8010855" lon="7.4735098"><ele>261.75</ele><time>2026-05-03T13:04:32.175Z</time></trkpt><trkpt lat="44.8011665" lon="7.4733703"><ele>261.5</ele><time>2026-05-03T13:04:33.159Z</time></trkpt><trkpt lat="44.8012539" lon="7.4732273"><ele>261.25</ele><time>2026-05-03T13:04:34.169Z</time></trkpt><trkpt lat="44.8013419" lon="7.4730728"><ele>261.0</ele><time>2026-05-03T13:04:35.155Z</time></trkpt><trkpt lat="44.8014354" lon="7.4729194"><ele>261.0</ele><time>2026-05-03T13:04:36.171Z</time></trkpt><trkpt lat="44.8015354" lon="7.4727671"><ele>261.0</ele><time>2026-05-03T13:04:37.17Z</time></trkpt><trkpt lat="44.8016412" lon="7.4726122"><ele>261.0</ele><time>2026-05-03T13:04:38.171Z</time></trkpt><trkpt lat="44.801742" lon="7.4724584"><ele>261.0</ele><time>2026-05-03T13:04:39.161Z</time></trkpt><trkpt lat="44.8018381" lon="7.4723125"><ele>261.0</ele><time>2026-05-03T13:04:40.159Z</time></trkpt><trkpt lat="44.8019343" lon="7.4721711"><ele>261.0</ele><time>2026-05-03T13:04:41.164Z</time></trkpt><trkpt lat="44.802026" lon="7.4720408"><ele>261.0</ele><time>2026-05-03T13:04:42.169Z</time></trkpt><trkpt lat="44.8021258" lon="7.4719127"><ele>261.0</ele><time>2026-05-03T13:04:43.165Z</time></trkpt><trkpt lat="44.8022334" lon="7.4717763"><ele>262.0</ele><time>2026-05-03T13:04:44.169Z</time></trkpt><trkpt lat="44.8023417" lon="7.4716416"><ele>263.0</ele><time>2026-05-03T13:04:45.182Z</time></trkpt><trkpt lat="44.8024416" lon="7.4715057"><ele>264.0</ele><time>2026-05-03T13:04:46.172Z</time></trkpt><trkpt lat="44.8025258" lon="7.4713578"><ele>265.0</ele><time>2026-05-03T13:04:47.178Z</time></trkpt><trkpt lat="44.8025925" lon="7.4711902"><ele>265.25</ele><time>2026-05-03T13:04:48.175Z</time></trkpt><trkpt lat="44.802659" lon="7.4710124"><ele>265.5</ele><time>2026-05-03T13:04:49.168Z</time></trkpt><trkpt lat="44.8027315" lon="7.4708361"><ele>265.75</ele><time>2026-05-03T13:04:50.151Z</time></trkpt><trkpt lat="44.8028065" lon="7.4706557"><ele>266.0</ele><time>2026-05-03T13:04:51.169Z</time></trkpt><trkpt lat="44.802876" lon="7.4704816"><ele>265.25</ele><time>2026-05-03T13:04:52.156Z</time></trkpt><trkpt lat="44.8029481" lon="7.4703218"><ele>264.5</ele><time>2026-05-03T13:04:53.175Z</time></trkpt><trkpt lat="44.8030185" lon="7.4701639"><ele>263.75</ele><time>2026-05-03T13:04:54.176Z</time></trkpt><trkpt lat="44.8030832" lon="7.4700126"><ele>263.0</ele><time>2026-05-03T13:04:55.171Z</time></trkpt><trkpt lat="44.8031432" lon="7.4698536"><ele>263.0</ele><time>2026-05-03T13:04:56.174Z</time></trkpt><trkpt lat="44.8032012" lon="7.469677"><ele>263.0</ele><time>2026-05-03T13:04:57.169Z</time></trkpt><trkpt lat="44.8032506" lon="7.4694913"><ele>263.0</ele><time>2026-05-03T13:04:58.157Z</time></trkpt><trkpt lat="44.8032986" lon="7.4693026"><ele>263.0</ele><time>2026-05-03T13:04:59.16Z</time></trkpt><trkpt lat="44.8033514" lon="7.4691162"><ele>263.0</ele><time>2026-05-03T13:05:00.168Z</time></trkpt><trkpt lat="44.8033989" lon="7.4689369"><ele>263.0</ele><time>2026-05-03T13:05:01.165Z</time></trkpt><trkpt lat="44.8034398" lon="7.468781"><ele>263.0</ele><time>2026-05-03T13:05:02.176Z</time></trkpt><trkpt lat="44.8034783" lon="7.4686383"><ele>263.0</ele><time>2026-05-03T13:05:03.17Z</time></trkpt><trkpt lat="44.8035158" lon="7.4685154"><ele>263.1666666666667</ele><time>2026-05-03T13:05:04.167Z</time></trkpt><trkpt lat="44.8035466" lon="7.468408"><ele>263.33333333333337</ele><time>2026-05-03T13:05:05.162Z</time></trkpt><trkpt lat="44.8035861" lon="7.4683243"><ele>263.5</ele><time>2026-05-03T13:05:06.169Z</time></trkpt><trkpt lat="44.8036898" lon="7.468235"><ele>263.6666666666667</ele><time>2026-05-03T13:05:08.165Z</time></trkpt><trkpt lat="44.8037578" lon="7.468211"><ele>263.8333333333333</ele><time>2026-05-03T13:05:09.172Z</time></trkpt><trkpt lat="44.8038342" lon="7.468194"><ele>264.0</ele><time>2026-05-03T13:05:10.17Z</time></trkpt><trkpt lat="44.8039212" lon="7.4681759"><ele>264.0</ele><time>2026-05-03T13:05:11.159Z</time></trkpt><trkpt lat="44.8040171" lon="7.4681419"><ele>264.0</ele><time>2026-05-03T13:05:12.179Z</time></trkpt><trkpt lat="44.8041185" lon="7.4681186"><ele>264.0</ele><time>2026-05-03T13:05:13.176Z</time></trkpt><trkpt lat="44.8042172" lon="7.468091"><ele>264.0</ele><time>2026-05-03T13:05:14.17Z</time></trkpt><trkpt lat="44.8043243" lon="7.4680637"><ele>264.0</ele><time>2026-05-03T13:05:15.17Z</time></trkpt><trkpt lat="44.8044354" lon="7.4680304"><ele>264.0</ele><time>2026-05-03T13:05:16.168Z</time></trkpt><trkpt lat="44.8045397" lon="7.4680011"><ele>264.0</ele><time>2026-05-03T13:05:17.162Z</time></trkpt><trkpt lat="44.804637" lon="7.467968"><ele>264.0</ele><time>2026-05-03T13:05:18.167Z</time></trkpt><trkpt lat="44.8047257" lon="7.4679398"><ele>264.0</ele><time>2026-05-03T13:05:19.167Z</time></trkpt><trkpt lat="44.8048068" lon="7.4679048"><ele>264.0</ele><time>2026-05-03T13:05:20.173Z</time></trkpt><trkpt lat="44.8048718" lon="7.4679001"><ele>264.0</ele><time>2026-05-03T13:05:21.176Z</time></trkpt><trkpt lat="44.8049551" lon="7.467938"><ele>264.4</ele><time>2026-05-03T13:05:23.169Z</time></trkpt><trkpt lat="44.8050146" lon="7.4680697"><ele>264.79999999999995</ele><time>2026-05-03T13:05:25.165Z</time></trkpt><trkpt lat="44.8050476" lon="7.468159"><ele>265.20000000000005</ele><time>2026-05-03T13:05:26.174Z</time></trkpt><trkpt lat="44.8050798" lon="7.4682632"><ele>265.6</ele><time>2026-05-03T13:05:27.173Z</time></trkpt><trkpt lat="44.8051154" lon="7.4683855"><ele>266.0</ele><time>2026-05-03T13:05:28.166Z</time></trkpt><trkpt lat="44.8051494" lon="7.4685167"><ele>265.6</ele><time>2026-05-03T13:05:29.153Z</time></trkpt><trkpt lat="44.8051887" lon="7.4686532"><ele>265.20000000000005</ele><time>2026-05-03T13:05:30.17Z</time></trkpt><trkpt lat="44.8052258" lon="7.4687936"><ele>264.79999999999995</ele><time>2026-05-03T13:05:31.173Z</time></trkpt><trkpt lat="44.8052688" lon="7.468927"><ele>264.4</ele><time>2026-05-03T13:05:32.169Z</time></trkpt><trkpt lat="44.8053175" lon="7.4690567"><ele>264.0</ele><time>2026-05-03T13:05:33.163Z</time></trkpt><trkpt lat="44.8053669" lon="7.4691761"><ele>264.0</ele><time>2026-05-03T13:05:34.174Z</time></trkpt><trkpt lat="44.8054087" lon="7.4692904"><ele>264.0</ele><time>2026-05-03T13:05:35.175Z</time></trkpt><trkpt lat="44.8054498" lon="7.4693993"><ele>264.0</ele><time>2026-05-03T13:05:36.173Z</time></trkpt><trkpt lat="44.80549" lon="7.4695126"><ele>264.0</ele><time>2026-05-03T13:05:37.165Z</time></trkpt><trkpt lat="44.8055282" lon="7.469623"><ele>264.0</ele><time>2026-05-03T13:05:38.169Z</time></trkpt><trkpt lat="44.8055595" lon="7.4697345"><ele>264.0</ele><time>2026-05-03T13:05:39.173Z</time></trkpt><trkpt lat="44.8055921" lon="7.4698347"><ele>264.0</ele><time>2026-05-03T13:05:40.173Z</time></trkpt><trkpt lat="44.8056434" lon="7.4699883"><ele>264.0</ele><time>2026-05-03T13:05:42.166Z</time></trkpt><trkpt lat="44.8056843" lon="7.4700993"><ele>264.0</ele><time>2026-05-03T13:05:44.17Z</time></trkpt><trkpt lat="44.8057311" lon="7.4701742"><ele>264.0</ele><time>2026-05-03T13:05:47.168Z</time></trkpt><trkpt lat="44.8058325" lon="7.4702542"><ele>264.0</ele><time>2026-05-03T13:06:17.165Z</time></trkpt><trkpt lat="44.8058672" lon="7.4703406"><ele>264.0</ele><time>2026-05-03T13:06:18.169Z</time></trkpt><trkpt lat="44.805901" lon="7.4704221"><ele>264.0</ele><time>2026-05-03T13:06:19.176Z</time></trkpt><trkpt lat="44.8059485" lon="7.4705814"><ele>264.0</ele><time>2026-05-03T13:06:21.179Z</time></trkpt><trkpt lat="44.8059961" lon="7.4706768"><ele>264.0</ele><time>2026-05-03T13:06:22.175Z</time></trkpt><trkpt lat="44.8060246" lon="7.4707834"><ele>264.0</ele><time>2026-05-03T13:06:23.161Z</time></trkpt><trkpt lat="44.8060628" lon="7.4708896"><ele>264.0</ele><time>2026-05-03T13:06:24.179Z</time></trkpt><trkpt lat="44.8061045" lon="7.4709958"><ele>263.6666666666667</ele><time>2026-05-03T13:06:25.183Z</time></trkpt><trkpt lat="44.806142" lon="7.4710946"><ele>263.3333333333333</ele><time>2026-05-03T13:06:26.181Z</time></trkpt><trkpt lat="44.8061789" lon="7.4711947"><ele>263.0</ele><time>2026-05-03T13:06:27.181Z</time></trkpt><trkpt lat="44.8062161" lon="7.4713055"><ele>262.66666666666663</ele><time>2026-05-03T13:06:28.174Z</time></trkpt><trkpt lat="44.8062535" lon="7.4714131"><ele>262.3333333333333</ele><time>2026-05-03T13:06:29.178Z</time></trkpt><trkpt lat="44.8062856" lon="7.4715098"><ele>262.0</ele><time>2026-05-03T13:06:30.183Z</time></trkpt><trkpt lat="44.8063162" lon="7.4715999"><ele>261.66666666666663</ele><time>2026-05-03T13:06:31.163Z</time></trkpt><trkpt lat="44.8063495" lon="7.4716916"><ele>261.3333333333333</ele><time>2026-05-03T13:06:32.167Z</time></trkpt><trkpt lat="44.8063855" lon="7.4717954"><ele>261.0</ele><time>2026-05-03T13:06:33.161Z</time></trkpt><trkpt lat="44.8064246" lon="7.4718986"><ele>260.6666666666667</ele><time>2026-05-03T13:06:34.169Z</time></trkpt><trkpt lat="44.8064662" lon="7.4720146"><ele>260.33333333333337</ele><time>2026-05-03T13:06:35.161Z</time></trkpt><trkpt lat="44.8065115" lon="7.4721407"><ele>260.0</ele><time>2026-05-03T13:06:36.169Z</time></trkpt><trkpt lat="44.8065546" lon="7.4722651"><ele>260.0</ele><time>2026-05-03T13:06:37.158Z</time></trkpt><trkpt lat="44.8065989" lon="7.4723933"><ele>260.0</ele><time>2026-05-03T13:06:38.167Z</time></trkpt><trkpt lat="44.8066375" lon="7.4725111"><ele>260.0</ele><time>2026-05-03T13:06:39.155Z</time></trkpt><trkpt lat="44.8066789" lon="7.4726292"><ele>260.0</ele><time>2026-05-03T13:06:40.155Z</time></trkpt><trkpt lat="44.8067272" lon="7.4727552"><ele>260.0</ele><time>2026-05-03T13:06:41.167Z</time></trkpt><trkpt lat="44.8067721" lon="7.4728877"><ele>260.4</ele><time>2026-05-03T13:06:42.155Z</time></trkpt><trkpt lat="44.8068166" lon="7.4730197"><ele>260.8</ele><time>2026-05-03T13:06:43.168Z</time></trkpt><trkpt lat="44.80686" lon="7.4731492"><ele>261.2</ele><time>2026-05-03T13:06:44.157Z</time></trkpt><trkpt lat="44.8069012" lon="7.4732673"><ele>261.6</ele><time>2026-05-03T13:06:45.165Z</time></trkpt><trkpt lat="44.806943" lon="7.4733853"><ele>262.0</ele><time>2026-05-03T13:06:46.16Z</time></trkpt><trkpt lat="44.8069868" lon="7.4735079"><ele>262.0</ele><time>2026-05-03T13:06:47.155Z</time></trkpt><trkpt lat="44.8070325" lon="7.4736373"><ele>262.0</ele><time>2026-05-03T13:06:48.157Z</time></trkpt><trkpt lat="44.8070784" lon="7.4737721"><ele>262.0</ele><time>2026-05-03T13:06:49.152Z</time></trkpt><trkpt lat="44.8071202" lon="7.473899"><ele>262.0</ele><time>2026-05-03T13:06:50.163Z</time></trkpt><trkpt lat="44.8071668" lon="7.4740143"><ele>262.0</ele><time>2026-05-03T13:06:51.164Z</time></trkpt><trkpt lat="44.8072128" lon="7.4741349"><ele>262.0</ele><time>2026-05-03T13:06:52.174Z</time></trkpt><trkpt lat="44.8072607" lon="7.4742668"><ele>262.0</ele><time>2026-05-03T13:06:53.148Z</time></trkpt><trkpt lat="44.8073039" lon="7.4743947"><ele>262.0</ele><time>2026-05-03T13:06:54.159Z</time></trkpt><trkpt lat="44.8073461" lon="7.4745223"><ele>262.0</ele><time>2026-05-03T13:06:55.157Z</time></trkpt><trkpt lat="44.8073916" lon="7.4746479"><ele>262.0</ele><time>2026-05-03T13:06:56.154Z</time></trkpt><trkpt lat="44.8074386" lon="7.4747797"><ele>262.0</ele><time>2026-05-03T13:06:57.156Z</time></trkpt><trkpt lat="44.8074842" lon="7.474902"><ele>262.0</ele><time>2026-05-03T13:06:58.156Z</time></trkpt><trkpt lat="44.8075264" lon="7.4750211"><ele>262.0</ele><time>2026-05-03T13:06:59.17Z</time></trkpt><trkpt lat="44.8075673" lon="7.4751448"><ele>262.0</ele><time>2026-05-03T13:07:00.161Z</time></trkpt><trkpt lat="44.8076044" lon="7.4752633"><ele>262.0</ele><time>2026-05-03T13:07:01.172Z</time></trkpt><trkpt lat="44.8076367" lon="7.4753723"><ele>262.66666666666663</ele><time>2026-05-03T13:07:02.157Z</time></trkpt><trkpt lat="44.8076651" lon="7.4754712"><ele>263.3333333333333</ele><time>2026-05-03T13:07:03.149Z</time></trkpt><trkpt lat="44.8076992" lon="7.4755785"><ele>264.0</ele><time>2026-05-03T13:07:04.155Z</time></trkpt><trkpt lat="44.8077378" lon="7.4756653"><ele>264.6666666666667</ele><time>2026-05-03T13:07:05.15Z</time></trkpt><trkpt lat="44.8077792" lon="7.4757382"><ele>265.33333333333337</ele><time>2026-05-03T13:07:06.159Z</time></trkpt><trkpt lat="44.8078227" lon="7.4758283"><ele>266.0</ele><time>2026-05-03T13:07:07.154Z</time></trkpt><trkpt lat="44.8078653" lon="7.4759324"><ele>266.0</ele><time>2026-05-03T13:07:08.162Z</time></trkpt><trkpt lat="44.807898" lon="7.476045"><ele>266.0</ele><time>2026-05-03T13:07:09.151Z</time></trkpt><trkpt lat="44.8079193" lon="7.4761643"><ele>266.0</ele><time>2026-05-03T13:07:10.156Z</time></trkpt><trkpt lat="44.8079419" lon="7.4762716"><ele>266.0</ele><time>2026-05-03T13:07:11.158Z</time></trkpt><trkpt lat="44.8079661" lon="7.4763717"><ele>266.0</ele><time>2026-05-03T13:07:12.159Z</time></trkpt><trkpt lat="44.8080148" lon="7.4764355"><ele>266.0</ele><time>2026-05-03T13:07:13.175Z</time></trkpt><trkpt lat="44.8080025" lon="7.476593"><ele>265.5</ele><time>2026-05-03T13:07:15.157Z</time></trkpt><trkpt lat="44.8079604" lon="7.4766857"><ele>265.0</ele><time>2026-05-03T13:07:16.167Z</time></trkpt><trkpt lat="44.8079004" lon="7.4768005"><ele>264.5</ele><time>2026-05-03T13:07:17.147Z</time></trkpt><trkpt lat="44.8078503" lon="7.4769279"><ele>264.0</ele><time>2026-05-03T13:07:18.151Z</time></trkpt><trkpt lat="44.8078055" lon="7.4770379"><ele>263.5</ele><time>2026-05-03T13:07:19.169Z</time></trkpt><trkpt lat="44.8077644" lon="7.4771253"><ele>263.0</ele><time>2026-05-03T13:07:20.159Z</time></trkpt><trkpt lat="44.8076907" lon="7.477206"><ele>262.8</ele><time>2026-05-03T13:07:22.163Z</time></trkpt><trkpt lat="44.8076183" lon="7.4772418"><ele>262.6</ele><time>2026-05-03T13:07:25.162Z</time></trkpt><trkpt lat="44.8074945" lon="7.4772439"><ele>262.4</ele><time>2026-05-03T13:07:27.164Z</time></trkpt><trkpt lat="44.8074087" lon="7.4772265"><ele>262.2</ele><time>2026-05-03T13:07:28.17Z</time></trkpt><trkpt lat="44.8073062" lon="7.4771927"><ele>262.0</ele><time>2026-05-03T13:07:29.171Z</time></trkpt><trkpt lat="44.8071998" lon="7.4771674"><ele>262.0</ele><time>2026-05-03T13:07:30.159Z</time></trkpt><trkpt lat="44.8070819" lon="7.4771386"><ele>262.0</ele><time>2026-05-03T13:07:31.155Z</time></trkpt><trkpt lat="44.8069614" lon="7.4771095"><ele>262.0</ele><time>2026-05-03T13:07:32.172Z</time></trkpt><trkpt lat="44.80683" lon="7.4770777"><ele>262.0</ele><time>2026-05-03T13:07:33.166Z</time></trkpt><trkpt lat="44.8066968" lon="7.4770471"><ele>261.25</ele><time>2026-05-03T13:07:34.157Z</time></trkpt><trkpt lat="44.8065605" lon="7.4770165"><ele>260.5</ele><time>2026-05-03T13:07:35.158Z</time></trkpt><trkpt lat="44.8064199" lon="7.4769872"><ele>259.75</ele><time>2026-05-03T13:07:36.158Z</time></trkpt><trkpt lat="44.80629" lon="7.4769652"><ele>259.0</ele><time>2026-05-03T13:07:37.165Z</time></trkpt><trkpt lat="44.8061684" lon="7.4769396"><ele>259.0</ele><time>2026-05-03T13:07:38.163Z</time></trkpt><trkpt lat="44.806061" lon="7.4769129"><ele>259.0</ele><time>2026-05-03T13:07:39.155Z</time></trkpt><trkpt lat="44.805958" lon="7.4768943"><ele>259.0</ele><time>2026-05-03T13:07:40.155Z</time></trkpt><trkpt lat="44.8058659" lon="7.4768808"><ele>259.0</ele><time>2026-05-03T13:07:41.164Z</time></trkpt><trkpt lat="44.8057887" lon="7.4768699"><ele>259.0</ele><time>2026-05-03T13:07:42.157Z</time></trkpt><trkpt lat="44.8057219" lon="7.476872"><ele>259.2</ele><time>2026-05-03T13:07:43.152Z</time></trkpt><trkpt lat="44.8056385" lon="7.4768669"><ele>259.4</ele><time>2026-05-03T13:07:45.152Z</time></trkpt><trkpt lat="44.8056019" lon="7.4769509"><ele>259.6</ele><time>2026-05-03T13:07:47.154Z</time></trkpt><trkpt lat="44.8056024" lon="7.4771192"><ele>259.8</ele><time>2026-05-03T13:07:49.157Z</time></trkpt><trkpt lat="44.8056127" lon="7.4772623"><ele>260.0</ele><time>2026-05-03T13:07:50.156Z</time></trkpt><trkpt lat="44.8056412" lon="7.4774315"><ele>260.0</ele><time>2026-05-03T13:07:51.16Z</time></trkpt><trkpt lat="44.8056577" lon="7.4775974"><ele>260.0</ele><time>2026-05-03T13:07:52.152Z</time></trkpt><trkpt lat="44.8056752" lon="7.4777506"><ele>260.0</ele><time>2026-05-03T13:07:53.155Z</time></trkpt><trkpt lat="44.8056965" lon="7.4778933"><ele>260.0</ele><time>2026-05-03T13:07:54.157Z</time></trkpt><trkpt lat="44.8057198" lon="7.4780196"><ele>260.0</ele><time>2026-05-03T13:07:55.153Z</time></trkpt><trkpt lat="44.8057444" lon="7.4781503"><ele>259.8571428571429</ele><time>2026-05-03T13:07:56.152Z</time></trkpt><trkpt lat="44.8057675" lon="7.4782644"><ele>259.7142857142857</ele><time>2026-05-03T13:07:57.161Z</time></trkpt><trkpt lat="44.8057825" lon="7.4783711"><ele>259.57142857142856</ele><time>2026-05-03T13:07:58.153Z</time></trkpt><trkpt lat="44.8057852" lon="7.4784664"><ele>259.42857142857144</ele><time>2026-05-03T13:07:59.16Z</time></trkpt><trkpt lat="44.8057788" lon="7.4785566"><ele>259.2857142857143</ele><time>2026-05-03T13:08:00.172Z</time></trkpt><trkpt lat="44.8057549" lon="7.4786396"><ele>259.14285714285717</ele><time>2026-05-03T13:08:01.155Z</time></trkpt><trkpt lat="44.8057209" lon="7.4787231"><ele>259.0</ele><time>2026-05-03T13:08:02.16Z</time></trkpt><trkpt lat="44.8056959" lon="7.478808"><ele>259.0</ele><time>2026-05-03T13:08:03.169Z</time></trkpt><trkpt lat="44.8057108" lon="7.4789831"><ele>259.0</ele><time>2026-05-03T13:08:05.156Z</time></trkpt><trkpt lat="44.8057395" lon="7.4790878"><ele>259.0</ele><time>2026-05-03T13:08:06.161Z</time></trkpt><trkpt lat="44.8057736" lon="7.4792058"><ele>259.0</ele><time>2026-05-03T13:08:07.155Z</time></trkpt><trkpt lat="44.8058152" lon="7.4793372"><ele>259.0</ele><time>2026-05-03T13:08:08.16Z</time></trkpt><trkpt lat="44.8058641" lon="7.4794578"><ele>259.0</ele><time>2026-05-03T13:08:09.165Z</time></trkpt><trkpt lat="44.805903" lon="7.4795698"><ele>259.0</ele><time>2026-05-03T13:08:10.158Z</time></trkpt><trkpt lat="44.8059398" lon="7.4796682"><ele>259.0</ele><time>2026-05-03T13:08:11.182Z</time></trkpt><trkpt lat="44.8059781" lon="7.4797594"><ele>259.0</ele><time>2026-05-03T13:08:12.163Z</time></trkpt><trkpt lat="44.8060147" lon="7.4798448"><ele>259.0</ele><time>2026-05-03T13:08:13.162Z</time></trkpt><trkpt lat="44.8060573" lon="7.4799174"><ele>259.0</ele><time>2026-05-03T13:08:14.155Z</time></trkpt><trkpt lat="44.806143" lon="7.4799965"><ele>259.2</ele><time>2026-05-03T13:08:16.159Z</time></trkpt><trkpt lat="44.8062513" lon="7.4799753"><ele>259.4</ele><time>2026-05-03T13:08:18.159Z</time></trkpt><trkpt lat="44.806321" lon="7.4799479"><ele>259.6</ele><time>2026-05-03T13:08:19.152Z</time></trkpt><trkpt lat="44.8064039" lon="7.4799211"><ele>259.8</ele><time>2026-05-03T13:08:20.16Z</time></trkpt><trkpt lat="44.8065034" lon="7.4798827"><ele>260.0</ele><time>2026-05-03T13:08:21.159Z</time></trkpt><trkpt lat="44.8065938" lon="7.479847"><ele>260.0</ele><time>2026-05-03T13:08:22.164Z</time></trkpt><trkpt lat="44.8066752" lon="7.4798158"><ele>260.0</ele><time>2026-05-03T13:08:23.159Z</time></trkpt><trkpt lat="44.8067488" lon="7.4797844"><ele>260.0</ele><time>2026-05-03T13:08:24.177Z</time></trkpt><trkpt lat="44.806815" lon="7.4797583"><ele>260.0</ele><time>2026-05-03T13:08:25.162Z</time></trkpt><trkpt lat="44.8069186" lon="7.4797393"><ele>260.0</ele><time>2026-05-03T13:08:27.157Z</time></trkpt><trkpt lat="44.8070061" lon="7.479821"><ele>260.0</ele><time>2026-05-03T13:08:29.163Z</time></trkpt><trkpt lat="44.8070356" lon="7.4799128"><ele>260.33333333333337</ele><time>2026-05-03T13:08:30.157Z</time></trkpt><trkpt lat="44.8070819" lon="7.480007"><ele>260.6666666666667</ele><time>2026-05-03T13:08:31.161Z</time></trkpt><trkpt lat="44.8071229" lon="7.480109"><ele>261.0</ele><time>2026-05-03T13:08:32.16Z</time></trkpt><trkpt lat="44.8071714" lon="7.4802061"><ele>261.3333333333333</ele><time>2026-05-03T13:08:33.157Z</time></trkpt><trkpt lat="44.8072309" lon="7.4802953"><ele>261.66666666666663</ele><time>2026-05-03T13:08:34.15Z</time></trkpt><trkpt lat="44.8072969" lon="7.4803862"><ele>262.0</ele><time>2026-05-03T13:08:35.16Z</time></trkpt><trkpt lat="44.8073472" lon="7.4804696"><ele>262.0</ele><time>2026-05-03T13:08:36.094Z</time></trkpt><trkpt lat="44.8073935" lon="7.4805679"><ele>262.0</ele><time>2026-05-03T13:08:37.117Z</time></trkpt><trkpt lat="44.8074293" lon="7.480655"><ele>262.0</ele><time>2026-05-03T13:08:38.101Z</time></trkpt><trkpt lat="44.8074689" lon="7.4807383"><ele>262.0</ele><time>2026-05-03T13:08:39.096Z</time></trkpt><trkpt lat="44.8075075" lon="7.4808247"><ele>262.0</ele><time>2026-05-03T13:08:40.101Z</time></trkpt><trkpt lat="44.8075528" lon="7.4809126"><ele>262.0</ele><time>2026-05-03T13:08:41.105Z</time></trkpt><trkpt lat="44.8075907" lon="7.4810044"><ele>262.0</ele><time>2026-05-03T13:08:42.106Z</time></trkpt><trkpt lat="44.8076233" lon="7.4810832"><ele>262.0</ele><time>2026-05-03T13:08:43.103Z</time></trkpt><trkpt lat="44.807659" lon="7.4811585"><ele>262.0</ele><time>2026-05-03T13:08:44.113Z</time></trkpt><trkpt lat="44.8077145" lon="7.4813149"><ele>262.0</ele><time>2026-05-03T13:08:46.097Z</time></trkpt><trkpt lat="44.8077276" lon="7.4814181"><ele>262.0</ele><time>2026-05-03T13:08:47.104Z</time></trkpt><trkpt lat="44.8077305" lon="7.4815268"><ele>262.0</ele><time>2026-05-03T13:08:48.098Z</time></trkpt><trkpt lat="44.8077187" lon="7.481643"><ele>261.66666666666663</ele><time>2026-05-03T13:08:49.104Z</time></trkpt><trkpt lat="44.8077084" lon="7.4817491"><ele>261.3333333333333</ele><time>2026-05-03T13:08:50.094Z</time></trkpt><trkpt lat="44.8077061" lon="7.4818527"><ele>261.0</ele><time>2026-05-03T13:08:51.117Z</time></trkpt><trkpt lat="44.8077041" lon="7.4819601"><ele>260.6666666666667</ele><time>2026-05-03T13:08:52.091Z</time></trkpt><trkpt lat="44.8076979" lon="7.4820792"><ele>260.33333333333337</ele><time>2026-05-03T13:08:53.099Z</time></trkpt><trkpt lat="44.8076898" lon="7.4822001"><ele>260.0</ele><time>2026-05-03T13:08:54.095Z</time></trkpt><trkpt lat="44.8076783" lon="7.4823185"><ele>260.00000000000006</ele><time>2026-05-03T13:08:55.105Z</time></trkpt><trkpt lat="44.8076744" lon="7.4824253"><ele>260.0</ele><time>2026-05-03T13:08:56.106Z</time></trkpt><trkpt lat="44.8076769" lon="7.4825318"><ele>260.0</ele><time>2026-05-03T13:08:57.098Z</time></trkpt><trkpt lat="44.807691" lon="7.4826209"><ele>260.0</ele><time>2026-05-03T13:08:58.1Z</time></trkpt><trkpt lat="44.8077254" lon="7.4827003"><ele>260.0</ele><time>2026-05-03T13:08:59.097Z</time></trkpt><trkpt lat="44.8077712" lon="7.4827778"><ele>260.00000000000006</ele><time>2026-05-03T13:09:00.112Z</time></trkpt><trkpt lat="44.8078237" lon="7.482862"><ele>260.0</ele><time>2026-05-03T13:09:01.122Z</time></trkpt><trkpt lat="44.8078571" lon="7.4829478"><ele>260.0</ele><time>2026-05-03T13:09:02.107Z</time></trkpt><trkpt lat="44.8078814" lon="7.4830597"><ele>260.0</ele><time>2026-05-03T13:09:03.097Z</time></trkpt><trkpt lat="44.8079094" lon="7.4831838"><ele>260.0</ele><time>2026-05-03T13:09:04.095Z</time></trkpt><trkpt lat="44.8079346" lon="7.483302"><ele>260.0</ele><time>2026-05-03T13:09:05.1Z</time></trkpt><trkpt lat="44.8079578" lon="7.4834001"><ele>260.0</ele><time>2026-05-03T13:09:06.101Z</time></trkpt><trkpt lat="44.8079722" lon="7.4834914"><ele>260.0</ele><time>2026-05-03T13:09:07.105Z</time></trkpt><trkpt lat="44.8079913" lon="7.4835789"><ele>260.0</ele><time>2026-05-03T13:09:08.102Z</time></trkpt><trkpt lat="44.8080114" lon="7.4836715"><ele>260.0</ele><time>2026-05-03T13:09:09.092Z</time></trkpt><trkpt lat="44.8080301" lon="7.4837563"><ele>260.0</ele><time>2026-05-03T13:09:10.103Z</time></trkpt><trkpt lat="44.8080573" lon="7.4839119"><ele>260.0</ele><time>2026-05-03T13:09:12.123Z</time></trkpt><trkpt lat="44.8080889" lon="7.4840359"><ele>260.0</ele><time>2026-05-03T13:09:14.099Z</time></trkpt><trkpt lat="44.8081485" lon="7.4840883"><ele>260.0</ele><time>2026-05-03T13:09:16.097Z</time></trkpt><trkpt lat="44.8082655" lon="7.4840561"><ele>260.0</ele><time>2026-05-03T13:09:19.152Z</time></trkpt><trkpt lat="44.8083646" lon="7.4840008"><ele>260.0</ele><time>2026-05-03T13:09:21.16Z</time></trkpt><trkpt lat="44.8084488" lon="7.4839754"><ele>260.0</ele><time>2026-05-03T13:09:23.157Z</time></trkpt><trkpt lat="44.808512" lon="7.4839492"><ele>260.0</ele><time>2026-05-03T13:09:34.157Z</time></trkpt><trkpt lat="44.8085687" lon="7.4839072"><ele>260.0</ele><time>2026-05-03T13:09:36.161Z</time></trkpt><trkpt lat="44.8086485" lon="7.483831"><ele>260.0</ele><time>2026-05-03T13:09:38.157Z</time></trkpt><trkpt lat="44.8087071" lon="7.4837721"><ele>260.1666666666667</ele><time>2026-05-03T13:09:40.157Z</time></trkpt><trkpt lat="44.8087768" lon="7.4836894"><ele>260.33333333333337</ele><time>2026-05-03T13:09:43.158Z</time></trkpt><trkpt lat="44.8088336" lon="7.4836201"><ele>260.5</ele><time>2026-05-03T13:09:45.156Z</time></trkpt><trkpt lat="44.8088912" lon="7.4835572"><ele>260.6666666666667</ele><time>2026-05-03T13:09:48.152Z</time></trkpt><trkpt lat="44.8089365" lon="7.483475"><ele>260.8333333333333</ele><time>2026-05-03T13:10:15.156Z</time></trkpt><trkpt lat="44.808978" lon="7.483367"><ele>261.0</ele><time>2026-05-03T13:10:17.157Z</time></trkpt><trkpt lat="44.8089338" lon="7.4834409"><ele>261.0</ele><time>2026-05-03T13:10:40.104Z</time></trkpt><trkpt lat="44.8088584" lon="7.4835885"><ele>261.0</ele><time>2026-05-03T13:10:42.1Z</time></trkpt><trkpt lat="44.8087914" lon="7.4836507"><ele>261.0</ele><time>2026-05-03T13:10:43.094Z</time></trkpt><trkpt lat="44.8087261" lon="7.4837144"><ele>261.0</ele><time>2026-05-03T13:10:44.103Z</time></trkpt><trkpt lat="44.808657" lon="7.4837748"><ele>261.0</ele><time>2026-05-03T13:10:45.095Z</time></trkpt><trkpt lat="44.8085948" lon="7.4838436"><ele>261.0</ele><time>2026-05-03T13:10:46.098Z</time></trkpt><trkpt lat="44.8085386" lon="7.4839039"><ele>260.8333333333333</ele><time>2026-05-03T13:10:47.094Z</time></trkpt><trkpt lat="44.8084788" lon="7.483947"><ele>260.6666666666667</ele><time>2026-05-03T13:10:48.094Z</time></trkpt><trkpt lat="44.8084078" lon="7.4839773"><ele>260.5</ele><time>2026-05-03T13:10:49.092Z</time></trkpt><trkpt lat="44.8083265" lon="7.4840017"><ele>260.33333333333337</ele><time>2026-05-03T13:10:50.101Z</time></trkpt><trkpt lat="44.8082514" lon="7.4840323"><ele>260.1666666666667</ele><time>2026-05-03T13:10:51.099Z</time></trkpt><trkpt lat="44.8081869" lon="7.48406"><ele>260.0</ele><time>2026-05-03T13:10:52.104Z</time></trkpt><trkpt lat="44.8080893" lon="7.484104"><ele>260.0</ele><time>2026-05-03T13:10:54.1Z</time></trkpt><trkpt lat="44.8080532" lon="7.4841804"><ele>260.0</ele><time>2026-05-03T13:10:56.11Z</time></trkpt><trkpt lat="44.8080035" lon="7.4843955"><ele>260.0</ele><time>2026-05-03T13:10:58.104Z</time></trkpt><trkpt lat="44.8079887" lon="7.4845406"><ele>260.0</ele><time>2026-05-03T13:10:59.112Z</time></trkpt><trkpt lat="44.8079801" lon="7.4846393"><ele>260.0</ele><time>2026-05-03T13:11:00.096Z</time></trkpt><trkpt lat="44.8079699" lon="7.4847829"><ele>259.6666666666667</ele><time>2026-05-03T13:11:02.095Z</time></trkpt><trkpt lat="44.8080087" lon="7.4848891"><ele>259.33333333333337</ele><time>2026-05-03T13:11:04.101Z</time></trkpt><trkpt lat="44.8080646" lon="7.4849374"><ele>259.0</ele><time>2026-05-03T13:11:05.101Z</time></trkpt><trkpt lat="44.8081383" lon="7.4849606"><ele>258.6666666666667</ele><time>2026-05-03T13:11:06.105Z</time></trkpt><trkpt lat="44.8082324" lon="7.484977"><ele>258.3333333333333</ele><time>2026-05-03T13:11:07.099Z</time></trkpt><trkpt lat="44.8083138" lon="7.4850006"><ele>258.0</ele><time>2026-05-03T13:11:08.098Z</time></trkpt><trkpt lat="44.8083748" lon="7.4850236"><ele>258.0</ele><time>2026-05-03T13:11:09.105Z</time></trkpt><trkpt lat="44.8084434" lon="7.4850476"><ele>258.0</ele><time>2026-05-03T13:11:10.088Z</time></trkpt><trkpt lat="44.8085282" lon="7.4850714"><ele>258.0</ele><time>2026-05-03T13:11:11.112Z</time></trkpt><trkpt lat="44.8086247" lon="7.4850974"><ele>258.0</ele><time>2026-05-03T13:11:12.096Z</time></trkpt><trkpt lat="44.808722" lon="7.4851291"><ele>258.0</ele><time>2026-05-03T13:11:13.107Z</time></trkpt><trkpt lat="44.8088082" lon="7.4851542"><ele>258.0</ele><time>2026-05-03T13:11:14.094Z</time></trkpt><trkpt lat="44.8088786" lon="7.4851789"><ele>258.0</ele><time>2026-05-03T13:11:15.104Z</time></trkpt><trkpt lat="44.8089394" lon="7.4852058"><ele>258.0</ele><time>2026-05-03T13:11:16.1Z</time></trkpt><trkpt lat="44.8090297" lon="7.4852303"><ele>258.0</ele><time>2026-05-03T13:11:18.116Z</time></trkpt><trkpt lat="44.8091037" lon="7.4852525"><ele>258.0</ele><time>2026-05-03T13:11:21.097Z</time></trkpt><trkpt lat="44.8091687" lon="7.4853094"><ele>258.0</ele><time>2026-05-03T13:11:25.096Z</time></trkpt><trkpt lat="44.8091783" lon="7.4854072"><ele>258.0</ele><time>2026-05-03T13:11:27.101Z</time></trkpt><trkpt lat="44.8091405" lon="7.4855403"><ele>258.0</ele><time>2026-05-03T13:11:29.104Z</time></trkpt><trkpt lat="44.8090975" lon="7.4856443"><ele>258.0</ele><time>2026-05-03T13:11:31.107Z</time></trkpt><trkpt lat="44.8090621" lon="7.4857486"><ele>258.0</ele><time>2026-05-03T13:11:33.097Z</time></trkpt><trkpt lat="44.8090315" lon="7.4858507"><ele>258.0</ele><time>2026-05-03T13:11:35.1Z</time></trkpt><trkpt lat="44.808976" lon="7.485982"><ele>258.0</ele><time>2026-05-03T13:11:37.104Z</time></trkpt><trkpt lat="44.8089343" lon="7.4860947"><ele>258.0</ele><time>2026-05-03T13:11:39.109Z</time></trkpt><trkpt lat="44.8088825" lon="7.4862307"><ele>258.0</ele><time>2026-05-03T13:11:41.1Z</time></trkpt><trkpt lat="44.8088529" lon="7.486321"><ele>258.0</ele><time>2026-05-03T13:11:42.098Z</time></trkpt><trkpt lat="44.8088314" lon="7.486421"><ele>258.0</ele><time>2026-05-03T13:11:43.104Z</time></trkpt><trkpt lat="44.808823" lon="7.486532"><ele>258.0</ele><time>2026-05-03T13:11:44.111Z</time></trkpt><trkpt lat="44.8088246" lon="7.4866446"><ele>258.0</ele><time>2026-05-03T13:11:45.097Z</time></trkpt><trkpt lat="44.8088352" lon="7.4867629"><ele>258.0</ele><time>2026-05-03T13:11:46.1Z</time></trkpt><trkpt lat="44.8088476" lon="7.4868933"><ele>258.0</ele><time>2026-05-03T13:11:47.099Z</time></trkpt><trkpt lat="44.8088626" lon="7.4870227"><ele>258.0</ele><time>2026-05-03T13:11:48.104Z</time></trkpt><trkpt lat="44.8088753" lon="7.4871603"><ele>258.0</ele><time>2026-05-03T13:11:49.104Z</time></trkpt><trkpt lat="44.8088875" lon="7.4873037"><ele>258.0</ele><time>2026-05-03T13:11:50.093Z</time></trkpt><trkpt lat="44.8088978" lon="7.4874459"><ele>258.0</ele><time>2026-05-03T13:11:51.101Z</time></trkpt><trkpt lat="44.8089144" lon="7.4875778"><ele>257.8</ele><time>2026-05-03T13:11:52.094Z</time></trkpt><trkpt lat="44.8089307" lon="7.4877098"><ele>257.6</ele><time>2026-05-03T13:11:53.102Z</time></trkpt><trkpt lat="44.808944" lon="7.4878473"><ele>257.4</ele><time>2026-05-03T13:11:54.109Z</time></trkpt><trkpt lat="44.8089574" lon="7.4879817"><ele>257.2</ele><time>2026-05-03T13:11:55.092Z</time></trkpt><trkpt lat="44.8089672" lon="7.4881135"><ele>257.0</ele><time>2026-05-03T13:11:56.1Z</time></trkpt><trkpt lat="44.808982" lon="7.488236"><ele>256.83333333333337</ele><time>2026-05-03T13:11:57.105Z</time></trkpt><trkpt lat="44.8089962" lon="7.4883384"><ele>256.6666666666667</ele><time>2026-05-03T13:11:58.094Z</time></trkpt><trkpt lat="44.8090122" lon="7.4884315"><ele>256.5</ele><time>2026-05-03T13:11:59.106Z</time></trkpt><trkpt lat="44.8090788" lon="7.4885406"><ele>256.3333333333333</ele><time>2026-05-03T13:12:01.109Z</time></trkpt><trkpt lat="44.8092013" lon="7.488568"><ele>256.16666666666663</ele><time>2026-05-03T13:12:03.103Z</time></trkpt><trkpt lat="44.80927" lon="7.4885552"><ele>256.0</ele><time>2026-05-03T13:12:04.1Z</time></trkpt><trkpt lat="44.8093428" lon="7.4885358"><ele>256.0</ele><time>2026-05-03T13:12:05.103Z</time></trkpt><trkpt lat="44.8094054" lon="7.4885158"><ele>256.0</ele><time>2026-05-03T13:12:06.102Z</time></trkpt><trkpt lat="44.8095027" lon="7.4885743"><ele>256.0</ele><time>2026-05-03T13:12:08.11Z</time></trkpt><trkpt lat="44.8095516" lon="7.4886644"><ele>256.0</ele><time>2026-05-03T13:12:09.106Z</time></trkpt><trkpt lat="44.8096206" lon="7.4887817"><ele>256.0</ele><time>2026-05-03T13:12:10.104Z</time></trkpt><trkpt lat="44.809699" lon="7.4889123"><ele>256.0</ele><time>2026-05-03T13:12:11.107Z</time></trkpt><trkpt lat="44.8097717" lon="7.4890202"><ele>256.0</ele><time>2026-05-03T13:12:12.095Z</time></trkpt><trkpt lat="44.809829" lon="7.4891162"><ele>256.0</ele><time>2026-05-03T13:12:13.102Z</time></trkpt><trkpt lat="44.8098778" lon="7.4891962"><ele>256.0</ele><time>2026-05-03T13:12:14.086Z</time></trkpt><trkpt lat="44.8099184" lon="7.4892729"><ele>256.0</ele><time>2026-05-03T13:12:15.114Z</time></trkpt><trkpt lat="44.809986" lon="7.4894274"><ele>255.99999999999997</ele><time>2026-05-03T13:12:17.113Z</time></trkpt><trkpt lat="44.8100105" lon="7.489511"><ele>256.0</ele><time>2026-05-03T13:12:18.097Z</time></trkpt><trkpt lat="44.8100273" lon="7.4896043"><ele>256.0</ele><time>2026-05-03T13:12:19.102Z</time></trkpt><trkpt lat="44.8100545" lon="7.4897841"><ele>256.0</ele><time>2026-05-03T13:12:21.102Z</time></trkpt><trkpt lat="44.8100756" lon="7.4898859"><ele>255.99999999999997</ele><time>2026-05-03T13:12:22.108Z</time></trkpt><trkpt lat="44.8100942" lon="7.4899901"><ele>256.0</ele><time>2026-05-03T13:12:23.108Z</time></trkpt><trkpt lat="44.8101095" lon="7.4900834"><ele>255.8</ele><time>2026-05-03T13:12:24.116Z</time></trkpt><trkpt lat="44.8101279" lon="7.4902501"><ele>255.60000000000002</ele><time>2026-05-03T13:12:26.103Z</time></trkpt><trkpt lat="44.8101559" lon="7.4904298"><ele>255.4</ele><time>2026-05-03T13:12:28.107Z</time></trkpt><trkpt lat="44.8101695" lon="7.4905293"><ele>255.2</ele><time>2026-05-03T13:12:29.108Z</time></trkpt><trkpt lat="44.810184" lon="7.4906248"><ele>255.0</ele><time>2026-05-03T13:12:30.093Z</time></trkpt><trkpt lat="44.8101927" lon="7.4907161"><ele>255.2857142857143</ele><time>2026-05-03T13:12:31.099Z</time></trkpt><trkpt lat="44.810197" lon="7.4908101"><ele>255.5714285714286</ele><time>2026-05-03T13:12:32.103Z</time></trkpt><trkpt lat="44.810199" lon="7.4909008"><ele>255.85714285714286</ele><time>2026-05-03T13:12:33.1Z</time></trkpt><trkpt lat="44.8102035" lon="7.4909924"><ele>256.14285714285717</ele><time>2026-05-03T13:12:34.101Z</time></trkpt><trkpt lat="44.8102065" lon="7.491094"><ele>256.42857142857144</ele><time>2026-05-03T13:12:35.11Z</time></trkpt><trkpt lat="44.8102124" lon="7.4912072"><ele>256.7142857142857</ele><time>2026-05-03T13:12:36.106Z</time></trkpt><trkpt lat="44.8102249" lon="7.4913285"><ele>257.0</ele><time>2026-05-03T13:12:37.101Z</time></trkpt><trkpt lat="44.8102386" lon="7.4914495"><ele>257.33333333333337</ele><time>2026-05-03T13:12:38.109Z</time></trkpt><trkpt lat="44.810255" lon="7.4915573"><ele>257.6666666666667</ele><time>2026-05-03T13:12:39.098Z</time></trkpt><trkpt lat="44.810272" lon="7.491657"><ele>258.0</ele><time>2026-05-03T13:12:40.107Z</time></trkpt><trkpt lat="44.8102905" lon="7.4917565"><ele>258.3333333333333</ele><time>2026-05-03T13:12:41.115Z</time></trkpt><trkpt lat="44.8103063" lon="7.4918426"><ele>258.66666666666663</ele><time>2026-05-03T13:12:42.108Z</time></trkpt><trkpt lat="44.8103423" lon="7.4920062"><ele>259.0</ele><time>2026-05-03T13:12:44.096Z</time></trkpt><trkpt lat="44.8103824" lon="7.4921744"><ele>259.8</ele><time>2026-05-03T13:12:46.107Z</time></trkpt><trkpt lat="44.8104003" lon="7.4922624"><ele>260.59999999999997</ele><time>2026-05-03T13:12:47.113Z</time></trkpt><trkpt lat="44.8104212" lon="7.4924145"><ele>261.4</ele><time>2026-05-03T13:12:49.127Z</time></trkpt><trkpt lat="44.8104521" lon="7.4925962"><ele>262.2</ele><time>2026-05-03T13:12:51.105Z</time></trkpt><trkpt lat="44.81049" lon="7.4927548"><ele>263.0</ele><time>2026-05-03T13:12:53.103Z</time></trkpt><trkpt lat="44.810518" lon="7.4928958"><ele>262.0</ele><time>2026-05-03T13:12:55.095Z</time></trkpt><trkpt lat="44.8105365" lon="7.4930266"><ele>261.0</ele><time>2026-05-03T13:12:57.102Z</time></trkpt><trkpt lat="44.810559" lon="7.4931528"><ele>260.0</ele><time>2026-05-03T13:12:59.101Z</time></trkpt><trkpt lat="44.8105825" lon="7.4932729"><ele>259.0</ele><time>2026-05-03T13:13:01.106Z</time></trkpt><trkpt lat="44.8105324" lon="7.4933769"><ele>258.0</ele><time>2026-05-03T13:13:04.092Z</time></trkpt><trkpt lat="44.8104248" lon="7.4934356"><ele>258.0</ele><time>2026-05-03T13:13:06.109Z</time></trkpt><trkpt lat="44.810356" lon="7.4934728"><ele>258.0</ele><time>2026-05-03T13:13:07.095Z</time></trkpt><trkpt lat="44.8102798" lon="7.4935126"><ele>258.0</ele><time>2026-05-03T13:13:08.105Z</time></trkpt><trkpt lat="44.8101934" lon="7.4935548"><ele>258.0</ele><time>2026-05-03T13:13:09.106Z</time></trkpt><trkpt lat="44.8101102" lon="7.4936036"><ele>258.0</ele><time>2026-05-03T13:13:10.099Z</time></trkpt><trkpt lat="44.8100355" lon="7.4936451"><ele>258.0</ele><time>2026-05-03T13:13:11.105Z</time></trkpt><trkpt lat="44.8099701" lon="7.4936788"><ele>258.0</ele><time>2026-05-03T13:13:12.085Z</time></trkpt><trkpt lat="44.8099068" lon="7.4937123"><ele>258.0</ele><time>2026-05-03T13:13:13.097Z</time></trkpt><trkpt lat="44.8098081" lon="7.4937734"><ele>258.0</ele><time>2026-05-03T13:13:15.095Z</time></trkpt><trkpt lat="44.8097919" lon="7.4938663"><ele>258.0</ele><time>2026-05-03T13:13:17.111Z</time></trkpt><trkpt lat="44.8098095" lon="7.4939663"><ele>258.0</ele><time>2026-05-03T13:13:19.1Z</time></trkpt><trkpt lat="44.8098503" lon="7.4940947"><ele>258.0</ele><time>2026-05-03T13:13:21.101Z</time></trkpt><trkpt lat="44.8098934" lon="7.4942149"><ele>258.2</ele><time>2026-05-03T13:13:23.101Z</time></trkpt><trkpt lat="44.809929" lon="7.4943319"><ele>258.4</ele><time>2026-05-03T13:13:25.106Z</time></trkpt><trkpt lat="44.8099796" lon="7.4944732"><ele>258.59999999999997</ele><time>2026-05-03T13:13:27.11Z</time></trkpt><trkpt lat="44.8100039" lon="7.4945558"><ele>258.8</ele><time>2026-05-03T13:13:28.098Z</time></trkpt><trkpt lat="44.8100317" lon="7.4946406"><ele>259.0</ele><time>2026-05-03T13:13:29.102Z</time></trkpt><trkpt lat="44.8100785" lon="7.49481"><ele>259.0</ele><time>2026-05-03T13:13:31.111Z</time></trkpt><trkpt lat="44.8101054" lon="7.494964"><ele>259.0</ele><time>2026-05-03T13:13:33.11Z</time></trkpt><trkpt lat="44.8101086" lon="7.4950531"><ele>259.0</ele><time>2026-05-03T13:13:34.094Z</time></trkpt><trkpt lat="44.8100934" lon="7.4952317"><ele>259.0</ele><time>2026-05-03T13:13:36.102Z</time></trkpt><trkpt lat="44.8100783" lon="7.4953302"><ele>259.0</ele><time>2026-05-03T13:13:37.09Z</time></trkpt><trkpt lat="44.8100588" lon="7.4954172"><ele>259.0</ele><time>2026-05-03T13:13:38.12Z</time></trkpt><trkpt lat="44.8100213" lon="7.4955696"><ele>259.2</ele><time>2026-05-03T13:13:40.108Z</time></trkpt><trkpt lat="44.8099695" lon="7.4957281"><ele>259.4</ele><time>2026-05-03T13:13:42.104Z</time></trkpt><trkpt lat="44.8099209" lon="7.4958899"><ele>259.6</ele><time>2026-05-03T13:13:44.098Z</time></trkpt><trkpt lat="44.8098924" lon="7.4959791"><ele>259.8</ele><time>2026-05-03T13:13:45.095Z</time></trkpt><trkpt lat="44.8098487" lon="7.4961306"><ele>260.0</ele><time>2026-05-03T13:13:47.111Z</time></trkpt><trkpt lat="44.80983" lon="7.4963045"><ele>260.0</ele><time>2026-05-03T13:13:49.104Z</time></trkpt><trkpt lat="44.8098266" lon="7.4964111"><ele>260.0</ele><time>2026-05-03T13:13:50.09Z</time></trkpt><trkpt lat="44.809825" lon="7.4965216"><ele>260.0</ele><time>2026-05-03T13:13:51.101Z</time></trkpt><trkpt lat="44.8098239" lon="7.4966286"><ele>260.0</ele><time>2026-05-03T13:13:52.092Z</time></trkpt><trkpt lat="44.8098243" lon="7.4967273"><ele>260.0</ele><time>2026-05-03T13:13:53.102Z</time></trkpt><trkpt lat="44.8098397" lon="7.4968881"><ele>260.0</ele><time>2026-05-03T13:13:55.097Z</time></trkpt><trkpt lat="44.8098785" lon="7.4970254"><ele>259.83333333333337</ele><time>2026-05-03T13:13:57.094Z</time></trkpt><trkpt lat="44.8099193" lon="7.4971147"><ele>259.6666666666667</ele><time>2026-05-03T13:13:58.11Z</time></trkpt><trkpt lat="44.8099626" lon="7.4972007"><ele>259.5</ele><time>2026-05-03T13:13:59.106Z</time></trkpt><trkpt lat="44.8100028" lon="7.4972768"><ele>259.3333333333333</ele><time>2026-05-03T13:14:00.098Z</time></trkpt><trkpt lat="44.8100745" lon="7.4974031"><ele>259.16666666666663</ele><time>2026-05-03T13:14:02.085Z</time></trkpt><trkpt lat="44.8101199" lon="7.4974667"><ele>259.0</ele><time>2026-05-03T13:14:03.095Z</time></trkpt><trkpt lat="44.8101719" lon="7.4975312"><ele>259.0</ele><time>2026-05-03T13:14:04.088Z</time></trkpt><trkpt lat="44.8102662" lon="7.4976457"><ele>259.0</ele><time>2026-05-03T13:14:06.092Z</time></trkpt><trkpt lat="44.8103202" lon="7.4977115"><ele>259.0</ele><time>2026-05-03T13:14:07.091Z</time></trkpt><trkpt lat="44.8103753" lon="7.4977789"><ele>259.0</ele><time>2026-05-03T13:14:08.096Z</time></trkpt><trkpt lat="44.8104213" lon="7.497846"><ele>259.0</ele><time>2026-05-03T13:14:09.111Z</time></trkpt><trkpt lat="44.8105008" lon="7.4979724"><ele>258.8333333333333</ele><time>2026-05-03T13:14:11.093Z</time></trkpt><trkpt lat="44.8105438" lon="7.4980396"><ele>258.66666666666663</ele><time>2026-05-03T13:14:12.095Z</time></trkpt><trkpt lat="44.810593" lon="7.498114"><ele>258.5</ele><time>2026-05-03T13:14:13.099Z</time></trkpt><trkpt lat="44.8106384" lon="7.4981834"><ele>258.3333333333333</ele><time>2026-05-03T13:14:14.103Z</time></trkpt><trkpt lat="44.8107124" lon="7.4983123"><ele>258.1666666666667</ele><time>2026-05-03T13:14:16.103Z</time></trkpt><trkpt lat="44.8107856" lon="7.498444"><ele>258.0</ele><time>2026-05-03T13:14:18.108Z</time></trkpt><trkpt lat="44.8108528" lon="7.4985752"><ele>258.0</ele><time>2026-05-03T13:14:20.097Z</time></trkpt><trkpt lat="44.8109002" lon="7.4986643"><ele>258.0</ele><time>2026-05-03T13:14:22.095Z</time></trkpt><trkpt lat="44.8109303" lon="7.4987443"><ele>258.0</ele><time>2026-05-03T13:15:49.104Z</time></trkpt><trkpt lat="44.8108483" lon="7.4988466"><ele>258.0</ele><time>2026-05-03T13:15:52.102Z</time></trkpt><trkpt lat="44.8107922" lon="7.4988902"><ele>258.0</ele><time>2026-05-03T13:15:53.101Z</time></trkpt><trkpt lat="44.8107358" lon="7.4989354"><ele>258.0</ele><time>2026-05-03T13:15:54.115Z</time></trkpt><trkpt lat="44.8106353" lon="7.4990202"><ele>257.6666666666667</ele><time>2026-05-03T13:15:56.107Z</time></trkpt><trkpt lat="44.8105831" lon="7.4990729"><ele>257.3333333333333</ele><time>2026-05-03T13:15:57.101Z</time></trkpt><trkpt lat="44.8105253" lon="7.4991482"><ele>257.0</ele><time>2026-05-03T13:15:58.112Z</time></trkpt><trkpt lat="44.8104754" lon="7.499225"><ele>256.66666666666663</ele><time>2026-05-03T13:15:59.101Z</time></trkpt><trkpt lat="44.8104382" lon="7.4993012"><ele>256.3333333333333</ele><time>2026-05-03T13:16:00.11Z</time></trkpt><trkpt lat="44.8103873" lon="7.4994446"><ele>256.0</ele><time>2026-05-03T13:16:02.107Z</time></trkpt><trkpt lat="44.81037" lon="7.4995583"><ele>255.99999999999997</ele><time>2026-05-03T13:16:04.098Z</time></trkpt><trkpt lat="44.8103906" lon="7.4996698"><ele>256.0</ele><time>2026-05-03T13:16:25.192Z</time></trkpt><trkpt lat="44.810471" lon="7.4996583"><ele>256.0</ele><time>2026-05-03T13:16:27.121Z</time></trkpt><trkpt lat="44.8105355" lon="7.4996261"><ele>256.0</ele><time>2026-05-03T13:16:28.115Z</time></trkpt><trkpt lat="44.8106067" lon="7.4995789"><ele>255.99999999999997</ele><time>2026-05-03T13:16:29.114Z</time></trkpt><trkpt lat="44.8106892" lon="7.4995336"><ele>256.0</ele><time>2026-05-03T13:16:30.122Z</time></trkpt><trkpt lat="44.810782" lon="7.4994893"><ele>256.0</ele><time>2026-05-03T13:16:31.122Z</time></trkpt><trkpt lat="44.8108797" lon="7.4994493"><ele>256.0</ele><time>2026-05-03T13:16:32.115Z</time></trkpt><trkpt lat="44.8109812" lon="7.4994129"><ele>256.0</ele><time>2026-05-03T13:16:33.112Z</time></trkpt><trkpt lat="44.8110808" lon="7.4993715"><ele>256.0</ele><time>2026-05-03T13:16:34.128Z</time></trkpt><trkpt lat="44.8111862" lon="7.4993228"><ele>256.0</ele><time>2026-05-03T13:16:35.117Z</time></trkpt><trkpt lat="44.8112904" lon="7.4992839"><ele>254.75</ele><time>2026-05-03T13:16:36.118Z</time></trkpt><trkpt lat="44.8113913" lon="7.4992551"><ele>253.5</ele><time>2026-05-03T13:16:37.108Z</time></trkpt><trkpt lat="44.811501" lon="7.4992301"><ele>252.25</ele><time>2026-05-03T13:16:38.12Z</time></trkpt><trkpt lat="44.8116223" lon="7.4991998"><ele>251.0</ele><time>2026-05-03T13:16:39.111Z</time></trkpt><trkpt lat="44.8117417" lon="7.4991693"><ele>251.4</ele><time>2026-05-03T13:16:40.12Z</time></trkpt><trkpt lat="44.8118533" lon="7.4991314"><ele>251.8</ele><time>2026-05-03T13:16:41.121Z</time></trkpt><trkpt lat="44.8119599" lon="7.499101"><ele>252.20000000000002</ele><time>2026-05-03T13:16:42.106Z</time></trkpt><trkpt lat="44.8120605" lon="7.4990633"><ele>252.60000000000002</ele><time>2026-05-03T13:16:43.128Z</time></trkpt><trkpt lat="44.812155" lon="7.4990402"><ele>253.0</ele><time>2026-05-03T13:16:44.111Z</time></trkpt><trkpt lat="44.8122415" lon="7.4990191"><ele>252.99999999999997</ele><time>2026-05-03T13:16:45.109Z</time></trkpt><trkpt lat="44.8123233" lon="7.498997"><ele>253.0</ele><time>2026-05-03T13:16:46.112Z</time></trkpt><trkpt lat="44.8123956" lon="7.4989739"><ele>253.0</ele><time>2026-05-03T13:16:47.112Z</time></trkpt><trkpt lat="44.8124661" lon="7.4989523"><ele>253.0</ele><time>2026-05-03T13:16:48.149Z</time></trkpt><trkpt lat="44.812543" lon="7.4989309"><ele>252.99999999999997</ele><time>2026-05-03T13:16:49.118Z</time></trkpt><trkpt lat="44.8126261" lon="7.4989063"><ele>253.0</ele><time>2026-05-03T13:16:50.108Z</time></trkpt><trkpt lat="44.8127159" lon="7.4988807"><ele>253.60000000000002</ele><time>2026-05-03T13:16:51.123Z</time></trkpt><trkpt lat="44.8128083" lon="7.4988655"><ele>254.20000000000002</ele><time>2026-05-03T13:16:52.109Z</time></trkpt><trkpt lat="44.8129115" lon="7.4988524"><ele>254.8</ele><time>2026-05-03T13:16:53.111Z</time></trkpt><trkpt lat="44.8130243" lon="7.4988341"><ele>255.4</ele><time>2026-05-03T13:16:54.122Z</time></trkpt><trkpt lat="44.8131366" lon="7.4987992"><ele>256.0</ele><time>2026-05-03T13:16:55.104Z</time></trkpt><trkpt lat="44.8132483" lon="7.4987425"><ele>256.25</ele><time>2026-05-03T13:16:56.11Z</time></trkpt><trkpt lat="44.8133531" lon="7.4986801"><ele>256.5</ele><time>2026-05-03T13:16:57.124Z</time></trkpt><trkpt lat="44.8134599" lon="7.498613"><ele>256.75</ele><time>2026-05-03T13:16:58.126Z</time></trkpt><trkpt lat="44.8135757" lon="7.4985175"><ele>257.0</ele><time>2026-05-03T13:16:59.119Z</time></trkpt><trkpt lat="44.813686" lon="7.4983891"><ele>257.0</ele><time>2026-05-03T13:17:00.103Z</time></trkpt><trkpt lat="44.8137841" lon="7.4982394"><ele>257.0</ele><time>2026-05-03T13:17:01.104Z</time></trkpt><trkpt lat="44.8138782" lon="7.4981098"><ele>257.0</ele><time>2026-05-03T13:17:02.103Z</time></trkpt><trkpt lat="44.8139699" lon="7.4980026"><ele>257.0</ele><time>2026-05-03T13:17:03.113Z</time></trkpt><trkpt lat="44.8140693" lon="7.497907"><ele>257.0</ele><time>2026-05-03T13:17:04.102Z</time></trkpt><trkpt lat="44.8141825" lon="7.4978386"><ele>257.0</ele><time>2026-05-03T13:17:05.213Z</time></trkpt><trkpt lat="44.8143074" lon="7.4977915"><ele>257.0</ele><time>2026-05-03T13:17:06.17Z</time></trkpt><trkpt lat="44.8144284" lon="7.4977585"><ele>257.0</ele><time>2026-05-03T13:17:07.176Z</time></trkpt><trkpt lat="44.8145531" lon="7.4977438"><ele>257.0</ele><time>2026-05-03T13:17:08.16Z</time></trkpt><trkpt lat="44.8146756" lon="7.4977327"><ele>257.0</ele><time>2026-05-03T13:17:09.157Z</time></trkpt><trkpt lat="44.8147956" lon="7.4977266"><ele>257.0</ele><time>2026-05-03T13:17:10.167Z</time></trkpt><trkpt lat="44.8149132" lon="7.4977232"><ele>257.0</ele><time>2026-05-03T13:17:11.159Z</time></trkpt><trkpt lat="44.815037" lon="7.4977208"><ele>257.0</ele><time>2026-05-03T13:17:12.157Z</time></trkpt><trkpt lat="44.8151616" lon="7.497724"><ele>257.0</ele><time>2026-05-03T13:17:13.162Z</time></trkpt><trkpt lat="44.8152855" lon="7.4977265"><ele>257.0</ele><time>2026-05-03T13:17:14.158Z</time></trkpt><trkpt lat="44.8153997" lon="7.497724"><ele>257.0</ele><time>2026-05-03T13:17:15.16Z</time></trkpt><trkpt lat="44.8155013" lon="7.4977383"><ele>257.0</ele><time>2026-05-03T13:17:16.156Z</time></trkpt><trkpt lat="44.8155882" lon="7.4977539"><ele>257.0</ele><time>2026-05-03T13:17:17.16Z</time></trkpt><trkpt lat="44.8156574" lon="7.4977757"><ele>257.0</ele><time>2026-05-03T13:17:18.162Z</time></trkpt><trkpt lat="44.8157283" lon="7.4978054"><ele>257.0</ele><time>2026-05-03T13:17:19.161Z</time></trkpt><trkpt lat="44.8158099" lon="7.4978331"><ele>257.0</ele><time>2026-05-03T13:17:20.164Z</time></trkpt><trkpt lat="44.8158884" lon="7.4978698"><ele>257.0</ele><time>2026-05-03T13:17:21.165Z</time></trkpt><trkpt lat="44.8159529" lon="7.4979035"><ele>257.0</ele><time>2026-05-03T13:17:22.167Z</time></trkpt><trkpt lat="44.8160134" lon="7.4979762"><ele>257.0</ele><time>2026-05-03T13:17:24.17Z</time></trkpt><trkpt lat="44.8160455" lon="7.4978984"><ele>257.0</ele><time>2026-05-03T13:23:21.157Z</time></trkpt><trkpt lat="44.8160358" lon="7.4978107"><ele>257.0</ele><time>2026-05-03T13:25:02.16Z</time></trkpt><trkpt lat="44.8160078" lon="7.4977304"><ele>257.0</ele><time>2026-05-03T13:26:51.153Z</time></trkpt><trkpt lat="44.8159691" lon="7.4976597"><ele>257.0</ele><time>2026-05-03T13:28:49.147Z</time></trkpt><trkpt lat="44.8159184" lon="7.4976055"><ele>257.0</ele><time>2026-05-03T13:30:36.156Z</time></trkpt><trkpt lat="44.8158998" lon="7.497694"><ele>257.0</ele><time>2026-05-03T13:32:13.141Z</time></trkpt><trkpt lat="44.8158329" lon="7.4977776"><ele>257.0</ele><time>2026-05-03T13:32:15.138Z</time></trkpt><trkpt lat="44.8157743" lon="7.4978339"><ele>257.0</ele><time>2026-05-03T13:32:17.149Z</time></trkpt><trkpt lat="44.8157959" lon="7.4982233"><ele>257.0</ele><time>2026-05-03T13:32:18.139Z</time></trkpt><trkpt lat="44.8156879" lon="7.4982513"><ele>256.83333333333337</ele><time>2026-05-03T13:32:20.141Z</time></trkpt><trkpt lat="44.8155579" lon="7.4982931"><ele>256.6666666666667</ele><time>2026-05-03T13:32:22.147Z</time></trkpt><trkpt lat="44.8154822" lon="7.4983138"><ele>256.5</ele><time>2026-05-03T13:32:23.137Z</time></trkpt><trkpt lat="44.8154077" lon="7.4983409"><ele>256.3333333333333</ele><time>2026-05-03T13:32:24.142Z</time></trkpt><trkpt lat="44.8153367" lon="7.4983647"><ele>256.16666666666663</ele><time>2026-05-03T13:32:25.146Z</time></trkpt><trkpt lat="44.8152665" lon="7.4983849"><ele>256.0</ele><time>2026-05-03T13:32:26.138Z</time></trkpt><trkpt lat="44.8151993" lon="7.498404"><ele>256.0</ele><time>2026-05-03T13:32:27.144Z</time></trkpt><trkpt lat="44.8151311" lon="7.4984249"><ele>255.99999999999997</ele><time>2026-05-03T13:32:28.141Z</time></trkpt><trkpt lat="44.8150646" lon="7.4984403"><ele>256.0</ele><time>2026-05-03T13:32:29.145Z</time></trkpt><trkpt lat="44.8149943" lon="7.4984551"><ele>256.0</ele><time>2026-05-03T13:32:30.155Z</time></trkpt><trkpt lat="44.8149239" lon="7.4984751"><ele>255.99999999999997</ele><time>2026-05-03T13:32:31.147Z</time></trkpt><trkpt lat="44.8148518" lon="7.4984874"><ele>256.0</ele><time>2026-05-03T13:32:32.153Z</time></trkpt><trkpt lat="44.8147733" lon="7.4985058"><ele>256.0</ele><time>2026-05-03T13:32:33.147Z</time></trkpt><trkpt lat="44.8146866" lon="7.4985337"><ele>256.0</ele><time>2026-05-03T13:32:34.141Z</time></trkpt><trkpt lat="44.814589" lon="7.4985661"><ele>256.0</ele><time>2026-05-03T13:32:35.138Z</time></trkpt><trkpt lat="44.8144826" lon="7.4985958"><ele>256.0</ele><time>2026-05-03T13:32:36.147Z</time></trkpt><trkpt lat="44.8143719" lon="7.4986305"><ele>256.0</ele><time>2026-05-03T13:32:37.138Z</time></trkpt><trkpt lat="44.8142675" lon="7.4986617"><ele>256.0</ele><time>2026-05-03T13:32:38.154Z</time></trkpt><trkpt lat="44.8141724" lon="7.4986966"><ele>256.2</ele><time>2026-05-03T13:32:39.145Z</time></trkpt><trkpt lat="44.8140752" lon="7.498728"><ele>256.40000000000003</ele><time>2026-05-03T13:32:40.145Z</time></trkpt><trkpt lat="44.8139734" lon="7.4987589"><ele>256.6</ele><time>2026-05-03T13:32:41.144Z</time></trkpt><trkpt lat="44.8138622" lon="7.4987947"><ele>256.8</ele><time>2026-05-03T13:32:42.148Z</time></trkpt><trkpt lat="44.8137575" lon="7.4988222"><ele>257.0</ele><time>2026-05-03T13:32:43.153Z</time></trkpt><trkpt lat="44.8136545" lon="7.4988484"><ele>256.8</ele><time>2026-05-03T13:32:44.159Z</time></trkpt><trkpt lat="44.8135639" lon="7.4988806"><ele>256.6</ele><time>2026-05-03T13:32:45.141Z</time></trkpt><trkpt lat="44.8134852" lon="7.4989039"><ele>256.40000000000003</ele><time>2026-05-03T13:32:46.148Z</time></trkpt><trkpt lat="44.8134067" lon="7.4989319"><ele>256.2</ele><time>2026-05-03T13:32:47.14Z</time></trkpt><trkpt lat="44.8133205" lon="7.4989496"><ele>256.0</ele><time>2026-05-03T13:32:48.154Z</time></trkpt><trkpt lat="44.8132147" lon="7.4989816"><ele>256.0</ele><time>2026-05-03T13:32:49.136Z</time></trkpt><trkpt lat="44.8131135" lon="7.4990111"><ele>256.0</ele><time>2026-05-03T13:32:50.15Z</time></trkpt><trkpt lat="44.8130095" lon="7.4990407"><ele>256.0</ele><time>2026-05-03T13:32:51.142Z</time></trkpt><trkpt lat="44.8129187" lon="7.4990673"><ele>256.0</ele><time>2026-05-03T13:32:52.145Z</time></trkpt><trkpt lat="44.8128392" lon="7.4990927"><ele>256.0</ele><time>2026-05-03T13:32:53.142Z</time></trkpt><trkpt lat="44.8127706" lon="7.4991165"><ele>255.99999999999997</ele><time>2026-05-03T13:32:54.148Z</time></trkpt><trkpt lat="44.8127098" lon="7.4991413"><ele>256.0</ele><time>2026-05-03T13:32:55.168Z</time></trkpt><trkpt lat="44.8126233" lon="7.4992037"><ele>256.0</ele><time>2026-05-03T13:32:57.147Z</time></trkpt><trkpt lat="44.812583" lon="7.499283"><ele>256.0</ele><time>2026-05-03T13:32:59.144Z</time></trkpt><trkpt lat="44.8125808" lon="7.4994105"><ele>255.99999999999997</ele><time>2026-05-03T13:34:02.15Z</time></trkpt><trkpt lat="44.8126122" lon="7.4995545"><ele>256.0</ele><time>2026-05-03T13:34:04.16Z</time></trkpt><trkpt lat="44.8126431" lon="7.4996898"><ele>255.66666666666666</ele><time>2026-05-03T13:34:06.161Z</time></trkpt><trkpt lat="44.8126647" lon="7.4997779"><ele>255.33333333333331</ele><time>2026-05-03T13:34:07.164Z</time></trkpt><trkpt lat="44.8126904" lon="7.499884"><ele>255.0</ele><time>2026-05-03T13:34:08.158Z</time></trkpt><trkpt lat="44.8127316" lon="7.4999967"><ele>254.66666666666669</ele><time>2026-05-03T13:34:09.146Z</time></trkpt><trkpt lat="44.8127696" lon="7.5000978"><ele>254.33333333333334</ele><time>2026-05-03T13:34:10.148Z</time></trkpt><trkpt lat="44.8128005" lon="7.5001987"><ele>254.0</ele><time>2026-05-03T13:34:11.146Z</time></trkpt><trkpt lat="44.8128366" lon="7.500299"><ele>254.0</ele><time>2026-05-03T13:34:12.144Z</time></trkpt><trkpt lat="44.8128664" lon="7.5004158"><ele>253.99999999999997</ele><time>2026-05-03T13:34:13.142Z</time></trkpt><trkpt lat="44.8128929" lon="7.5005432"><ele>253.99999999999997</ele><time>2026-05-03T13:34:14.145Z</time></trkpt><trkpt lat="44.8129171" lon="7.500682"><ele>254.0</ele><time>2026-05-03T13:34:15.149Z</time></trkpt><trkpt lat="44.812939" lon="7.5008313"><ele>254.0</ele><time>2026-05-03T13:34:16.144Z</time></trkpt><trkpt lat="44.8129669" lon="7.5009828"><ele>254.0</ele><time>2026-05-03T13:34:17.159Z</time></trkpt><trkpt lat="44.8129928" lon="7.5011382"><ele>253.99999999999997</ele><time>2026-05-03T13:34:18.14Z</time></trkpt><trkpt lat="44.8130152" lon="7.5012957"><ele>253.99999999999997</ele><time>2026-05-03T13:34:19.135Z</time></trkpt><trkpt lat="44.8130315" lon="7.5014456"><ele>254.0</ele><time>2026-05-03T13:34:20.158Z</time></trkpt><trkpt lat="44.8130505" lon="7.5015733"><ele>254.0</ele><time>2026-05-03T13:34:21.14Z</time></trkpt><trkpt lat="44.8130646" lon="7.5016981"><ele>254.0</ele><time>2026-05-03T13:34:22.146Z</time></trkpt><trkpt lat="44.8130757" lon="7.5018226"><ele>253.99999999999997</ele><time>2026-05-03T13:34:23.143Z</time></trkpt><trkpt lat="44.8130905" lon="7.5019535"><ele>253.99999999999997</ele><time>2026-05-03T13:34:24.149Z</time></trkpt><trkpt lat="44.8131018" lon="7.5020888"><ele>254.0</ele><time>2026-05-03T13:34:25.159Z</time></trkpt><trkpt lat="44.8131201" lon="7.5022312"><ele>254.0</ele><time>2026-05-03T13:34:26.145Z</time></trkpt><trkpt lat="44.8131532" lon="7.5023762"><ele>254.0</ele><time>2026-05-03T13:34:27.14Z</time></trkpt><trkpt lat="44.8131937" lon="7.5025203"><ele>253.99999999999997</ele><time>2026-05-03T13:34:28.153Z</time></trkpt><trkpt lat="44.813215" lon="7.5026392"><ele>253.99999999999997</ele><time>2026-05-03T13:34:29.146Z</time></trkpt><trkpt lat="44.8132543" lon="7.5027714"><ele>254.0</ele><time>2026-05-03T13:34:30.156Z</time></trkpt><trkpt lat="44.8132895" lon="7.5029046"><ele>254.0</ele><time>2026-05-03T13:34:31.145Z</time></trkpt><trkpt lat="44.8133216" lon="7.5030224"><ele>254.14285714285717</ele><time>2026-05-03T13:34:32.142Z</time></trkpt><trkpt lat="44.8133539" lon="7.5031231"><ele>254.28571428571428</ele><time>2026-05-03T13:34:33.138Z</time></trkpt><trkpt lat="44.8133825" lon="7.5032159"><ele>254.42857142857144</ele><time>2026-05-03T13:34:34.153Z</time></trkpt><trkpt lat="44.8134055" lon="7.5033059"><ele>254.57142857142858</ele><time>2026-05-03T13:34:35.146Z</time></trkpt><trkpt lat="44.813424" lon="7.5033989"><ele>254.71428571428572</ele><time>2026-05-03T13:34:36.145Z</time></trkpt><trkpt lat="44.8134426" lon="7.5034931"><ele>254.85714285714286</ele><time>2026-05-03T13:34:37.145Z</time></trkpt><trkpt lat="44.8134581" lon="7.503591"><ele>255.0</ele><time>2026-05-03T13:34:38.138Z</time></trkpt><trkpt lat="44.8134723" lon="7.5036816"><ele>254.5</ele><time>2026-05-03T13:34:39.146Z</time></trkpt><trkpt lat="44.8134916" lon="7.5038308"><ele>254.0</ele><time>2026-05-03T13:34:41.158Z</time></trkpt><trkpt lat="44.8135169" lon="7.5039962"><ele>253.5</ele><time>2026-05-03T13:34:43.154Z</time></trkpt><trkpt lat="44.8135413" lon="7.5041431"><ele>253.0</ele><time>2026-05-03T13:34:45.136Z</time></trkpt><trkpt lat="44.8135577" lon="7.5043094"><ele>252.99999999999997</ele><time>2026-05-03T13:34:47.144Z</time></trkpt><trkpt lat="44.8135701" lon="7.5044092"><ele>253.0</ele><time>2026-05-03T13:34:48.141Z</time></trkpt><trkpt lat="44.8135795" lon="7.5045116"><ele>253.0</ele><time>2026-05-03T13:34:49.148Z</time></trkpt><trkpt lat="44.8135887" lon="7.5046174"><ele>253.0</ele><time>2026-05-03T13:34:50.145Z</time></trkpt><trkpt lat="44.8135972" lon="7.5047295"><ele>252.99999999999997</ele><time>2026-05-03T13:34:51.14Z</time></trkpt><trkpt lat="44.813609" lon="7.5048432"><ele>253.0</ele><time>2026-05-03T13:34:52.142Z</time></trkpt><trkpt lat="44.8136163" lon="7.5049549"><ele>252.8</ele><time>2026-05-03T13:34:53.135Z</time></trkpt><trkpt lat="44.8136185" lon="7.5050526"><ele>252.60000000000002</ele><time>2026-05-03T13:34:54.149Z</time></trkpt><trkpt lat="44.81361" lon="7.505225"><ele>252.39999999999998</ele><time>2026-05-03T13:34:56.141Z</time></trkpt><trkpt lat="44.8136029" lon="7.5053208"><ele>252.2</ele><time>2026-05-03T13:34:57.146Z</time></trkpt><trkpt lat="44.8135899" lon="7.5054718"><ele>252.0</ele><time>2026-05-03T13:34:59.143Z</time></trkpt><trkpt lat="44.8135708" lon="7.5055972"><ele>252.33333333333334</ele><time>2026-05-03T13:35:01.154Z</time></trkpt><trkpt lat="44.8135597" lon="7.5056966"><ele>252.66666666666669</ele><time>2026-05-03T13:35:03.148Z</time></trkpt><trkpt lat="44.8135624" lon="7.505789"><ele>253.0</ele><time>2026-05-03T13:35:05.139Z</time></trkpt><trkpt lat="44.8136028" lon="7.5058946"><ele>253.33333333333334</ele><time>2026-05-03T13:35:07.141Z</time></trkpt><trkpt lat="44.8136877" lon="7.506049"><ele>253.66666666666669</ele><time>2026-05-03T13:35:09.138Z</time></trkpt><trkpt lat="44.8137379" lon="7.5061512"><ele>254.0</ele><time>2026-05-03T13:35:10.137Z</time></trkpt><trkpt lat="44.8137809" lon="7.5062514"><ele>254.00000000000003</ele><time>2026-05-03T13:35:11.143Z</time></trkpt><trkpt lat="44.8138219" lon="7.5063471"><ele>254.0</ele><time>2026-05-03T13:35:12.142Z</time></trkpt><trkpt lat="44.8138614" lon="7.5064248"><ele>254.0</ele><time>2026-05-03T13:35:13.144Z</time></trkpt><trkpt lat="44.8139093" lon="7.5064965"><ele>254.0</ele><time>2026-05-03T13:35:14.141Z</time></trkpt><trkpt lat="44.8139634" lon="7.5065822"><ele>254.00000000000003</ele><time>2026-05-03T13:35:15.146Z</time></trkpt><trkpt lat="44.81403" lon="7.50667"><ele>254.0</ele><time>2026-05-03T13:35:16.144Z</time></trkpt><trkpt lat="44.814101" lon="7.5067627"><ele>254.00000000000003</ele><time>2026-05-03T13:35:17.145Z</time></trkpt><trkpt lat="44.8141624" lon="7.5068394"><ele>254.0</ele><time>2026-05-03T13:35:18.143Z</time></trkpt><trkpt lat="44.8142189" lon="7.5069214"><ele>254.0</ele><time>2026-05-03T13:35:19.141Z</time></trkpt><trkpt lat="44.8142722" lon="7.5070077"><ele>254.0</ele><time>2026-05-03T13:35:20.154Z</time></trkpt><trkpt lat="44.8143224" lon="7.5070979"><ele>254.00000000000003</ele><time>2026-05-03T13:35:21.157Z</time></trkpt><trkpt lat="44.814373" lon="7.5072014"><ele>254.0</ele><time>2026-05-03T13:35:22.144Z</time></trkpt><trkpt lat="44.8144291" lon="7.5073049"><ele>253.79999999999998</ele><time>2026-05-03T13:35:23.155Z</time></trkpt><trkpt lat="44.8144946" lon="7.5073911"><ele>253.59999999999997</ele><time>2026-05-03T13:35:24.143Z</time></trkpt><trkpt lat="44.8145653" lon="7.5074715"><ele>253.4</ele><time>2026-05-03T13:35:25.137Z</time></trkpt><trkpt lat="44.8146341" lon="7.5075478"><ele>253.2</ele><time>2026-05-03T13:35:26.143Z</time></trkpt><trkpt lat="44.814705" lon="7.5076293"><ele>253.0</ele><time>2026-05-03T13:35:27.151Z</time></trkpt><trkpt lat="44.8147832" lon="7.5077297"><ele>252.99999999999997</ele><time>2026-05-03T13:35:28.146Z</time></trkpt><trkpt lat="44.8148483" lon="7.507834"><ele>253.0</ele><time>2026-05-03T13:35:29.142Z</time></trkpt><trkpt lat="44.8149035" lon="7.5079272"><ele>253.0</ele><time>2026-05-03T13:35:30.146Z</time></trkpt><trkpt lat="44.8149555" lon="7.5080239"><ele>253.0</ele><time>2026-05-03T13:35:31.137Z</time></trkpt><trkpt lat="44.8150044" lon="7.5081178"><ele>252.99999999999997</ele><time>2026-05-03T13:35:32.139Z</time></trkpt><trkpt lat="44.8150537" lon="7.5082137"><ele>253.0</ele><time>2026-05-03T13:35:33.153Z</time></trkpt><trkpt lat="44.8151084" lon="7.5083218"><ele>252.99999999999997</ele><time>2026-05-03T13:35:34.137Z</time></trkpt><trkpt lat="44.8151652" lon="7.508434"><ele>253.0</ele><time>2026-05-03T13:35:35.143Z</time></trkpt><trkpt lat="44.8152155" lon="7.5085407"><ele>253.0</ele><time>2026-05-03T13:35:36.141Z</time></trkpt><trkpt lat="44.8152593" lon="7.508641"><ele>253.0</ele><time>2026-05-03T13:35:37.132Z</time></trkpt><trkpt lat="44.8152916" lon="7.5087388"><ele>252.99999999999997</ele><time>2026-05-03T13:35:38.147Z</time></trkpt><trkpt lat="44.8153207" lon="7.5088306"><ele>253.0</ele><time>2026-05-03T13:35:39.135Z</time></trkpt><trkpt lat="44.8153426" lon="7.5089292"><ele>253.00000000000003</ele><time>2026-05-03T13:35:40.149Z</time></trkpt><trkpt lat="44.8153605" lon="7.5090241"><ele>253.0</ele><time>2026-05-03T13:35:41.134Z</time></trkpt><trkpt lat="44.8153732" lon="7.5091184"><ele>253.00000000000003</ele><time>2026-05-03T13:35:42.138Z</time></trkpt><trkpt lat="44.8153812" lon="7.5092121"><ele>253.00000000000003</ele><time>2026-05-03T13:35:43.14Z</time></trkpt><trkpt lat="44.8153852" lon="7.5093139"><ele>253.0</ele><time>2026-05-03T13:35:44.15Z</time></trkpt><trkpt lat="44.8153898" lon="7.5094231"><ele>253.00000000000003</ele><time>2026-05-03T13:35:45.133Z</time></trkpt><trkpt lat="44.8153875" lon="7.5095412"><ele>253.00000000000003</ele><time>2026-05-03T13:35:46.147Z</time></trkpt><trkpt lat="44.8153781" lon="7.5096643"><ele>252.83333333333331</ele><time>2026-05-03T13:35:47.135Z</time></trkpt><trkpt lat="44.8153643" lon="7.5097864"><ele>252.66666666666666</ele><time>2026-05-03T13:35:48.144Z</time></trkpt><trkpt lat="44.815343" lon="7.5099111"><ele>252.5</ele><time>2026-05-03T13:35:49.139Z</time></trkpt><trkpt lat="44.8153188" lon="7.5100238"><ele>252.33333333333331</ele><time>2026-05-03T13:35:50.14Z</time></trkpt><trkpt lat="44.8152918" lon="7.5101311"><ele>252.16666666666666</ele><time>2026-05-03T13:35:51.139Z</time></trkpt><trkpt lat="44.8152533" lon="7.5102417"><ele>252.0</ele><time>2026-05-03T13:35:52.144Z</time></trkpt><trkpt lat="44.8152124" lon="7.5103458"><ele>251.83333333333334</ele><time>2026-05-03T13:35:53.136Z</time></trkpt><trkpt lat="44.8151795" lon="7.5104465"><ele>251.66666666666669</ele><time>2026-05-03T13:35:54.136Z</time></trkpt><trkpt lat="44.8151406" lon="7.5105442"><ele>251.5</ele><time>2026-05-03T13:35:55.138Z</time></trkpt><trkpt lat="44.8150942" lon="7.5106572"><ele>251.33333333333334</ele><time>2026-05-03T13:35:56.153Z</time></trkpt><trkpt lat="44.8150412" lon="7.5107665"><ele>251.16666666666669</ele><time>2026-05-03T13:35:57.131Z</time></trkpt><trkpt lat="44.8149851" lon="7.5108705"><ele>251.0</ele><time>2026-05-03T13:35:58.148Z</time></trkpt><trkpt lat="44.8149353" lon="7.5109623"><ele>251.00000000000003</ele><time>2026-05-03T13:35:59.144Z</time></trkpt><trkpt lat="44.8148908" lon="7.5110464"><ele>251.0</ele><time>2026-05-03T13:36:00.141Z</time></trkpt><trkpt lat="44.8148569" lon="7.5111318"><ele>251.0</ele><time>2026-05-03T13:36:01.14Z</time></trkpt><trkpt lat="44.8148412" lon="7.5112342"><ele>251.0</ele><time>2026-05-03T13:36:02.133Z</time></trkpt><trkpt lat="44.8148266" lon="7.511348"><ele>251.00000000000003</ele><time>2026-05-03T13:36:03.148Z</time></trkpt><trkpt lat="44.814815" lon="7.5114855"><ele>251.0</ele><time>2026-05-03T13:36:04.139Z</time></trkpt><trkpt lat="44.814804" lon="7.5116263"><ele>251.0</ele><time>2026-05-03T13:36:05.143Z</time></trkpt><trkpt lat="44.8147889" lon="7.5117485"><ele>251.00000000000003</ele><time>2026-05-03T13:36:06.128Z</time></trkpt><trkpt lat="44.8147705" lon="7.5118623"><ele>251.00000000000003</ele><time>2026-05-03T13:36:07.134Z</time></trkpt><trkpt lat="44.814748" lon="7.5119814"><ele>251.0</ele><time>2026-05-03T13:36:08.146Z</time></trkpt><trkpt lat="44.8147218" lon="7.5121181"><ele>251.0</ele><time>2026-05-03T13:36:09.146Z</time></trkpt><trkpt lat="44.814695" lon="7.5122539"><ele>251.0</ele><time>2026-05-03T13:36:10.164Z</time></trkpt><trkpt lat="44.8146755" lon="7.51238"><ele>251.00000000000003</ele><time>2026-05-03T13:36:11.142Z</time></trkpt><trkpt lat="44.8146515" lon="7.5125023"><ele>251.00000000000003</ele><time>2026-05-03T13:36:12.14Z</time></trkpt><trkpt lat="44.8146238" lon="7.5126375"><ele>251.0</ele><time>2026-05-03T13:36:13.137Z</time></trkpt><trkpt lat="44.8146019" lon="7.5127765"><ele>251.0</ele><time>2026-05-03T13:36:14.135Z</time></trkpt><trkpt lat="44.8145786" lon="7.5129195"><ele>251.0</ele><time>2026-05-03T13:36:15.137Z</time></trkpt><trkpt lat="44.8145479" lon="7.513058"><ele>251.00000000000003</ele><time>2026-05-03T13:36:16.152Z</time></trkpt><trkpt lat="44.8145151" lon="7.5131964"><ele>251.00000000000003</ele><time>2026-05-03T13:36:17.135Z</time></trkpt><trkpt lat="44.8144811" lon="7.5133428"><ele>251.0</ele><time>2026-05-03T13:36:18.139Z</time></trkpt><trkpt lat="44.8144426" lon="7.5134823"><ele>251.0</ele><time>2026-05-03T13:36:19.136Z</time></trkpt><trkpt lat="44.8144014" lon="7.5136106"><ele>251.20000000000002</ele><time>2026-05-03T13:36:20.139Z</time></trkpt><trkpt lat="44.8143621" lon="7.5137428"><ele>251.40000000000003</ele><time>2026-05-03T13:36:21.137Z</time></trkpt><trkpt lat="44.814324" lon="7.5138826"><ele>251.6</ele><time>2026-05-03T13:36:22.148Z</time></trkpt><trkpt lat="44.8143121" lon="7.5140274"><ele>251.8</ele><time>2026-05-03T13:36:23.16Z</time></trkpt><trkpt lat="44.814308" lon="7.5141773"><ele>252.0</ele><time>2026-05-03T13:36:24.141Z</time></trkpt><trkpt lat="44.8143092" lon="7.5143118"><ele>252.0</ele><time>2026-05-03T13:36:25.139Z</time></trkpt><trkpt lat="44.8143154" lon="7.514435"><ele>252.0</ele><time>2026-05-03T13:36:26.152Z</time></trkpt><trkpt lat="44.8143206" lon="7.5145474"><ele>252.0</ele><time>2026-05-03T13:36:27.138Z</time></trkpt><trkpt lat="44.8143277" lon="7.5146573"><ele>252.0</ele><time>2026-05-03T13:36:28.149Z</time></trkpt><trkpt lat="44.8143191" lon="7.5147722"><ele>252.0</ele><time>2026-05-03T13:36:29.133Z</time></trkpt><trkpt lat="44.8143044" lon="7.5148964"><ele>252.0</ele><time>2026-05-03T13:36:30.149Z</time></trkpt><trkpt lat="44.8142765" lon="7.5150246"><ele>252.0</ele><time>2026-05-03T13:36:31.136Z</time></trkpt><trkpt lat="44.8142339" lon="7.5151602"><ele>252.0</ele><time>2026-05-03T13:36:32.144Z</time></trkpt><trkpt lat="44.8141883" lon="7.5153048"><ele>252.0</ele><time>2026-05-03T13:36:33.144Z</time></trkpt><trkpt lat="44.8141499" lon="7.5154501"><ele>252.0</ele><time>2026-05-03T13:36:34.149Z</time></trkpt><trkpt lat="44.8141535" lon="7.5155879"><ele>252.0</ele><time>2026-05-03T13:36:35.146Z</time></trkpt><trkpt lat="44.8141283" lon="7.5157077"><ele>251.66666666666666</ele><time>2026-05-03T13:36:36.148Z</time></trkpt><trkpt lat="44.8141052" lon="7.5158238"><ele>251.33333333333331</ele><time>2026-05-03T13:36:37.132Z</time></trkpt><trkpt lat="44.8140852" lon="7.5159405"><ele>251.0</ele><time>2026-05-03T13:36:38.131Z</time></trkpt><trkpt lat="44.8140637" lon="7.5160522"><ele>250.66666666666666</ele><time>2026-05-03T13:36:39.137Z</time></trkpt><trkpt lat="44.814044" lon="7.5161729"><ele>250.33333333333331</ele><time>2026-05-03T13:36:40.147Z</time></trkpt><trkpt lat="44.8140162" lon="7.5162991"><ele>250.0</ele><time>2026-05-03T13:36:41.133Z</time></trkpt><trkpt lat="44.8139839" lon="7.5164229"><ele>250.0</ele><time>2026-05-03T13:36:42.139Z</time></trkpt><trkpt lat="44.8139468" lon="7.5165422"><ele>250.0</ele><time>2026-05-03T13:36:43.131Z</time></trkpt><trkpt lat="44.8139124" lon="7.5166479"><ele>250.0</ele><time>2026-05-03T13:36:44.145Z</time></trkpt><trkpt lat="44.813872" lon="7.5167607"><ele>250.0</ele><time>2026-05-03T13:36:45.137Z</time></trkpt><trkpt lat="44.8138269" lon="7.5168841"><ele>250.0</ele><time>2026-05-03T13:36:46.197Z</time></trkpt><trkpt lat="44.8137843" lon="7.517001"><ele>250.2</ele><time>2026-05-03T13:36:47.139Z</time></trkpt><trkpt lat="44.81374" lon="7.5171099"><ele>250.4</ele><time>2026-05-03T13:36:48.144Z</time></trkpt><trkpt lat="44.8137006" lon="7.5172104"><ele>250.60000000000002</ele><time>2026-05-03T13:36:49.133Z</time></trkpt><trkpt lat="44.813658" lon="7.5173209"><ele>250.8</ele><time>2026-05-03T13:36:50.146Z</time></trkpt><trkpt lat="44.8136087" lon="7.5174371"><ele>251.0</ele><time>2026-05-03T13:36:51.142Z</time></trkpt><trkpt lat="44.8135566" lon="7.5175521"><ele>251.0</ele><time>2026-05-03T13:36:52.143Z</time></trkpt><trkpt lat="44.8135024" lon="7.5176608"><ele>251.00000000000003</ele><time>2026-05-03T13:36:53.143Z</time></trkpt><trkpt lat="44.813451" lon="7.5177712"><ele>251.00000000000003</ele><time>2026-05-03T13:36:54.145Z</time></trkpt><trkpt lat="44.8134016" lon="7.5178801"><ele>251.0</ele><time>2026-05-03T13:36:55.139Z</time></trkpt><trkpt lat="44.8133457" lon="7.5179895"><ele>251.0</ele><time>2026-05-03T13:36:56.136Z</time></trkpt><trkpt lat="44.8132941" lon="7.5181009"><ele>250.60000000000002</ele><time>2026-05-03T13:36:57.16Z</time></trkpt><trkpt lat="44.8132384" lon="7.5182124"><ele>250.20000000000002</ele><time>2026-05-03T13:36:58.15Z</time></trkpt><trkpt lat="44.8131768" lon="7.5183216"><ele>249.79999999999998</ele><time>2026-05-03T13:36:59.141Z</time></trkpt><trkpt lat="44.8131125" lon="7.5184247"><ele>249.39999999999998</ele><time>2026-05-03T13:37:00.139Z</time></trkpt><trkpt lat="44.8130376" lon="7.5185281"><ele>249.0</ele><time>2026-05-03T13:37:01.143Z</time></trkpt><trkpt lat="44.8129662" lon="7.5186389"><ele>248.79999999999998</ele><time>2026-05-03T13:37:02.135Z</time></trkpt><trkpt lat="44.8128935" lon="7.5187406"><ele>248.59999999999997</ele><time>2026-05-03T13:37:03.138Z</time></trkpt><trkpt lat="44.8128202" lon="7.518842"><ele>248.4</ele><time>2026-05-03T13:37:04.135Z</time></trkpt><trkpt lat="44.8127469" lon="7.5189383"><ele>248.2</ele><time>2026-05-03T13:37:05.152Z</time></trkpt><trkpt lat="44.8126809" lon="7.5190032"><ele>248.0</ele><time>2026-05-03T13:37:06.155Z</time></trkpt><trkpt lat="44.8126288" lon="7.5190937"><ele>248.00000000000003</ele><time>2026-05-03T13:37:07.14Z</time></trkpt><trkpt lat="44.8125899" lon="7.5191804"><ele>248.0</ele><time>2026-05-03T13:37:08.138Z</time></trkpt><trkpt lat="44.8125557" lon="7.51927"><ele>248.0</ele><time>2026-05-03T13:37:09.141Z</time></trkpt><trkpt lat="44.8125208" lon="7.5193629"><ele>248.0</ele><time>2026-05-03T13:37:10.137Z</time></trkpt><trkpt lat="44.8124812" lon="7.5194627"><ele>248.00000000000003</ele><time>2026-05-03T13:37:11.142Z</time></trkpt><trkpt lat="44.8124343" lon="7.5195761"><ele>248.0</ele><time>2026-05-03T13:37:12.142Z</time></trkpt><trkpt lat="44.8123903" lon="7.5196772"><ele>248.00000000000003</ele><time>2026-05-03T13:37:13.142Z</time></trkpt><trkpt lat="44.8123433" lon="7.5197816"><ele>248.0</ele><time>2026-05-03T13:37:14.145Z</time></trkpt><trkpt lat="44.8122918" lon="7.5198906"><ele>248.0</ele><time>2026-05-03T13:37:15.133Z</time></trkpt><trkpt lat="44.8122379" lon="7.5200068"><ele>248.0</ele><time>2026-05-03T13:37:16.098Z</time></trkpt><trkpt lat="44.8121854" lon="7.5201086"><ele>248.00000000000003</ele><time>2026-05-03T13:37:17.078Z</time></trkpt><trkpt lat="44.8121385" lon="7.5201983"><ele>248.0</ele><time>2026-05-03T13:37:18.095Z</time></trkpt><trkpt lat="44.8120884" lon="7.5202913"><ele>248.00000000000003</ele><time>2026-05-03T13:37:19.094Z</time></trkpt><trkpt lat="44.8120372" lon="7.5203846"><ele>248.0</ele><time>2026-05-03T13:37:20.084Z</time></trkpt><trkpt lat="44.8119875" lon="7.5204726"><ele>248.0</ele><time>2026-05-03T13:37:21.085Z</time></trkpt><trkpt lat="44.8119425" lon="7.5205651"><ele>248.0</ele><time>2026-05-03T13:37:22.083Z</time></trkpt><trkpt lat="44.8119027" lon="7.5206696"><ele>248.00000000000003</ele><time>2026-05-03T13:37:23.082Z</time></trkpt><trkpt lat="44.811879" lon="7.5207774"><ele>248.0</ele><time>2026-05-03T13:37:24.101Z</time></trkpt><trkpt lat="44.8118611" lon="7.5208961"><ele>248.0</ele><time>2026-05-03T13:37:25.083Z</time></trkpt><trkpt lat="44.8118446" lon="7.5210256"><ele>248.0</ele><time>2026-05-03T13:37:26.091Z</time></trkpt><trkpt lat="44.8118232" lon="7.5211594"><ele>248.0</ele><time>2026-05-03T13:37:27.086Z</time></trkpt><trkpt lat="44.8117935" lon="7.5213052"><ele>248.0</ele><time>2026-05-03T13:37:28.085Z</time></trkpt><trkpt lat="44.8117557" lon="7.5214622"><ele>248.0</ele><time>2026-05-03T13:37:29.086Z</time></trkpt><trkpt lat="44.8117163" lon="7.5216193"><ele>248.0</ele><time>2026-05-03T13:37:30.087Z</time></trkpt><trkpt lat="44.8116823" lon="7.5217614"><ele>248.0</ele><time>2026-05-03T13:37:31.085Z</time></trkpt><trkpt lat="44.8116455" lon="7.5219067"><ele>248.0</ele><time>2026-05-03T13:37:32.078Z</time></trkpt><trkpt lat="44.8116062" lon="7.5220471"><ele>248.0</ele><time>2026-05-03T13:37:33.094Z</time></trkpt><trkpt lat="44.8115733" lon="7.5221753"><ele>248.0</ele><time>2026-05-03T13:37:34.095Z</time></trkpt><trkpt lat="44.8115411" lon="7.5222909"><ele>248.16666666666669</ele><time>2026-05-03T13:37:35.088Z</time></trkpt><trkpt lat="44.8115132" lon="7.5224038"><ele>248.33333333333334</ele><time>2026-05-03T13:37:36.117Z</time></trkpt><trkpt lat="44.8114837" lon="7.5225071"><ele>248.5</ele><time>2026-05-03T13:37:37.084Z</time></trkpt><trkpt lat="44.8114611" lon="7.5225988"><ele>248.66666666666669</ele><time>2026-05-03T13:37:38.09Z</time></trkpt><trkpt lat="44.8114286" lon="7.5227353"><ele>248.83333333333334</ele><time>2026-05-03T13:37:40.094Z</time></trkpt><trkpt lat="44.8114216" lon="7.5228253"><ele>249.0</ele><time>2026-05-03T13:37:43.087Z</time></trkpt><trkpt lat="44.8113923" lon="7.522991"><ele>249.16666666666666</ele><time>2026-05-03T13:37:56.089Z</time></trkpt><trkpt lat="44.8113836" lon="7.5230957"><ele>249.33333333333331</ele><time>2026-05-03T13:37:57.104Z</time></trkpt><trkpt lat="44.8113937" lon="7.523192"><ele>249.5</ele><time>2026-05-03T13:37:58.079Z</time></trkpt><trkpt lat="44.8114262" lon="7.5232839"><ele>249.66666666666666</ele><time>2026-05-03T13:37:59.087Z</time></trkpt><trkpt lat="44.8114584" lon="7.5233943"><ele>249.83333333333331</ele><time>2026-05-03T13:38:00.083Z</time></trkpt><trkpt lat="44.8114931" lon="7.523519"><ele>250.0</ele><time>2026-05-03T13:38:01.097Z</time></trkpt><trkpt lat="44.8115289" lon="7.5236564"><ele>250.0</ele><time>2026-05-03T13:38:02.17Z</time></trkpt><trkpt lat="44.8115702" lon="7.5238071"><ele>250.0</ele><time>2026-05-03T13:38:03.143Z</time></trkpt><trkpt lat="44.8115963" lon="7.5239391"><ele>250.0</ele><time>2026-05-03T13:38:04.134Z</time></trkpt><trkpt lat="44.8116257" lon="7.5240659"><ele>250.0</ele><time>2026-05-03T13:38:05.136Z</time></trkpt><trkpt lat="44.8116519" lon="7.5241796"><ele>250.0</ele><time>2026-05-03T13:38:06.139Z</time></trkpt><trkpt lat="44.8116797" lon="7.5242834"><ele>250.0</ele><time>2026-05-03T13:38:07.14Z</time></trkpt><trkpt lat="44.8117083" lon="7.5243932"><ele>250.0</ele><time>2026-05-03T13:38:08.145Z</time></trkpt><trkpt lat="44.8117383" lon="7.5245249"><ele>250.0</ele><time>2026-05-03T13:38:09.141Z</time></trkpt><trkpt lat="44.81177" lon="7.5246681"><ele>250.0</ele><time>2026-05-03T13:38:10.146Z</time></trkpt><trkpt lat="44.8118018" lon="7.524808"><ele>250.0</ele><time>2026-05-03T13:38:11.149Z</time></trkpt><trkpt lat="44.811836" lon="7.5249191"><ele>249.8</ele><time>2026-05-03T13:38:12.141Z</time></trkpt><trkpt lat="44.8118722" lon="7.5250474"><ele>249.6</ele><time>2026-05-03T13:38:14.138Z</time></trkpt><trkpt lat="44.8119188" lon="7.5252168"><ele>249.39999999999998</ele><time>2026-05-03T13:38:22.14Z</time></trkpt><trkpt lat="44.8119428" lon="7.5253369"><ele>249.2</ele><time>2026-05-03T13:38:23.142Z</time></trkpt><trkpt lat="44.8119752" lon="7.5254695"><ele>249.0</ele><time>2026-05-03T13:38:24.141Z</time></trkpt><trkpt lat="44.8119998" lon="7.525591"><ele>248.6</ele><time>2026-05-03T13:38:25.153Z</time></trkpt><trkpt lat="44.8120322" lon="7.5257131"><ele>248.2</ele><time>2026-05-03T13:38:26.141Z</time></trkpt><trkpt lat="44.8120605" lon="7.5258127"><ele>247.79999999999998</ele><time>2026-05-03T13:38:27.148Z</time></trkpt><trkpt lat="44.8120867" lon="7.5259488"><ele>247.39999999999998</ele><time>2026-05-03T13:38:29.143Z</time></trkpt><trkpt lat="44.8120517" lon="7.5260685"><ele>247.0</ele><time>2026-05-03T13:38:31.134Z</time></trkpt><trkpt lat="44.8119321" lon="7.526082"><ele>247.0</ele><time>2026-05-03T13:38:33.139Z</time></trkpt><trkpt lat="44.8118521" lon="7.5260722"><ele>247.0</ele><time>2026-05-03T13:38:34.136Z</time></trkpt><trkpt lat="44.8117488" lon="7.5260483"><ele>247.0</ele><time>2026-05-03T13:38:35.141Z</time></trkpt><trkpt lat="44.811641" lon="7.5260313"><ele>247.0</ele><time>2026-05-03T13:38:36.148Z</time></trkpt><trkpt lat="44.8115403" lon="7.5260223"><ele>247.0</ele><time>2026-05-03T13:38:37.134Z</time></trkpt><trkpt lat="44.8114551" lon="7.5260013"><ele>246.83333333333331</ele><time>2026-05-03T13:38:38.132Z</time></trkpt><trkpt lat="44.8113839" lon="7.5259843"><ele>246.66666666666666</ele><time>2026-05-03T13:38:39.135Z</time></trkpt><trkpt lat="44.8113175" lon="7.5259723"><ele>246.5</ele><time>2026-05-03T13:38:40.139Z</time></trkpt><trkpt lat="44.8112462" lon="7.5260161"><ele>246.33333333333331</ele><time>2026-05-03T13:38:42.137Z</time></trkpt><trkpt lat="44.8112208" lon="7.526174"><ele>246.16666666666666</ele><time>2026-05-03T13:38:44.163Z</time></trkpt><trkpt lat="44.8112156" lon="7.5263304"><ele>246.0</ele><time>2026-05-03T13:38:45.138Z</time></trkpt><trkpt lat="44.8112313" lon="7.5264956"><ele>246.0</ele><time>2026-05-03T13:38:46.142Z</time></trkpt><trkpt lat="44.8112645" lon="7.5266343"><ele>246.00000000000003</ele><time>2026-05-03T13:38:47.141Z</time></trkpt><trkpt lat="44.8113149" lon="7.5267667"><ele>246.00000000000003</ele><time>2026-05-03T13:38:48.143Z</time></trkpt><trkpt lat="44.8113664" lon="7.5268792"><ele>246.0</ele><time>2026-05-03T13:38:49.132Z</time></trkpt><trkpt lat="44.8114168" lon="7.5269869"><ele>246.0</ele><time>2026-05-03T13:38:50.141Z</time></trkpt><trkpt lat="44.811463" lon="7.5270838"><ele>246.4</ele><time>2026-05-03T13:38:51.139Z</time></trkpt><trkpt lat="44.811505" lon="7.5271691"><ele>246.8</ele><time>2026-05-03T13:38:52.15Z</time></trkpt><trkpt lat="44.8115687" lon="7.527289"><ele>247.20000000000002</ele><time>2026-05-03T13:38:54.144Z</time></trkpt><trkpt lat="44.8116315" lon="7.5273545"><ele>247.60000000000002</ele><time>2026-05-03T13:39:14.151Z</time></trkpt><trkpt lat="44.811707" lon="7.5274966"><ele>248.0</ele><time>2026-05-03T13:39:16.152Z</time></trkpt><trkpt lat="44.8117533" lon="7.5275867"><ele>248.00000000000003</ele><time>2026-05-03T13:39:17.137Z</time></trkpt><trkpt lat="44.8118016" lon="7.5276781"><ele>248.0</ele><time>2026-05-03T13:39:18.139Z</time></trkpt><trkpt lat="44.8118549" lon="7.5277727"><ele>248.0</ele><time>2026-05-03T13:39:19.14Z</time></trkpt><trkpt lat="44.8119064" lon="7.5278716"><ele>248.0</ele><time>2026-05-03T13:39:20.142Z</time></trkpt><trkpt lat="44.8119527" lon="7.5279517"><ele>248.00000000000003</ele><time>2026-05-03T13:39:21.144Z</time></trkpt><trkpt lat="44.8119958" lon="7.5280389"><ele>248.0</ele><time>2026-05-03T13:39:22.142Z</time></trkpt><trkpt lat="44.8120393" lon="7.5281338"><ele>248.16666666666669</ele><time>2026-05-03T13:39:23.144Z</time></trkpt><trkpt lat="44.8120816" lon="7.5282352"><ele>248.33333333333334</ele><time>2026-05-03T13:39:24.163Z</time></trkpt><trkpt lat="44.8121213" lon="7.5283465"><ele>248.5</ele><time>2026-05-03T13:39:25.138Z</time></trkpt><trkpt lat="44.812159" lon="7.5284604"><ele>248.66666666666669</ele><time>2026-05-03T13:39:26.145Z</time></trkpt><trkpt lat="44.8121895" lon="7.5285794"><ele>248.83333333333334</ele><time>2026-05-03T13:39:27.152Z</time></trkpt><trkpt lat="44.812218" lon="7.5287048"><ele>249.0</ele><time>2026-05-03T13:39:28.139Z</time></trkpt><trkpt lat="44.8122511" lon="7.5288191"><ele>249.33333333333334</ele><time>2026-05-03T13:39:29.152Z</time></trkpt><trkpt lat="44.8122966" lon="7.5289107"><ele>249.66666666666669</ele><time>2026-05-03T13:39:30.141Z</time></trkpt><trkpt lat="44.8123403" lon="7.5290054"><ele>250.0</ele><time>2026-05-03T13:39:31.138Z</time></trkpt><trkpt lat="44.8123906" lon="7.5291106"><ele>250.33333333333334</ele><time>2026-05-03T13:39:32.146Z</time></trkpt><trkpt lat="44.8124376" lon="7.5292257"><ele>250.66666666666669</ele><time>2026-05-03T13:39:33.143Z</time></trkpt><trkpt lat="44.8124775" lon="7.5293524"><ele>251.0</ele><time>2026-05-03T13:39:34.147Z</time></trkpt><trkpt lat="44.8125025" lon="7.5294749"><ele>250.83333333333334</ele><time>2026-05-03T13:39:35.148Z</time></trkpt><trkpt lat="44.8125248" lon="7.5295864"><ele>250.66666666666669</ele><time>2026-05-03T13:39:36.154Z</time></trkpt><trkpt lat="44.8125439" lon="7.5296914"><ele>250.5</ele><time>2026-05-03T13:39:37.14Z</time></trkpt><trkpt lat="44.8125571" lon="7.5297908"><ele>250.33333333333331</ele><time>2026-05-03T13:39:38.144Z</time></trkpt><trkpt lat="44.8125859" lon="7.5298807"><ele>250.16666666666666</ele><time>2026-05-03T13:39:39.153Z</time></trkpt><trkpt lat="44.812638" lon="7.5299615"><ele>250.0</ele><time>2026-05-03T13:39:40.141Z</time></trkpt><trkpt lat="44.8126976" lon="7.5300391"><ele>249.6</ele><time>2026-05-03T13:39:41.141Z</time></trkpt><trkpt lat="44.812755" lon="7.5301313"><ele>249.2</ele><time>2026-05-03T13:39:42.142Z</time></trkpt><trkpt lat="44.8128073" lon="7.5302405"><ele>248.8</ele><time>2026-05-03T13:39:43.135Z</time></trkpt><trkpt lat="44.8128576" lon="7.5303642"><ele>248.4</ele><time>2026-05-03T13:39:44.149Z</time></trkpt><trkpt lat="44.8129086" lon="7.5304888"><ele>248.0</ele><time>2026-05-03T13:39:45.146Z</time></trkpt><trkpt lat="44.8129568" lon="7.5306124"><ele>248.00000000000003</ele><time>2026-05-03T13:39:46.145Z</time></trkpt><trkpt lat="44.8130059" lon="7.5307321"><ele>248.0</ele><time>2026-05-03T13:39:47.143Z</time></trkpt><trkpt lat="44.8130495" lon="7.530842"><ele>248.0</ele><time>2026-05-03T13:39:48.143Z</time></trkpt><trkpt lat="44.8130896" lon="7.5309414"><ele>248.0</ele><time>2026-05-03T13:39:49.136Z</time></trkpt><trkpt lat="44.8131253" lon="7.5310382"><ele>248.00000000000003</ele><time>2026-05-03T13:39:50.151Z</time></trkpt><trkpt lat="44.8131544" lon="7.5311226"><ele>248.0</ele><time>2026-05-03T13:39:51.148Z</time></trkpt><trkpt lat="44.8132035" lon="7.5312762"><ele>248.0</ele><time>2026-05-03T13:39:53.151Z</time></trkpt><trkpt lat="44.813279" lon="7.5313594"><ele>248.0</ele><time>2026-05-03T13:39:55.153Z</time></trkpt><trkpt lat="44.8133834" lon="7.531343"><ele>248.0</ele><time>2026-05-03T13:39:57.141Z</time></trkpt><trkpt lat="44.8134472" lon="7.531311"><ele>248.0</ele><time>2026-05-03T13:39:58.149Z</time></trkpt><trkpt lat="44.8135136" lon="7.5312739"><ele>248.0</ele><time>2026-05-03T13:39:59.141Z</time></trkpt><trkpt lat="44.8136214" lon="7.5312217"><ele>247.8</ele><time>2026-05-03T13:40:01.147Z</time></trkpt><trkpt lat="44.8137128" lon="7.5311729"><ele>247.60000000000002</ele><time>2026-05-03T13:40:03.142Z</time></trkpt><trkpt lat="44.8138066" lon="7.5311283"><ele>247.39999999999998</ele><time>2026-05-03T13:40:05.147Z</time></trkpt><trkpt lat="44.8139255" lon="7.5310691"><ele>247.2</ele><time>2026-05-03T13:40:07.17Z</time></trkpt><trkpt lat="44.8139956" lon="7.5310268"><ele>247.0</ele><time>2026-05-03T13:40:08.146Z</time></trkpt><trkpt lat="44.8140625" lon="7.5309907"><ele>246.99999999999997</ele><time>2026-05-03T13:40:09.149Z</time></trkpt><trkpt lat="44.8141261" lon="7.530957"><ele>247.0</ele><time>2026-05-03T13:40:10.146Z</time></trkpt><trkpt lat="44.814192" lon="7.5309296"><ele>247.0</ele><time>2026-05-03T13:40:11.146Z</time></trkpt><trkpt lat="44.814262" lon="7.5309206"><ele>247.0</ele><time>2026-05-03T13:40:12.146Z</time></trkpt><trkpt lat="44.814344" lon="7.5309309"><ele>246.99999999999997</ele><time>2026-05-03T13:40:13.143Z</time></trkpt><trkpt lat="44.8144356" lon="7.5309517"><ele>247.0</ele><time>2026-05-03T13:40:14.141Z</time></trkpt><trkpt lat="44.8145255" lon="7.530968"><ele>247.0</ele><time>2026-05-03T13:40:15.145Z</time></trkpt><trkpt lat="44.8146166" lon="7.5309869"><ele>247.0</ele><time>2026-05-03T13:40:16.143Z</time></trkpt><trkpt lat="44.8147148" lon="7.5310102"><ele>247.0</ele><time>2026-05-03T13:40:17.146Z</time></trkpt><trkpt lat="44.8148225" lon="7.5310295"><ele>247.0</ele><time>2026-05-03T13:40:18.14Z</time></trkpt><trkpt lat="44.8149318" lon="7.5310492"><ele>247.0</ele><time>2026-05-03T13:40:19.139Z</time></trkpt><trkpt lat="44.8150386" lon="7.5310703"><ele>246.99999999999997</ele><time>2026-05-03T13:40:20.15Z</time></trkpt><trkpt lat="44.8151313" lon="7.5310874"><ele>247.0</ele><time>2026-05-03T13:40:21.142Z</time></trkpt><trkpt lat="44.8152131" lon="7.5311028"><ele>247.0</ele><time>2026-05-03T13:40:22.166Z</time></trkpt><trkpt lat="44.8152981" lon="7.531117"><ele>247.0</ele><time>2026-05-03T13:40:23.153Z</time></trkpt><trkpt lat="44.8153854" lon="7.5311303"><ele>246.99999999999997</ele><time>2026-05-03T13:40:24.149Z</time></trkpt><trkpt lat="44.8154766" lon="7.5311427"><ele>247.0</ele><time>2026-05-03T13:40:25.144Z</time></trkpt><trkpt lat="44.8155597" lon="7.5311549"><ele>246.99999999999997</ele><time>2026-05-03T13:40:26.14Z</time></trkpt><trkpt lat="44.815635" lon="7.5311692"><ele>247.0</ele><time>2026-05-03T13:40:27.153Z</time></trkpt><trkpt lat="44.8157067" lon="7.5311829"><ele>247.0</ele><time>2026-05-03T13:40:28.144Z</time></trkpt><trkpt lat="44.8158208" lon="7.5312456"><ele>247.0</ele><time>2026-05-03T13:40:30.144Z</time></trkpt><trkpt lat="44.8158708" lon="7.5313055"><ele>246.99999999999997</ele><time>2026-05-03T13:40:31.14Z</time></trkpt><trkpt lat="44.8159167" lon="7.5313819"><ele>247.0</ele><time>2026-05-03T13:40:32.134Z</time></trkpt><trkpt lat="44.8159502" lon="7.5314619"><ele>246.83333333333331</ele><time>2026-05-03T13:40:33.142Z</time></trkpt><trkpt lat="44.8159693" lon="7.5315528"><ele>246.66666666666666</ele><time>2026-05-03T13:40:34.151Z</time></trkpt><trkpt lat="44.8159816" lon="7.5316655"><ele>246.5</ele><time>2026-05-03T13:40:35.155Z</time></trkpt><trkpt lat="44.8159971" lon="7.5317884"><ele>246.33333333333331</ele><time>2026-05-03T13:40:36.156Z</time></trkpt><trkpt lat="44.8159972" lon="7.5319187"><ele>246.16666666666666</ele><time>2026-05-03T13:40:37.15Z</time></trkpt><trkpt lat="44.8159869" lon="7.5320483"><ele>246.0</ele><time>2026-05-03T13:40:38.151Z</time></trkpt><trkpt lat="44.8159724" lon="7.532178"><ele>245.83333333333334</ele><time>2026-05-03T13:40:39.139Z</time></trkpt><trkpt lat="44.8159575" lon="7.5322994"><ele>245.66666666666669</ele><time>2026-05-03T13:40:40.158Z</time></trkpt><trkpt lat="44.8159431" lon="7.5324112"><ele>245.5</ele><time>2026-05-03T13:40:41.149Z</time></trkpt><trkpt lat="44.8159291" lon="7.5325238"><ele>245.33333333333334</ele><time>2026-05-03T13:40:42.144Z</time></trkpt><trkpt lat="44.8159125" lon="7.53264"><ele>245.16666666666669</ele><time>2026-05-03T13:40:43.146Z</time></trkpt><trkpt lat="44.8158975" lon="7.5327419"><ele>245.0</ele><time>2026-05-03T13:40:44.146Z</time></trkpt><trkpt lat="44.8158943" lon="7.5328946"><ele>245.33333333333334</ele><time>2026-05-03T13:40:46.14Z</time></trkpt><trkpt lat="44.8159548" lon="7.5329838"><ele>245.66666666666669</ele><time>2026-05-03T13:40:48.146Z</time></trkpt><trkpt lat="44.8160479" lon="7.5330428"><ele>246.0</ele><time>2026-05-03T13:40:50.141Z</time></trkpt><trkpt lat="44.8161137" lon="7.5330833"><ele>246.33333333333331</ele><time>2026-05-03T13:40:51.146Z</time></trkpt><trkpt lat="44.816183" lon="7.5331279"><ele>246.66666666666666</ele><time>2026-05-03T13:40:52.14Z</time></trkpt><trkpt lat="44.816246" lon="7.5331697"><ele>247.0</ele><time>2026-05-03T13:40:53.145Z</time></trkpt><trkpt lat="44.8163153" lon="7.5332124"><ele>246.99999999999997</ele><time>2026-05-03T13:40:54.148Z</time></trkpt><trkpt lat="44.816389" lon="7.5332573"><ele>247.0</ele><time>2026-05-03T13:40:55.146Z</time></trkpt><trkpt lat="44.8164554" lon="7.5333022"><ele>247.0</ele><time>2026-05-03T13:40:56.156Z</time></trkpt><trkpt lat="44.8165154" lon="7.5333405"><ele>247.0</ele><time>2026-05-03T13:40:57.137Z</time></trkpt><trkpt lat="44.8166127" lon="7.5334252"><ele>246.99999999999997</ele><time>2026-05-03T13:40:59.145Z</time></trkpt><trkpt lat="44.8166739" lon="7.5335537"><ele>247.0</ele><time>2026-05-03T13:41:01.14Z</time></trkpt><trkpt lat="44.8167015" lon="7.5337169"><ele>246.66666666666666</ele><time>2026-05-03T13:41:03.147Z</time></trkpt><trkpt lat="44.8167155" lon="7.5338204"><ele>246.33333333333331</ele><time>2026-05-03T13:41:04.143Z</time></trkpt><trkpt lat="44.8167238" lon="7.533915"><ele>246.0</ele><time>2026-05-03T13:41:05.14Z</time></trkpt><trkpt lat="44.8167292" lon="7.5340059"><ele>245.66666666666669</ele><time>2026-05-03T13:41:06.142Z</time></trkpt><trkpt lat="44.8167361" lon="7.5340975"><ele>245.33333333333334</ele><time>2026-05-03T13:41:07.152Z</time></trkpt><trkpt lat="44.8167448" lon="7.5341927"><ele>245.0</ele><time>2026-05-03T13:41:08.141Z</time></trkpt><trkpt lat="44.8167779" lon="7.5343484"><ele>245.4</ele><time>2026-05-03T13:41:10.143Z</time></trkpt><trkpt lat="44.8168662" lon="7.534403"><ele>245.8</ele><time>2026-05-03T13:41:12.15Z</time></trkpt><trkpt lat="44.816968" lon="7.5344073"><ele>246.2</ele><time>2026-05-03T13:41:14.157Z</time></trkpt><trkpt lat="44.8170788" lon="7.5344076"><ele>246.6</ele><time>2026-05-03T13:41:16.149Z</time></trkpt><trkpt lat="44.81716" lon="7.5344942"><ele>247.0</ele><time>2026-05-03T13:41:18.15Z</time></trkpt><trkpt lat="44.8172054" lon="7.5346477"><ele>247.14285714285717</ele><time>2026-05-03T13:41:20.147Z</time></trkpt><trkpt lat="44.8172343" lon="7.5347375"><ele>247.28571428571428</ele><time>2026-05-03T13:41:21.151Z</time></trkpt><trkpt lat="44.8172642" lon="7.5348271"><ele>247.42857142857144</ele><time>2026-05-03T13:41:22.151Z</time></trkpt><trkpt lat="44.8172969" lon="7.534916"><ele>247.57142857142858</ele><time>2026-05-03T13:41:23.148Z</time></trkpt><trkpt lat="44.8173327" lon="7.5350012"><ele>247.71428571428572</ele><time>2026-05-03T13:41:24.157Z</time></trkpt><trkpt lat="44.8173657" lon="7.5350782"><ele>247.85714285714286</ele><time>2026-05-03T13:41:25.141Z</time></trkpt><trkpt lat="44.8173973" lon="7.5351627"><ele>248.0</ele><time>2026-05-03T13:41:26.139Z</time></trkpt><trkpt lat="44.8174288" lon="7.5352494"><ele>248.00000000000003</ele><time>2026-05-03T13:41:27.146Z</time></trkpt><trkpt lat="44.8174662" lon="7.5353377"><ele>248.0</ele><time>2026-05-03T13:41:28.157Z</time></trkpt><trkpt lat="44.8174983" lon="7.5354199"><ele>248.0</ele><time>2026-05-03T13:41:29.146Z</time></trkpt><trkpt lat="44.8175307" lon="7.5355022"><ele>248.0</ele><time>2026-05-03T13:41:30.15Z</time></trkpt><trkpt lat="44.8175862" lon="7.5356569"><ele>248.00000000000003</ele><time>2026-05-03T13:41:32.145Z</time></trkpt><trkpt lat="44.8176175" lon="7.5357375"><ele>248.0</ele><time>2026-05-03T13:41:33.153Z</time></trkpt><trkpt lat="44.8176483" lon="7.5358324"><ele>248.0</ele><time>2026-05-03T13:41:34.156Z</time></trkpt><trkpt lat="44.8176807" lon="7.5359278"><ele>248.00000000000003</ele><time>2026-05-03T13:41:35.144Z</time></trkpt><trkpt lat="44.8177105" lon="7.5360212"><ele>248.0</ele><time>2026-05-03T13:41:36.156Z</time></trkpt><trkpt lat="44.8177369" lon="7.5361081"><ele>248.0</ele><time>2026-05-03T13:41:37.156Z</time></trkpt><trkpt lat="44.8177652" lon="7.5361948"><ele>248.00000000000003</ele><time>2026-05-03T13:41:38.147Z</time></trkpt><trkpt lat="44.8177924" lon="7.5362833"><ele>248.0</ele><time>2026-05-03T13:41:39.176Z</time></trkpt><trkpt lat="44.8178225" lon="7.5363669"><ele>248.0</ele><time>2026-05-03T13:41:40.146Z</time></trkpt><trkpt lat="44.8178536" lon="7.5364504"><ele>248.0</ele><time>2026-05-03T13:41:41.146Z</time></trkpt><trkpt lat="44.8179075" lon="7.5366052"><ele>248.0</ele><time>2026-05-03T13:41:43.142Z</time></trkpt><trkpt lat="44.8179578" lon="7.5367489"><ele>248.0</ele><time>2026-05-03T13:41:45.143Z</time></trkpt><trkpt lat="44.8179855" lon="7.5368289"><ele>248.0</ele><time>2026-05-03T13:41:46.143Z</time></trkpt><trkpt lat="44.8180175" lon="7.5369149"><ele>248.0</ele><time>2026-05-03T13:41:47.143Z</time></trkpt><trkpt lat="44.8180674" lon="7.5370647"><ele>248.16666666666669</ele><time>2026-05-03T13:41:49.139Z</time></trkpt><trkpt lat="44.8181019" lon="7.5372075"><ele>248.33333333333334</ele><time>2026-05-03T13:41:51.153Z</time></trkpt><trkpt lat="44.8181283" lon="7.5373557"><ele>248.5</ele><time>2026-05-03T13:41:53.143Z</time></trkpt><trkpt lat="44.8181451" lon="7.5374421"><ele>248.66666666666669</ele><time>2026-05-03T13:41:54.153Z</time></trkpt><trkpt lat="44.8181692" lon="7.5375335"><ele>248.83333333333334</ele><time>2026-05-03T13:41:55.144Z</time></trkpt><trkpt lat="44.8181901" lon="7.5376377"><ele>249.0</ele><time>2026-05-03T13:41:56.172Z</time></trkpt><trkpt lat="44.818208" lon="7.5377314"><ele>249.0</ele><time>2026-05-03T13:41:57.148Z</time></trkpt><trkpt lat="44.8182387" lon="7.5378923"><ele>249.0</ele><time>2026-05-03T13:41:59.14Z</time></trkpt><trkpt lat="44.8182755" lon="7.5380547"><ele>249.0</ele><time>2026-05-03T13:42:01.148Z</time></trkpt><trkpt lat="44.8183164" lon="7.5381988"><ele>249.0</ele><time>2026-05-03T13:42:03.151Z</time></trkpt><trkpt lat="44.8183849" lon="7.5383342"><ele>249.0</ele><time>2026-05-03T13:42:05.149Z</time></trkpt><trkpt lat="44.8184232" lon="7.5384072"><ele>248.99999999999997</ele><time>2026-05-03T13:42:06.151Z</time></trkpt><trkpt lat="44.818462" lon="7.5384813"><ele>249.0</ele><time>2026-05-03T13:42:07.147Z</time></trkpt><trkpt lat="44.81851" lon="7.5385633"><ele>249.0</ele><time>2026-05-03T13:42:08.141Z</time></trkpt><trkpt lat="44.8185542" lon="7.5386451"><ele>248.99999999999997</ele><time>2026-05-03T13:42:09.147Z</time></trkpt><trkpt lat="44.8186015" lon="7.538728"><ele>249.0</ele><time>2026-05-03T13:42:10.15Z</time></trkpt><trkpt lat="44.8186481" lon="7.5388147"><ele>249.0</ele><time>2026-05-03T13:42:11.146Z</time></trkpt><trkpt lat="44.8186938" lon="7.5388964"><ele>248.5</ele><time>2026-05-03T13:42:12.145Z</time></trkpt><trkpt lat="44.8187359" lon="7.5389677"><ele>248.0</ele><time>2026-05-03T13:42:13.146Z</time></trkpt><trkpt lat="44.8188077" lon="7.5390795"><ele>247.5</ele><time>2026-05-03T13:42:15.144Z</time></trkpt><trkpt lat="44.8188559" lon="7.5391544"><ele>247.0</ele><time>2026-05-03T13:42:17.154Z</time></trkpt><trkpt lat="44.8189184" lon="7.539189"><ele>246.5</ele><time>2026-05-03T13:43:21.153Z</time></trkpt><trkpt lat="44.8190034" lon="7.5392161"><ele>246.0</ele><time>2026-05-03T13:43:23.144Z</time></trkpt><trkpt lat="44.8190798" lon="7.5392233"><ele>246.0</ele><time>2026-05-03T13:43:25.152Z</time></trkpt><trkpt lat="44.8191441" lon="7.5392273"><ele>246.0</ele><time>2026-05-03T13:43:27.147Z</time></trkpt><trkpt lat="44.8192217" lon="7.5392403"><ele>246.0</ele><time>2026-05-03T13:43:38.149Z</time></trkpt><trkpt lat="44.8193177" lon="7.5392501"><ele>246.0</ele><time>2026-05-03T13:43:40.148Z</time></trkpt><trkpt lat="44.8193878" lon="7.5392549"><ele>246.0</ele><time>2026-05-03T13:43:41.151Z</time></trkpt><trkpt lat="44.8194674" lon="7.5392527"><ele>246.0</ele><time>2026-05-03T13:43:42.15Z</time></trkpt><trkpt lat="44.8195486" lon="7.53925"><ele>246.0</ele><time>2026-05-03T13:43:43.149Z</time></trkpt><trkpt lat="44.8196217" lon="7.5392419"><ele>246.0</ele><time>2026-05-03T13:43:44.148Z</time></trkpt><trkpt lat="44.8197027" lon="7.5392296"><ele>246.0</ele><time>2026-05-03T13:43:45.137Z</time></trkpt><trkpt lat="44.8197935" lon="7.539217"><ele>246.0</ele><time>2026-05-03T13:43:46.133Z</time></trkpt><trkpt lat="44.8198875" lon="7.539205"><ele>246.0</ele><time>2026-05-03T13:43:47.143Z</time></trkpt><trkpt lat="44.8199866" lon="7.539189"><ele>246.0</ele><time>2026-05-03T13:43:48.138Z</time></trkpt><trkpt lat="44.8200899" lon="7.539171"><ele>246.4</ele><time>2026-05-03T13:43:49.152Z</time></trkpt><trkpt lat="44.8201941" lon="7.5391503"><ele>246.8</ele><time>2026-05-03T13:43:50.154Z</time></trkpt><trkpt lat="44.8202894" lon="7.539125"><ele>247.20000000000002</ele><time>2026-05-03T13:43:51.14Z</time></trkpt><trkpt lat="44.8203754" lon="7.5391037"><ele>247.60000000000002</ele><time>2026-05-03T13:43:52.141Z</time></trkpt><trkpt lat="44.8204558" lon="7.5390861"><ele>248.0</ele><time>2026-05-03T13:43:53.137Z</time></trkpt><trkpt lat="44.8205347" lon="7.5390683"><ele>248.00000000000003</ele><time>2026-05-03T13:43:54.143Z</time></trkpt><trkpt lat="44.8206175" lon="7.5390531"><ele>248.0</ele><time>2026-05-03T13:43:55.138Z</time></trkpt><trkpt lat="44.8206988" lon="7.5390357"><ele>248.0</ele><time>2026-05-03T13:43:56.141Z</time></trkpt><trkpt lat="44.8207722" lon="7.5390184"><ele>248.0</ele><time>2026-05-03T13:43:57.136Z</time></trkpt><trkpt lat="44.8208597" lon="7.5389981"><ele>248.00000000000003</ele><time>2026-05-03T13:43:58.144Z</time></trkpt><trkpt lat="44.8209466" lon="7.5389773"><ele>248.0</ele><time>2026-05-03T13:43:59.144Z</time></trkpt><trkpt lat="44.8210316" lon="7.5389617"><ele>247.83333333333334</ele><time>2026-05-03T13:44:00.151Z</time></trkpt><trkpt lat="44.8211143" lon="7.5389414"><ele>247.66666666666669</ele><time>2026-05-03T13:44:01.139Z</time></trkpt><trkpt lat="44.8211994" lon="7.5389243"><ele>247.5</ele><time>2026-05-03T13:44:02.142Z</time></trkpt><trkpt lat="44.8212862" lon="7.5389013"><ele>247.33333333333331</ele><time>2026-05-03T13:44:03.143Z</time></trkpt><trkpt lat="44.8213651" lon="7.5388858"><ele>247.16666666666666</ele><time>2026-05-03T13:44:04.141Z</time></trkpt><trkpt lat="44.8214443" lon="7.5388714"><ele>247.0</ele><time>2026-05-03T13:44:05.156Z</time></trkpt><trkpt lat="44.8215169" lon="7.5388513"><ele>246.99999999999997</ele><time>2026-05-03T13:44:06.146Z</time></trkpt><trkpt lat="44.8215803" lon="7.5388374"><ele>247.0</ele><time>2026-05-03T13:44:07.142Z</time></trkpt><trkpt lat="44.8216801" lon="7.5388168"><ele>247.0</ele><time>2026-05-03T13:44:09.142Z</time></trkpt><trkpt lat="44.8217509" lon="7.5388136"><ele>247.0</ele><time>2026-05-03T13:44:21.151Z</time></trkpt><trkpt lat="44.8217821" lon="7.5388937"><ele>246.99999999999997</ele><time>2026-05-03T13:44:25.14Z</time></trkpt><trkpt lat="44.821769" lon="7.5390245"><ele>247.0</ele><time>2026-05-03T13:44:27.147Z</time></trkpt><trkpt lat="44.8217566" lon="7.5391194"><ele>247.0</ele><time>2026-05-03T13:44:28.144Z</time></trkpt><trkpt lat="44.8217416" lon="7.5392271"><ele>247.0</ele><time>2026-05-03T13:44:29.14Z</time></trkpt><trkpt lat="44.8217246" lon="7.5393428"><ele>247.0</ele><time>2026-05-03T13:44:30.138Z</time></trkpt><trkpt lat="44.821707" lon="7.5394694"><ele>247.0</ele><time>2026-05-03T13:44:31.145Z</time></trkpt><trkpt lat="44.8216887" lon="7.5396129"><ele>247.0</ele><time>2026-05-03T13:44:32.147Z</time></trkpt><trkpt lat="44.8216712" lon="7.5397608"><ele>247.2</ele><time>2026-05-03T13:44:33.15Z</time></trkpt><trkpt lat="44.8216524" lon="7.5398951"><ele>247.39999999999998</ele><time>2026-05-03T13:44:34.146Z</time></trkpt><trkpt lat="44.8216326" lon="7.5400246"><ele>247.60000000000002</ele><time>2026-05-03T13:44:35.143Z</time></trkpt><trkpt lat="44.8216128" lon="7.5401509"><ele>247.8</ele><time>2026-05-03T13:44:36.148Z</time></trkpt><trkpt lat="44.8215928" lon="7.5402757"><ele>248.0</ele><time>2026-05-03T13:44:37.141Z</time></trkpt><trkpt lat="44.8215759" lon="7.5404101"><ele>248.2</ele><time>2026-05-03T13:44:38.146Z</time></trkpt><trkpt lat="44.8215536" lon="7.5405535"><ele>248.4</ele><time>2026-05-03T13:44:39.14Z</time></trkpt><trkpt lat="44.8215313" lon="7.5406996"><ele>248.59999999999997</ele><time>2026-05-03T13:44:40.151Z</time></trkpt><trkpt lat="44.8215124" lon="7.5408377"><ele>248.79999999999998</ele><time>2026-05-03T13:44:41.141Z</time></trkpt><trkpt lat="44.8214968" lon="7.5409583"><ele>249.0</ele><time>2026-05-03T13:44:42.143Z</time></trkpt><trkpt lat="44.8214811" lon="7.5410692"><ele>249.0</ele><time>2026-05-03T13:44:43.141Z</time></trkpt><trkpt lat="44.8214631" lon="7.5411859"><ele>249.0</ele><time>2026-05-03T13:44:44.144Z</time></trkpt><trkpt lat="44.8214451" lon="7.5413113"><ele>249.0</ele><time>2026-05-03T13:44:45.139Z</time></trkpt><trkpt lat="44.8214277" lon="7.5414275"><ele>249.0</ele><time>2026-05-03T13:44:46.142Z</time></trkpt><trkpt lat="44.8214086" lon="7.5415486"><ele>249.0</ele><time>2026-05-03T13:44:47.139Z</time></trkpt><trkpt lat="44.8213915" lon="7.5416611"><ele>249.0</ele><time>2026-05-03T13:44:48.154Z</time></trkpt><trkpt lat="44.8213739" lon="7.5417798"><ele>248.79999999999998</ele><time>2026-05-03T13:44:49.14Z</time></trkpt><trkpt lat="44.8213552" lon="7.5419057"><ele>248.59999999999997</ele><time>2026-05-03T13:44:50.144Z</time></trkpt><trkpt lat="44.8213368" lon="7.5420316"><ele>248.4</ele><time>2026-05-03T13:44:51.131Z</time></trkpt><trkpt lat="44.8213185" lon="7.542167"><ele>248.2</ele><time>2026-05-03T13:44:52.143Z</time></trkpt><trkpt lat="44.8212977" lon="7.542306"><ele>248.0</ele><time>2026-05-03T13:44:53.144Z</time></trkpt><trkpt lat="44.8212773" lon="7.5424466"><ele>248.00000000000003</ele><time>2026-05-03T13:44:54.142Z</time></trkpt><trkpt lat="44.8212571" lon="7.5425764"><ele>248.0</ele><time>2026-05-03T13:44:55.144Z</time></trkpt><trkpt lat="44.821244" lon="7.5427"><ele>248.0</ele><time>2026-05-03T13:44:56.146Z</time></trkpt><trkpt lat="44.8212461" lon="7.5428152"><ele>248.0</ele><time>2026-05-03T13:44:57.147Z</time></trkpt><trkpt lat="44.8212557" lon="7.5429401"><ele>248.00000000000003</ele><time>2026-05-03T13:44:58.139Z</time></trkpt><trkpt lat="44.8212738" lon="7.5430455"><ele>248.0</ele><time>2026-05-03T13:44:59.155Z</time></trkpt><trkpt lat="44.8212886" lon="7.5431536"><ele>248.0</ele><time>2026-05-03T13:45:00.152Z</time></trkpt><trkpt lat="44.821306" lon="7.5432632"><ele>248.00000000000003</ele><time>2026-05-03T13:45:01.153Z</time></trkpt><trkpt lat="44.8213234" lon="7.5433729"><ele>248.0</ele><time>2026-05-03T13:45:02.147Z</time></trkpt><trkpt lat="44.821339" lon="7.543471"><ele>248.0</ele><time>2026-05-03T13:45:03.153Z</time></trkpt><trkpt lat="44.8213523" lon="7.5435745"><ele>248.00000000000003</ele><time>2026-05-03T13:45:04.143Z</time></trkpt><trkpt lat="44.8213688" lon="7.5436777"><ele>248.0</ele><time>2026-05-03T13:45:05.143Z</time></trkpt><trkpt lat="44.8213836" lon="7.5437689"><ele>248.0</ele><time>2026-05-03T13:45:06.151Z</time></trkpt><trkpt lat="44.8213967" lon="7.5438591"><ele>248.00000000000003</ele><time>2026-05-03T13:45:07.149Z</time></trkpt><trkpt lat="44.8213997" lon="7.5440474"><ele>248.0</ele><time>2026-05-03T13:45:09.144Z</time></trkpt><trkpt lat="44.8213896" lon="7.5441573"><ele>248.0</ele><time>2026-05-03T13:45:10.153Z</time></trkpt><trkpt lat="44.8213792" lon="7.5442689"><ele>248.0</ele><time>2026-05-03T13:45:11.146Z</time></trkpt><trkpt lat="44.8213702" lon="7.5443747"><ele>248.00000000000003</ele><time>2026-05-03T13:45:12.145Z</time></trkpt><trkpt lat="44.8213595" lon="7.5444838"><ele>248.0</ele><time>2026-05-03T13:45:13.149Z</time></trkpt><trkpt lat="44.821349" lon="7.5445934"><ele>247.83333333333334</ele><time>2026-05-03T13:45:14.146Z</time></trkpt><trkpt lat="44.8213392" lon="7.5447029"><ele>247.66666666666669</ele><time>2026-05-03T13:45:15.147Z</time></trkpt><trkpt lat="44.8213321" lon="7.5448161"><ele>247.5</ele><time>2026-05-03T13:45:16.147Z</time></trkpt><trkpt lat="44.8213241" lon="7.5449271"><ele>247.33333333333331</ele><time>2026-05-03T13:45:17.155Z</time></trkpt><trkpt lat="44.8213185" lon="7.5450377"><ele>247.16666666666666</ele><time>2026-05-03T13:45:18.152Z</time></trkpt><trkpt lat="44.82131" lon="7.5451372"><ele>247.0</ele><time>2026-05-03T13:45:19.149Z</time></trkpt><trkpt lat="44.8213004" lon="7.545229"><ele>246.99999999999997</ele><time>2026-05-03T13:45:20.151Z</time></trkpt><trkpt lat="44.8212928" lon="7.5453188"><ele>247.0</ele><time>2026-05-03T13:45:21.146Z</time></trkpt><trkpt lat="44.8212834" lon="7.5454118"><ele>247.0</ele><time>2026-05-03T13:45:22.151Z</time></trkpt><trkpt lat="44.8212594" lon="7.5455869"><ele>247.0</ele><time>2026-05-03T13:45:24.149Z</time></trkpt><trkpt lat="44.8212532" lon="7.5456793"><ele>246.99999999999997</ele><time>2026-05-03T13:45:25.148Z</time></trkpt><trkpt lat="44.8212397" lon="7.5457681"><ele>247.0</ele><time>2026-05-03T13:45:26.142Z</time></trkpt><trkpt lat="44.8212259" lon="7.545874"><ele>246.99999999999997</ele><time>2026-05-03T13:45:28.15Z</time></trkpt><trkpt lat="44.8212171" lon="7.5459804"><ele>247.0</ele><time>2026-05-03T13:45:32.154Z</time></trkpt><trkpt lat="44.8211995" lon="7.5460734"><ele>247.0</ele><time>2026-05-03T13:45:34.151Z</time></trkpt><trkpt lat="44.8211731" lon="7.546169"><ele>247.0</ele><time>2026-05-03T13:45:37.15Z</time></trkpt><trkpt lat="44.8211741" lon="7.5462911"><ele>246.99999999999997</ele><time>2026-05-03T13:46:34.149Z</time></trkpt><trkpt lat="44.821163" lon="7.5464227"><ele>247.0</ele><time>2026-05-03T13:46:36.148Z</time></trkpt><trkpt lat="44.8211384" lon="7.5465513"><ele>246.99999999999997</ele><time>2026-05-03T13:46:38.145Z</time></trkpt><trkpt lat="44.8211262" lon="7.5466391"><ele>247.0</ele><time>2026-05-03T13:46:39.144Z</time></trkpt><trkpt lat="44.8211173" lon="7.546727"><ele>247.0</ele><time>2026-05-03T13:46:40.147Z</time></trkpt><trkpt lat="44.8211057" lon="7.5469017"><ele>247.0</ele><time>2026-05-03T13:46:42.148Z</time></trkpt><trkpt lat="44.8210978" lon="7.5469901"><ele>246.99999999999997</ele><time>2026-05-03T13:46:43.165Z</time></trkpt><trkpt lat="44.8210944" lon="7.5471655"><ele>247.0</ele><time>2026-05-03T13:46:45.15Z</time></trkpt><trkpt lat="44.8210861" lon="7.5473399"><ele>246.99999999999997</ele><time>2026-05-03T13:46:47.159Z</time></trkpt><trkpt lat="44.8210819" lon="7.5475147"><ele>247.0</ele><time>2026-05-03T13:46:49.145Z</time></trkpt><trkpt lat="44.8210745" lon="7.5476879"><ele>247.0</ele><time>2026-05-03T13:46:51.137Z</time></trkpt><trkpt lat="44.821073" lon="7.5477772"><ele>247.0</ele><time>2026-05-03T13:46:52.152Z</time></trkpt><trkpt lat="44.8210718" lon="7.5478682"><ele>246.99999999999997</ele><time>2026-05-03T13:46:53.143Z</time></trkpt><trkpt lat="44.8210691" lon="7.5479577"><ele>247.0</ele><time>2026-05-03T13:46:54.148Z</time></trkpt><trkpt lat="44.8210667" lon="7.5480498"><ele>246.99999999999997</ele><time>2026-05-03T13:46:55.149Z</time></trkpt><trkpt lat="44.8210638" lon="7.5481399"><ele>247.0</ele><time>2026-05-03T13:46:56.151Z</time></trkpt><trkpt lat="44.8210569" lon="7.5482295"><ele>247.0</ele><time>2026-05-03T13:46:57.149Z</time></trkpt><trkpt lat="44.8210542" lon="7.5484094"><ele>247.0</ele><time>2026-05-03T13:46:59.149Z</time></trkpt><trkpt lat="44.8210542" lon="7.5485017"><ele>246.99999999999997</ele><time>2026-05-03T13:47:00.144Z</time></trkpt><trkpt lat="44.8210508" lon="7.5485989"><ele>247.0</ele><time>2026-05-03T13:47:01.136Z</time></trkpt><trkpt lat="44.8210499" lon="7.5486967"><ele>247.0</ele><time>2026-05-03T13:47:02.153Z</time></trkpt><trkpt lat="44.8210442" lon="7.5488021"><ele>247.0</ele><time>2026-05-03T13:47:03.147Z</time></trkpt><trkpt lat="44.8210375" lon="7.5489018"><ele>247.0</ele><time>2026-05-03T13:47:04.143Z</time></trkpt><trkpt lat="44.8210333" lon="7.548997"><ele>247.0</ele><time>2026-05-03T13:47:05.148Z</time></trkpt><trkpt lat="44.8210293" lon="7.5490918"><ele>247.0</ele><time>2026-05-03T13:47:06.153Z</time></trkpt><trkpt lat="44.8210284" lon="7.5491846"><ele>247.0</ele><time>2026-05-03T13:47:07.143Z</time></trkpt><trkpt lat="44.8210263" lon="7.5492811"><ele>247.0</ele><time>2026-05-03T13:47:08.141Z</time></trkpt><trkpt lat="44.8210255" lon="7.5493723"><ele>247.0</ele><time>2026-05-03T13:47:09.141Z</time></trkpt><trkpt lat="44.8210273" lon="7.549514"><ele>247.0</ele><time>2026-05-03T13:47:11.153Z</time></trkpt><trkpt lat="44.8210239" lon="7.5496345"><ele>247.0</ele><time>2026-05-03T13:47:13.155Z</time></trkpt><trkpt lat="44.8210067" lon="7.5497599"><ele>247.0</ele><time>2026-05-03T13:47:15.144Z</time></trkpt><trkpt lat="44.8210172" lon="7.5498992"><ele>247.0</ele><time>2026-05-03T13:47:17.144Z</time></trkpt><trkpt lat="44.8210814" lon="7.5500397"><ele>247.0</ele><time>2026-05-03T13:47:19.145Z</time></trkpt><trkpt lat="44.8211394" lon="7.5501697"><ele>247.0</ele><time>2026-05-03T13:47:21.143Z</time></trkpt><trkpt lat="44.8211994" lon="7.5503283"><ele>247.0</ele><time>2026-05-03T13:47:23.142Z</time></trkpt><trkpt lat="44.8212285" lon="7.5504071"><ele>247.0</ele><time>2026-05-03T13:47:24.147Z</time></trkpt><trkpt lat="44.8212867" lon="7.5505691"><ele>247.0</ele><time>2026-05-03T13:47:26.139Z</time></trkpt><trkpt lat="44.8213241" lon="7.55066"><ele>246.99999999999997</ele><time>2026-05-03T13:47:27.148Z</time></trkpt><trkpt lat="44.8213497" lon="7.5507599"><ele>247.0</ele><time>2026-05-03T13:47:28.148Z</time></trkpt><trkpt lat="44.8213551" lon="7.5508557"><ele>247.0</ele><time>2026-05-03T13:47:29.139Z</time></trkpt><trkpt lat="44.8213573" lon="7.5509455"><ele>247.0</ele><time>2026-05-03T13:47:30.145Z</time></trkpt><trkpt lat="44.8213725" lon="7.5511078"><ele>246.99999999999997</ele><time>2026-05-03T13:47:32.142Z</time></trkpt><trkpt lat="44.8214226" lon="7.551266"><ele>247.0</ele><time>2026-05-03T13:47:34.146Z</time></trkpt><trkpt lat="44.8214545" lon="7.5513452"><ele>247.2</ele><time>2026-05-03T13:47:35.144Z</time></trkpt><trkpt lat="44.8215076" lon="7.5514804"><ele>247.39999999999998</ele><time>2026-05-03T13:47:37.148Z</time></trkpt><trkpt lat="44.821508" lon="7.5516029"><ele>247.60000000000002</ele><time>2026-05-03T13:47:39.144Z</time></trkpt><trkpt lat="44.821438" lon="7.5517017"><ele>247.8</ele><time>2026-05-03T13:47:41.144Z</time></trkpt><trkpt lat="44.821319" lon="7.5517766"><ele>248.0</ele><time>2026-05-03T13:47:43.149Z</time></trkpt><trkpt lat="44.821251" lon="7.551814"><ele>248.00000000000003</ele><time>2026-05-03T13:47:44.144Z</time></trkpt><trkpt lat="44.8211855" lon="7.5518514"><ele>248.0</ele><time>2026-05-03T13:47:45.143Z</time></trkpt><trkpt lat="44.8211258" lon="7.5518858"><ele>248.0</ele><time>2026-05-03T13:47:46.143Z</time></trkpt><trkpt lat="44.8210638" lon="7.5519222"><ele>248.0</ele><time>2026-05-03T13:47:47.149Z</time></trkpt><trkpt lat="44.8210024" lon="7.5519581"><ele>248.00000000000003</ele><time>2026-05-03T13:47:48.155Z</time></trkpt><trkpt lat="44.8209076" lon="7.5520368"><ele>248.0</ele><time>2026-05-03T13:47:50.15Z</time></trkpt><trkpt lat="44.8208232" lon="7.5521771"><ele>247.60000000000002</ele><time>2026-05-03T13:47:52.145Z</time></trkpt><trkpt lat="44.8207756" lon="7.5522816"><ele>247.20000000000002</ele><time>2026-05-03T13:47:53.143Z</time></trkpt><trkpt lat="44.8207353" lon="7.5524052"><ele>246.8</ele><time>2026-05-03T13:47:54.158Z</time></trkpt><trkpt lat="44.8206964" lon="7.5525409"><ele>246.4</ele><time>2026-05-03T13:47:55.145Z</time></trkpt><trkpt lat="44.8206645" lon="7.5526717"><ele>246.0</ele><time>2026-05-03T13:47:56.144Z</time></trkpt><trkpt lat="44.8206399" lon="7.5527896"><ele>246.0</ele><time>2026-05-03T13:47:57.14Z</time></trkpt><trkpt lat="44.820613" lon="7.552908"><ele>246.0</ele><time>2026-05-03T13:47:58.144Z</time></trkpt><trkpt lat="44.8205877" lon="7.5530221"><ele>246.0</ele><time>2026-05-03T13:47:59.147Z</time></trkpt><trkpt lat="44.8205681" lon="7.5531246"><ele>246.0</ele><time>2026-05-03T13:48:00.143Z</time></trkpt><trkpt lat="44.8205406" lon="7.5532852"><ele>246.0</ele><time>2026-05-03T13:48:02.147Z</time></trkpt><trkpt lat="44.8205258" lon="7.553377"><ele>246.0</ele><time>2026-05-03T13:48:04.146Z</time></trkpt><trkpt lat="44.8204839" lon="7.5534458"><ele>246.0</ele><time>2026-05-03T13:48:31.143Z</time></trkpt><trkpt lat="44.8204165" lon="7.5534722"><ele>246.00000000000003</ele><time>2026-05-03T13:48:33.147Z</time></trkpt><trkpt lat="44.8203243" lon="7.5534736"><ele>246.00000000000003</ele><time>2026-05-03T13:48:35.145Z</time></trkpt><trkpt lat="44.8202309" lon="7.5534809"><ele>246.0</ele><time>2026-05-03T13:48:37.149Z</time></trkpt><trkpt lat="44.8201316" lon="7.5534854"><ele>246.0</ele><time>2026-05-03T13:48:39.144Z</time></trkpt><trkpt lat="44.820034" lon="7.5534898"><ele>245.8</ele><time>2026-05-03T13:48:41.147Z</time></trkpt><trkpt lat="44.8199387" lon="7.5534963"><ele>245.60000000000002</ele><time>2026-05-03T13:48:43.143Z</time></trkpt><trkpt lat="44.8198471" lon="7.553506"><ele>245.4</ele><time>2026-05-03T13:48:45.143Z</time></trkpt><trkpt lat="44.8197552" lon="7.5535127"><ele>245.2</ele><time>2026-05-03T13:48:47.149Z</time></trkpt><trkpt lat="44.8196516" lon="7.5535168"><ele>245.0</ele><time>2026-05-03T13:48:49.146Z</time></trkpt><trkpt lat="44.8195321" lon="7.5535235"><ele>245.00000000000003</ele><time>2026-05-03T13:48:51.141Z</time></trkpt><trkpt lat="44.8194634" lon="7.5535295"><ele>245.0</ele><time>2026-05-03T13:48:52.141Z</time></trkpt><trkpt lat="44.8193915" lon="7.5535354"><ele>245.0</ele><time>2026-05-03T13:48:53.149Z</time></trkpt><trkpt lat="44.819316" lon="7.5535436"><ele>245.0</ele><time>2026-05-03T13:48:54.149Z</time></trkpt><trkpt lat="44.819233" lon="7.5535523"><ele>245.00000000000003</ele><time>2026-05-03T13:48:55.146Z</time></trkpt><trkpt lat="44.8191561" lon="7.5535587"><ele>245.0</ele><time>2026-05-03T13:48:56.146Z</time></trkpt><trkpt lat="44.8190808" lon="7.5535607"><ele>244.83333333333334</ele><time>2026-05-03T13:48:57.146Z</time></trkpt><trkpt lat="44.8190077" lon="7.5535651"><ele>244.66666666666669</ele><time>2026-05-03T13:48:58.143Z</time></trkpt><trkpt lat="44.8189321" lon="7.5535708"><ele>244.5</ele><time>2026-05-03T13:48:59.148Z</time></trkpt><trkpt lat="44.8188672" lon="7.5535788"><ele>244.33333333333331</ele><time>2026-05-03T13:49:00.145Z</time></trkpt><trkpt lat="44.8187531" lon="7.5535893"><ele>244.16666666666666</ele><time>2026-05-03T13:49:02.159Z</time></trkpt><trkpt lat="44.818657" lon="7.5535981"><ele>244.0</ele><time>2026-05-03T13:49:04.155Z</time></trkpt><trkpt lat="44.8185861" lon="7.5536452"><ele>244.49999999999997</ele><time>2026-05-03T13:49:06.145Z</time></trkpt><trkpt lat="44.8185563" lon="7.5537353"><ele>245.0</ele><time>2026-05-03T13:49:08.141Z</time></trkpt><trkpt lat="44.8185658" lon="7.5538825"><ele>245.5</ele><time>2026-05-03T13:49:10.141Z</time></trkpt><trkpt lat="44.8185834" lon="7.5539714"><ele>246.0</ele><time>2026-05-03T13:49:11.154Z</time></trkpt><trkpt lat="44.8186079" lon="7.5540674"><ele>246.49999999999997</ele><time>2026-05-03T13:49:12.146Z</time></trkpt><trkpt lat="44.818633" lon="7.554171"><ele>247.0</ele><time>2026-05-03T13:49:13.147Z</time></trkpt><trkpt lat="44.818653" lon="7.5542787"><ele>246.99999999999997</ele><time>2026-05-03T13:49:14.15Z</time></trkpt><trkpt lat="44.8186735" lon="7.554388"><ele>247.0</ele><time>2026-05-03T13:49:15.149Z</time></trkpt><trkpt lat="44.8186922" lon="7.5544962"><ele>247.0</ele><time>2026-05-03T13:49:16.159Z</time></trkpt><trkpt lat="44.8187116" lon="7.5546081"><ele>247.0</ele><time>2026-05-03T13:49:17.148Z</time></trkpt><trkpt lat="44.8187282" lon="7.5547159"><ele>246.99999999999997</ele><time>2026-05-03T13:49:18.151Z</time></trkpt><trkpt lat="44.8187423" lon="7.5548185"><ele>247.0</ele><time>2026-05-03T13:49:19.142Z</time></trkpt><trkpt lat="44.8187548" lon="7.5549242"><ele>247.16666666666666</ele><time>2026-05-03T13:49:20.142Z</time></trkpt><trkpt lat="44.8187599" lon="7.5550313"><ele>247.33333333333331</ele><time>2026-05-03T13:49:21.148Z</time></trkpt><trkpt lat="44.8187642" lon="7.5551402"><ele>247.5</ele><time>2026-05-03T13:49:22.164Z</time></trkpt><trkpt lat="44.8187637" lon="7.5552554"><ele>247.66666666666669</ele><time>2026-05-03T13:49:23.155Z</time></trkpt><trkpt lat="44.8187556" lon="7.5553733"><ele>247.83333333333334</ele><time>2026-05-03T13:49:24.164Z</time></trkpt><trkpt lat="44.8187432" lon="7.5554892"><ele>248.0</ele><time>2026-05-03T13:49:25.148Z</time></trkpt><trkpt lat="44.8187307" lon="7.5555926"><ele>247.66666666666669</ele><time>2026-05-03T13:49:26.147Z</time></trkpt><trkpt lat="44.8187108" lon="7.5556887"><ele>247.33333333333334</ele><time>2026-05-03T13:49:27.145Z</time></trkpt><trkpt lat="44.8186873" lon="7.5557832"><ele>247.0</ele><time>2026-05-03T13:49:28.16Z</time></trkpt><trkpt lat="44.8186612" lon="7.555874"><ele>246.66666666666669</ele><time>2026-05-03T13:49:29.144Z</time></trkpt><trkpt lat="44.8186345" lon="7.5559698"><ele>246.33333333333334</ele><time>2026-05-03T13:49:30.156Z</time></trkpt><trkpt lat="44.8186114" lon="7.5560611"><ele>246.0</ele><time>2026-05-03T13:49:31.164Z</time></trkpt><trkpt lat="44.8185931" lon="7.5562387"><ele>245.8571428571429</ele><time>2026-05-03T13:49:33.14Z</time></trkpt><trkpt lat="44.8186013" lon="7.5563332"><ele>245.71428571428572</ele><time>2026-05-03T13:49:34.154Z</time></trkpt><trkpt lat="44.8186166" lon="7.556426"><ele>245.57142857142858</ele><time>2026-05-03T13:49:35.152Z</time></trkpt><trkpt lat="44.8186428" lon="7.5565135"><ele>245.42857142857144</ele><time>2026-05-03T13:49:36.148Z</time></trkpt><trkpt lat="44.8186763" lon="7.5565953"><ele>245.28571428571428</ele><time>2026-05-03T13:49:37.138Z</time></trkpt><trkpt lat="44.8187116" lon="7.5566786"><ele>245.14285714285714</ele><time>2026-05-03T13:49:38.147Z</time></trkpt><trkpt lat="44.818744" lon="7.5567648"><ele>245.0</ele><time>2026-05-03T13:49:39.142Z</time></trkpt><trkpt lat="44.8187793" lon="7.5568523"><ele>245.0</ele><time>2026-05-03T13:49:40.146Z</time></trkpt><trkpt lat="44.8188177" lon="7.5569399"><ele>245.0</ele><time>2026-05-03T13:49:41.147Z</time></trkpt><trkpt lat="44.8188549" lon="7.5570279"><ele>245.0</ele><time>2026-05-03T13:49:42.146Z</time></trkpt><trkpt lat="44.8188918" lon="7.5571172"><ele>245.0</ele><time>2026-05-03T13:49:43.151Z</time></trkpt><trkpt lat="44.8189317" lon="7.5572089"><ele>245.0</ele><time>2026-05-03T13:49:44.166Z</time></trkpt><trkpt lat="44.8189645" lon="7.5572928"><ele>245.0</ele><time>2026-05-03T13:49:45.155Z</time></trkpt><trkpt lat="44.819001" lon="7.5573707"><ele>245.0</ele><time>2026-05-03T13:49:46.156Z</time></trkpt><trkpt lat="44.819034" lon="7.5574475"><ele>245.0</ele><time>2026-05-03T13:49:47.151Z</time></trkpt><trkpt lat="44.8190705" lon="7.557529"><ele>245.0</ele><time>2026-05-03T13:49:48.153Z</time></trkpt><trkpt lat="44.819124" lon="7.5576349"><ele>245.0</ele><time>2026-05-03T13:49:50.147Z</time></trkpt><trkpt lat="44.81916" lon="7.5577146"><ele>245.0</ele><time>2026-05-03T13:49:54.154Z</time></trkpt><trkpt lat="44.8192043" lon="7.5578017"><ele>245.0</ele><time>2026-05-03T13:49:57.143Z</time></trkpt><trkpt lat="44.8192422" lon="7.5578784"><ele>245.0</ele><time>2026-05-03T13:50:01.151Z</time></trkpt><trkpt lat="44.8192411" lon="7.5579873"><ele>245.0</ele><time>2026-05-03T13:50:04.149Z</time></trkpt><trkpt lat="44.8191853" lon="7.5580884"><ele>245.2</ele><time>2026-05-03T13:50:06.143Z</time></trkpt><trkpt lat="44.8190863" lon="7.5581949"><ele>245.4</ele><time>2026-05-03T13:50:08.156Z</time></trkpt><trkpt lat="44.8190164" lon="7.5583303"><ele>245.60000000000002</ele><time>2026-05-03T13:50:10.147Z</time></trkpt><trkpt lat="44.8189792" lon="7.5584097"><ele>245.8</ele><time>2026-05-03T13:50:11.142Z</time></trkpt><trkpt lat="44.8189436" lon="7.5584912"><ele>246.0</ele><time>2026-05-03T13:50:12.148Z</time></trkpt><trkpt lat="44.8188846" lon="7.5586325"><ele>245.8</ele><time>2026-05-03T13:50:14.157Z</time></trkpt><trkpt lat="44.8188641" lon="7.558772"><ele>245.60000000000002</ele><time>2026-05-03T13:50:16.15Z</time></trkpt><trkpt lat="44.8188911" lon="7.5589202"><ele>245.4</ele><time>2026-05-03T13:50:18.16Z</time></trkpt><trkpt lat="44.8189567" lon="7.5590839"><ele>245.2</ele><time>2026-05-03T13:50:20.141Z</time></trkpt><trkpt lat="44.8189967" lon="7.559169"><ele>245.0</ele><time>2026-05-03T13:50:21.148Z</time></trkpt><trkpt lat="44.8190384" lon="7.5592501"><ele>245.00000000000003</ele><time>2026-05-03T13:50:22.152Z</time></trkpt><trkpt lat="44.8190792" lon="7.5593388"><ele>245.0</ele><time>2026-05-03T13:50:23.159Z</time></trkpt><trkpt lat="44.8191195" lon="7.5594364"><ele>245.0</ele><time>2026-05-03T13:50:24.149Z</time></trkpt><trkpt lat="44.8191606" lon="7.5595375"><ele>245.0</ele><time>2026-05-03T13:50:25.151Z</time></trkpt><trkpt lat="44.8192013" lon="7.5596435"><ele>245.00000000000003</ele><time>2026-05-03T13:50:26.151Z</time></trkpt><trkpt lat="44.8192378" lon="7.5597495"><ele>245.0</ele><time>2026-05-03T13:50:27.143Z</time></trkpt><trkpt lat="44.8192708" lon="7.5598532"><ele>245.00000000000003</ele><time>2026-05-03T13:50:28.15Z</time></trkpt><trkpt lat="44.8193043" lon="7.5599672"><ele>245.0</ele><time>2026-05-03T13:50:29.145Z</time></trkpt><trkpt lat="44.8193373" lon="7.560078"><ele>245.0</ele><time>2026-05-03T13:50:30.154Z</time></trkpt><trkpt lat="44.8193654" lon="7.5601981"><ele>245.0</ele><time>2026-05-03T13:50:31.146Z</time></trkpt><trkpt lat="44.8193918" lon="7.5603194"><ele>245.00000000000003</ele><time>2026-05-03T13:50:32.147Z</time></trkpt><trkpt lat="44.8194136" lon="7.5604315"><ele>245.0</ele><time>2026-05-03T13:50:33.151Z</time></trkpt><trkpt lat="44.8194369" lon="7.5605609"><ele>245.2</ele><time>2026-05-03T13:50:34.149Z</time></trkpt><trkpt lat="44.8194559" lon="7.5606958"><ele>245.4</ele><time>2026-05-03T13:50:35.155Z</time></trkpt><trkpt lat="44.8194708" lon="7.5608289"><ele>245.60000000000002</ele><time>2026-05-03T13:50:36.149Z</time></trkpt><trkpt lat="44.8194809" lon="7.5609602"><ele>245.8</ele><time>2026-05-03T13:50:37.146Z</time></trkpt><trkpt lat="44.8194872" lon="7.5610962"><ele>246.0</ele><time>2026-05-03T13:50:38.152Z</time></trkpt><trkpt lat="44.8194873" lon="7.561217"><ele>246.0</ele><time>2026-05-03T13:50:39.138Z</time></trkpt><trkpt lat="44.8194836" lon="7.5613359"><ele>246.0</ele><time>2026-05-03T13:50:40.137Z</time></trkpt><trkpt lat="44.8194763" lon="7.5614615"><ele>246.0</ele><time>2026-05-03T13:50:41.145Z</time></trkpt><trkpt lat="44.8194641" lon="7.5615927"><ele>246.0</ele><time>2026-05-03T13:50:42.151Z</time></trkpt><trkpt lat="44.8194494" lon="7.5617166"><ele>246.0</ele><time>2026-05-03T13:50:43.146Z</time></trkpt><trkpt lat="44.819429" lon="7.561843"><ele>246.0</ele><time>2026-05-03T13:50:44.153Z</time></trkpt><trkpt lat="44.8194123" lon="7.561967"><ele>245.83333333333334</ele><time>2026-05-03T13:50:45.141Z</time></trkpt><trkpt lat="44.81939" lon="7.5620777"><ele>245.66666666666669</ele><time>2026-05-03T13:50:46.149Z</time></trkpt><trkpt lat="44.8193709" lon="7.562176"><ele>245.5</ele><time>2026-05-03T13:50:47.146Z</time></trkpt><trkpt lat="44.8193554" lon="7.5622664"><ele>245.33333333333334</ele><time>2026-05-03T13:50:48.152Z</time></trkpt><trkpt lat="44.8193525" lon="7.5624384"><ele>245.16666666666669</ele><time>2026-05-03T13:50:50.147Z</time></trkpt><trkpt lat="44.8193673" lon="7.5625345"><ele>245.0</ele><time>2026-05-03T13:50:51.148Z</time></trkpt><trkpt lat="44.8194007" lon="7.562626"><ele>245.0</ele><time>2026-05-03T13:50:52.147Z</time></trkpt><trkpt lat="44.8194517" lon="7.5627096"><ele>245.0</ele><time>2026-05-03T13:50:53.144Z</time></trkpt><trkpt lat="44.8195098" lon="7.5627861"><ele>245.0</ele><time>2026-05-03T13:50:54.143Z</time></trkpt><trkpt lat="44.8195688" lon="7.5628382"><ele>245.0</ele><time>2026-05-03T13:50:55.147Z</time></trkpt><trkpt lat="44.8196241" lon="7.5628829"><ele>245.0</ele><time>2026-05-03T13:50:56.143Z</time></trkpt><trkpt lat="44.8196836" lon="7.5629278"><ele>245.0</ele><time>2026-05-03T13:50:57.144Z</time></trkpt><trkpt lat="44.819748" lon="7.5629735"><ele>245.0</ele><time>2026-05-03T13:50:58.156Z</time></trkpt><trkpt lat="44.8198203" lon="7.563021"><ele>245.0</ele><time>2026-05-03T13:50:59.142Z</time></trkpt><trkpt lat="44.8199018" lon="7.5630702"><ele>245.0</ele><time>2026-05-03T13:51:00.173Z</time></trkpt><trkpt lat="44.8199859" lon="7.5631228"><ele>245.0</ele><time>2026-05-03T13:51:01.146Z</time></trkpt><trkpt lat="44.820071" lon="7.5631778"><ele>245.0</ele><time>2026-05-03T13:51:02.155Z</time></trkpt><trkpt lat="44.8201574" lon="7.5632336"><ele>245.0</ele><time>2026-05-03T13:51:03.139Z</time></trkpt><trkpt lat="44.820249" lon="7.5632936"><ele>244.8</ele><time>2026-05-03T13:51:04.142Z</time></trkpt><trkpt lat="44.8203381" lon="7.5633542"><ele>244.6</ele><time>2026-05-03T13:51:05.149Z</time></trkpt><trkpt lat="44.8204286" lon="7.5634164"><ele>244.39999999999998</ele><time>2026-05-03T13:51:06.14Z</time></trkpt><trkpt lat="44.8205174" lon="7.5634819"><ele>244.2</ele><time>2026-05-03T13:51:07.149Z</time></trkpt><trkpt lat="44.8206027" lon="7.5635533"><ele>244.0</ele><time>2026-05-03T13:51:08.158Z</time></trkpt><trkpt lat="44.8206872" lon="7.5636307"><ele>244.0</ele><time>2026-05-03T13:51:09.142Z</time></trkpt><trkpt lat="44.8207659" lon="7.5637044"><ele>243.99999999999997</ele><time>2026-05-03T13:51:10.147Z</time></trkpt><trkpt lat="44.8208421" lon="7.5637888"><ele>243.99999999999997</ele><time>2026-05-03T13:51:11.163Z</time></trkpt><trkpt lat="44.8209243" lon="7.5638696"><ele>244.0</ele><time>2026-05-03T13:51:12.145Z</time></trkpt><trkpt lat="44.8210014" lon="7.5639557"><ele>244.0</ele><time>2026-05-03T13:51:13.148Z</time></trkpt><trkpt lat="44.8210804" lon="7.5640359"><ele>244.0</ele><time>2026-05-03T13:51:14.143Z</time></trkpt><trkpt lat="44.8211617" lon="7.5641112"><ele>243.99999999999997</ele><time>2026-05-03T13:51:15.142Z</time></trkpt><trkpt lat="44.8212433" lon="7.5641857"><ele>243.99999999999997</ele><time>2026-05-03T13:51:16.143Z</time></trkpt><trkpt lat="44.8213155" lon="7.5642485"><ele>244.0</ele><time>2026-05-03T13:51:17.144Z</time></trkpt><trkpt lat="44.8213955" lon="7.5643124"><ele>244.0</ele><time>2026-05-03T13:51:18.139Z</time></trkpt><trkpt lat="44.821474" lon="7.5643831"><ele>243.99999999999997</ele><time>2026-05-03T13:51:19.141Z</time></trkpt><trkpt lat="44.8215546" lon="7.5644571"><ele>244.0</ele><time>2026-05-03T13:51:20.143Z</time></trkpt><trkpt lat="44.821625" lon="7.564531"><ele>244.0</ele><time>2026-05-03T13:51:21.148Z</time></trkpt><trkpt lat="44.8216881" lon="7.5646037"><ele>244.0</ele><time>2026-05-03T13:51:22.147Z</time></trkpt><trkpt lat="44.8217483" lon="7.5646826"><ele>243.99999999999997</ele><time>2026-05-03T13:51:23.146Z</time></trkpt><trkpt lat="44.821814" lon="7.564782"><ele>244.0</ele><time>2026-05-03T13:51:24.148Z</time></trkpt><trkpt lat="44.8218768" lon="7.5648906"><ele>244.16666666666666</ele><time>2026-05-03T13:51:25.14Z</time></trkpt><trkpt lat="44.8219319" lon="7.5650035"><ele>244.33333333333331</ele><time>2026-05-03T13:51:26.151Z</time></trkpt><trkpt lat="44.8219736" lon="7.5651131"><ele>244.5</ele><time>2026-05-03T13:51:27.137Z</time></trkpt><trkpt lat="44.822012" lon="7.5652272"><ele>244.66666666666669</ele><time>2026-05-03T13:51:28.143Z</time></trkpt><trkpt lat="44.8220353" lon="7.565337"><ele>244.83333333333334</ele><time>2026-05-03T13:51:29.143Z</time></trkpt><trkpt lat="44.8220462" lon="7.5654501"><ele>245.0</ele><time>2026-05-03T13:51:30.143Z</time></trkpt><trkpt lat="44.822048" lon="7.5655669"><ele>245.00000000000003</ele><time>2026-05-03T13:51:31.147Z</time></trkpt><trkpt lat="44.8220353" lon="7.565689"><ele>245.0</ele><time>2026-05-03T13:51:32.192Z</time></trkpt><trkpt lat="44.8220148" lon="7.5658226"><ele>245.0</ele><time>2026-05-03T13:51:33.142Z</time></trkpt><trkpt lat="44.8219834" lon="7.5659427"><ele>245.0</ele><time>2026-05-03T13:51:34.15Z</time></trkpt><trkpt lat="44.8219462" lon="7.5660497"><ele>245.00000000000003</ele><time>2026-05-03T13:51:35.138Z</time></trkpt><trkpt lat="44.8219037" lon="7.5661536"><ele>245.0</ele><time>2026-05-03T13:51:36.143Z</time></trkpt><trkpt lat="44.821862" lon="7.5662431"><ele>245.00000000000003</ele><time>2026-05-03T13:51:37.147Z</time></trkpt><trkpt lat="44.821825" lon="7.5663204"><ele>245.0</ele><time>2026-05-03T13:51:38.147Z</time></trkpt><trkpt lat="44.8217829" lon="7.566407"><ele>245.0</ele><time>2026-05-03T13:51:39.148Z</time></trkpt><trkpt lat="44.8217256" lon="7.5665465"><ele>245.0</ele><time>2026-05-03T13:51:41.148Z</time></trkpt><trkpt lat="44.8217087" lon="7.5666512"><ele>245.00000000000003</ele><time>2026-05-03T13:51:43.148Z</time></trkpt><trkpt lat="44.8217367" lon="7.566744"><ele>245.0</ele><time>2026-05-03T13:51:46.139Z</time></trkpt><trkpt lat="44.8218011" lon="7.5668482"><ele>245.0</ele><time>2026-05-03T13:51:48.147Z</time></trkpt><trkpt lat="44.8219189" lon="7.5669301"><ele>245.0</ele><time>2026-05-03T13:51:50.08Z</time></trkpt><trkpt lat="44.8219959" lon="7.5669545"><ele>245.0</ele><time>2026-05-03T13:51:51.08Z</time></trkpt><trkpt lat="44.8220752" lon="7.5669885"><ele>245.0</ele><time>2026-05-03T13:51:52.084Z</time></trkpt><trkpt lat="44.8221501" lon="7.5670265"><ele>245.0</ele><time>2026-05-03T13:51:53.09Z</time></trkpt><trkpt lat="44.8222214" lon="7.5670689"><ele>245.4</ele><time>2026-05-03T13:51:54.087Z</time></trkpt><trkpt lat="44.8223012" lon="7.5671217"><ele>245.8</ele><time>2026-05-03T13:51:55.088Z</time></trkpt><trkpt lat="44.8223884" lon="7.5671798"><ele>246.2</ele><time>2026-05-03T13:51:56.081Z</time></trkpt><trkpt lat="44.8224776" lon="7.5672429"><ele>246.6</ele><time>2026-05-03T13:51:57.082Z</time></trkpt><trkpt lat="44.8225619" lon="7.5673093"><ele>247.0</ele><time>2026-05-03T13:51:58.084Z</time></trkpt><trkpt lat="44.8226381" lon="7.5673817"><ele>247.0</ele><time>2026-05-03T13:51:59.085Z</time></trkpt><trkpt lat="44.822715" lon="7.5674609"><ele>247.0</ele><time>2026-05-03T13:52:00.081Z</time></trkpt><trkpt lat="44.8227863" lon="7.5675403"><ele>247.0</ele><time>2026-05-03T13:52:01.086Z</time></trkpt><trkpt lat="44.8228608" lon="7.5676252"><ele>247.0</ele><time>2026-05-03T13:52:02.081Z</time></trkpt><trkpt lat="44.8229354" lon="7.5677143"><ele>247.0</ele><time>2026-05-03T13:52:03.085Z</time></trkpt><trkpt lat="44.8230108" lon="7.567806"><ele>247.16666666666666</ele><time>2026-05-03T13:52:04.084Z</time></trkpt><trkpt lat="44.823084" lon="7.5679055"><ele>247.33333333333331</ele><time>2026-05-03T13:52:05.085Z</time></trkpt><trkpt lat="44.8231444" lon="7.5679992"><ele>247.5</ele><time>2026-05-03T13:52:06.084Z</time></trkpt><trkpt lat="44.8231945" lon="7.5680939"><ele>247.66666666666669</ele><time>2026-05-03T13:52:07.093Z</time></trkpt><trkpt lat="44.8232392" lon="7.5681914"><ele>247.83333333333334</ele><time>2026-05-03T13:52:08.08Z</time></trkpt><trkpt lat="44.8232812" lon="7.5682992"><ele>248.0</ele><time>2026-05-03T13:52:09.081Z</time></trkpt><trkpt lat="44.823321" lon="7.5684126"><ele>248.0</ele><time>2026-05-03T13:52:10.084Z</time></trkpt><trkpt lat="44.823359" lon="7.568532"><ele>248.0</ele><time>2026-05-03T13:52:11.081Z</time></trkpt><trkpt lat="44.8233988" lon="7.5686553"><ele>248.0</ele><time>2026-05-03T13:52:12.101Z</time></trkpt><trkpt lat="44.823435" lon="7.5687759"><ele>248.0</ele><time>2026-05-03T13:52:13.089Z</time></trkpt><trkpt lat="44.823476" lon="7.5688995"><ele>248.0</ele><time>2026-05-03T13:52:14.084Z</time></trkpt><trkpt lat="44.8235199" lon="7.569027"><ele>247.60000000000002</ele><time>2026-05-03T13:52:15.09Z</time></trkpt><trkpt lat="44.8235609" lon="7.5691591"><ele>247.20000000000002</ele><time>2026-05-03T13:52:16.087Z</time></trkpt><trkpt lat="44.8236055" lon="7.5692917"><ele>246.8</ele><time>2026-05-03T13:52:17.091Z</time></trkpt><trkpt lat="44.8236537" lon="7.5694359"><ele>246.4</ele><time>2026-05-03T13:52:18.086Z</time></trkpt><trkpt lat="44.8236984" lon="7.5695726"><ele>246.0</ele><time>2026-05-03T13:52:19.082Z</time></trkpt><trkpt lat="44.8237399" lon="7.5697008"><ele>246.0</ele><time>2026-05-03T13:52:20.085Z</time></trkpt><trkpt lat="44.823779" lon="7.5698173"><ele>246.0</ele><time>2026-05-03T13:52:21.085Z</time></trkpt><trkpt lat="44.8238143" lon="7.5699203"><ele>246.0</ele><time>2026-05-03T13:52:22.107Z</time></trkpt><trkpt lat="44.8238445" lon="7.5700211"><ele>246.0</ele><time>2026-05-03T13:52:23.082Z</time></trkpt><trkpt lat="44.8238779" lon="7.5701217"><ele>246.0</ele><time>2026-05-03T13:52:24.102Z</time></trkpt><trkpt lat="44.8239149" lon="7.5702245"><ele>246.0</ele><time>2026-05-03T13:52:25.085Z</time></trkpt><trkpt lat="44.8239576" lon="7.5703246"><ele>246.0</ele><time>2026-05-03T13:52:26.089Z</time></trkpt><trkpt lat="44.8240001" lon="7.5704242"><ele>246.0</ele><time>2026-05-03T13:52:27.083Z</time></trkpt><trkpt lat="44.8240474" lon="7.5705178"><ele>246.0</ele><time>2026-05-03T13:52:28.083Z</time></trkpt><trkpt lat="44.8240941" lon="7.5706085"><ele>246.0</ele><time>2026-05-03T13:52:29.078Z</time></trkpt><trkpt lat="44.8241368" lon="7.5706986"><ele>246.0</ele><time>2026-05-03T13:52:30.094Z</time></trkpt><trkpt lat="44.8241845" lon="7.570796"><ele>246.0</ele><time>2026-05-03T13:52:31.081Z</time></trkpt><trkpt lat="44.8242317" lon="7.57089"><ele>246.0</ele><time>2026-05-03T13:52:32.083Z</time></trkpt><trkpt lat="44.8242768" lon="7.570998"><ele>246.00000000000003</ele><time>2026-05-03T13:52:33.075Z</time></trkpt><trkpt lat="44.824324" lon="7.5711047"><ele>246.00000000000003</ele><time>2026-05-03T13:52:34.094Z</time></trkpt><trkpt lat="44.8243779" lon="7.5712169"><ele>246.0</ele><time>2026-05-03T13:52:35.084Z</time></trkpt><trkpt lat="44.8244271" lon="7.5713208"><ele>246.0</ele><time>2026-05-03T13:52:36.092Z</time></trkpt><trkpt lat="44.8244762" lon="7.5714223"><ele>246.0</ele><time>2026-05-03T13:52:37.079Z</time></trkpt><trkpt lat="44.8245296" lon="7.5715244"><ele>246.00000000000003</ele><time>2026-05-03T13:52:38.081Z</time></trkpt><trkpt lat="44.8245848" lon="7.5716268"><ele>246.00000000000003</ele><time>2026-05-03T13:52:39.086Z</time></trkpt><trkpt lat="44.8246371" lon="7.5717274"><ele>246.0</ele><time>2026-05-03T13:52:40.077Z</time></trkpt><trkpt lat="44.8246893" lon="7.5718305"><ele>246.0</ele><time>2026-05-03T13:52:41.089Z</time></trkpt><trkpt lat="44.8247434" lon="7.5719388"><ele>246.0</ele><time>2026-05-03T13:52:42.085Z</time></trkpt><trkpt lat="44.8247993" lon="7.5720488"><ele>246.00000000000003</ele><time>2026-05-03T13:52:43.076Z</time></trkpt><trkpt lat="44.824855" lon="7.5721611"><ele>246.00000000000003</ele><time>2026-05-03T13:52:44.086Z</time></trkpt><trkpt lat="44.8249077" lon="7.572271"><ele>246.0</ele><time>2026-05-03T13:52:45.092Z</time></trkpt><trkpt lat="44.8249577" lon="7.5723815"><ele>246.0</ele><time>2026-05-03T13:52:46.085Z</time></trkpt><trkpt lat="44.8250032" lon="7.5724884"><ele>246.0</ele><time>2026-05-03T13:52:47.082Z</time></trkpt><trkpt lat="44.8250422" lon="7.5725925"><ele>246.0</ele><time>2026-05-03T13:52:48.083Z</time></trkpt><trkpt lat="44.8250779" lon="7.5727023"><ele>246.0</ele><time>2026-05-03T13:52:49.079Z</time></trkpt><trkpt lat="44.8251074" lon="7.5728199"><ele>246.0</ele><time>2026-05-03T13:52:50.103Z</time></trkpt><trkpt lat="44.8251298" lon="7.57295"><ele>246.0</ele><time>2026-05-03T13:52:51.083Z</time></trkpt><trkpt lat="44.8251499" lon="7.5730809"><ele>246.0</ele><time>2026-05-03T13:52:52.085Z</time></trkpt><trkpt lat="44.8251688" lon="7.5732158"><ele>245.8</ele><time>2026-05-03T13:52:53.097Z</time></trkpt><trkpt lat="44.8251879" lon="7.5733594"><ele>245.60000000000002</ele><time>2026-05-03T13:52:54.078Z</time></trkpt><trkpt lat="44.8252084" lon="7.5735119"><ele>245.4</ele><time>2026-05-03T13:52:55.086Z</time></trkpt><trkpt lat="44.8252318" lon="7.5736687"><ele>245.2</ele><time>2026-05-03T13:52:56.076Z</time></trkpt><trkpt lat="44.825258" lon="7.5738254"><ele>245.0</ele><time>2026-05-03T13:52:57.088Z</time></trkpt><trkpt lat="44.8252823" lon="7.5739896"><ele>245.0</ele><time>2026-05-03T13:52:58.092Z</time></trkpt><trkpt lat="44.8253066" lon="7.5741583"><ele>245.0</ele><time>2026-05-03T13:52:59.08Z</time></trkpt><trkpt lat="44.8253351" lon="7.5743278"><ele>245.0</ele><time>2026-05-03T13:53:00.086Z</time></trkpt><trkpt lat="44.8253603" lon="7.5744946"><ele>245.0</ele><time>2026-05-03T13:53:01.082Z</time></trkpt><trkpt lat="44.8253835" lon="7.5746528"><ele>245.25</ele><time>2026-05-03T13:53:02.082Z</time></trkpt><trkpt lat="44.8254038" lon="7.5748052"><ele>245.5</ele><time>2026-05-03T13:53:03.082Z</time></trkpt><trkpt lat="44.82543" lon="7.574967"><ele>245.75</ele><time>2026-05-03T13:53:04.083Z</time></trkpt><trkpt lat="44.8254545" lon="7.5751254"><ele>246.0</ele><time>2026-05-03T13:53:05.086Z</time></trkpt><trkpt lat="44.8254764" lon="7.5752868"><ele>246.0</ele><time>2026-05-03T13:53:06.085Z</time></trkpt><trkpt lat="44.8255024" lon="7.5754614"><ele>246.0</ele><time>2026-05-03T13:53:07.082Z</time></trkpt><trkpt lat="44.8255293" lon="7.5756394"><ele>246.0</ele><time>2026-05-03T13:53:08.084Z</time></trkpt><trkpt lat="44.8255544" lon="7.5758144"><ele>246.0</ele><time>2026-05-03T13:53:09.085Z</time></trkpt><trkpt lat="44.8255819" lon="7.5759758"><ele>246.0</ele><time>2026-05-03T13:53:10.075Z</time></trkpt><trkpt lat="44.8256064" lon="7.5761262"><ele>246.00000000000003</ele><time>2026-05-03T13:53:11.09Z</time></trkpt><trkpt lat="44.8256308" lon="7.5762818"><ele>246.00000000000003</ele><time>2026-05-03T13:53:12.071Z</time></trkpt><trkpt lat="44.8256529" lon="7.5764357"><ele>246.0</ele><time>2026-05-03T13:53:13.105Z</time></trkpt><trkpt lat="44.8256793" lon="7.5765856"><ele>246.0</ele><time>2026-05-03T13:53:14.079Z</time></trkpt><trkpt lat="44.8256995" lon="7.5767246"><ele>245.83333333333334</ele><time>2026-05-03T13:53:15.08Z</time></trkpt><trkpt lat="44.8257174" lon="7.5768462"><ele>245.66666666666669</ele><time>2026-05-03T13:53:16.085Z</time></trkpt><trkpt lat="44.8257311" lon="7.5769563"><ele>245.5</ele><time>2026-05-03T13:53:17.082Z</time></trkpt><trkpt lat="44.8257477" lon="7.5770624"><ele>245.33333333333334</ele><time>2026-05-03T13:53:18.085Z</time></trkpt><trkpt lat="44.8257638" lon="7.577149"><ele>245.16666666666669</ele><time>2026-05-03T13:53:19.082Z</time></trkpt><trkpt lat="44.8257896" lon="7.5772871"><ele>245.0</ele><time>2026-05-03T13:53:21.08Z</time></trkpt><trkpt lat="44.8258082" lon="7.5773764"><ele>244.6</ele><time>2026-05-03T13:53:25.078Z</time></trkpt><trkpt lat="44.8257295" lon="7.5774264"><ele>244.2</ele><time>2026-05-03T13:53:42.094Z</time></trkpt><trkpt lat="44.8256548" lon="7.5773869"><ele>243.8</ele><time>2026-05-03T13:53:44.077Z</time></trkpt><trkpt lat="44.8255235" lon="7.5773475"><ele>243.4</ele><time>2026-05-03T13:53:46.1Z</time></trkpt><trkpt lat="44.8254443" lon="7.5773289"><ele>243.0</ele><time>2026-05-03T13:53:47.104Z</time></trkpt><trkpt lat="44.8253496" lon="7.5773089"><ele>243.0</ele><time>2026-05-03T13:53:48.092Z</time></trkpt><trkpt lat="44.8252561" lon="7.5772865"><ele>243.0</ele><time>2026-05-03T13:53:49.097Z</time></trkpt><trkpt lat="44.8251545" lon="7.5772592"><ele>243.0</ele><time>2026-05-03T13:53:50.109Z</time></trkpt><trkpt lat="44.8250623" lon="7.5772379"><ele>243.0</ele><time>2026-05-03T13:53:51.09Z</time></trkpt><trkpt lat="44.8249795" lon="7.5772251"><ele>243.0</ele><time>2026-05-03T13:53:52.1Z</time></trkpt><trkpt lat="44.824903" lon="7.5772125"><ele>243.16666666666666</ele><time>2026-05-03T13:53:53.095Z</time></trkpt><trkpt lat="44.82483" lon="7.5772015"><ele>243.33333333333331</ele><time>2026-05-03T13:53:54.112Z</time></trkpt><trkpt lat="44.8247577" lon="7.5771843"><ele>243.5</ele><time>2026-05-03T13:53:55.088Z</time></trkpt><trkpt lat="44.8246825" lon="7.5771708"><ele>243.66666666666666</ele><time>2026-05-03T13:53:56.091Z</time></trkpt><trkpt lat="44.8245995" lon="7.5771513"><ele>243.83333333333331</ele><time>2026-05-03T13:53:57.086Z</time></trkpt><trkpt lat="44.8245191" lon="7.5771339"><ele>244.0</ele><time>2026-05-03T13:53:58.088Z</time></trkpt><trkpt lat="44.8244352" lon="7.5771183"><ele>243.99999999999997</ele><time>2026-05-03T13:53:59.092Z</time></trkpt><trkpt lat="44.8243475" lon="7.5770982"><ele>244.0</ele><time>2026-05-03T13:54:00.087Z</time></trkpt><trkpt lat="44.8242654" lon="7.5770793"><ele>244.0</ele><time>2026-05-03T13:54:01.106Z</time></trkpt><trkpt lat="44.8241857" lon="7.5770567"><ele>244.0</ele><time>2026-05-03T13:54:02.104Z</time></trkpt><trkpt lat="44.8240952" lon="7.5770371"><ele>243.99999999999997</ele><time>2026-05-03T13:54:03.088Z</time></trkpt><trkpt lat="44.8239997" lon="7.5770145"><ele>244.0</ele><time>2026-05-03T13:54:04.083Z</time></trkpt><trkpt lat="44.8239053" lon="7.5769958"><ele>243.83333333333331</ele><time>2026-05-03T13:54:05.08Z</time></trkpt><trkpt lat="44.8238122" lon="7.5769724"><ele>243.66666666666666</ele><time>2026-05-03T13:54:06.088Z</time></trkpt><trkpt lat="44.8237256" lon="7.5769527"><ele>243.5</ele><time>2026-05-03T13:54:07.081Z</time></trkpt><trkpt lat="44.8236447" lon="7.5769318"><ele>243.33333333333331</ele><time>2026-05-03T13:54:08.089Z</time></trkpt><trkpt lat="44.8235702" lon="7.5769111"><ele>243.16666666666666</ele><time>2026-05-03T13:54:09.084Z</time></trkpt><trkpt lat="44.8235018" lon="7.5768868"><ele>243.0</ele><time>2026-05-03T13:54:10.075Z</time></trkpt><trkpt lat="44.8234357" lon="7.5768637"><ele>242.60000000000002</ele><time>2026-05-03T13:54:11.084Z</time></trkpt><trkpt lat="44.8233735" lon="7.576841"><ele>242.20000000000002</ele><time>2026-05-03T13:54:12.092Z</time></trkpt><trkpt lat="44.8232779" lon="7.5768275"><ele>241.8</ele><time>2026-05-03T13:54:14.084Z</time></trkpt><trkpt lat="44.8232094" lon="7.5768685"><ele>241.4</ele><time>2026-05-03T13:54:16.077Z</time></trkpt><trkpt lat="44.8231473" lon="7.5769843"><ele>241.0</ele><time>2026-05-03T13:54:18.091Z</time></trkpt><trkpt lat="44.8230934" lon="7.577123"><ele>241.0</ele><time>2026-05-03T13:54:20.084Z</time></trkpt><trkpt lat="44.8230115" lon="7.577202"><ele>241.00000000000003</ele><time>2026-05-03T13:54:22.082Z</time></trkpt><trkpt lat="44.8229042" lon="7.577232"><ele>241.00000000000003</ele><time>2026-05-03T13:54:24.085Z</time></trkpt><trkpt lat="44.8228133" lon="7.5772307"><ele>241.0</ele><time>2026-05-03T13:54:26.089Z</time></trkpt><trkpt lat="44.8227247" lon="7.5772132"><ele>241.0</ele><time>2026-05-03T13:54:28.083Z</time></trkpt><trkpt lat="44.8226275" lon="7.5772298"><ele>240.66666666666666</ele><time>2026-05-03T13:54:30.083Z</time></trkpt><trkpt lat="44.8225634" lon="7.5772704"><ele>240.33333333333331</ele><time>2026-05-03T13:54:32.08Z</time></trkpt><trkpt lat="44.8225013" lon="7.5772942"><ele>240.0</ele><time>2026-05-03T13:55:44.086Z</time></trkpt><trkpt lat="44.8223987" lon="7.5773895"><ele>239.66666666666669</ele><time>2026-05-03T13:55:46.095Z</time></trkpt><trkpt lat="44.8223321" lon="7.5774493"><ele>239.33333333333334</ele><time>2026-05-03T13:55:47.081Z</time></trkpt><trkpt lat="44.8222645" lon="7.5775167"><ele>239.0</ele><time>2026-05-03T13:55:48.086Z</time></trkpt><trkpt lat="44.8221995" lon="7.5775767"><ele>239.00000000000003</ele><time>2026-05-03T13:55:49.078Z</time></trkpt><trkpt lat="44.8221349" lon="7.5776328"><ele>239.0</ele><time>2026-05-03T13:55:50.084Z</time></trkpt><trkpt lat="44.8220661" lon="7.5776968"><ele>239.0</ele><time>2026-05-03T13:55:51.086Z</time></trkpt><trkpt lat="44.8220013" lon="7.5777582"><ele>239.0</ele><time>2026-05-03T13:55:52.083Z</time></trkpt><trkpt lat="44.8219408" lon="7.5778129"><ele>239.00000000000003</ele><time>2026-05-03T13:55:53.093Z</time></trkpt><trkpt lat="44.8218873" lon="7.5778648"><ele>239.0</ele><time>2026-05-03T13:55:54.089Z</time></trkpt><trkpt lat="44.8217889" lon="7.5779466"><ele>239.39999999999998</ele><time>2026-05-03T13:55:56.093Z</time></trkpt><trkpt lat="44.8217047" lon="7.5780253"><ele>239.79999999999998</ele><time>2026-05-03T13:55:58.084Z</time></trkpt><trkpt lat="44.8216697" lon="7.5781269"><ele>240.20000000000002</ele><time>2026-05-03T13:56:01.084Z</time></trkpt><trkpt lat="44.8217028" lon="7.5782388"><ele>240.60000000000002</ele><time>2026-05-03T13:56:03.092Z</time></trkpt><trkpt lat="44.8217835" lon="7.5783722"><ele>241.0</ele><time>2026-05-03T13:56:05.11Z</time></trkpt><trkpt lat="44.8218323" lon="7.5784559"><ele>240.99999999999997</ele><time>2026-05-03T13:56:06.123Z</time></trkpt><trkpt lat="44.8218824" lon="7.5785486"><ele>241.0</ele><time>2026-05-03T13:56:07.077Z</time></trkpt><trkpt lat="44.8219234" lon="7.5786304"><ele>241.0</ele><time>2026-05-03T13:56:08.102Z</time></trkpt><trkpt lat="44.8219594" lon="7.5787098"><ele>241.0</ele><time>2026-05-03T13:56:09.079Z</time></trkpt><trkpt lat="44.8220054" lon="7.578854"><ele>240.99999999999997</ele><time>2026-05-03T13:56:11.088Z</time></trkpt><trkpt lat="44.8220227" lon="7.5790116"><ele>241.0</ele><time>2026-05-03T13:56:13.085Z</time></trkpt><trkpt lat="44.8220323" lon="7.5791106"><ele>240.99999999999997</ele><time>2026-05-03T13:56:14.089Z</time></trkpt><trkpt lat="44.8220355" lon="7.5792274"><ele>241.0</ele><time>2026-05-03T13:56:15.093Z</time></trkpt><trkpt lat="44.8220407" lon="7.579352"><ele>241.0</ele><time>2026-05-03T13:56:16.087Z</time></trkpt><trkpt lat="44.8220483" lon="7.5794754"><ele>241.0</ele><time>2026-05-03T13:56:17.092Z</time></trkpt><trkpt lat="44.8220533" lon="7.5795957"><ele>240.99999999999997</ele><time>2026-05-03T13:56:18.083Z</time></trkpt><trkpt lat="44.8220579" lon="7.5797009"><ele>241.0</ele><time>2026-05-03T13:56:19.089Z</time></trkpt><trkpt lat="44.8220529" lon="7.5798016"><ele>241.4</ele><time>2026-05-03T13:56:20.085Z</time></trkpt><trkpt lat="44.8220217" lon="7.5799644"><ele>241.8</ele><time>2026-05-03T13:56:22.092Z</time></trkpt><trkpt lat="44.8219611" lon="7.5801034"><ele>242.20000000000002</ele><time>2026-05-03T13:56:24.081Z</time></trkpt><trkpt lat="44.8218648" lon="7.5802191"><ele>242.60000000000002</ele><time>2026-05-03T13:56:26.147Z</time></trkpt><trkpt lat="44.8218069" lon="7.5802771"><ele>243.0</ele><time>2026-05-03T13:56:27.138Z</time></trkpt><trkpt lat="44.8217372" lon="7.5803386"><ele>243.0</ele><time>2026-05-03T13:56:28.132Z</time></trkpt><trkpt lat="44.8216591" lon="7.5803909"><ele>243.0</ele><time>2026-05-03T13:56:29.142Z</time></trkpt><trkpt lat="44.8215744" lon="7.5804558"><ele>243.0</ele><time>2026-05-03T13:56:30.149Z</time></trkpt><trkpt lat="44.8214841" lon="7.5805342"><ele>243.0</ele><time>2026-05-03T13:56:31.141Z</time></trkpt><trkpt lat="44.8213878" lon="7.5806093"><ele>243.0</ele><time>2026-05-03T13:56:32.144Z</time></trkpt><trkpt lat="44.8212953" lon="7.580683"><ele>243.0</ele><time>2026-05-03T13:56:33.139Z</time></trkpt><trkpt lat="44.821206" lon="7.5807525"><ele>243.0</ele><time>2026-05-03T13:56:34.134Z</time></trkpt><trkpt lat="44.8211206" lon="7.5808193"><ele>243.0</ele><time>2026-05-03T13:56:35.143Z</time></trkpt><trkpt lat="44.8210397" lon="7.5808802"><ele>243.0</ele><time>2026-05-03T13:56:36.132Z</time></trkpt><trkpt lat="44.8209604" lon="7.5809395"><ele>243.0</ele><time>2026-05-03T13:56:37.138Z</time></trkpt><trkpt lat="44.8208871" lon="7.5810042"><ele>242.66666666666666</ele><time>2026-05-03T13:56:38.139Z</time></trkpt><trkpt lat="44.8208136" lon="7.5810669"><ele>242.33333333333331</ele><time>2026-05-03T13:56:39.139Z</time></trkpt><trkpt lat="44.8207373" lon="7.5811236"><ele>242.0</ele><time>2026-05-03T13:56:40.148Z</time></trkpt><trkpt lat="44.8206605" lon="7.5811826"><ele>241.66666666666666</ele><time>2026-05-03T13:56:41.141Z</time></trkpt><trkpt lat="44.8205853" lon="7.581241"><ele>241.33333333333331</ele><time>2026-05-03T13:56:42.141Z</time></trkpt><trkpt lat="44.8205101" lon="7.581299"><ele>241.0</ele><time>2026-05-03T13:56:43.145Z</time></trkpt><trkpt lat="44.82044" lon="7.5813525"><ele>240.85714285714286</ele><time>2026-05-03T13:56:44.134Z</time></trkpt><trkpt lat="44.820371" lon="7.5813948"><ele>240.71428571428572</ele><time>2026-05-03T13:56:45.152Z</time></trkpt><trkpt lat="44.8203083" lon="7.5814219"><ele>240.57142857142858</ele><time>2026-05-03T13:56:46.145Z</time></trkpt><trkpt lat="44.8202456" lon="7.5814339"><ele>240.42857142857144</ele><time>2026-05-03T13:56:47.136Z</time></trkpt><trkpt lat="44.8201831" lon="7.5814484"><ele>240.28571428571428</ele><time>2026-05-03T13:56:48.15Z</time></trkpt><trkpt lat="44.8200821" lon="7.5814711"><ele>240.14285714285717</ele><time>2026-05-03T13:56:50.143Z</time></trkpt><trkpt lat="44.8200472" lon="7.5815562"><ele>240.0</ele><time>2026-05-03T13:59:07.137Z</time></trkpt><trkpt lat="44.8201205" lon="7.5815347"><ele>240.0</ele><time>2026-05-03T13:59:13.14Z</time></trkpt><trkpt lat="44.8201821" lon="7.581479"><ele>240.0</ele><time>2026-05-03T13:59:15.144Z</time></trkpt><trkpt lat="44.8202939" lon="7.5814406"><ele>240.0</ele><time>2026-05-03T13:59:17.143Z</time></trkpt><trkpt lat="44.8203625" lon="7.5814188"><ele>240.0</ele><time>2026-05-03T13:59:18.15Z</time></trkpt><trkpt lat="44.8204324" lon="7.5813768"><ele>240.0</ele><time>2026-05-03T13:59:19.14Z</time></trkpt><trkpt lat="44.8205075" lon="7.5813221"><ele>240.0</ele><time>2026-05-03T13:59:20.14Z</time></trkpt><trkpt lat="44.8205865" lon="7.5812639"><ele>240.0</ele><time>2026-05-03T13:59:21.137Z</time></trkpt><trkpt lat="44.8206722" lon="7.5811959"><ele>240.0</ele><time>2026-05-03T13:59:22.147Z</time></trkpt><trkpt lat="44.8207649" lon="7.5811218"><ele>240.0</ele><time>2026-05-03T13:59:23.14Z</time></trkpt><trkpt lat="44.8208629" lon="7.5810438"><ele>240.0</ele><time>2026-05-03T13:59:24.139Z</time></trkpt><trkpt lat="44.820962" lon="7.5809682"><ele>240.0</ele><time>2026-05-03T13:59:25.13Z</time></trkpt><trkpt lat="44.821052" lon="7.5808995"><ele>240.6</ele><time>2026-05-03T13:59:26.149Z</time></trkpt><trkpt lat="44.8211426" lon="7.5808307"><ele>241.2</ele><time>2026-05-03T13:59:27.138Z</time></trkpt><trkpt lat="44.8212374" lon="7.5807559"><ele>241.8</ele><time>2026-05-03T13:59:28.141Z</time></trkpt><trkpt lat="44.8213326" lon="7.5806767"><ele>242.4</ele><time>2026-05-03T13:59:29.138Z</time></trkpt><trkpt lat="44.8214211" lon="7.5806112"><ele>243.0</ele><time>2026-05-03T13:59:30.149Z</time></trkpt><trkpt lat="44.8215014" lon="7.5805496"><ele>243.0</ele><time>2026-05-03T13:59:31.149Z</time></trkpt><trkpt lat="44.8215796" lon="7.580488"><ele>243.0</ele><time>2026-05-03T13:59:32.136Z</time></trkpt><trkpt lat="44.8216604" lon="7.580424"><ele>243.0</ele><time>2026-05-03T13:59:33.132Z</time></trkpt><trkpt lat="44.8217429" lon="7.5803576"><ele>243.0</ele><time>2026-05-03T13:59:34.148Z</time></trkpt><trkpt lat="44.8218125" lon="7.5802945"><ele>243.0</ele><time>2026-05-03T13:59:35.136Z</time></trkpt><trkpt lat="44.8218709" lon="7.580236"><ele>243.0</ele><time>2026-05-03T13:59:36.139Z</time></trkpt><trkpt lat="44.8219305" lon="7.5801645"><ele>242.71428571428572</ele><time>2026-05-03T13:59:37.132Z</time></trkpt><trkpt lat="44.8219781" lon="7.5800875"><ele>242.42857142857144</ele><time>2026-05-03T13:59:38.143Z</time></trkpt><trkpt lat="44.8220106" lon="7.5800046"><ele>242.14285714285717</ele><time>2026-05-03T13:59:39.137Z</time></trkpt><trkpt lat="44.822033" lon="7.5799083"><ele>241.85714285714286</ele><time>2026-05-03T13:59:40.139Z</time></trkpt><trkpt lat="44.8220501" lon="7.5797968"><ele>241.5714285714286</ele><time>2026-05-03T13:59:41.142Z</time></trkpt><trkpt lat="44.8220561" lon="7.5796861"><ele>241.2857142857143</ele><time>2026-05-03T13:59:42.139Z</time></trkpt><trkpt lat="44.8220522" lon="7.5795884"><ele>241.0</ele><time>2026-05-03T13:59:43.149Z</time></trkpt><trkpt lat="44.8220455" lon="7.5794398"><ele>240.99999999999997</ele><time>2026-05-03T13:59:45.146Z</time></trkpt><trkpt lat="44.8220263" lon="7.5793035"><ele>241.0</ele><time>2026-05-03T13:59:47.132Z</time></trkpt><trkpt lat="44.822022" lon="7.5792024"><ele>241.0</ele><time>2026-05-03T13:59:48.136Z</time></trkpt><trkpt lat="44.8220167" lon="7.5790842"><ele>241.0</ele><time>2026-05-03T13:59:49.134Z</time></trkpt><trkpt lat="44.8220086" lon="7.5789848"><ele>240.99999999999997</ele><time>2026-05-03T13:59:50.141Z</time></trkpt><trkpt lat="44.822002" lon="7.5788852"><ele>241.0</ele><time>2026-05-03T13:59:51.136Z</time></trkpt><trkpt lat="44.8219868" lon="7.5787859"><ele>240.99999999999997</ele><time>2026-05-03T13:59:52.153Z</time></trkpt><trkpt lat="44.8219558" lon="7.5787015"><ele>241.0</ele><time>2026-05-03T13:59:53.139Z</time></trkpt><trkpt lat="44.8219191" lon="7.5786183"><ele>241.0</ele><time>2026-05-03T13:59:54.143Z</time></trkpt><trkpt lat="44.821875" lon="7.57853"><ele>241.0</ele><time>2026-05-03T13:59:55.137Z</time></trkpt><trkpt lat="44.8218245" lon="7.5784481"><ele>240.99999999999997</ele><time>2026-05-03T13:59:56.15Z</time></trkpt><trkpt lat="44.8217797" lon="7.5783755"><ele>241.0</ele><time>2026-05-03T13:59:57.146Z</time></trkpt><trkpt lat="44.8217107" lon="7.5782625"><ele>240.99999999999997</ele><time>2026-05-03T13:59:59.143Z</time></trkpt><trkpt lat="44.8216687" lon="7.5781612"><ele>241.0</ele><time>2026-05-03T14:00:02.133Z</time></trkpt><trkpt lat="44.8216837" lon="7.578047"><ele>241.0</ele><time>2026-05-03T14:00:19.139Z</time></trkpt><trkpt lat="44.8217583" lon="7.5779672"><ele>241.0</ele><time>2026-05-03T14:00:21.145Z</time></trkpt><trkpt lat="44.8218143" lon="7.5779248"><ele>240.99999999999997</ele><time>2026-05-03T14:00:22.143Z</time></trkpt><trkpt lat="44.8218732" lon="7.577872"><ele>241.0</ele><time>2026-05-03T14:00:23.142Z</time></trkpt><trkpt lat="44.8219443" lon="7.5778077"><ele>240.60000000000002</ele><time>2026-05-03T14:00:24.15Z</time></trkpt><trkpt lat="44.8220194" lon="7.5777381"><ele>240.20000000000002</ele><time>2026-05-03T14:00:25.148Z</time></trkpt><trkpt lat="44.8221042" lon="7.5776601"><ele>239.79999999999998</ele><time>2026-05-03T14:00:26.147Z</time></trkpt><trkpt lat="44.8221868" lon="7.577583"><ele>239.39999999999998</ele><time>2026-05-03T14:00:27.137Z</time></trkpt><trkpt lat="44.8222578" lon="7.5775212"><ele>239.0</ele><time>2026-05-03T14:00:28.156Z</time></trkpt><trkpt lat="44.8223267" lon="7.5774577"><ele>239.00000000000003</ele><time>2026-05-03T14:00:29.14Z</time></trkpt><trkpt lat="44.8223882" lon="7.5774042"><ele>239.0</ele><time>2026-05-03T14:00:30.15Z</time></trkpt><trkpt lat="44.82245" lon="7.5773542"><ele>239.0</ele><time>2026-05-03T14:00:31.144Z</time></trkpt><trkpt lat="44.8225154" lon="7.5773032"><ele>239.0</ele><time>2026-05-03T14:00:32.14Z</time></trkpt><trkpt lat="44.8225771" lon="7.5772591"><ele>239.00000000000003</ele><time>2026-05-03T14:00:33.144Z</time></trkpt><trkpt lat="44.8226771" lon="7.5772177"><ele>239.0</ele><time>2026-05-03T14:00:35.144Z</time></trkpt><trkpt lat="44.8227568" lon="7.5772017"><ele>239.39999999999998</ele><time>2026-05-03T14:00:38.143Z</time></trkpt><trkpt lat="44.8228615" lon="7.5772099"><ele>239.79999999999998</ele><time>2026-05-03T14:02:09.141Z</time></trkpt><trkpt lat="44.8229672" lon="7.5772283"><ele>240.20000000000002</ele><time>2026-05-03T14:02:11.138Z</time></trkpt><trkpt lat="44.8230665" lon="7.5771805"><ele>240.60000000000002</ele><time>2026-05-03T14:02:13.149Z</time></trkpt><trkpt lat="44.8231314" lon="7.5770532"><ele>241.0</ele><time>2026-05-03T14:02:15.136Z</time></trkpt><trkpt lat="44.8231679" lon="7.5769297"><ele>241.0</ele><time>2026-05-03T14:02:17.139Z</time></trkpt><trkpt lat="44.8232308" lon="7.5768468"><ele>241.00000000000003</ele><time>2026-05-03T14:02:19.143Z</time></trkpt><trkpt lat="44.8233081" lon="7.5768299"><ele>241.00000000000003</ele><time>2026-05-03T14:02:21.14Z</time></trkpt><trkpt lat="44.8234327" lon="7.576862"><ele>241.0</ele><time>2026-05-03T14:02:23.147Z</time></trkpt><trkpt lat="44.8235136" lon="7.5768888"><ele>241.0</ele><time>2026-05-03T14:02:24.147Z</time></trkpt><trkpt lat="44.8236003" lon="7.5769134"><ele>241.4</ele><time>2026-05-03T14:02:25.149Z</time></trkpt><trkpt lat="44.8237002" lon="7.5769416"><ele>241.8</ele><time>2026-05-03T14:02:26.136Z</time></trkpt><trkpt lat="44.8237994" lon="7.5769669"><ele>242.20000000000002</ele><time>2026-05-03T14:02:27.135Z</time></trkpt><trkpt lat="44.8238963" lon="7.5769894"><ele>242.60000000000002</ele><time>2026-05-03T14:02:28.145Z</time></trkpt><trkpt lat="44.8239882" lon="7.5770126"><ele>243.0</ele><time>2026-05-03T14:02:29.134Z</time></trkpt><trkpt lat="44.8240828" lon="7.5770357"><ele>243.2</ele><time>2026-05-03T14:02:30.137Z</time></trkpt><trkpt lat="44.8241869" lon="7.5770567"><ele>243.4</ele><time>2026-05-03T14:02:31.136Z</time></trkpt><trkpt lat="44.8242903" lon="7.5770811"><ele>243.59999999999997</ele><time>2026-05-03T14:02:32.149Z</time></trkpt><trkpt lat="44.8243918" lon="7.5771063"><ele>243.79999999999998</ele><time>2026-05-03T14:02:33.136Z</time></trkpt><trkpt lat="44.8244967" lon="7.5771302"><ele>244.0</ele><time>2026-05-03T14:02:34.141Z</time></trkpt><trkpt lat="44.8246053" lon="7.5771504"><ele>244.0</ele><time>2026-05-03T14:02:35.136Z</time></trkpt><trkpt lat="44.8247222" lon="7.5771714"><ele>243.99999999999997</ele><time>2026-05-03T14:02:36.138Z</time></trkpt><trkpt lat="44.8248402" lon="7.5771957"><ele>243.99999999999997</ele><time>2026-05-03T14:02:37.138Z</time></trkpt><trkpt lat="44.8249424" lon="7.5772159"><ele>244.0</ele><time>2026-05-03T14:02:38.141Z</time></trkpt><trkpt lat="44.8250481" lon="7.5772406"><ele>244.0</ele><time>2026-05-03T14:02:39.145Z</time></trkpt><trkpt lat="44.8251634" lon="7.577272"><ele>243.83333333333331</ele><time>2026-05-03T14:02:40.138Z</time></trkpt><trkpt lat="44.8252664" lon="7.5772906"><ele>243.66666666666666</ele><time>2026-05-03T14:02:41.144Z</time></trkpt><trkpt lat="44.8253602" lon="7.5773084"><ele>243.5</ele><time>2026-05-03T14:02:42.136Z</time></trkpt><trkpt lat="44.8254467" lon="7.5773303"><ele>243.33333333333331</ele><time>2026-05-03T14:02:43.135Z</time></trkpt><trkpt lat="44.8255206" lon="7.5773491"><ele>243.16666666666666</ele><time>2026-05-03T14:02:44.14Z</time></trkpt><trkpt lat="44.8255924" lon="7.5773648"><ele>243.0</ele><time>2026-05-03T14:02:45.136Z</time></trkpt><trkpt lat="44.8256961" lon="7.5773879"><ele>243.0</ele><time>2026-05-03T14:02:47.137Z</time></trkpt><trkpt lat="44.8257664" lon="7.5774188"><ele>243.0</ele><time>2026-05-03T14:02:49.139Z</time></trkpt><trkpt lat="44.8258136" lon="7.5774856"><ele>243.0</ele><time>2026-05-03T14:03:33.139Z</time></trkpt><trkpt lat="44.8258596" lon="7.5776283"><ele>243.0</ele><time>2026-05-03T14:03:35.141Z</time></trkpt><trkpt lat="44.8258944" lon="7.5777265"><ele>243.0</ele><time>2026-05-03T14:03:36.136Z</time></trkpt><trkpt lat="44.8259335" lon="7.5778433"><ele>243.0</ele><time>2026-05-03T14:03:37.152Z</time></trkpt><trkpt lat="44.8259767" lon="7.5779408"><ele>243.5</ele><time>2026-05-03T14:03:38.145Z</time></trkpt><trkpt lat="44.8260243" lon="7.5780362"><ele>244.0</ele><time>2026-05-03T14:03:39.144Z</time></trkpt><trkpt lat="44.8260743" lon="7.5781323"><ele>244.5</ele><time>2026-05-03T14:03:40.143Z</time></trkpt><trkpt lat="44.8261286" lon="7.5782241"><ele>245.0</ele><time>2026-05-03T14:03:41.145Z</time></trkpt><trkpt lat="44.8261906" lon="7.5783101"><ele>245.5</ele><time>2026-05-03T14:03:42.148Z</time></trkpt><trkpt lat="44.8262525" lon="7.5783936"><ele>246.0</ele><time>2026-05-03T14:03:43.146Z</time></trkpt><trkpt lat="44.8263162" lon="7.5784744"><ele>246.0</ele><time>2026-05-03T14:03:44.137Z</time></trkpt><trkpt lat="44.8263822" lon="7.578548"><ele>246.0</ele><time>2026-05-03T14:03:45.14Z</time></trkpt><trkpt lat="44.8264479" lon="7.5786179"><ele>246.0</ele><time>2026-05-03T14:03:46.143Z</time></trkpt><trkpt lat="44.8265163" lon="7.5786848"><ele>246.0</ele><time>2026-05-03T14:03:47.147Z</time></trkpt><trkpt lat="44.8265813" lon="7.5787494"><ele>246.0</ele><time>2026-05-03T14:03:48.134Z</time></trkpt><trkpt lat="44.8266459" lon="7.5788118"><ele>246.0</ele><time>2026-05-03T14:03:49.154Z</time></trkpt><trkpt lat="44.8267046" lon="7.5788648"><ele>245.8571428571429</ele><time>2026-05-03T14:03:50.141Z</time></trkpt><trkpt lat="44.826759" lon="7.5789148"><ele>245.71428571428572</ele><time>2026-05-03T14:03:51.141Z</time></trkpt><trkpt lat="44.8268122" lon="7.5789653"><ele>245.57142857142858</ele><time>2026-05-03T14:03:52.133Z</time></trkpt><trkpt lat="44.8268676" lon="7.5790141"><ele>245.42857142857144</ele><time>2026-05-03T14:03:53.147Z</time></trkpt><trkpt lat="44.8269216" lon="7.5790698"><ele>245.28571428571428</ele><time>2026-05-03T14:03:54.144Z</time></trkpt><trkpt lat="44.8269784" lon="7.5791294"><ele>245.14285714285714</ele><time>2026-05-03T14:03:55.14Z</time></trkpt><trkpt lat="44.8270395" lon="7.5791847"><ele>245.0</ele><time>2026-05-03T14:03:56.144Z</time></trkpt><trkpt lat="44.8271048" lon="7.5792455"><ele>245.00000000000003</ele><time>2026-05-03T14:03:57.135Z</time></trkpt><trkpt lat="44.8271696" lon="7.579308"><ele>245.0</ele><time>2026-05-03T14:03:58.145Z</time></trkpt><trkpt lat="44.8272356" lon="7.5793673"><ele>245.0</ele><time>2026-05-03T14:03:59.148Z</time></trkpt><trkpt lat="44.8273013" lon="7.5794302"><ele>245.0</ele><time>2026-05-03T14:04:00.146Z</time></trkpt><trkpt lat="44.8273695" lon="7.5794943"><ele>245.00000000000003</ele><time>2026-05-03T14:04:01.14Z</time></trkpt><trkpt lat="44.8274405" lon="7.5795636"><ele>245.0</ele><time>2026-05-03T14:04:02.141Z</time></trkpt><trkpt lat="44.8275137" lon="7.579632"><ele>244.83333333333334</ele><time>2026-05-03T14:04:03.144Z</time></trkpt><trkpt lat="44.8275881" lon="7.5797027"><ele>244.66666666666669</ele><time>2026-05-03T14:04:04.144Z</time></trkpt><trkpt lat="44.8276586" lon="7.5797746"><ele>244.5</ele><time>2026-05-03T14:04:05.139Z</time></trkpt><trkpt lat="44.8277306" lon="7.5798471"><ele>244.33333333333331</ele><time>2026-05-03T14:04:06.146Z</time></trkpt><trkpt lat="44.8278021" lon="7.5799238"><ele>244.16666666666666</ele><time>2026-05-03T14:04:07.143Z</time></trkpt><trkpt lat="44.8278747" lon="7.5799948"><ele>244.0</ele><time>2026-05-03T14:04:08.138Z</time></trkpt><trkpt lat="44.8279484" lon="7.5800692"><ele>243.99999999999997</ele><time>2026-05-03T14:04:09.144Z</time></trkpt><trkpt lat="44.8280199" lon="7.5801511"><ele>244.0</ele><time>2026-05-03T14:04:10.14Z</time></trkpt><trkpt lat="44.8280837" lon="7.5802259"><ele>244.0</ele><time>2026-05-03T14:04:11.147Z</time></trkpt><trkpt lat="44.8281414" lon="7.5802986"><ele>244.0</ele><time>2026-05-03T14:04:12.143Z</time></trkpt><trkpt lat="44.828196" lon="7.5803729"><ele>243.99999999999997</ele><time>2026-05-03T14:04:13.136Z</time></trkpt><trkpt lat="44.8282431" lon="7.5804461"><ele>244.0</ele><time>2026-05-03T14:04:14.143Z</time></trkpt><trkpt lat="44.828285" lon="7.5805156"><ele>244.0</ele><time>2026-05-03T14:04:15.131Z</time></trkpt><trkpt lat="44.8283292" lon="7.5805839"><ele>243.99999999999997</ele><time>2026-05-03T14:04:16.143Z</time></trkpt><trkpt lat="44.8284009" lon="7.5807119"><ele>243.99999999999997</ele><time>2026-05-03T14:04:18.148Z</time></trkpt><trkpt lat="44.8284494" lon="7.5808035"><ele>244.0</ele><time>2026-05-03T14:04:20.143Z</time></trkpt><trkpt lat="44.8284951" lon="7.5809112"><ele>244.0</ele><time>2026-05-03T14:06:04.139Z</time></trkpt><trkpt lat="44.8285565" lon="7.5810937"><ele>243.75</ele><time>2026-05-03T14:06:06.15Z</time></trkpt><trkpt lat="44.8286011" lon="7.581222"><ele>243.5</ele><time>2026-05-03T14:06:07.144Z</time></trkpt><trkpt lat="44.8286412" lon="7.5813763"><ele>243.25</ele><time>2026-05-03T14:06:08.155Z</time></trkpt><trkpt lat="44.8286777" lon="7.5815514"><ele>243.0</ele><time>2026-05-03T14:06:09.141Z</time></trkpt><trkpt lat="44.8287131" lon="7.5817443"><ele>243.0</ele><time>2026-05-03T14:06:10.147Z</time></trkpt><trkpt lat="44.828749" lon="7.5819284"><ele>243.0</ele><time>2026-05-03T14:06:11.143Z</time></trkpt><trkpt lat="44.8287801" lon="7.5821036"><ele>243.0</ele><time>2026-05-03T14:06:12.143Z</time></trkpt><trkpt lat="44.8288104" lon="7.5822692"><ele>243.0</ele><time>2026-05-03T14:06:13.133Z</time></trkpt><trkpt lat="44.8288446" lon="7.58243"><ele>243.0</ele><time>2026-05-03T14:06:14.137Z</time></trkpt><trkpt lat="44.828877" lon="7.5826028"><ele>243.0</ele><time>2026-05-03T14:06:15.133Z</time></trkpt><trkpt lat="44.8289002" lon="7.5827898"><ele>243.0</ele><time>2026-05-03T14:06:16.13Z</time></trkpt><trkpt lat="44.8289227" lon="7.5829751"><ele>243.0</ele><time>2026-05-03T14:06:17.136Z</time></trkpt><trkpt lat="44.828944" lon="7.5831557"><ele>243.25</ele><time>2026-05-03T14:06:18.134Z</time></trkpt><trkpt lat="44.8289618" lon="7.5833287"><ele>243.5</ele><time>2026-05-03T14:06:19.133Z</time></trkpt><trkpt lat="44.8289635" lon="7.5835028"><ele>243.75</ele><time>2026-05-03T14:06:20.131Z</time></trkpt><trkpt lat="44.8289563" lon="7.5836758"><ele>244.0</ele><time>2026-05-03T14:06:21.138Z</time></trkpt><trkpt lat="44.8289494" lon="7.5838308"><ele>244.0</ele><time>2026-05-03T14:06:22.139Z</time></trkpt><trkpt lat="44.8289491" lon="7.583967"><ele>243.99999999999997</ele><time>2026-05-03T14:06:23.138Z</time></trkpt><trkpt lat="44.8289469" lon="7.5840936"><ele>243.99999999999997</ele><time>2026-05-03T14:06:24.144Z</time></trkpt><trkpt lat="44.8289511" lon="7.5842132"><ele>244.0</ele><time>2026-05-03T14:06:25.128Z</time></trkpt><trkpt lat="44.828957" lon="7.5843437"><ele>244.0</ele><time>2026-05-03T14:06:26.124Z</time></trkpt><trkpt lat="44.8289678" lon="7.5844778"><ele>244.0</ele><time>2026-05-03T14:06:27.134Z</time></trkpt><trkpt lat="44.8289853" lon="7.5846184"><ele>243.99999999999997</ele><time>2026-05-03T14:06:28.143Z</time></trkpt><trkpt lat="44.8290029" lon="7.5847647"><ele>243.99999999999997</ele><time>2026-05-03T14:06:29.134Z</time></trkpt><trkpt lat="44.8290221" lon="7.5849146"><ele>244.0</ele><time>2026-05-03T14:06:30.136Z</time></trkpt><trkpt lat="44.8290453" lon="7.5850563"><ele>244.0</ele><time>2026-05-03T14:06:31.136Z</time></trkpt><trkpt lat="44.829067" lon="7.5852093"><ele>244.25</ele><time>2026-05-03T14:06:32.139Z</time></trkpt><trkpt lat="44.829088" lon="7.5853738"><ele>244.5</ele><time>2026-05-03T14:06:33.135Z</time></trkpt><trkpt lat="44.8291106" lon="7.5855362"><ele>244.75</ele><time>2026-05-03T14:06:34.139Z</time></trkpt><trkpt lat="44.8291335" lon="7.5856971"><ele>245.0</ele><time>2026-05-03T14:06:35.138Z</time></trkpt><trkpt lat="44.8291507" lon="7.585837"><ele>245.00000000000003</ele><time>2026-05-03T14:06:36.136Z</time></trkpt><trkpt lat="44.82916" lon="7.5859619"><ele>245.0</ele><time>2026-05-03T14:06:37.129Z</time></trkpt><trkpt lat="44.8291655" lon="7.5860552"><ele>245.0</ele><time>2026-05-03T14:06:38.133Z</time></trkpt><trkpt lat="44.8291754" lon="7.5862041"><ele>245.0</ele><time>2026-05-03T14:06:40.131Z</time></trkpt><trkpt lat="44.8291882" lon="7.5863283"><ele>245.00000000000003</ele><time>2026-05-03T14:06:43.132Z</time></trkpt><trkpt lat="44.8291416" lon="7.5864141"><ele>245.0</ele><time>2026-05-03T14:06:45.131Z</time></trkpt><trkpt lat="44.8290399" lon="7.5864506"><ele>245.00000000000003</ele><time>2026-05-03T14:06:47.138Z</time></trkpt><trkpt lat="44.8289752" lon="7.5864431"><ele>245.0</ele><time>2026-05-03T14:06:48.137Z</time></trkpt><trkpt lat="44.8288908" lon="7.586462"><ele>245.0</ele><time>2026-05-03T14:06:49.135Z</time></trkpt><trkpt lat="44.8288112" lon="7.5864696"><ele>245.0</ele><time>2026-05-03T14:06:50.132Z</time></trkpt><trkpt lat="44.8287395" lon="7.5864823"><ele>245.00000000000003</ele><time>2026-05-03T14:06:51.133Z</time></trkpt><trkpt lat="44.8286681" lon="7.5864857"><ele>245.0</ele><time>2026-05-03T14:06:52.133Z</time></trkpt><trkpt lat="44.8285885" lon="7.5864976"><ele>245.0</ele><time>2026-05-03T14:06:53.133Z</time></trkpt><trkpt lat="44.8285019" lon="7.5865121"><ele>245.0</ele><time>2026-05-03T14:06:54.123Z</time></trkpt><trkpt lat="44.8284044" lon="7.58653"><ele>245.0</ele><time>2026-05-03T14:06:55.132Z</time></trkpt><trkpt lat="44.8282982" lon="7.5865465"><ele>245.0</ele><time>2026-05-03T14:06:56.132Z</time></trkpt><trkpt lat="44.8281856" lon="7.5865663"><ele>245.0</ele><time>2026-05-03T14:06:57.135Z</time></trkpt><trkpt lat="44.8280706" lon="7.586585"><ele>244.6</ele><time>2026-05-03T14:06:58.13Z</time></trkpt><trkpt lat="44.8279633" lon="7.5866044"><ele>244.2</ele><time>2026-05-03T14:06:59.129Z</time></trkpt><trkpt lat="44.8278534" lon="7.586634"><ele>243.8</ele><time>2026-05-03T14:07:00.131Z</time></trkpt><trkpt lat="44.8277408" lon="7.5866612"><ele>243.4</ele><time>2026-05-03T14:07:01.129Z</time></trkpt><trkpt lat="44.827637" lon="7.5866861"><ele>243.0</ele><time>2026-05-03T14:07:02.138Z</time></trkpt><trkpt lat="44.8275331" lon="7.5867104"><ele>242.5</ele><time>2026-05-03T14:07:03.133Z</time></trkpt><trkpt lat="44.8274254" lon="7.5867367"><ele>242.0</ele><time>2026-05-03T14:07:04.133Z</time></trkpt><trkpt lat="44.8272937" lon="7.5867684"><ele>241.5</ele><time>2026-05-03T14:07:05.126Z</time></trkpt><trkpt lat="44.8271906" lon="7.5867964"><ele>241.0</ele><time>2026-05-03T14:07:06.135Z</time></trkpt><trkpt lat="44.8270759" lon="7.586821"><ele>241.0</ele><time>2026-05-03T14:07:07.133Z</time></trkpt><trkpt lat="44.8269497" lon="7.5868475"><ele>241.0</ele><time>2026-05-03T14:07:08.134Z</time></trkpt><trkpt lat="44.826818" lon="7.5868738"><ele>241.0</ele><time>2026-05-03T14:07:09.139Z</time></trkpt><trkpt lat="44.8266879" lon="7.5869056"><ele>241.0</ele><time>2026-05-03T14:07:10.13Z</time></trkpt><trkpt lat="44.8265644" lon="7.5869331"><ele>241.0</ele><time>2026-05-03T14:07:11.133Z</time></trkpt><trkpt lat="44.8264338" lon="7.5869688"><ele>241.0</ele><time>2026-05-03T14:07:12.132Z</time></trkpt><trkpt lat="44.8262986" lon="7.587001"><ele>241.0</ele><time>2026-05-03T14:07:13.132Z</time></trkpt><trkpt lat="44.8261567" lon="7.5870363"><ele>241.0</ele><time>2026-05-03T14:07:14.133Z</time></trkpt><trkpt lat="44.8260134" lon="7.5870708"><ele>241.5</ele><time>2026-05-03T14:07:15.133Z</time></trkpt><trkpt lat="44.825868" lon="7.5871053"><ele>242.0</ele><time>2026-05-03T14:07:16.137Z</time></trkpt><trkpt lat="44.825724" lon="7.5871408"><ele>242.5</ele><time>2026-05-03T14:07:17.134Z</time></trkpt><trkpt lat="44.8255738" lon="7.5871832"><ele>243.0</ele><time>2026-05-03T14:07:18.138Z</time></trkpt><trkpt lat="44.8254231" lon="7.5872325"><ele>243.0</ele><time>2026-05-03T14:07:19.138Z</time></trkpt><trkpt lat="44.8252814" lon="7.587284"><ele>243.0</ele><time>2026-05-03T14:07:20.146Z</time></trkpt><trkpt lat="44.8251371" lon="7.5873292"><ele>243.0</ele><time>2026-05-03T14:07:21.135Z</time></trkpt><trkpt lat="44.8249859" lon="7.5873641"><ele>243.0</ele><time>2026-05-03T14:07:22.134Z</time></trkpt><trkpt lat="44.8248276" lon="7.5873789"><ele>242.33333333333331</ele><time>2026-05-03T14:07:23.124Z</time></trkpt><trkpt lat="44.8246707" lon="7.587361"><ele>241.66666666666666</ele><time>2026-05-03T14:07:24.13Z</time></trkpt><trkpt lat="44.8245116" lon="7.5873173"><ele>241.0</ele><time>2026-05-03T14:07:25.128Z</time></trkpt><trkpt lat="44.8243502" lon="7.5872567"><ele>241.33333333333331</ele><time>2026-05-03T14:07:26.137Z</time></trkpt><trkpt lat="44.824183" lon="7.5871997"><ele>241.66666666666669</ele><time>2026-05-03T14:07:27.131Z</time></trkpt><trkpt lat="44.8240164" lon="7.5871539"><ele>242.0</ele><time>2026-05-03T14:07:28.139Z</time></trkpt><trkpt lat="44.8238451" lon="7.5871221"><ele>242.0</ele><time>2026-05-03T14:07:29.127Z</time></trkpt><trkpt lat="44.8236719" lon="7.5870921"><ele>242.0</ele><time>2026-05-03T14:07:30.135Z</time></trkpt><trkpt lat="44.8234909" lon="7.5870628"><ele>242.0</ele><time>2026-05-03T14:07:31.132Z</time></trkpt><trkpt lat="44.8233036" lon="7.5870314"><ele>241.66666666666669</ele><time>2026-05-03T14:07:32.127Z</time></trkpt><trkpt lat="44.8231079" lon="7.5870045"><ele>241.33333333333331</ele><time>2026-05-03T14:07:33.135Z</time></trkpt><trkpt lat="44.8229096" lon="7.5869734"><ele>241.0</ele><time>2026-05-03T14:07:34.134Z</time></trkpt><trkpt lat="44.8227044" lon="7.5869426"><ele>241.33333333333331</ele><time>2026-05-03T14:07:35.131Z</time></trkpt><trkpt lat="44.8225105" lon="7.5869281"><ele>241.66666666666669</ele><time>2026-05-03T14:07:36.142Z</time></trkpt><trkpt lat="44.8223039" lon="7.5869014"><ele>242.0</ele><time>2026-05-03T14:07:37.129Z</time></trkpt><trkpt lat="44.822101" lon="7.5868768"><ele>242.0</ele><time>2026-05-03T14:07:38.136Z</time></trkpt><trkpt lat="44.8219038" lon="7.5868522"><ele>242.0</ele><time>2026-05-03T14:07:39.131Z</time></trkpt><trkpt lat="44.821719" lon="7.5868291"><ele>242.0</ele><time>2026-05-03T14:07:40.134Z</time></trkpt><trkpt lat="44.8215414" lon="7.5868095"><ele>242.0</ele><time>2026-05-03T14:07:41.133Z</time></trkpt><trkpt lat="44.8213656" lon="7.5867857"><ele>242.0</ele><time>2026-05-03T14:07:42.134Z</time></trkpt><trkpt lat="44.8211938" lon="7.5867569"><ele>242.0</ele><time>2026-05-03T14:07:43.133Z</time></trkpt><trkpt lat="44.8210351" lon="7.5867188"><ele>241.75</ele><time>2026-05-03T14:07:44.129Z</time></trkpt><trkpt lat="44.8208873" lon="7.5866709"><ele>241.5</ele><time>2026-05-03T14:07:45.135Z</time></trkpt><trkpt lat="44.8207506" lon="7.586606"><ele>241.25</ele><time>2026-05-03T14:07:46.126Z</time></trkpt><trkpt lat="44.8206257" lon="7.586526"><ele>241.0</ele><time>2026-05-03T14:07:47.134Z</time></trkpt><trkpt lat="44.8205067" lon="7.5864304"><ele>241.0</ele><time>2026-05-03T14:07:48.138Z</time></trkpt><trkpt lat="44.8203888" lon="7.5863267"><ele>241.0</ele><time>2026-05-03T14:07:49.132Z</time></trkpt><trkpt lat="44.8202701" lon="7.5862121"><ele>241.0</ele><time>2026-05-03T14:07:50.134Z</time></trkpt><trkpt lat="44.8201618" lon="7.5861005"><ele>241.0</ele><time>2026-05-03T14:07:51.135Z</time></trkpt><trkpt lat="44.8200536" lon="7.5860038"><ele>241.0</ele><time>2026-05-03T14:07:52.128Z</time></trkpt><trkpt lat="44.8199454" lon="7.5859254"><ele>241.0</ele><time>2026-05-03T14:07:53.133Z</time></trkpt><trkpt lat="44.8198326" lon="7.5858633"><ele>241.0</ele><time>2026-05-03T14:07:54.137Z</time></trkpt><trkpt lat="44.8197127" lon="7.5858183"><ele>241.0</ele><time>2026-05-03T14:07:55.131Z</time></trkpt><trkpt lat="44.8195889" lon="7.5857896"><ele>241.0</ele><time>2026-05-03T14:07:56.132Z</time></trkpt><trkpt lat="44.819461" lon="7.5857796"><ele>241.0</ele><time>2026-05-03T14:07:57.143Z</time></trkpt><trkpt lat="44.8193267" lon="7.5857891"><ele>241.0</ele><time>2026-05-03T14:07:58.137Z</time></trkpt><trkpt lat="44.8191938" lon="7.5858173"><ele>241.0</ele><time>2026-05-03T14:07:59.134Z</time></trkpt><trkpt lat="44.8190616" lon="7.5858651"><ele>241.5</ele><time>2026-05-03T14:08:00.138Z</time></trkpt><trkpt lat="44.8189365" lon="7.5859296"><ele>242.0</ele><time>2026-05-03T14:08:01.133Z</time></trkpt><trkpt lat="44.8188133" lon="7.5859964"><ele>242.5</ele><time>2026-05-03T14:08:02.139Z</time></trkpt><trkpt lat="44.8186887" lon="7.5860652"><ele>243.0</ele><time>2026-05-03T14:08:03.128Z</time></trkpt><trkpt lat="44.8185583" lon="7.5861145"><ele>242.75</ele><time>2026-05-03T14:08:04.143Z</time></trkpt><trkpt lat="44.8184209" lon="7.5861322"><ele>242.5</ele><time>2026-05-03T14:08:05.13Z</time></trkpt><trkpt lat="44.8182751" lon="7.5861151"><ele>242.25</ele><time>2026-05-03T14:08:06.13Z</time></trkpt><trkpt lat="44.8181228" lon="7.5860767"><ele>242.0</ele><time>2026-05-03T14:08:07.13Z</time></trkpt><trkpt lat="44.817966" lon="7.5860411"><ele>242.0</ele><time>2026-05-03T14:08:08.132Z</time></trkpt><trkpt lat="44.8178106" lon="7.5860259"><ele>242.0</ele><time>2026-05-03T14:08:09.141Z</time></trkpt><trkpt lat="44.817652" lon="7.5860198"><ele>242.0</ele><time>2026-05-03T14:08:10.125Z</time></trkpt><trkpt lat="44.8174932" lon="7.5860084"><ele>242.0</ele><time>2026-05-03T14:08:11.131Z</time></trkpt><trkpt lat="44.8173324" lon="7.586012"><ele>242.0</ele><time>2026-05-03T14:08:12.135Z</time></trkpt><trkpt lat="44.8171668" lon="7.5860186"><ele>242.0</ele><time>2026-05-03T14:08:13.129Z</time></trkpt><trkpt lat="44.8169941" lon="7.586036"><ele>242.0</ele><time>2026-05-03T14:08:14.138Z</time></trkpt><trkpt lat="44.8168092" lon="7.5860661"><ele>242.0</ele><time>2026-05-03T14:08:15.136Z</time></trkpt><trkpt lat="44.8166364" lon="7.5861027"><ele>242.0</ele><time>2026-05-03T14:08:16.132Z</time></trkpt><trkpt lat="44.816467" lon="7.5861348"><ele>242.0</ele><time>2026-05-03T14:08:17.128Z</time></trkpt><trkpt lat="44.8163023" lon="7.5861446"><ele>242.0</ele><time>2026-05-03T14:08:18.13Z</time></trkpt><trkpt lat="44.8161463" lon="7.586123"><ele>242.0</ele><time>2026-05-03T14:08:19.139Z</time></trkpt><trkpt lat="44.815979" lon="7.5860908"><ele>242.0</ele><time>2026-05-03T14:08:20.139Z</time></trkpt><trkpt lat="44.8158068" lon="7.5860424"><ele>242.0</ele><time>2026-05-03T14:08:21.135Z</time></trkpt><trkpt lat="44.8156291" lon="7.5859839"><ele>242.0</ele><time>2026-05-03T14:08:22.133Z</time></trkpt><trkpt lat="44.8154451" lon="7.5859263"><ele>242.0</ele><time>2026-05-03T14:08:23.125Z</time></trkpt><trkpt lat="44.8152642" lon="7.5858692"><ele>242.0</ele><time>2026-05-03T14:08:24.128Z</time></trkpt><trkpt lat="44.8150959" lon="7.585809"><ele>242.0</ele><time>2026-05-03T14:08:25.125Z</time></trkpt><trkpt lat="44.814935" lon="7.5857518"><ele>241.66666666666669</ele><time>2026-05-03T14:08:26.127Z</time></trkpt><trkpt lat="44.8147805" lon="7.5856933"><ele>241.33333333333331</ele><time>2026-05-03T14:08:27.129Z</time></trkpt><trkpt lat="44.8146279" lon="7.5856398"><ele>241.0</ele><time>2026-05-03T14:08:28.132Z</time></trkpt><trkpt lat="44.814472" lon="7.5855932"><ele>241.66666666666666</ele><time>2026-05-03T14:08:29.134Z</time></trkpt><trkpt lat="44.8143126" lon="7.585553"><ele>242.33333333333331</ele><time>2026-05-03T14:08:30.135Z</time></trkpt><trkpt lat="44.8141516" lon="7.5855425"><ele>243.0</ele><time>2026-05-03T14:08:31.135Z</time></trkpt><trkpt lat="44.8139856" lon="7.5855511"><ele>243.0</ele><time>2026-05-03T14:08:32.133Z</time></trkpt><trkpt lat="44.8138184" lon="7.5855787"><ele>243.0</ele><time>2026-05-03T14:08:33.128Z</time></trkpt><trkpt lat="44.8136456" lon="7.5856179"><ele>243.0</ele><time>2026-05-03T14:08:34.126Z</time></trkpt><trkpt lat="44.8134745" lon="7.5856547"><ele>243.0</ele><time>2026-05-03T14:08:35.13Z</time></trkpt><trkpt lat="44.8133091" lon="7.5856815"><ele>243.0</ele><time>2026-05-03T14:08:36.131Z</time></trkpt><trkpt lat="44.8131526" lon="7.5857082"><ele>243.0</ele><time>2026-05-03T14:08:37.142Z</time></trkpt><trkpt lat="44.8129906" lon="7.5857184"><ele>243.0</ele><time>2026-05-03T14:08:38.135Z</time></trkpt><trkpt lat="44.8128236" lon="7.5857115"><ele>243.0</ele><time>2026-05-03T14:08:39.159Z</time></trkpt><trkpt lat="44.8126525" lon="7.5856885"><ele>243.0</ele><time>2026-05-03T14:08:40.131Z</time></trkpt><trkpt lat="44.8124738" lon="7.5856538"><ele>243.33333333333331</ele><time>2026-05-03T14:08:41.126Z</time></trkpt><trkpt lat="44.8122949" lon="7.5856064"><ele>243.66666666666666</ele><time>2026-05-03T14:08:42.142Z</time></trkpt><trkpt lat="44.8121204" lon="7.5855434"><ele>244.0</ele><time>2026-05-03T14:08:43.146Z</time></trkpt><trkpt lat="44.8119533" lon="7.5854599"><ele>243.0</ele><time>2026-05-03T14:08:44.131Z</time></trkpt><trkpt lat="44.8117946" lon="7.5853546"><ele>242.0</ele><time>2026-05-03T14:08:45.131Z</time></trkpt><trkpt lat="44.811635" lon="7.5852509"><ele>241.0</ele><time>2026-05-03T14:08:46.138Z</time></trkpt><trkpt lat="44.8114761" lon="7.5851526"><ele>240.66666666666666</ele><time>2026-05-03T14:08:47.133Z</time></trkpt><trkpt lat="44.8113252" lon="7.5850603"><ele>240.33333333333331</ele><time>2026-05-03T14:08:48.132Z</time></trkpt><trkpt lat="44.8111791" lon="7.5849693"><ele>240.0</ele><time>2026-05-03T14:08:49.128Z</time></trkpt><trkpt lat="44.8110432" lon="7.5848861"><ele>240.75</ele><time>2026-05-03T14:08:50.125Z</time></trkpt><trkpt lat="44.8109132" lon="7.5848061"><ele>241.5</ele><time>2026-05-03T14:08:51.128Z</time></trkpt><trkpt lat="44.8107911" lon="7.5847351"><ele>242.25</ele><time>2026-05-03T14:08:52.135Z</time></trkpt><trkpt lat="44.8106749" lon="7.5846652"><ele>243.0</ele><time>2026-05-03T14:08:53.134Z</time></trkpt><trkpt lat="44.8105671" lon="7.5845922"><ele>243.0</ele><time>2026-05-03T14:08:54.131Z</time></trkpt><trkpt lat="44.81047" lon="7.5844975"><ele>243.0</ele><time>2026-05-03T14:08:55.139Z</time></trkpt><trkpt lat="44.8103836" lon="7.5843788"><ele>243.0</ele><time>2026-05-03T14:08:56.133Z</time></trkpt><trkpt lat="44.8103017" lon="7.5842441"><ele>243.0</ele><time>2026-05-03T14:08:57.137Z</time></trkpt><trkpt lat="44.8102129" lon="7.5841063"><ele>242.5</ele><time>2026-05-03T14:08:58.13Z</time></trkpt><trkpt lat="44.8101293" lon="7.5839868"><ele>242.0</ele><time>2026-05-03T14:08:59.132Z</time></trkpt><trkpt lat="44.8100414" lon="7.5838842"><ele>241.5</ele><time>2026-05-03T14:09:00.13Z</time></trkpt><trkpt lat="44.8099495" lon="7.5837918"><ele>241.0</ele><time>2026-05-03T14:09:01.142Z</time></trkpt><trkpt lat="44.8098495" lon="7.5837024"><ele>241.0</ele><time>2026-05-03T14:09:02.13Z</time></trkpt><trkpt lat="44.8097383" lon="7.5836098"><ele>241.0</ele><time>2026-05-03T14:09:03.146Z</time></trkpt><trkpt lat="44.8096182" lon="7.5835127"><ele>241.0</ele><time>2026-05-03T14:09:04.132Z</time></trkpt><trkpt lat="44.8095069" lon="7.5834079"><ele>241.0</ele><time>2026-05-03T14:09:05.129Z</time></trkpt><trkpt lat="44.8094003" lon="7.5833168"><ele>242.0</ele><time>2026-05-03T14:09:06.133Z</time></trkpt><trkpt lat="44.809306" lon="7.5832306"><ele>243.0</ele><time>2026-05-03T14:09:07.131Z</time></trkpt><trkpt lat="44.8092099" lon="7.5831402"><ele>244.0</ele><time>2026-05-03T14:09:08.145Z</time></trkpt><trkpt lat="44.809117" lon="7.5830373"><ele>245.0</ele><time>2026-05-03T14:09:09.129Z</time></trkpt><trkpt lat="44.8090312" lon="7.582911"><ele>245.4</ele><time>2026-05-03T14:09:10.125Z</time></trkpt><trkpt lat="44.8089556" lon="7.5827694"><ele>245.8</ele><time>2026-05-03T14:09:11.138Z</time></trkpt><trkpt lat="44.8088899" lon="7.5826366"><ele>246.2</ele><time>2026-05-03T14:09:12.131Z</time></trkpt><trkpt lat="44.8088288" lon="7.5825129"><ele>246.6</ele><time>2026-05-03T14:09:13.137Z</time></trkpt><trkpt lat="44.8087597" lon="7.5824087"><ele>247.0</ele><time>2026-05-03T14:09:14.135Z</time></trkpt><trkpt lat="44.8086795" lon="7.5823227"><ele>247.0</ele><time>2026-05-03T14:09:15.131Z</time></trkpt><trkpt lat="44.8085917" lon="7.5822445"><ele>247.0</ele><time>2026-05-03T14:09:16.126Z</time></trkpt><trkpt lat="44.8084958" lon="7.5821725"><ele>247.0</ele><time>2026-05-03T14:09:17.133Z</time></trkpt><trkpt lat="44.8083974" lon="7.5821095"><ele>247.0</ele><time>2026-05-03T14:09:18.14Z</time></trkpt><trkpt lat="44.8083047" lon="7.5820518"><ele>247.0</ele><time>2026-05-03T14:09:19.134Z</time></trkpt><trkpt lat="44.8082112" lon="7.5820005"><ele>246.6</ele><time>2026-05-03T14:09:20.145Z</time></trkpt><trkpt lat="44.8081186" lon="7.5819456"><ele>246.2</ele><time>2026-05-03T14:09:21.125Z</time></trkpt><trkpt lat="44.808024" lon="7.5818899"><ele>245.8</ele><time>2026-05-03T14:09:22.135Z</time></trkpt><trkpt lat="44.8079341" lon="7.5818371"><ele>245.4</ele><time>2026-05-03T14:09:23.129Z</time></trkpt><trkpt lat="44.8078597" lon="7.5817923"><ele>245.0</ele><time>2026-05-03T14:09:24.14Z</time></trkpt><trkpt lat="44.8077926" lon="7.5817445"><ele>245.0</ele><time>2026-05-03T14:09:25.134Z</time></trkpt><trkpt lat="44.8077182" lon="7.5816923"><ele>245.0</ele><time>2026-05-03T14:09:26.133Z</time></trkpt><trkpt lat="44.8076312" lon="7.5816406"><ele>245.0</ele><time>2026-05-03T14:09:27.13Z</time></trkpt><trkpt lat="44.8075347" lon="7.5815875"><ele>245.0</ele><time>2026-05-03T14:09:28.135Z</time></trkpt><trkpt lat="44.8074341" lon="7.5815252"><ele>245.0</ele><time>2026-05-03T14:09:29.133Z</time></trkpt><trkpt lat="44.8073485" lon="7.5814762"><ele>245.0</ele><time>2026-05-03T14:09:30.13Z</time></trkpt><trkpt lat="44.8072763" lon="7.5814324"><ele>245.0</ele><time>2026-05-03T14:09:31.133Z</time></trkpt><trkpt lat="44.8072157" lon="7.5813945"><ele>245.0</ele><time>2026-05-03T14:09:32.133Z</time></trkpt><trkpt lat="44.8071127" lon="7.5813567"><ele>245.0</ele><time>2026-05-03T14:09:34.132Z</time></trkpt><trkpt lat="44.8070474" lon="7.5814402"><ele>245.0</ele><time>2026-05-03T14:09:36.153Z</time></trkpt><trkpt lat="44.8070219" lon="7.5816167"><ele>245.0</ele><time>2026-05-03T14:09:38.137Z</time></trkpt><trkpt lat="44.8070016" lon="7.5817304"><ele>245.0</ele><time>2026-05-03T14:09:39.135Z</time></trkpt><trkpt lat="44.806961" lon="7.5818546"><ele>245.0</ele><time>2026-05-03T14:09:40.13Z</time></trkpt><trkpt lat="44.8069083" lon="7.5819892"><ele>245.0</ele><time>2026-05-03T14:09:41.13Z</time></trkpt><trkpt lat="44.8068516" lon="7.5821378"><ele>245.0</ele><time>2026-05-03T14:09:42.137Z</time></trkpt><trkpt lat="44.8067975" lon="7.582285"><ele>245.0</ele><time>2026-05-03T14:09:43.131Z</time></trkpt><trkpt lat="44.8067432" lon="7.5824285"><ele>245.0</ele><time>2026-05-03T14:09:44.136Z</time></trkpt><trkpt lat="44.8066846" lon="7.5825764"><ele>245.0</ele><time>2026-05-03T14:09:45.132Z</time></trkpt><trkpt lat="44.8066261" lon="7.5827232"><ele>245.0</ele><time>2026-05-03T14:09:46.138Z</time></trkpt><trkpt lat="44.8065737" lon="7.5828596"><ele>244.8</ele><time>2026-05-03T14:09:47.135Z</time></trkpt><trkpt lat="44.8065204" lon="7.5829876"><ele>244.6</ele><time>2026-05-03T14:09:48.136Z</time></trkpt><trkpt lat="44.8064664" lon="7.5830992"><ele>244.39999999999998</ele><time>2026-05-03T14:09:49.127Z</time></trkpt><trkpt lat="44.8064089" lon="7.5832002"><ele>244.2</ele><time>2026-05-03T14:09:50.135Z</time></trkpt><trkpt lat="44.806344" lon="7.5832914"><ele>244.0</ele><time>2026-05-03T14:09:51.134Z</time></trkpt><trkpt lat="44.8062699" lon="7.5833914"><ele>244.0</ele><time>2026-05-03T14:09:52.137Z</time></trkpt><trkpt lat="44.8061869" lon="7.5834985"><ele>243.99999999999997</ele><time>2026-05-03T14:09:53.13Z</time></trkpt><trkpt lat="44.8060984" lon="7.5836038"><ele>243.99999999999997</ele><time>2026-05-03T14:09:54.149Z</time></trkpt><trkpt lat="44.8060172" lon="7.5836998"><ele>244.0</ele><time>2026-05-03T14:09:55.129Z</time></trkpt><trkpt lat="44.805948" lon="7.5837954"><ele>244.0</ele><time>2026-05-03T14:09:56.134Z</time></trkpt><trkpt lat="44.8058928" lon="7.5838971"><ele>244.25</ele><time>2026-05-03T14:09:57.137Z</time></trkpt><trkpt lat="44.805848" lon="7.5840184"><ele>244.5</ele><time>2026-05-03T14:09:58.132Z</time></trkpt><trkpt lat="44.8058177" lon="7.5841793"><ele>244.75</ele><time>2026-05-03T14:09:59.123Z</time></trkpt><trkpt lat="44.8058096" lon="7.5843523"><ele>245.0</ele><time>2026-05-03T14:10:00.132Z</time></trkpt><trkpt lat="44.8058132" lon="7.5845488"><ele>245.0</ele><time>2026-05-03T14:10:01.133Z</time></trkpt><trkpt lat="44.8058176" lon="7.5847603"><ele>245.0</ele><time>2026-05-03T14:10:02.133Z</time></trkpt><trkpt lat="44.805823" lon="7.584969"><ele>245.0</ele><time>2026-05-03T14:10:03.127Z</time></trkpt><trkpt lat="44.80583" lon="7.5851742"><ele>245.0</ele><time>2026-05-03T14:10:04.132Z</time></trkpt><trkpt lat="44.8058361" lon="7.5853889"><ele>245.0</ele><time>2026-05-03T14:10:05.132Z</time></trkpt><trkpt lat="44.805842" lon="7.585606"><ele>245.0</ele><time>2026-05-03T14:10:06.124Z</time></trkpt><trkpt lat="44.8058499" lon="7.585826"><ele>245.0</ele><time>2026-05-03T14:10:07.117Z</time></trkpt><trkpt lat="44.8058587" lon="7.5860538"><ele>244.33333333333334</ele><time>2026-05-03T14:10:08.125Z</time></trkpt><trkpt lat="44.8058679" lon="7.586286"><ele>243.66666666666669</ele><time>2026-05-03T14:10:09.129Z</time></trkpt><trkpt lat="44.805874" lon="7.5865185"><ele>243.0</ele><time>2026-05-03T14:10:10.139Z</time></trkpt><trkpt lat="44.8058783" lon="7.5867377"><ele>243.0</ele><time>2026-05-03T14:10:11.128Z</time></trkpt><trkpt lat="44.8058817" lon="7.5869491"><ele>243.0</ele><time>2026-05-03T14:10:12.129Z</time></trkpt><trkpt lat="44.8058861" lon="7.5871606"><ele>243.0</ele><time>2026-05-03T14:10:13.131Z</time></trkpt><trkpt lat="44.8058908" lon="7.5873657"><ele>243.0</ele><time>2026-05-03T14:10:14.137Z</time></trkpt><trkpt lat="44.8058984" lon="7.5875588"><ele>243.0</ele><time>2026-05-03T14:10:15.133Z</time></trkpt><trkpt lat="44.8059037" lon="7.5877529"><ele>243.0</ele><time>2026-05-03T14:10:16.134Z</time></trkpt><trkpt lat="44.8059097" lon="7.5879499"><ele>243.0</ele><time>2026-05-03T14:10:17.131Z</time></trkpt><trkpt lat="44.8059165" lon="7.5881506"><ele>243.0</ele><time>2026-05-03T14:10:18.135Z</time></trkpt><trkpt lat="44.8059252" lon="7.588354"><ele>243.0</ele><time>2026-05-03T14:10:19.129Z</time></trkpt><trkpt lat="44.8059319" lon="7.5885611"><ele>243.0</ele><time>2026-05-03T14:10:20.138Z</time></trkpt><trkpt lat="44.8059367" lon="7.5887733"><ele>243.0</ele><time>2026-05-03T14:10:21.129Z</time></trkpt><trkpt lat="44.8059454" lon="7.5889836"><ele>243.0</ele><time>2026-05-03T14:10:22.144Z</time></trkpt><trkpt lat="44.8059494" lon="7.5891924"><ele>243.5</ele><time>2026-05-03T14:10:23.13Z</time></trkpt><trkpt lat="44.8059522" lon="7.589399"><ele>244.0</ele><time>2026-05-03T14:10:24.133Z</time></trkpt><trkpt lat="44.8059587" lon="7.5896057"><ele>244.5</ele><time>2026-05-03T14:10:25.132Z</time></trkpt><trkpt lat="44.805967" lon="7.5898143"><ele>245.0</ele><time>2026-05-03T14:10:26.134Z</time></trkpt><trkpt lat="44.805972" lon="7.5900181"><ele>245.0</ele><time>2026-05-03T14:10:27.14Z</time></trkpt><trkpt lat="44.8059773" lon="7.5902233"><ele>245.0</ele><time>2026-05-03T14:10:28.129Z</time></trkpt><trkpt lat="44.8059826" lon="7.5904273"><ele>245.0</ele><time>2026-05-03T14:10:29.145Z</time></trkpt><trkpt lat="44.8059869" lon="7.5906426"><ele>245.0</ele><time>2026-05-03T14:10:30.128Z</time></trkpt><trkpt lat="44.8059908" lon="7.5908679"><ele>244.5</ele><time>2026-05-03T14:10:31.131Z</time></trkpt><trkpt lat="44.8059971" lon="7.5910782"><ele>244.0</ele><time>2026-05-03T14:10:32.125Z</time></trkpt><trkpt lat="44.8060036" lon="7.5912754"><ele>243.5</ele><time>2026-05-03T14:10:33.132Z</time></trkpt><trkpt lat="44.8060075" lon="7.5914588"><ele>243.0</ele><time>2026-05-03T14:10:34.13Z</time></trkpt><trkpt lat="44.806009" lon="7.5916321"><ele>242.8</ele><time>2026-05-03T14:10:35.131Z</time></trkpt><trkpt lat="44.806011" lon="7.5917951"><ele>242.60000000000002</ele><time>2026-05-03T14:10:36.145Z</time></trkpt><trkpt lat="44.8060055" lon="7.5919464"><ele>242.39999999999998</ele><time>2026-05-03T14:10:37.127Z</time></trkpt><trkpt lat="44.8059783" lon="7.5920821"><ele>242.2</ele><time>2026-05-03T14:10:38.136Z</time></trkpt><trkpt lat="44.8059237" lon="7.5922112"><ele>242.0</ele><time>2026-05-03T14:10:39.135Z</time></trkpt><trkpt lat="44.8058465" lon="7.5923153"><ele>242.6</ele><time>2026-05-03T14:10:40.13Z</time></trkpt><trkpt lat="44.8057561" lon="7.5924072"><ele>243.2</ele><time>2026-05-03T14:10:41.135Z</time></trkpt><trkpt lat="44.8056644" lon="7.5925022"><ele>243.8</ele><time>2026-05-03T14:10:42.128Z</time></trkpt><trkpt lat="44.8055796" lon="7.5926047"><ele>244.4</ele><time>2026-05-03T14:10:43.147Z</time></trkpt><trkpt lat="44.8055169" lon="7.5926843"><ele>245.0</ele><time>2026-05-03T14:10:44.136Z</time></trkpt><trkpt lat="44.8054739" lon="7.5927568"><ele>245.00000000000003</ele><time>2026-05-03T14:10:45.136Z</time></trkpt><trkpt lat="44.8054251" lon="7.5928534"><ele>245.0</ele><time>2026-05-03T14:10:47.138Z</time></trkpt><trkpt lat="44.8053901" lon="7.5929303"><ele>245.0</ele><time>2026-05-03T14:10:49.136Z</time></trkpt><trkpt lat="44.8053223" lon="7.5929683"><ele>245.0</ele><time>2026-05-03T14:11:06.137Z</time></trkpt><trkpt lat="44.8052457" lon="7.5928856"><ele>245.00000000000003</ele><time>2026-05-03T14:11:08.147Z</time></trkpt><trkpt lat="44.8051951" lon="7.5928326"><ele>245.0</ele><time>2026-05-03T14:11:09.126Z</time></trkpt><trkpt lat="44.8051278" lon="7.5927866"><ele>245.2</ele><time>2026-05-03T14:11:10.134Z</time></trkpt><trkpt lat="44.8050485" lon="7.5927473"><ele>245.4</ele><time>2026-05-03T14:11:11.129Z</time></trkpt><trkpt lat="44.8049674" lon="7.5927049"><ele>245.60000000000002</ele><time>2026-05-03T14:11:12.122Z</time></trkpt><trkpt lat="44.8048831" lon="7.5926531"><ele>245.8</ele><time>2026-05-03T14:11:13.128Z</time></trkpt><trkpt lat="44.8047979" lon="7.5925918"><ele>246.0</ele><time>2026-05-03T14:11:14.135Z</time></trkpt><trkpt lat="44.8047054" lon="7.5925425"><ele>246.0</ele><time>2026-05-03T14:11:15.128Z</time></trkpt><trkpt lat="44.8046096" lon="7.5924909"><ele>246.00000000000003</ele><time>2026-05-03T14:11:16.129Z</time></trkpt><trkpt lat="44.8045175" lon="7.5924317"><ele>246.00000000000003</ele><time>2026-05-03T14:11:17.131Z</time></trkpt><trkpt lat="44.8044291" lon="7.5923776"><ele>246.0</ele><time>2026-05-03T14:11:18.138Z</time></trkpt><trkpt lat="44.8043316" lon="7.5923177"><ele>246.0</ele><time>2026-05-03T14:11:19.129Z</time></trkpt><trkpt lat="44.8042383" lon="7.5922568"><ele>246.0</ele><time>2026-05-03T14:11:20.137Z</time></trkpt><trkpt lat="44.8041545" lon="7.5921958"><ele>246.0</ele><time>2026-05-03T14:11:21.127Z</time></trkpt><trkpt lat="44.8040766" lon="7.5921442"><ele>246.0</ele><time>2026-05-03T14:11:22.133Z</time></trkpt><trkpt lat="44.8040041" lon="7.592095"><ele>246.0</ele><time>2026-05-03T14:11:23.135Z</time></trkpt><trkpt lat="44.8039389" lon="7.5920449"><ele>246.0</ele><time>2026-05-03T14:11:24.139Z</time></trkpt><trkpt lat="44.8038783" lon="7.5919934"><ele>246.0</ele><time>2026-05-03T14:11:25.129Z</time></trkpt><trkpt lat="44.8038108" lon="7.5919562"><ele>245.8</ele><time>2026-05-03T14:11:26.14Z</time></trkpt><trkpt lat="44.8037285" lon="7.5919348"><ele>245.60000000000002</ele><time>2026-05-03T14:11:27.141Z</time></trkpt><trkpt lat="44.8036266" lon="7.5919165"><ele>245.4</ele><time>2026-05-03T14:11:28.123Z</time></trkpt><trkpt lat="44.8035041" lon="7.5919083"><ele>245.2</ele><time>2026-05-03T14:11:29.13Z</time></trkpt><trkpt lat="44.8033788" lon="7.5919051"><ele>245.0</ele><time>2026-05-03T14:11:30.133Z</time></trkpt><trkpt lat="44.8032514" lon="7.591903"><ele>245.0</ele><time>2026-05-03T14:11:31.126Z</time></trkpt><trkpt lat="44.8031285" lon="7.5919101"><ele>245.0</ele><time>2026-05-03T14:11:32.13Z</time></trkpt><trkpt lat="44.8030185" lon="7.5919215"><ele>245.0</ele><time>2026-05-03T14:11:33.124Z</time></trkpt><trkpt lat="44.8029152" lon="7.5919374"><ele>245.0</ele><time>2026-05-03T14:11:34.123Z</time></trkpt><trkpt lat="44.8028205" lon="7.5919553"><ele>245.0</ele><time>2026-05-03T14:11:35.124Z</time></trkpt><trkpt lat="44.802742" lon="7.5919729"><ele>245.00000000000003</ele><time>2026-05-03T14:11:36.133Z</time></trkpt><trkpt lat="44.8026627" lon="7.5920118"><ele>245.0</ele><time>2026-05-03T14:11:38.126Z</time></trkpt><trkpt lat="44.8026162" lon="7.5920836"><ele>245.0</ele><time>2026-05-03T14:11:41.141Z</time></trkpt><trkpt lat="44.8026275" lon="7.5922066"><ele>245.0</ele><time>2026-05-03T14:11:43.131Z</time></trkpt><trkpt lat="44.802669" lon="7.5922794"><ele>245.00000000000003</ele><time>2026-05-03T14:11:44.129Z</time></trkpt><trkpt lat="44.8027299" lon="7.5923592"><ele>245.0</ele><time>2026-05-03T14:11:45.137Z</time></trkpt><trkpt lat="44.8027801" lon="7.592453"><ele>245.00000000000003</ele><time>2026-05-03T14:11:46.146Z</time></trkpt><trkpt lat="44.8028326" lon="7.5925521"><ele>245.0</ele><time>2026-05-03T14:11:47.12Z</time></trkpt><trkpt lat="44.8028831" lon="7.5926534"><ele>245.0</ele><time>2026-05-03T14:11:48.128Z</time></trkpt><trkpt lat="44.8029246" lon="7.592746"><ele>245.0</ele><time>2026-05-03T14:11:49.129Z</time></trkpt><trkpt lat="44.8029696" lon="7.5928395"><ele>245.00000000000003</ele><time>2026-05-03T14:11:50.128Z</time></trkpt><trkpt lat="44.8030198" lon="7.5929475"><ele>245.0</ele><time>2026-05-03T14:11:51.138Z</time></trkpt><trkpt lat="44.8030761" lon="7.59306"><ele>245.2</ele><time>2026-05-03T14:11:52.135Z</time></trkpt><trkpt lat="44.8031297" lon="7.5931831"><ele>245.4</ele><time>2026-05-03T14:11:53.129Z</time></trkpt><trkpt lat="44.8031877" lon="7.5933129"><ele>245.60000000000002</ele><time>2026-05-03T14:11:54.134Z</time></trkpt><trkpt lat="44.8032436" lon="7.5934439"><ele>245.8</ele><time>2026-05-03T14:11:55.133Z</time></trkpt><trkpt lat="44.8032985" lon="7.5935619"><ele>246.0</ele><time>2026-05-03T14:11:56.142Z</time></trkpt><trkpt lat="44.8033463" lon="7.5936715"><ele>246.0</ele><time>2026-05-03T14:11:57.129Z</time></trkpt><trkpt lat="44.8033916" lon="7.5937717"><ele>246.0</ele><time>2026-05-03T14:11:58.132Z</time></trkpt><trkpt lat="44.8034279" lon="7.5938583"><ele>246.0</ele><time>2026-05-03T14:11:59.132Z</time></trkpt><trkpt lat="44.8034648" lon="7.5939398"><ele>246.0</ele><time>2026-05-03T14:12:00.129Z</time></trkpt><trkpt lat="44.8035289" lon="7.5940776"><ele>246.0</ele><time>2026-05-03T14:12:02.126Z</time></trkpt><trkpt lat="44.8035889" lon="7.5941875"><ele>246.0</ele><time>2026-05-03T14:12:04.127Z</time></trkpt><trkpt lat="44.8036102" lon="7.5942942"><ele>246.0</ele><time>2026-05-03T14:12:07.13Z</time></trkpt><trkpt lat="44.8035866" lon="7.5944008"><ele>246.00000000000003</ele><time>2026-05-03T14:12:09.125Z</time></trkpt><trkpt lat="44.8035192" lon="7.5945637"><ele>246.00000000000003</ele><time>2026-05-03T14:12:11.14Z</time></trkpt><trkpt lat="44.8034779" lon="7.5946704"><ele>246.0</ele><time>2026-05-03T14:12:12.127Z</time></trkpt><trkpt lat="44.8034357" lon="7.5947747"><ele>246.0</ele><time>2026-05-03T14:12:13.124Z</time></trkpt><trkpt lat="44.8033898" lon="7.594888"><ele>246.20000000000002</ele><time>2026-05-03T14:12:14.131Z</time></trkpt><trkpt lat="44.8033422" lon="7.5949858"><ele>246.40000000000003</ele><time>2026-05-03T14:12:15.129Z</time></trkpt><trkpt lat="44.8033007" lon="7.5950803"><ele>246.6</ele><time>2026-05-03T14:12:16.124Z</time></trkpt><trkpt lat="44.8032654" lon="7.5951738"><ele>246.8</ele><time>2026-05-03T14:12:17.133Z</time></trkpt><trkpt lat="44.8031883" lon="7.5953414"><ele>247.0</ele><time>2026-05-03T14:12:19.14Z</time></trkpt><trkpt lat="44.8031396" lon="7.5954567"><ele>246.99999999999997</ele><time>2026-05-03T14:12:20.138Z</time></trkpt><trkpt lat="44.80309" lon="7.5955766"><ele>247.0</ele><time>2026-05-03T14:12:21.128Z</time></trkpt><trkpt lat="44.8030503" lon="7.595684"><ele>247.0</ele><time>2026-05-03T14:12:22.127Z</time></trkpt><trkpt lat="44.8030098" lon="7.5957807"><ele>247.0</ele><time>2026-05-03T14:12:23.126Z</time></trkpt><trkpt lat="44.8029766" lon="7.5958658"><ele>246.99999999999997</ele><time>2026-05-03T14:12:24.12Z</time></trkpt><trkpt lat="44.8029306" lon="7.5959886"><ele>247.0</ele><time>2026-05-03T14:12:26.134Z</time></trkpt><trkpt lat="44.8029573" lon="7.5960898"><ele>247.0</ele><time>2026-05-03T14:12:29.136Z</time></trkpt><trkpt lat="44.8030248" lon="7.5961523"><ele>247.0</ele><time>2026-05-03T14:12:31.129Z</time></trkpt><trkpt lat="44.8031137" lon="7.5962631"><ele>247.0</ele><time>2026-05-03T14:12:33.137Z</time></trkpt><trkpt lat="44.8031951" lon="7.5963745"><ele>247.0</ele><time>2026-05-03T14:12:35.125Z</time></trkpt><trkpt lat="44.8032758" lon="7.5964531"><ele>247.0</ele><time>2026-05-03T14:12:37.122Z</time></trkpt><trkpt lat="44.8033242" lon="7.5965417"><ele>246.83333333333331</ele><time>2026-05-03T14:12:40.132Z</time></trkpt><trkpt lat="44.8033633" lon="7.5966163"><ele>246.66666666666666</ele><time>2026-05-03T14:12:45.131Z</time></trkpt><trkpt lat="44.8034314" lon="7.5966892"><ele>246.5</ele><time>2026-05-03T14:12:47.125Z</time></trkpt><trkpt lat="44.8034889" lon="7.5967514"><ele>246.33333333333331</ele><time>2026-05-03T14:12:48.133Z</time></trkpt><trkpt lat="44.8035441" lon="7.596825"><ele>246.16666666666666</ele><time>2026-05-03T14:12:49.134Z</time></trkpt><trkpt lat="44.803627" lon="7.5969348"><ele>246.0</ele><time>2026-05-03T14:12:51.13Z</time></trkpt><trkpt lat="44.803677" lon="7.5970228"><ele>246.0</ele><time>2026-05-03T14:12:53.128Z</time></trkpt><trkpt lat="44.8036946" lon="7.5971328"><ele>246.0</ele><time>2026-05-03T14:12:57.138Z</time></trkpt><trkpt lat="44.8036348" lon="7.5972188"><ele>246.0</ele><time>2026-05-03T14:12:59.131Z</time></trkpt><trkpt lat="44.8035798" lon="7.5972787"><ele>246.0</ele><time>2026-05-03T14:13:00.133Z</time></trkpt><trkpt lat="44.803515" lon="7.597351"><ele>246.0</ele><time>2026-05-03T14:13:01.136Z</time></trkpt><trkpt lat="44.8034488" lon="7.5974433"><ele>246.0</ele><time>2026-05-03T14:13:02.133Z</time></trkpt><trkpt lat="44.803374" lon="7.5975352"><ele>246.0</ele><time>2026-05-03T14:13:03.141Z</time></trkpt><trkpt lat="44.8032926" lon="7.5976313"><ele>246.00000000000003</ele><time>2026-05-03T14:13:04.134Z</time></trkpt><trkpt lat="44.8032097" lon="7.5977324"><ele>246.00000000000003</ele><time>2026-05-03T14:13:05.131Z</time></trkpt><trkpt lat="44.8031316" lon="7.5978203"><ele>246.0</ele><time>2026-05-03T14:13:06.129Z</time></trkpt><trkpt lat="44.8030632" lon="7.5979009"><ele>246.0</ele><time>2026-05-03T14:13:07.129Z</time></trkpt><trkpt lat="44.8029927" lon="7.5979693"><ele>246.0</ele><time>2026-05-03T14:13:08.128Z</time></trkpt><trkpt lat="44.802911" lon="7.5980288"><ele>246.0</ele><time>2026-05-03T14:13:09.137Z</time></trkpt><trkpt lat="44.8028268" lon="7.5981038"><ele>246.0</ele><time>2026-05-03T14:13:10.134Z</time></trkpt><trkpt lat="44.8027519" lon="7.598166"><ele>246.0</ele><time>2026-05-03T14:13:11.136Z</time></trkpt><trkpt lat="44.8026847" lon="7.5982165"><ele>246.0</ele><time>2026-05-03T14:13:12.135Z</time></trkpt><trkpt lat="44.802612" lon="7.5982797"><ele>246.0</ele><time>2026-05-03T14:13:14.136Z</time></trkpt><trkpt lat="44.802554" lon="7.5983851"><ele>246.0</ele><time>2026-05-03T14:13:44.131Z</time></trkpt><trkpt lat="44.8025354" lon="7.5984717"><ele>246.0</ele><time>2026-05-03T14:13:45.129Z</time></trkpt><trkpt lat="44.8025305" lon="7.5985839"><ele>246.0</ele><time>2026-05-03T14:13:46.146Z</time></trkpt><trkpt lat="44.8025387" lon="7.5987091"><ele>246.0</ele><time>2026-05-03T14:13:47.13Z</time></trkpt><trkpt lat="44.8025538" lon="7.5988428"><ele>246.0</ele><time>2026-05-03T14:13:48.139Z</time></trkpt><trkpt lat="44.8025674" lon="7.5989926"><ele>246.0</ele><time>2026-05-03T14:13:49.14Z</time></trkpt><trkpt lat="44.802576" lon="7.5991498"><ele>245.5</ele><time>2026-05-03T14:13:50.134Z</time></trkpt><trkpt lat="44.8025872" lon="7.5993197"><ele>245.0</ele><time>2026-05-03T14:13:51.143Z</time></trkpt><trkpt lat="44.8026006" lon="7.5994989"><ele>244.5</ele><time>2026-05-03T14:13:52.128Z</time></trkpt><trkpt lat="44.8026158" lon="7.599686"><ele>244.0</ele><time>2026-05-03T14:13:53.137Z</time></trkpt><trkpt lat="44.8026404" lon="7.5998818"><ele>243.33333333333331</ele><time>2026-05-03T14:13:54.144Z</time></trkpt><trkpt lat="44.8026742" lon="7.6000819"><ele>242.66666666666669</ele><time>2026-05-03T14:13:55.139Z</time></trkpt><trkpt lat="44.8027169" lon="7.6002862"><ele>242.0</ele><time>2026-05-03T14:13:56.134Z</time></trkpt><trkpt lat="44.8027734" lon="7.6004899"><ele>242.0</ele><time>2026-05-03T14:13:57.136Z</time></trkpt><trkpt lat="44.8028397" lon="7.6006959"><ele>242.0</ele><time>2026-05-03T14:13:58.13Z</time></trkpt><trkpt lat="44.8029137" lon="7.6009045"><ele>242.0</ele><time>2026-05-03T14:13:59.141Z</time></trkpt><trkpt lat="44.8030018" lon="7.6011002"><ele>242.66666666666669</ele><time>2026-05-03T14:14:00.132Z</time></trkpt><trkpt lat="44.8031021" lon="7.6012945"><ele>243.33333333333331</ele><time>2026-05-03T14:14:01.136Z</time></trkpt><trkpt lat="44.8032121" lon="7.6014819"><ele>244.0</ele><time>2026-05-03T14:14:02.137Z</time></trkpt><trkpt lat="44.8033279" lon="7.6016652"><ele>244.0</ele><time>2026-05-03T14:14:03.132Z</time></trkpt><trkpt lat="44.8034433" lon="7.6018504"><ele>244.0</ele><time>2026-05-03T14:14:04.14Z</time></trkpt><trkpt lat="44.8035631" lon="7.6020296"><ele>244.0</ele><time>2026-05-03T14:14:05.13Z</time></trkpt><trkpt lat="44.8036826" lon="7.6022184"><ele>243.33333333333331</ele><time>2026-05-03T14:14:06.139Z</time></trkpt><trkpt lat="44.8038017" lon="7.6024041"><ele>242.66666666666669</ele><time>2026-05-03T14:14:07.133Z</time></trkpt><trkpt lat="44.8039236" lon="7.6025946"><ele>242.0</ele><time>2026-05-03T14:14:08.133Z</time></trkpt><trkpt lat="44.8040448" lon="7.6027838"><ele>242.66666666666669</ele><time>2026-05-03T14:14:09.154Z</time></trkpt><trkpt lat="44.8041657" lon="7.6029761"><ele>243.33333333333331</ele><time>2026-05-03T14:14:10.14Z</time></trkpt><trkpt lat="44.8042891" lon="7.603165"><ele>244.0</ele><time>2026-05-03T14:14:11.145Z</time></trkpt><trkpt lat="44.8044137" lon="7.603362"><ele>244.33333333333331</ele><time>2026-05-03T14:14:12.132Z</time></trkpt><trkpt lat="44.8045358" lon="7.6035525"><ele>244.66666666666669</ele><time>2026-05-03T14:14:13.134Z</time></trkpt><trkpt lat="44.8046595" lon="7.6037482"><ele>245.0</ele><time>2026-05-03T14:14:14.133Z</time></trkpt><trkpt lat="44.8047825" lon="7.6039385"><ele>245.0</ele><time>2026-05-03T14:14:15.133Z</time></trkpt><trkpt lat="44.8049072" lon="7.6041355"><ele>245.0</ele><time>2026-05-03T14:14:16.14Z</time></trkpt><trkpt lat="44.8050307" lon="7.6043254"><ele>245.0</ele><time>2026-05-03T14:14:17.139Z</time></trkpt><trkpt lat="44.8051549" lon="7.6045237"><ele>245.66666666666669</ele><time>2026-05-03T14:14:18.144Z</time></trkpt><trkpt lat="44.805277" lon="7.6047201"><ele>246.33333333333331</ele><time>2026-05-03T14:14:19.131Z</time></trkpt><trkpt lat="44.8054023" lon="7.6049144"><ele>247.0</ele><time>2026-05-03T14:14:20.133Z</time></trkpt><trkpt lat="44.805528" lon="7.605114"><ele>247.0</ele><time>2026-05-03T14:14:21.134Z</time></trkpt><trkpt lat="44.8056575" lon="7.6053124"><ele>247.0</ele><time>2026-05-03T14:14:22.127Z</time></trkpt><trkpt lat="44.8057869" lon="7.6055084"><ele>247.0</ele><time>2026-05-03T14:14:23.131Z</time></trkpt><trkpt lat="44.8059167" lon="7.6057069"><ele>246.33333333333331</ele><time>2026-05-03T14:14:24.144Z</time></trkpt><trkpt lat="44.8060427" lon="7.6059103"><ele>245.66666666666669</ele><time>2026-05-03T14:14:25.131Z</time></trkpt><trkpt lat="44.8061694" lon="7.6061149"><ele>245.0</ele><time>2026-05-03T14:14:26.134Z</time></trkpt><trkpt lat="44.8062967" lon="7.6063206"><ele>244.33333333333334</ele><time>2026-05-03T14:14:27.131Z</time></trkpt><trkpt lat="44.8064282" lon="7.6065302"><ele>243.66666666666669</ele><time>2026-05-03T14:14:28.131Z</time></trkpt><trkpt lat="44.8065617" lon="7.6067426"><ele>243.0</ele><time>2026-05-03T14:14:29.13Z</time></trkpt><trkpt lat="44.8066958" lon="7.6069472"><ele>244.33333333333331</ele><time>2026-05-03T14:14:30.127Z</time></trkpt><trkpt lat="44.8068332" lon="7.6071593"><ele>245.66666666666666</ele><time>2026-05-03T14:14:31.127Z</time></trkpt><trkpt lat="44.8069624" lon="7.6073608"><ele>247.0</ele><time>2026-05-03T14:14:32.132Z</time></trkpt><trkpt lat="44.8070856" lon="7.60756"><ele>247.0</ele><time>2026-05-03T14:14:33.125Z</time></trkpt><trkpt lat="44.8071994" lon="7.6077415"><ele>247.0</ele><time>2026-05-03T14:14:34.122Z</time></trkpt><trkpt lat="44.8073049" lon="7.6079055"><ele>247.0</ele><time>2026-05-03T14:14:35.124Z</time></trkpt><trkpt lat="44.8074003" lon="7.6080543"><ele>246.25</ele><time>2026-05-03T14:14:36.133Z</time></trkpt><trkpt lat="44.8074881" lon="7.6081922"><ele>245.5</ele><time>2026-05-03T14:14:37.123Z</time></trkpt><trkpt lat="44.807572" lon="7.6083267"><ele>244.75</ele><time>2026-05-03T14:14:38.126Z</time></trkpt><trkpt lat="44.8076472" lon="7.6084437"><ele>244.0</ele><time>2026-05-03T14:14:39.127Z</time></trkpt><trkpt lat="44.8077066" lon="7.6085418"><ele>243.83333333333331</ele><time>2026-05-03T14:14:40.137Z</time></trkpt><trkpt lat="44.8077592" lon="7.608624"><ele>243.66666666666666</ele><time>2026-05-03T14:14:41.136Z</time></trkpt><trkpt lat="44.8078089" lon="7.6086965"><ele>243.5</ele><time>2026-05-03T14:14:42.132Z</time></trkpt><trkpt lat="44.8078587" lon="7.6087777"><ele>243.33333333333331</ele><time>2026-05-03T14:14:43.129Z</time></trkpt><trkpt lat="44.8079146" lon="7.6088636"><ele>243.16666666666666</ele><time>2026-05-03T14:14:44.128Z</time></trkpt><trkpt lat="44.8079662" lon="7.6089477"><ele>243.0</ele><time>2026-05-03T14:14:45.126Z</time></trkpt><trkpt lat="44.8080135" lon="7.6090202"><ele>242.8</ele><time>2026-05-03T14:14:46.127Z</time></trkpt><trkpt lat="44.8080877" lon="7.6091209"><ele>242.60000000000002</ele><time>2026-05-03T14:14:48.126Z</time></trkpt><trkpt lat="44.8081714" lon="7.6090763"><ele>242.39999999999998</ele><time>2026-05-03T14:14:51.125Z</time></trkpt><trkpt lat="44.8082541" lon="7.6089676"><ele>242.2</ele><time>2026-05-03T14:14:53.125Z</time></trkpt><trkpt lat="44.8083041" lon="7.6088865"><ele>242.0</ele><time>2026-05-03T14:14:54.125Z</time></trkpt><trkpt lat="44.8083633" lon="7.6087948"><ele>242.00000000000003</ele><time>2026-05-03T14:14:55.136Z</time></trkpt><trkpt lat="44.8084144" lon="7.6087066"><ele>242.0</ele><time>2026-05-03T14:14:56.149Z</time></trkpt><trkpt lat="44.8084609" lon="7.6086302"><ele>242.0</ele><time>2026-05-03T14:14:57.125Z</time></trkpt><trkpt lat="44.8085003" lon="7.6085609"><ele>242.0</ele><time>2026-05-03T14:14:58.127Z</time></trkpt><trkpt lat="44.8085593" lon="7.608446"><ele>242.00000000000003</ele><time>2026-05-03T14:15:00.135Z</time></trkpt><trkpt lat="44.8086143" lon="7.6083517"><ele>242.0</ele><time>2026-05-03T14:15:02.127Z</time></trkpt><trkpt lat="44.808692" lon="7.6083155"><ele>242.0</ele><time>2026-05-03T14:15:04.136Z</time></trkpt><trkpt lat="44.8087691" lon="7.6083579"><ele>242.0</ele><time>2026-05-03T14:15:06.139Z</time></trkpt><trkpt lat="44.8088923" lon="7.6084164"><ele>242.0</ele><time>2026-05-03T14:15:08.126Z</time></trkpt><trkpt lat="44.8090157" lon="7.6084222"><ele>242.0</ele><time>2026-05-03T14:15:10.124Z</time></trkpt><trkpt lat="44.8090799" lon="7.608416"><ele>242.0</ele><time>2026-05-03T14:15:11.127Z</time></trkpt><trkpt lat="44.8091516" lon="7.6084039"><ele>242.00000000000003</ele><time>2026-05-03T14:15:12.129Z</time></trkpt><trkpt lat="44.8092421" lon="7.6083972"><ele>242.0</ele><time>2026-05-03T14:15:13.132Z</time></trkpt><trkpt lat="44.8093299" lon="7.6083911"><ele>242.0</ele><time>2026-05-03T14:15:14.133Z</time></trkpt><trkpt lat="44.8094208" lon="7.6083863"><ele>242.0</ele><time>2026-05-03T14:15:15.123Z</time></trkpt><trkpt lat="44.8095115" lon="7.6083774"><ele>242.00000000000003</ele><time>2026-05-03T14:15:16.134Z</time></trkpt><trkpt lat="44.8095907" lon="7.6083725"><ele>242.0</ele><time>2026-05-03T14:15:17.125Z</time></trkpt><trkpt lat="44.8096615" lon="7.6083697"><ele>241.83333333333334</ele><time>2026-05-03T14:15:18.137Z</time></trkpt><trkpt lat="44.8097259" lon="7.6083721"><ele>241.66666666666669</ele><time>2026-05-03T14:15:19.134Z</time></trkpt><trkpt lat="44.8098521" lon="7.6084078"><ele>241.5</ele><time>2026-05-03T14:15:21.132Z</time></trkpt><trkpt lat="44.8099184" lon="7.6084461"><ele>241.33333333333331</ele><time>2026-05-03T14:15:22.13Z</time></trkpt><trkpt lat="44.8099934" lon="7.6084924"><ele>241.16666666666666</ele><time>2026-05-03T14:15:23.129Z</time></trkpt><trkpt lat="44.810068" lon="7.608551"><ele>241.0</ele><time>2026-05-03T14:15:24.13Z</time></trkpt><trkpt lat="44.8101382" lon="7.6085863"><ele>240.85714285714286</ele><time>2026-05-03T14:15:25.134Z</time></trkpt><trkpt lat="44.8102094" lon="7.608597"><ele>240.71428571428572</ele><time>2026-05-03T14:15:26.131Z</time></trkpt><trkpt lat="44.8102737" lon="7.6086035"><ele>240.57142857142858</ele><time>2026-05-03T14:15:27.13Z</time></trkpt><trkpt lat="44.8103388" lon="7.6085892"><ele>240.42857142857144</ele><time>2026-05-03T14:15:28.13Z</time></trkpt><trkpt lat="44.8104089" lon="7.608565"><ele>240.28571428571428</ele><time>2026-05-03T14:15:29.127Z</time></trkpt><trkpt lat="44.8104804" lon="7.6085126"><ele>240.14285714285717</ele><time>2026-05-03T14:15:30.135Z</time></trkpt><trkpt lat="44.8105481" lon="7.6084433"><ele>240.0</ele><time>2026-05-03T14:15:31.128Z</time></trkpt><trkpt lat="44.8106136" lon="7.6083657"><ele>240.0</ele><time>2026-05-03T14:15:32.131Z</time></trkpt><trkpt lat="44.81068" lon="7.6082801"><ele>240.0</ele><time>2026-05-03T14:15:33.13Z</time></trkpt><trkpt lat="44.8107456" lon="7.6082002"><ele>240.0</ele><time>2026-05-03T14:15:34.138Z</time></trkpt><trkpt lat="44.8108129" lon="7.6081282"><ele>240.0</ele><time>2026-05-03T14:15:35.125Z</time></trkpt><trkpt lat="44.8108872" lon="7.6080658"><ele>240.0</ele><time>2026-05-03T14:15:36.121Z</time></trkpt><trkpt lat="44.8109559" lon="7.6080152"><ele>240.0</ele><time>2026-05-03T14:15:37.128Z</time></trkpt><trkpt lat="44.8110215" lon="7.6079732"><ele>240.2</ele><time>2026-05-03T14:15:38.136Z</time></trkpt><trkpt lat="44.8110809" lon="7.6079332"><ele>240.4</ele><time>2026-05-03T14:15:39.131Z</time></trkpt><trkpt lat="44.8111707" lon="7.6078397"><ele>240.60000000000002</ele><time>2026-05-03T14:15:41.136Z</time></trkpt><trkpt lat="44.8112255" lon="7.607742"><ele>240.8</ele><time>2026-05-03T14:15:43.131Z</time></trkpt><trkpt lat="44.811305" lon="7.607659"><ele>241.0</ele><time>2026-05-03T14:15:45.143Z</time></trkpt><trkpt lat="44.8114247" lon="7.6075993"><ele>240.85714285714286</ele><time>2026-05-03T14:15:47.128Z</time></trkpt><trkpt lat="44.8114949" lon="7.6075772"><ele>240.71428571428572</ele><time>2026-05-03T14:15:48.139Z</time></trkpt><trkpt lat="44.8115648" lon="7.6075678"><ele>240.57142857142858</ele><time>2026-05-03T14:15:49.135Z</time></trkpt><trkpt lat="44.8116321" lon="7.6075708"><ele>240.42857142857144</ele><time>2026-05-03T14:15:50.129Z</time></trkpt><trkpt lat="44.8116992" lon="7.6075894"><ele>240.28571428571428</ele><time>2026-05-03T14:15:51.134Z</time></trkpt><trkpt lat="44.8117709" lon="7.6076135"><ele>240.14285714285717</ele><time>2026-05-03T14:15:52.132Z</time></trkpt><trkpt lat="44.8118401" lon="7.6076418"><ele>240.0</ele><time>2026-05-03T14:15:53.13Z</time></trkpt><trkpt lat="44.8119487" lon="7.6077077"><ele>240.0</ele><time>2026-05-03T14:15:55.133Z</time></trkpt><trkpt lat="44.8120099" lon="7.6077552"><ele>240.0</ele><time>2026-05-03T14:15:56.13Z</time></trkpt><trkpt lat="44.812074" lon="7.6078085"><ele>240.0</ele><time>2026-05-03T14:15:57.141Z</time></trkpt><trkpt lat="44.8121476" lon="7.6079311"><ele>240.0</ele><time>2026-05-03T14:15:59.131Z</time></trkpt><trkpt lat="44.8122118" lon="7.6080501"><ele>240.0</ele><time>2026-05-03T14:16:01.137Z</time></trkpt><trkpt lat="44.8122742" lon="7.6081605"><ele>240.2</ele><time>2026-05-03T14:16:03.134Z</time></trkpt><trkpt lat="44.8123586" lon="7.6082993"><ele>240.4</ele><time>2026-05-03T14:16:05.125Z</time></trkpt><trkpt lat="44.8124098" lon="7.6083664"><ele>240.60000000000002</ele><time>2026-05-03T14:16:06.133Z</time></trkpt><trkpt lat="44.8125091" lon="7.608455"><ele>240.8</ele><time>2026-05-03T14:16:08.13Z</time></trkpt><trkpt lat="44.8126112" lon="7.608525"><ele>241.0</ele><time>2026-05-03T14:16:10.132Z</time></trkpt><trkpt lat="44.8127252" lon="7.6086116"><ele>241.0</ele><time>2026-05-03T14:16:12.134Z</time></trkpt><trkpt lat="44.8127884" lon="7.6086504"><ele>241.00000000000003</ele><time>2026-05-03T14:16:13.123Z</time></trkpt><trkpt lat="44.8128557" lon="7.6086926"><ele>241.0</ele><time>2026-05-03T14:16:14.139Z</time></trkpt><trkpt lat="44.8129233" lon="7.6087334"><ele>241.0</ele><time>2026-05-03T14:16:15.129Z</time></trkpt><trkpt lat="44.8129844" lon="7.6087696"><ele>241.00000000000003</ele><time>2026-05-03T14:16:16.134Z</time></trkpt><trkpt lat="44.8130458" lon="7.6087999"><ele>241.0</ele><time>2026-05-03T14:16:17.13Z</time></trkpt><trkpt lat="44.8131091" lon="7.608827"><ele>241.0</ele><time>2026-05-03T14:16:18.136Z</time></trkpt><trkpt lat="44.8131763" lon="7.6088523"><ele>241.0</ele><time>2026-05-03T14:16:19.136Z</time></trkpt><trkpt lat="44.8132522" lon="7.6088701"><ele>241.00000000000003</ele><time>2026-05-03T14:16:20.141Z</time></trkpt><trkpt lat="44.8133271" lon="7.6089058"><ele>241.0</ele><time>2026-05-03T14:16:21.124Z</time></trkpt><trkpt lat="44.8133942" lon="7.6089425"><ele>241.0</ele><time>2026-05-03T14:16:22.128Z</time></trkpt><trkpt lat="44.8134558" lon="7.6089729"><ele>241.00000000000003</ele><time>2026-05-03T14:16:23.129Z</time></trkpt><trkpt lat="44.8135171" lon="7.6089992"><ele>241.0</ele><time>2026-05-03T14:16:24.14Z</time></trkpt><trkpt lat="44.8135838" lon="7.6090277"><ele>241.0</ele><time>2026-05-03T14:16:25.133Z</time></trkpt><trkpt lat="44.8136543" lon="7.6090614"><ele>240.99999999999997</ele><time>2026-05-03T14:16:26.136Z</time></trkpt><trkpt lat="44.8137264" lon="7.6090937"><ele>241.0</ele><time>2026-05-03T14:16:27.147Z</time></trkpt><trkpt lat="44.8137984" lon="7.6091325"><ele>241.0</ele><time>2026-05-03T14:16:28.134Z</time></trkpt><trkpt lat="44.813868" lon="7.6091702"><ele>241.0</ele><time>2026-05-03T14:16:29.13Z</time></trkpt><trkpt lat="44.8139386" lon="7.6092107"><ele>240.99999999999997</ele><time>2026-05-03T14:16:30.147Z</time></trkpt><trkpt lat="44.8140159" lon="7.6092504"><ele>241.0</ele><time>2026-05-03T14:16:31.139Z</time></trkpt><trkpt lat="44.8140922" lon="7.609286"><ele>240.99999999999997</ele><time>2026-05-03T14:16:32.135Z</time></trkpt><trkpt lat="44.8141678" lon="7.6093276"><ele>241.0</ele><time>2026-05-03T14:16:33.129Z</time></trkpt><trkpt lat="44.8142441" lon="7.6093748"><ele>241.0</ele><time>2026-05-03T14:16:34.13Z</time></trkpt><trkpt lat="44.8143096" lon="7.6094145"><ele>241.0</ele><time>2026-05-03T14:16:35.131Z</time></trkpt><trkpt lat="44.8143739" lon="7.6094474"><ele>240.99999999999997</ele><time>2026-05-03T14:16:36.138Z</time></trkpt><trkpt lat="44.814487" lon="7.6095022"><ele>241.0</ele><time>2026-05-03T14:16:38.128Z</time></trkpt><trkpt lat="44.8145948" lon="7.6095507"><ele>240.83333333333331</ele><time>2026-05-03T14:16:40.129Z</time></trkpt><trkpt lat="44.8146548" lon="7.6095824"><ele>240.66666666666666</ele><time>2026-05-03T14:16:41.147Z</time></trkpt><trkpt lat="44.8147179" lon="7.6096116"><ele>240.5</ele><time>2026-05-03T14:16:42.134Z</time></trkpt><trkpt lat="44.8148329" lon="7.6096653"><ele>240.33333333333331</ele><time>2026-05-03T14:16:44.131Z</time></trkpt><trkpt lat="44.8149436" lon="7.6097171"><ele>240.16666666666666</ele><time>2026-05-03T14:16:46.136Z</time></trkpt><trkpt lat="44.8150049" lon="7.6097433"><ele>240.0</ele><time>2026-05-03T14:16:47.14Z</time></trkpt><trkpt lat="44.8150655" lon="7.60977"><ele>240.0</ele><time>2026-05-03T14:16:48.136Z</time></trkpt><trkpt lat="44.8151274" lon="7.6097944"><ele>240.0</ele><time>2026-05-03T14:16:49.13Z</time></trkpt><trkpt lat="44.815231" lon="7.6098296"><ele>240.0</ele><time>2026-05-03T14:16:51.152Z</time></trkpt><trkpt lat="44.8153085" lon="7.6098467"><ele>240.0</ele><time>2026-05-03T14:16:53.137Z</time></trkpt><trkpt lat="44.8153807" lon="7.6098482"><ele>240.0</ele><time>2026-05-03T14:16:55.143Z</time></trkpt><trkpt lat="44.815451" lon="7.6098281"><ele>240.0</ele><time>2026-05-03T14:16:57.141Z</time></trkpt><trkpt lat="44.8155442" lon="7.6097939"><ele>240.0</ele><time>2026-05-03T14:16:59.146Z</time></trkpt><trkpt lat="44.8156322" lon="7.6097235"><ele>240.0</ele><time>2026-05-03T14:17:01.139Z</time></trkpt><trkpt lat="44.8157334" lon="7.6096664"><ele>240.0</ele><time>2026-05-03T14:17:03.136Z</time></trkpt><trkpt lat="44.8157987" lon="7.6096288"><ele>240.0</ele><time>2026-05-03T14:17:04.134Z</time></trkpt><trkpt lat="44.8158715" lon="7.6096028"><ele>240.0</ele><time>2026-05-03T14:17:05.144Z</time></trkpt><trkpt lat="44.8159489" lon="7.6095778"><ele>240.0</ele><time>2026-05-03T14:17:06.146Z</time></trkpt><trkpt lat="44.8160137" lon="7.6095672"><ele>240.0</ele><time>2026-05-03T14:17:07.128Z</time></trkpt><trkpt lat="44.816078" lon="7.6095605"><ele>240.0</ele><time>2026-05-03T14:17:08.148Z</time></trkpt><trkpt lat="44.8161413" lon="7.6095524"><ele>240.0</ele><time>2026-05-03T14:17:09.132Z</time></trkpt><trkpt lat="44.8162656" lon="7.6095323"><ele>240.0</ele><time>2026-05-03T14:17:11.132Z</time></trkpt><trkpt lat="44.816373" lon="7.6095126"><ele>240.0</ele><time>2026-05-03T14:17:13.132Z</time></trkpt><trkpt lat="44.8164947" lon="7.60949"><ele>239.66666666666666</ele><time>2026-05-03T14:17:15.13Z</time></trkpt><trkpt lat="44.8165648" lon="7.6094761"><ele>239.33333333333331</ele><time>2026-05-03T14:17:16.151Z</time></trkpt><trkpt lat="44.8166353" lon="7.6094607"><ele>239.0</ele><time>2026-05-03T14:17:17.126Z</time></trkpt><trkpt lat="44.8167528" lon="7.6094473"><ele>238.66666666666666</ele><time>2026-05-03T14:17:19.131Z</time></trkpt><trkpt lat="44.816849" lon="7.6094296"><ele>238.33333333333331</ele><time>2026-05-03T14:17:21.126Z</time></trkpt><trkpt lat="44.8169134" lon="7.6094232"><ele>238.0</ele><time>2026-05-03T14:17:23.13Z</time></trkpt><trkpt lat="44.8169816" lon="7.6094436"><ele>237.99999999999997</ele><time>2026-05-03T14:18:04.149Z</time></trkpt><trkpt lat="44.8170487" lon="7.6094152"><ele>238.0</ele><time>2026-05-03T14:18:08.126Z</time></trkpt><trkpt lat="44.8171368" lon="7.6093543"><ele>238.0</ele><time>2026-05-03T14:18:13.131Z</time></trkpt><trkpt lat="44.8172301" lon="7.6093314"><ele>238.0</ele><time>2026-05-03T14:18:15.143Z</time></trkpt><trkpt lat="44.8173045" lon="7.6093063"><ele>237.99999999999997</ele><time>2026-05-03T14:18:17.133Z</time></trkpt><trkpt lat="44.8173733" lon="7.6092603"><ele>238.0</ele><time>2026-05-03T14:18:19.135Z</time></trkpt><trkpt lat="44.8174611" lon="7.6092202"><ele>238.0</ele><time>2026-05-03T14:18:21.15Z</time></trkpt><trkpt lat="44.8175263" lon="7.6091713"><ele>238.0</ele><time>2026-05-03T14:18:23.143Z</time></trkpt><trkpt lat="44.8176266" lon="7.6091119"><ele>238.0</ele><time>2026-05-03T14:18:25.133Z</time></trkpt><trkpt lat="44.8176945" lon="7.6090893"><ele>238.0</ele><time>2026-05-03T14:18:26.128Z</time></trkpt><trkpt lat="44.8178092" lon="7.6090271"><ele>238.0</ele><time>2026-05-03T14:18:28.142Z</time></trkpt><trkpt lat="44.8178756" lon="7.6089789"><ele>237.99999999999997</ele><time>2026-05-03T14:18:29.134Z</time></trkpt><trkpt lat="44.8179452" lon="7.6089367"><ele>238.0</ele><time>2026-05-03T14:18:30.138Z</time></trkpt><trkpt lat="44.8180252" lon="7.6088625"><ele>238.0</ele><time>2026-05-03T14:18:32.141Z</time></trkpt><trkpt lat="44.8181091" lon="7.6087834"><ele>238.0</ele><time>2026-05-03T14:18:34.142Z</time></trkpt><trkpt lat="44.818185" lon="7.6086844"><ele>237.99999999999997</ele><time>2026-05-03T14:18:36.134Z</time></trkpt><trkpt lat="44.8182367" lon="7.6086123"><ele>238.0</ele><time>2026-05-03T14:18:37.134Z</time></trkpt><trkpt lat="44.8183111" lon="7.6085217"><ele>238.0</ele><time>2026-05-03T14:18:39.141Z</time></trkpt><trkpt lat="44.8183777" lon="7.6083881"><ele>238.0</ele><time>2026-05-03T14:18:41.137Z</time></trkpt><trkpt lat="44.8184138" lon="7.6083103"><ele>238.0</ele><time>2026-05-03T14:18:42.127Z</time></trkpt><trkpt lat="44.8184845" lon="7.6081655"><ele>238.0</ele><time>2026-05-03T14:18:44.13Z</time></trkpt><trkpt lat="44.8185302" lon="7.6080191"><ele>238.0</ele><time>2026-05-03T14:18:46.133Z</time></trkpt><trkpt lat="44.818586" lon="7.6078889"><ele>237.8</ele><time>2026-05-03T14:18:48.148Z</time></trkpt><trkpt lat="44.8186411" lon="7.6077652"><ele>237.60000000000002</ele><time>2026-05-03T14:18:50.134Z</time></trkpt><trkpt lat="44.818702" lon="7.6076313"><ele>237.39999999999998</ele><time>2026-05-03T14:18:52.142Z</time></trkpt><trkpt lat="44.8187754" lon="7.6075126"><ele>237.2</ele><time>2026-05-03T14:18:54.128Z</time></trkpt><trkpt lat="44.8188613" lon="7.607415"><ele>237.0</ele><time>2026-05-03T14:18:56.131Z</time></trkpt><trkpt lat="44.8189731" lon="7.6073482"><ele>237.0</ele><time>2026-05-03T14:18:58.132Z</time></trkpt><trkpt lat="44.8190848" lon="7.6073281"><ele>237.0</ele><time>2026-05-03T14:19:00.142Z</time></trkpt><trkpt lat="44.8191871" lon="7.607352"><ele>237.0</ele><time>2026-05-03T14:19:02.139Z</time></trkpt><trkpt lat="44.8193083" lon="7.607412"><ele>237.0</ele><time>2026-05-03T14:19:04.135Z</time></trkpt><trkpt lat="44.8193778" lon="7.6074601"><ele>237.0</ele><time>2026-05-03T14:19:05.14Z</time></trkpt><trkpt lat="44.8194453" lon="7.6075027"><ele>237.2</ele><time>2026-05-03T14:19:06.131Z</time></trkpt><trkpt lat="44.8195107" lon="7.6075597"><ele>237.39999999999998</ele><time>2026-05-03T14:19:07.131Z</time></trkpt><trkpt lat="44.8195722" lon="7.6076089"><ele>237.60000000000002</ele><time>2026-05-03T14:19:08.143Z</time></trkpt><trkpt lat="44.8196902" lon="7.6076999"><ele>237.8</ele><time>2026-05-03T14:19:10.131Z</time></trkpt><trkpt lat="44.8198012" lon="7.6077682"><ele>238.0</ele><time>2026-05-03T14:19:12.135Z</time></trkpt><trkpt lat="44.819891" lon="7.6078186"><ele>238.4</ele><time>2026-05-03T14:19:14.12Z</time></trkpt><trkpt lat="44.8199908" lon="7.6078465"><ele>238.8</ele><time>2026-05-03T14:19:16.126Z</time></trkpt><trkpt lat="44.8200972" lon="7.6078709"><ele>239.2</ele><time>2026-05-03T14:19:18.121Z</time></trkpt><trkpt lat="44.8201906" lon="7.6078942"><ele>239.6</ele><time>2026-05-03T14:19:20.147Z</time></trkpt><trkpt lat="44.8203123" lon="7.607907"><ele>240.0</ele><time>2026-05-03T14:19:22.132Z</time></trkpt><trkpt lat="44.8203951" lon="7.6079368"><ele>240.66666666666666</ele><time>2026-05-03T14:19:23.123Z</time></trkpt><trkpt lat="44.8204649" lon="7.6079543"><ele>241.33333333333331</ele><time>2026-05-03T14:19:24.116Z</time></trkpt><trkpt lat="44.8205439" lon="7.607956"><ele>242.0</ele><time>2026-05-03T14:19:25.121Z</time></trkpt><trkpt lat="44.8206087" lon="7.6079644"><ele>242.66666666666666</ele><time>2026-05-03T14:19:26.125Z</time></trkpt><trkpt lat="44.8207168" lon="7.607982"><ele>243.33333333333331</ele><time>2026-05-03T14:19:28.133Z</time></trkpt><trkpt lat="44.8207967" lon="7.6079855"><ele>244.0</ele><time>2026-05-03T14:19:30.142Z</time></trkpt><trkpt lat="44.820874" lon="7.607985"><ele>243.99999999999997</ele><time>2026-05-03T14:19:32.135Z</time></trkpt><trkpt lat="44.8209441" lon="7.6080002"><ele>244.0</ele><time>2026-05-03T14:19:34.129Z</time></trkpt><trkpt lat="44.8210471" lon="7.6080256"><ele>244.0</ele><time>2026-05-03T14:19:36.132Z</time></trkpt><trkpt lat="44.8211179" lon="7.608047"><ele>244.0</ele><time>2026-05-03T14:19:38.132Z</time></trkpt><trkpt lat="44.8211918" lon="7.6080746"><ele>243.99999999999997</ele><time>2026-05-03T14:19:40.134Z</time></trkpt><trkpt lat="44.8212538" lon="7.6081168"><ele>244.0</ele><time>2026-05-03T14:19:42.133Z</time></trkpt><trkpt lat="44.8213044" lon="7.608174"><ele>243.0</ele><time>2026-05-03T14:19:44.126Z</time></trkpt><trkpt lat="44.8213533" lon="7.6082308"><ele>241.99999999999997</ele><time>2026-05-03T14:20:01.129Z</time></trkpt><trkpt lat="44.8213915" lon="7.608368"><ele>240.99999999999997</ele><time>2026-05-03T14:20:06.134Z</time></trkpt><trkpt lat="44.821435" lon="7.6085152"><ele>240.0</ele><time>2026-05-03T14:20:08.136Z</time></trkpt><trkpt lat="44.8214966" lon="7.6086698"><ele>239.0</ele><time>2026-05-03T14:20:10.14Z</time></trkpt><trkpt lat="44.8215275" lon="7.6087524"><ele>238.79999999999998</ele><time>2026-05-03T14:20:11.132Z</time></trkpt><trkpt lat="44.8215673" lon="7.6088848"><ele>238.59999999999997</ele><time>2026-05-03T14:20:13.138Z</time></trkpt><trkpt lat="44.8216087" lon="7.6090378"><ele>238.4</ele><time>2026-05-03T14:20:15.136Z</time></trkpt><trkpt lat="44.8216352" lon="7.6091212"><ele>238.2</ele><time>2026-05-03T14:20:16.129Z</time></trkpt><trkpt lat="44.8216948" lon="7.6092872"><ele>238.0</ele><time>2026-05-03T14:20:18.132Z</time></trkpt><trkpt lat="44.8217197" lon="7.6093706"><ele>238.0</ele><time>2026-05-03T14:20:19.132Z</time></trkpt><trkpt lat="44.8217528" lon="7.6094511"><ele>238.0</ele><time>2026-05-03T14:20:20.138Z</time></trkpt><trkpt lat="44.8217933" lon="7.609547"><ele>238.0</ele><time>2026-05-03T14:20:21.125Z</time></trkpt><trkpt lat="44.8218295" lon="7.6096464"><ele>238.0</ele><time>2026-05-03T14:20:22.135Z</time></trkpt><trkpt lat="44.82186" lon="7.6097334"><ele>238.0</ele><time>2026-05-03T14:20:23.138Z</time></trkpt><trkpt lat="44.8218938" lon="7.6098244"><ele>238.0</ele><time>2026-05-03T14:20:24.134Z</time></trkpt><trkpt lat="44.8219241" lon="7.6099053"><ele>238.0</ele><time>2026-05-03T14:20:25.136Z</time></trkpt><trkpt lat="44.8219553" lon="7.6099912"><ele>237.85714285714286</ele><time>2026-05-03T14:20:26.119Z</time></trkpt><trkpt lat="44.8219878" lon="7.6100712"><ele>237.71428571428572</ele><time>2026-05-03T14:20:27.144Z</time></trkpt><trkpt lat="44.82202" lon="7.6101518"><ele>237.57142857142856</ele><time>2026-05-03T14:20:28.134Z</time></trkpt><trkpt lat="44.8220615" lon="7.6102435"><ele>237.42857142857142</ele><time>2026-05-03T14:20:29.138Z</time></trkpt><trkpt lat="44.822101" lon="7.6103346"><ele>237.28571428571428</ele><time>2026-05-03T14:20:30.146Z</time></trkpt><trkpt lat="44.8221368" lon="7.6104267"><ele>237.1428571428571</ele><time>2026-05-03T14:20:31.136Z</time></trkpt><trkpt lat="44.8221595" lon="7.6105158"><ele>236.99999999999997</ele><time>2026-05-03T14:20:32.14Z</time></trkpt><trkpt lat="44.8221882" lon="7.6106064"><ele>237.0</ele><time>2026-05-03T14:20:33.135Z</time></trkpt><trkpt lat="44.8222158" lon="7.6106879"><ele>237.0</ele><time>2026-05-03T14:20:34.128Z</time></trkpt><trkpt lat="44.8222806" lon="7.610841"><ele>237.0</ele><time>2026-05-03T14:20:36.142Z</time></trkpt><trkpt lat="44.822311" lon="7.6109289"><ele>237.0</ele><time>2026-05-03T14:20:37.135Z</time></trkpt><trkpt lat="44.8223591" lon="7.6110499"><ele>237.0</ele><time>2026-05-03T14:20:38.131Z</time></trkpt><trkpt lat="44.8224251" lon="7.6111957"><ele>237.0</ele><time>2026-05-03T14:20:40.141Z</time></trkpt><trkpt lat="44.822475" lon="7.6113378"><ele>237.0</ele><time>2026-05-03T14:20:42.136Z</time></trkpt><trkpt lat="44.8225038" lon="7.6114552"><ele>237.0</ele><time>2026-05-03T14:20:44.137Z</time></trkpt><trkpt lat="44.8225452" lon="7.6115485"><ele>237.0</ele><time>2026-05-03T14:20:46.133Z</time></trkpt><trkpt lat="44.8225889" lon="7.6116512"><ele>237.0</ele><time>2026-05-03T14:20:48.13Z</time></trkpt><trkpt lat="44.8226385" lon="7.6117444"><ele>237.0</ele><time>2026-05-03T14:20:50.142Z</time></trkpt><trkpt lat="44.8226991" lon="7.6118461"><ele>236.83333333333334</ele><time>2026-05-03T14:20:52.139Z</time></trkpt><trkpt lat="44.8227488" lon="7.611925"><ele>236.66666666666669</ele><time>2026-05-03T14:20:54.153Z</time></trkpt><trkpt lat="44.8227947" lon="7.6120301"><ele>236.5</ele><time>2026-05-03T14:20:57.125Z</time></trkpt><trkpt lat="44.8228075" lon="7.6121171"><ele>236.33333333333334</ele><time>2026-05-03T14:22:02.136Z</time></trkpt><trkpt lat="44.8228753" lon="7.6121627"><ele>236.16666666666669</ele><time>2026-05-03T14:26:13.141Z</time></trkpt><trkpt lat="44.8229198" lon="7.6122537"><ele>236.0</ele><time>2026-05-03T14:28:37.14Z</time></trkpt><trkpt lat="44.8229666" lon="7.6124338"><ele>236.33333333333334</ele><time>2026-05-03T14:28:39.125Z</time></trkpt><trkpt lat="44.8229913" lon="7.6125307"><ele>236.66666666666669</ele><time>2026-05-03T14:28:40.137Z</time></trkpt><trkpt lat="44.8230321" lon="7.6126417"><ele>237.0</ele><time>2026-05-03T14:28:41.131Z</time></trkpt><trkpt lat="44.8230742" lon="7.6127515"><ele>237.33333333333331</ele><time>2026-05-03T14:28:42.139Z</time></trkpt><trkpt lat="44.8231125" lon="7.6128604"><ele>237.66666666666666</ele><time>2026-05-03T14:28:43.144Z</time></trkpt><trkpt lat="44.8231535" lon="7.6129625"><ele>238.0</ele><time>2026-05-03T14:28:44.133Z</time></trkpt><trkpt lat="44.8231908" lon="7.6130661"><ele>238.49999999999997</ele><time>2026-05-03T14:28:45.143Z</time></trkpt><trkpt lat="44.823227" lon="7.6131736"><ele>239.0</ele><time>2026-05-03T14:28:46.135Z</time></trkpt><trkpt lat="44.8232628" lon="7.6132759"><ele>239.5</ele><time>2026-05-03T14:28:47.139Z</time></trkpt><trkpt lat="44.8232973" lon="7.6133768"><ele>240.0</ele><time>2026-05-03T14:28:48.148Z</time></trkpt><trkpt lat="44.8233282" lon="7.6134719"><ele>240.49999999999997</ele><time>2026-05-03T14:28:49.139Z</time></trkpt><trkpt lat="44.8233583" lon="7.6135709"><ele>241.0</ele><time>2026-05-03T14:28:50.143Z</time></trkpt><trkpt lat="44.8233905" lon="7.6136624"><ele>240.99999999999997</ele><time>2026-05-03T14:28:51.138Z</time></trkpt><trkpt lat="44.8234208" lon="7.6137747"><ele>241.0</ele><time>2026-05-03T14:28:52.14Z</time></trkpt><trkpt lat="44.8234542" lon="7.6138944"><ele>241.0</ele><time>2026-05-03T14:28:53.132Z</time></trkpt><trkpt lat="44.8234805" lon="7.6140052"><ele>241.0</ele><time>2026-05-03T14:28:54.141Z</time></trkpt><trkpt lat="44.8235106" lon="7.6141236"><ele>240.99999999999997</ele><time>2026-05-03T14:28:55.135Z</time></trkpt><trkpt lat="44.8235372" lon="7.6142393"><ele>241.0</ele><time>2026-05-03T14:28:56.135Z</time></trkpt><trkpt lat="44.8235627" lon="7.6143614"><ele>239.8</ele><time>2026-05-03T14:28:57.136Z</time></trkpt><trkpt lat="44.8235962" lon="7.6144946"><ele>238.60000000000002</ele><time>2026-05-03T14:28:58.135Z</time></trkpt><trkpt lat="44.8236232" lon="7.614632"><ele>237.4</ele><time>2026-05-03T14:28:59.137Z</time></trkpt><trkpt lat="44.8236529" lon="7.6147573"><ele>236.2</ele><time>2026-05-03T14:29:00.143Z</time></trkpt><trkpt lat="44.8236826" lon="7.6148874"><ele>235.0</ele><time>2026-05-03T14:29:01.149Z</time></trkpt><trkpt lat="44.8237104" lon="7.6150207"><ele>235.0</ele><time>2026-05-03T14:29:02.132Z</time></trkpt><trkpt lat="44.8237388" lon="7.6151577"><ele>235.0</ele><time>2026-05-03T14:29:03.138Z</time></trkpt><trkpt lat="44.8237689" lon="7.6152974"><ele>235.0</ele><time>2026-05-03T14:29:04.145Z</time></trkpt><trkpt lat="44.823796" lon="7.6154465"><ele>235.0</ele><time>2026-05-03T14:29:05.148Z</time></trkpt><trkpt lat="44.8238271" lon="7.6155883"><ele>235.0</ele><time>2026-05-03T14:29:06.141Z</time></trkpt><trkpt lat="44.8238599" lon="7.6157338"><ele>235.25</ele><time>2026-05-03T14:29:07.146Z</time></trkpt><trkpt lat="44.8239025" lon="7.6158905"><ele>235.5</ele><time>2026-05-03T14:29:08.145Z</time></trkpt><trkpt lat="44.8239487" lon="7.616063"><ele>235.75</ele><time>2026-05-03T14:29:09.138Z</time></trkpt><trkpt lat="44.8239885" lon="7.6162196"><ele>236.0</ele><time>2026-05-03T14:29:10.143Z</time></trkpt><trkpt lat="44.824025" lon="7.6163565"><ele>236.8</ele><time>2026-05-03T14:29:11.138Z</time></trkpt><trkpt lat="44.8240559" lon="7.6164798"><ele>237.60000000000002</ele><time>2026-05-03T14:29:12.167Z</time></trkpt><trkpt lat="44.8240835" lon="7.616591"><ele>238.4</ele><time>2026-05-03T14:29:13.134Z</time></trkpt><trkpt lat="44.8241127" lon="7.6167103"><ele>239.2</ele><time>2026-05-03T14:29:14.141Z</time></trkpt><trkpt lat="44.824143" lon="7.6168359"><ele>240.0</ele><time>2026-05-03T14:29:15.135Z</time></trkpt><trkpt lat="44.824178" lon="7.616969"><ele>240.0</ele><time>2026-05-03T14:29:16.143Z</time></trkpt><trkpt lat="44.8242087" lon="7.6171016"><ele>240.0</ele><time>2026-05-03T14:29:17.13Z</time></trkpt><trkpt lat="44.8242371" lon="7.6172107"><ele>240.0</ele><time>2026-05-03T14:29:18.142Z</time></trkpt><trkpt lat="44.8242715" lon="7.6173604"><ele>240.0</ele><time>2026-05-03T14:29:20.141Z</time></trkpt><trkpt lat="44.8242871" lon="7.6174896"><ele>240.0</ele><time>2026-05-03T14:29:22.14Z</time></trkpt><trkpt lat="44.8242713" lon="7.617602"><ele>240.0</ele><time>2026-05-03T14:29:24.141Z</time></trkpt><trkpt lat="44.8242161" lon="7.6177235"><ele>240.0</ele><time>2026-05-03T14:29:26.13Z</time></trkpt><trkpt lat="44.8241601" lon="7.6177736"><ele>240.0</ele><time>2026-05-03T14:29:27.135Z</time></trkpt><trkpt lat="44.8240958" lon="7.6178225"><ele>240.0</ele><time>2026-05-03T14:29:28.13Z</time></trkpt><trkpt lat="44.8239998" lon="7.6179047"><ele>240.0</ele><time>2026-05-03T14:29:30.128Z</time></trkpt><trkpt lat="44.8239359" lon="7.6179991"><ele>240.0</ele><time>2026-05-03T14:29:32.129Z</time></trkpt><trkpt lat="44.8239064" lon="7.6181461"><ele>240.0</ele><time>2026-05-03T14:29:34.121Z</time></trkpt><trkpt lat="44.8238942" lon="7.6182508"><ele>240.0</ele><time>2026-05-03T14:29:35.127Z</time></trkpt><trkpt lat="44.823896" lon="7.6183647"><ele>240.0</ele><time>2026-05-03T14:29:36.131Z</time></trkpt><trkpt lat="44.8239031" lon="7.6184674"><ele>240.0</ele><time>2026-05-03T14:29:37.13Z</time></trkpt><trkpt lat="44.823923" lon="7.6185596"><ele>240.0</ele><time>2026-05-03T14:29:38.125Z</time></trkpt><trkpt lat="44.8239573" lon="7.6186479"><ele>240.0</ele><time>2026-05-03T14:29:39.125Z</time></trkpt><trkpt lat="44.823991" lon="7.6187445"><ele>240.0</ele><time>2026-05-03T14:29:40.126Z</time></trkpt><trkpt lat="44.8240245" lon="7.6188594"><ele>239.8</ele><time>2026-05-03T14:29:41.134Z</time></trkpt><trkpt lat="44.8240564" lon="7.618999"><ele>239.6</ele><time>2026-05-03T14:29:42.125Z</time></trkpt><trkpt lat="44.8240857" lon="7.6191564"><ele>239.39999999999998</ele><time>2026-05-03T14:29:43.131Z</time></trkpt><trkpt lat="44.8241131" lon="7.6193017"><ele>239.2</ele><time>2026-05-03T14:29:44.127Z</time></trkpt><trkpt lat="44.8241422" lon="7.6194623"><ele>239.0</ele><time>2026-05-03T14:29:45.137Z</time></trkpt><trkpt lat="44.8241745" lon="7.6196234"><ele>239.2</ele><time>2026-05-03T14:29:46.117Z</time></trkpt><trkpt lat="44.8242007" lon="7.6197665"><ele>239.39999999999998</ele><time>2026-05-03T14:29:47.129Z</time></trkpt><trkpt lat="44.8242267" lon="7.619898"><ele>239.6</ele><time>2026-05-03T14:29:48.146Z</time></trkpt><trkpt lat="44.8242563" lon="7.6200186"><ele>239.8</ele><time>2026-05-03T14:29:49.138Z</time></trkpt><trkpt lat="44.8242916" lon="7.6201402"><ele>240.0</ele><time>2026-05-03T14:29:50.144Z</time></trkpt><trkpt lat="44.8243394" lon="7.6202608"><ele>239.8</ele><time>2026-05-03T14:29:51.139Z</time></trkpt><trkpt lat="44.82439" lon="7.6203972"><ele>239.6</ele><time>2026-05-03T14:29:52.138Z</time></trkpt><trkpt lat="44.8244294" lon="7.6205541"><ele>239.39999999999998</ele><time>2026-05-03T14:29:53.133Z</time></trkpt><trkpt lat="44.8244534" lon="7.6206959"><ele>239.2</ele><time>2026-05-03T14:29:54.155Z</time></trkpt><trkpt lat="44.8244658" lon="7.6208293"><ele>239.0</ele><time>2026-05-03T14:29:55.142Z</time></trkpt><trkpt lat="44.8244647" lon="7.6209696"><ele>239.0</ele><time>2026-05-03T14:29:56.156Z</time></trkpt><trkpt lat="44.8244436" lon="7.6211398"><ele>239.0</ele><time>2026-05-03T14:29:57.14Z</time></trkpt><trkpt lat="44.8244029" lon="7.6213113"><ele>239.0</ele><time>2026-05-03T14:29:58.142Z</time></trkpt><trkpt lat="44.8243565" lon="7.6214804"><ele>239.0</ele><time>2026-05-03T14:29:59.138Z</time></trkpt><trkpt lat="44.8243178" lon="7.6216342"><ele>239.2</ele><time>2026-05-03T14:30:00.144Z</time></trkpt><trkpt lat="44.824276" lon="7.6217838"><ele>239.39999999999998</ele><time>2026-05-03T14:30:01.142Z</time></trkpt><trkpt lat="44.8242394" lon="7.6219257"><ele>239.6</ele><time>2026-05-03T14:30:02.146Z</time></trkpt><trkpt lat="44.8241985" lon="7.6220711"><ele>239.8</ele><time>2026-05-03T14:30:03.135Z</time></trkpt><trkpt lat="44.824152" lon="7.6222183"><ele>240.0</ele><time>2026-05-03T14:30:04.191Z</time></trkpt><trkpt lat="44.8241051" lon="7.6223825"><ele>240.0</ele><time>2026-05-03T14:30:05.136Z</time></trkpt><trkpt lat="44.824058" lon="7.622561"><ele>240.0</ele><time>2026-05-03T14:30:06.148Z</time></trkpt><trkpt lat="44.8240121" lon="7.6227363"><ele>240.0</ele><time>2026-05-03T14:30:07.139Z</time></trkpt><trkpt lat="44.8239655" lon="7.6229223"><ele>240.0</ele><time>2026-05-03T14:30:08.141Z</time></trkpt><trkpt lat="44.8239164" lon="7.6231061"><ele>239.75</ele><time>2026-05-03T14:30:09.138Z</time></trkpt><trkpt lat="44.8238697" lon="7.6232862"><ele>239.5</ele><time>2026-05-03T14:30:10.146Z</time></trkpt><trkpt lat="44.823824" lon="7.6234633"><ele>239.25</ele><time>2026-05-03T14:30:11.138Z</time></trkpt><trkpt lat="44.8237771" lon="7.6236451"><ele>239.0</ele><time>2026-05-03T14:30:12.156Z</time></trkpt><trkpt lat="44.82373" lon="7.6238198"><ele>238.75</ele><time>2026-05-03T14:30:13.139Z</time></trkpt><trkpt lat="44.823678" lon="7.6240051"><ele>238.5</ele><time>2026-05-03T14:30:14.151Z</time></trkpt><trkpt lat="44.8236317" lon="7.6241821"><ele>238.25</ele><time>2026-05-03T14:30:15.134Z</time></trkpt><trkpt lat="44.8235899" lon="7.6243443"><ele>238.0</ele><time>2026-05-03T14:30:16.139Z</time></trkpt><trkpt lat="44.8235499" lon="7.6244972"><ele>238.4</ele><time>2026-05-03T14:30:17.143Z</time></trkpt><trkpt lat="44.8235121" lon="7.6246355"><ele>238.8</ele><time>2026-05-03T14:30:18.147Z</time></trkpt><trkpt lat="44.8234773" lon="7.6247651"><ele>239.2</ele><time>2026-05-03T14:30:19.147Z</time></trkpt><trkpt lat="44.8234438" lon="7.6248831"><ele>239.6</ele><time>2026-05-03T14:30:20.143Z</time></trkpt><trkpt lat="44.8234159" lon="7.62498"><ele>240.0</ele><time>2026-05-03T14:30:21.145Z</time></trkpt><trkpt lat="44.8233763" lon="7.6251282"><ele>240.0</ele><time>2026-05-03T14:30:23.148Z</time></trkpt><trkpt lat="44.8233451" lon="7.6252312"><ele>240.0</ele><time>2026-05-03T14:30:25.138Z</time></trkpt><trkpt lat="44.8233022" lon="7.6253486"><ele>240.0</ele><time>2026-05-03T14:30:27.136Z</time></trkpt><trkpt lat="44.8232722" lon="7.6255091"><ele>240.0</ele><time>2026-05-03T14:30:29.145Z</time></trkpt><trkpt lat="44.823292" lon="7.625594"><ele>240.0</ele><time>2026-05-03T14:30:30.14Z</time></trkpt><trkpt lat="44.8233701" lon="7.6257019"><ele>240.0</ele><time>2026-05-03T14:30:32.136Z</time></trkpt><trkpt lat="44.8234487" lon="7.6257402"><ele>240.0</ele><time>2026-05-03T14:30:34.13Z</time></trkpt><trkpt lat="44.8235128" lon="7.6257025"><ele>240.0</ele><time>2026-05-03T14:30:37.138Z</time></trkpt><trkpt lat="44.823579" lon="7.6256196"><ele>240.0</ele><time>2026-05-03T14:30:57.151Z</time></trkpt><trkpt lat="44.823648" lon="7.6255639"><ele>240.0</ele><time>2026-05-03T14:30:59.143Z</time></trkpt><trkpt lat="44.8237087" lon="7.6255233"><ele>240.0</ele><time>2026-05-03T14:31:01.134Z</time></trkpt><trkpt lat="44.8237737" lon="7.6255232"><ele>240.0</ele><time>2026-05-03T14:35:52.105Z</time></trkpt><trkpt lat="44.8238518" lon="7.6254949"><ele>240.0</ele><time>2026-05-03T14:35:54.088Z</time></trkpt><trkpt lat="44.823962" lon="7.625418"><ele>240.0</ele><time>2026-05-03T14:35:56.115Z</time></trkpt><trkpt lat="44.8240342" lon="7.6253747"><ele>240.0</ele><time>2026-05-03T14:35:57.088Z</time></trkpt><trkpt lat="44.8241173" lon="7.6253255"><ele>240.0</ele><time>2026-05-03T14:35:58.088Z</time></trkpt><trkpt lat="44.8241979" lon="7.6252734"><ele>240.0</ele><time>2026-05-03T14:35:59.092Z</time></trkpt><trkpt lat="44.8242913" lon="7.6252246"><ele>240.0</ele><time>2026-05-03T14:36:00.091Z</time></trkpt><trkpt lat="44.8243917" lon="7.6251622"><ele>240.0</ele><time>2026-05-03T14:36:01.102Z</time></trkpt><trkpt lat="44.8244951" lon="7.6250954"><ele>240.0</ele><time>2026-05-03T14:36:02.101Z</time></trkpt><trkpt lat="44.8245985" lon="7.6250333"><ele>240.0</ele><time>2026-05-03T14:36:03.101Z</time></trkpt><trkpt lat="44.8246986" lon="7.6249774"><ele>239.75</ele><time>2026-05-03T14:36:04.102Z</time></trkpt><trkpt lat="44.8248101" lon="7.6249153"><ele>239.5</ele><time>2026-05-03T14:36:05.095Z</time></trkpt><trkpt lat="44.8249274" lon="7.6248474"><ele>239.25</ele><time>2026-05-03T14:36:06.096Z</time></trkpt><trkpt lat="44.8250551" lon="7.6247762"><ele>239.0</ele><time>2026-05-03T14:36:07.089Z</time></trkpt><trkpt lat="44.8251842" lon="7.6246961"><ele>239.33333333333334</ele><time>2026-05-03T14:36:08.101Z</time></trkpt><trkpt lat="44.8253181" lon="7.6246113"><ele>239.66666666666669</ele><time>2026-05-03T14:36:09.09Z</time></trkpt><trkpt lat="44.8254582" lon="7.624525"><ele>240.0</ele><time>2026-05-03T14:36:10.104Z</time></trkpt><trkpt lat="44.8256064" lon="7.6244363"><ele>240.0</ele><time>2026-05-03T14:36:11.095Z</time></trkpt><trkpt lat="44.8257513" lon="7.6243458"><ele>240.0</ele><time>2026-05-03T14:36:12.104Z</time></trkpt><trkpt lat="44.8258983" lon="7.6242553"><ele>240.0</ele><time>2026-05-03T14:36:13.083Z</time></trkpt><trkpt lat="44.8260372" lon="7.6241714"><ele>238.75</ele><time>2026-05-03T14:36:14.094Z</time></trkpt><trkpt lat="44.8261632" lon="7.6240904"><ele>237.5</ele><time>2026-05-03T14:36:15.096Z</time></trkpt><trkpt lat="44.8262869" lon="7.62402"><ele>236.25</ele><time>2026-05-03T14:36:16.101Z</time></trkpt><trkpt lat="44.8264109" lon="7.6239466"><ele>235.0</ele><time>2026-05-03T14:36:17.116Z</time></trkpt><trkpt lat="44.8265392" lon="7.623878"><ele>235.0</ele><time>2026-05-03T14:36:18.106Z</time></trkpt><trkpt lat="44.8266689" lon="7.6238045"><ele>235.0</ele><time>2026-05-03T14:36:19.101Z</time></trkpt><trkpt lat="44.8267875" lon="7.6237336"><ele>235.0</ele><time>2026-05-03T14:36:20.107Z</time></trkpt><trkpt lat="44.8269073" lon="7.6236631"><ele>235.0</ele><time>2026-05-03T14:36:21.137Z</time></trkpt><trkpt lat="44.8270256" lon="7.6235911"><ele>235.75</ele><time>2026-05-03T14:36:22.089Z</time></trkpt><trkpt lat="44.8271463" lon="7.6235054"><ele>236.5</ele><time>2026-05-03T14:36:23.095Z</time></trkpt><trkpt lat="44.8272634" lon="7.6234228"><ele>237.25</ele><time>2026-05-03T14:36:24.095Z</time></trkpt><trkpt lat="44.8273772" lon="7.6233461"><ele>238.0</ele><time>2026-05-03T14:36:25.09Z</time></trkpt><trkpt lat="44.8274857" lon="7.6232743"><ele>238.0</ele><time>2026-05-03T14:36:26.089Z</time></trkpt><trkpt lat="44.8275869" lon="7.6232111"><ele>238.0</ele><time>2026-05-03T14:36:27.1Z</time></trkpt><trkpt lat="44.827686" lon="7.6231506"><ele>238.0</ele><time>2026-05-03T14:36:28.1Z</time></trkpt><trkpt lat="44.8277784" lon="7.6230789"><ele>238.0</ele><time>2026-05-03T14:36:29.094Z</time></trkpt><trkpt lat="44.8278674" lon="7.6229836"><ele>238.0</ele><time>2026-05-03T14:36:30.102Z</time></trkpt><trkpt lat="44.827955" lon="7.6228748"><ele>238.25</ele><time>2026-05-03T14:36:31.082Z</time></trkpt><trkpt lat="44.8280468" lon="7.622757"><ele>238.5</ele><time>2026-05-03T14:36:32.08Z</time></trkpt><trkpt lat="44.8281424" lon="7.6226344"><ele>238.75</ele><time>2026-05-03T14:36:33.096Z</time></trkpt><trkpt lat="44.8282404" lon="7.6225039"><ele>239.0</ele><time>2026-05-03T14:36:34.116Z</time></trkpt><trkpt lat="44.8283309" lon="7.6223537"><ele>239.0</ele><time>2026-05-03T14:36:35.071Z</time></trkpt><trkpt lat="44.8284178" lon="7.6221929"><ele>239.0</ele><time>2026-05-03T14:36:36.097Z</time></trkpt><trkpt lat="44.8285025" lon="7.6220175"><ele>239.0</ele><time>2026-05-03T14:36:37.092Z</time></trkpt><trkpt lat="44.8285802" lon="7.6218413"><ele>239.0</ele><time>2026-05-03T14:36:38.098Z</time></trkpt><trkpt lat="44.828663" lon="7.6216559"><ele>239.0</ele><time>2026-05-03T14:36:39.083Z</time></trkpt><trkpt lat="44.8287317" lon="7.6214627"><ele>239.0</ele><time>2026-05-03T14:36:40.101Z</time></trkpt><trkpt lat="44.8287956" lon="7.6212714"><ele>239.0</ele><time>2026-05-03T14:36:41.089Z</time></trkpt><trkpt lat="44.8288516" lon="7.621077"><ele>239.0</ele><time>2026-05-03T14:36:42.099Z</time></trkpt><trkpt lat="44.8288913" lon="7.620875"><ele>239.0</ele><time>2026-05-03T14:36:43.072Z</time></trkpt><trkpt lat="44.8289241" lon="7.6206712"><ele>239.0</ele><time>2026-05-03T14:36:44.187Z</time></trkpt><trkpt lat="44.8289486" lon="7.620454"><ele>239.66666666666669</ele><time>2026-05-03T14:36:45.095Z</time></trkpt><trkpt lat="44.828965" lon="7.6202315"><ele>240.33333333333331</ele><time>2026-05-03T14:36:46.089Z</time></trkpt><trkpt lat="44.8289697" lon="7.6200059"><ele>241.0</ele><time>2026-05-03T14:36:47.097Z</time></trkpt><trkpt lat="44.8289711" lon="7.6197771"><ele>241.0</ele><time>2026-05-03T14:36:48.101Z</time></trkpt><trkpt lat="44.8289635" lon="7.6195475"><ele>241.0</ele><time>2026-05-03T14:36:49.092Z</time></trkpt><trkpt lat="44.8289416" lon="7.6193127"><ele>241.0</ele><time>2026-05-03T14:36:50.11Z</time></trkpt><trkpt lat="44.8289104" lon="7.6190757"><ele>241.0</ele><time>2026-05-03T14:36:51.092Z</time></trkpt><trkpt lat="44.8288808" lon="7.618835"><ele>241.0</ele><time>2026-05-03T14:36:52.084Z</time></trkpt><trkpt lat="44.8288503" lon="7.6185934"><ele>241.0</ele><time>2026-05-03T14:36:53.095Z</time></trkpt><trkpt lat="44.8288185" lon="7.6183535"><ele>241.0</ele><time>2026-05-03T14:36:54.1Z</time></trkpt><trkpt lat="44.8287897" lon="7.6181152"><ele>241.0</ele><time>2026-05-03T14:36:55.108Z</time></trkpt><trkpt lat="44.8287627" lon="7.6178837"><ele>241.0</ele><time>2026-05-03T14:36:56.078Z</time></trkpt><trkpt lat="44.8287361" lon="7.6176702"><ele>241.0</ele><time>2026-05-03T14:36:57.086Z</time></trkpt><trkpt lat="44.8287084" lon="7.6174667"><ele>241.0</ele><time>2026-05-03T14:36:58.102Z</time></trkpt><trkpt lat="44.8286638" lon="7.6172613"><ele>241.0</ele><time>2026-05-03T14:36:59.07Z</time></trkpt><trkpt lat="44.8286107" lon="7.6170527"><ele>241.0</ele><time>2026-05-03T14:37:00.093Z</time></trkpt><trkpt lat="44.828549" lon="7.6168423"><ele>241.0</ele><time>2026-05-03T14:37:01.112Z</time></trkpt><trkpt lat="44.8284878" lon="7.616627"><ele>241.0</ele><time>2026-05-03T14:37:02.071Z</time></trkpt><trkpt lat="44.8284197" lon="7.6164002"><ele>241.0</ele><time>2026-05-03T14:37:03.098Z</time></trkpt><trkpt lat="44.8283555" lon="7.6161694"><ele>241.0</ele><time>2026-05-03T14:37:04.099Z</time></trkpt><trkpt lat="44.8282891" lon="7.6159364"><ele>241.0</ele><time>2026-05-03T14:37:05.108Z</time></trkpt><trkpt lat="44.8282204" lon="7.6157003"><ele>240.33333333333331</ele><time>2026-05-03T14:37:06.098Z</time></trkpt><trkpt lat="44.8281563" lon="7.615458"><ele>239.66666666666669</ele><time>2026-05-03T14:37:07.095Z</time></trkpt><trkpt lat="44.828088" lon="7.6152057"><ele>239.0</ele><time>2026-05-03T14:37:08.085Z</time></trkpt><trkpt lat="44.828014" lon="7.6149538"><ele>239.0</ele><time>2026-05-03T14:37:09.067Z</time></trkpt><trkpt lat="44.8279421" lon="7.6147015"><ele>239.0</ele><time>2026-05-03T14:37:10.105Z</time></trkpt><trkpt lat="44.82787" lon="7.6144466"><ele>239.0</ele><time>2026-05-03T14:37:11.09Z</time></trkpt><trkpt lat="44.8277997" lon="7.6141923"><ele>239.0</ele><time>2026-05-03T14:37:12.101Z</time></trkpt><trkpt lat="44.827729" lon="7.6139397"><ele>239.0</ele><time>2026-05-03T14:37:13.091Z</time></trkpt><trkpt lat="44.8276596" lon="7.6136904"><ele>239.0</ele><time>2026-05-03T14:37:14.09Z</time></trkpt><trkpt lat="44.8275965" lon="7.6134432"><ele>240.0</ele><time>2026-05-03T14:37:15.083Z</time></trkpt><trkpt lat="44.8275381" lon="7.6132025"><ele>241.0</ele><time>2026-05-03T14:37:16.098Z</time></trkpt><trkpt lat="44.8274842" lon="7.6129647"><ele>242.0</ele><time>2026-05-03T14:37:17.09Z</time></trkpt><trkpt lat="44.8274394" lon="7.6127279"><ele>242.0</ele><time>2026-05-03T14:37:18.121Z</time></trkpt><trkpt lat="44.8274014" lon="7.6124927"><ele>242.0</ele><time>2026-05-03T14:37:19.089Z</time></trkpt><trkpt lat="44.8273662" lon="7.6122608"><ele>242.0</ele><time>2026-05-03T14:37:20.11Z</time></trkpt><trkpt lat="44.8273382" lon="7.6120251"><ele>241.33333333333334</ele><time>2026-05-03T14:37:21.09Z</time></trkpt><trkpt lat="44.8273146" lon="7.6117827"><ele>240.66666666666669</ele><time>2026-05-03T14:37:22.097Z</time></trkpt><trkpt lat="44.8272945" lon="7.6115442"><ele>240.0</ele><time>2026-05-03T14:37:23.09Z</time></trkpt><trkpt lat="44.8272732" lon="7.6112972"><ele>239.33333333333331</ele><time>2026-05-03T14:37:24.096Z</time></trkpt><trkpt lat="44.8272553" lon="7.6110486"><ele>238.66666666666666</ele><time>2026-05-03T14:37:25.104Z</time></trkpt><trkpt lat="44.8272451" lon="7.6108067"><ele>238.0</ele><time>2026-05-03T14:37:26.09Z</time></trkpt><trkpt lat="44.8272433" lon="7.6105681"><ele>238.0</ele><time>2026-05-03T14:37:27.114Z</time></trkpt><trkpt lat="44.8272424" lon="7.6103217"><ele>238.0</ele><time>2026-05-03T14:37:28.112Z</time></trkpt><trkpt lat="44.8272481" lon="7.610072"><ele>238.0</ele><time>2026-05-03T14:37:29.095Z</time></trkpt><trkpt lat="44.8272596" lon="7.6098177"><ele>238.0</ele><time>2026-05-03T14:37:30.097Z</time></trkpt><trkpt lat="44.8272782" lon="7.6095767"><ele>238.0</ele><time>2026-05-03T14:37:31.092Z</time></trkpt><trkpt lat="44.8272953" lon="7.6093497"><ele>238.0</ele><time>2026-05-03T14:37:32.083Z</time></trkpt><trkpt lat="44.82732" lon="7.609121"><ele>238.66666666666666</ele><time>2026-05-03T14:37:33.093Z</time></trkpt><trkpt lat="44.8273515" lon="7.6088951"><ele>239.33333333333331</ele><time>2026-05-03T14:37:34.095Z</time></trkpt><trkpt lat="44.8273869" lon="7.6086639"><ele>240.0</ele><time>2026-05-03T14:37:35.09Z</time></trkpt><trkpt lat="44.8274291" lon="7.6084226"><ele>240.0</ele><time>2026-05-03T14:37:36.087Z</time></trkpt><trkpt lat="44.8274711" lon="7.6081734"><ele>240.0</ele><time>2026-05-03T14:37:37.084Z</time></trkpt><trkpt lat="44.8275127" lon="7.6079207"><ele>240.0</ele><time>2026-05-03T14:37:38.127Z</time></trkpt><trkpt lat="44.8275605" lon="7.6076579"><ele>240.0</ele><time>2026-05-03T14:37:39.107Z</time></trkpt><trkpt lat="44.8276111" lon="7.6073995"><ele>240.0</ele><time>2026-05-03T14:37:40.112Z</time></trkpt><trkpt lat="44.8276614" lon="7.6071364"><ele>240.0</ele><time>2026-05-03T14:37:41.097Z</time></trkpt><trkpt lat="44.8277099" lon="7.6068745"><ele>240.0</ele><time>2026-05-03T14:37:42.1Z</time></trkpt><trkpt lat="44.8277633" lon="7.6066218"><ele>240.0</ele><time>2026-05-03T14:37:43.112Z</time></trkpt><trkpt lat="44.8278218" lon="7.6063639"><ele>240.0</ele><time>2026-05-03T14:37:44.092Z</time></trkpt><trkpt lat="44.8278843" lon="7.6061095"><ele>240.33333333333331</ele><time>2026-05-03T14:37:45.092Z</time></trkpt><trkpt lat="44.8279522" lon="7.6058583"><ele>240.66666666666666</ele><time>2026-05-03T14:37:46.093Z</time></trkpt><trkpt lat="44.8280239" lon="7.6056019"><ele>241.0</ele><time>2026-05-03T14:37:47.096Z</time></trkpt><trkpt lat="44.8280965" lon="7.6053478"><ele>241.33333333333331</ele><time>2026-05-03T14:37:48.089Z</time></trkpt><trkpt lat="44.8281741" lon="7.6050953"><ele>241.66666666666669</ele><time>2026-05-03T14:37:49.102Z</time></trkpt><trkpt lat="44.8282531" lon="7.604843"><ele>242.0</ele><time>2026-05-03T14:37:50.106Z</time></trkpt><trkpt lat="44.8283313" lon="7.6045861"><ele>241.66666666666669</ele><time>2026-05-03T14:37:51.099Z</time></trkpt><trkpt lat="44.8284059" lon="7.6043391"><ele>241.33333333333331</ele><time>2026-05-03T14:37:52.078Z</time></trkpt><trkpt lat="44.8284786" lon="7.604097"><ele>241.0</ele><time>2026-05-03T14:37:53.144Z</time></trkpt><trkpt lat="44.8285448" lon="7.60387"><ele>240.33333333333331</ele><time>2026-05-03T14:37:54.086Z</time></trkpt><trkpt lat="44.8286138" lon="7.6036334"><ele>239.66666666666669</ele><time>2026-05-03T14:37:55.096Z</time></trkpt><trkpt lat="44.8286847" lon="7.6033983"><ele>239.0</ele><time>2026-05-03T14:37:56.114Z</time></trkpt><trkpt lat="44.8287536" lon="7.603167"><ele>239.0</ele><time>2026-05-03T14:37:57.103Z</time></trkpt><trkpt lat="44.8288246" lon="7.6029369"><ele>239.0</ele><time>2026-05-03T14:37:58.092Z</time></trkpt><trkpt lat="44.8288977" lon="7.6027069"><ele>239.0</ele><time>2026-05-03T14:37:59.091Z</time></trkpt><trkpt lat="44.8289717" lon="7.6024694"><ele>239.0</ele><time>2026-05-03T14:38:00.091Z</time></trkpt><trkpt lat="44.8290431" lon="7.6022307"><ele>239.0</ele><time>2026-05-03T14:38:01.112Z</time></trkpt><trkpt lat="44.8291109" lon="7.6019958"><ele>239.0</ele><time>2026-05-03T14:38:02.096Z</time></trkpt><trkpt lat="44.8291803" lon="7.6017602"><ele>239.0</ele><time>2026-05-03T14:38:03.071Z</time></trkpt><trkpt lat="44.829253" lon="7.6015202"><ele>239.0</ele><time>2026-05-03T14:38:04.098Z</time></trkpt><trkpt lat="44.8293256" lon="7.6012826"><ele>239.0</ele><time>2026-05-03T14:38:05.099Z</time></trkpt><trkpt lat="44.8293966" lon="7.6010463"><ele>238.66666666666669</ele><time>2026-05-03T14:38:06.105Z</time></trkpt><trkpt lat="44.8294674" lon="7.6008057"><ele>238.33333333333331</ele><time>2026-05-03T14:38:07.094Z</time></trkpt><trkpt lat="44.8295382" lon="7.6005622"><ele>238.0</ele><time>2026-05-03T14:38:08.088Z</time></trkpt><trkpt lat="44.8296089" lon="7.6003173"><ele>239.0</ele><time>2026-05-03T14:38:09.105Z</time></trkpt><trkpt lat="44.8296778" lon="7.6000824"><ele>240.0</ele><time>2026-05-03T14:38:10.096Z</time></trkpt><trkpt lat="44.82975" lon="7.5998566"><ele>241.0</ele><time>2026-05-03T14:38:11.093Z</time></trkpt><trkpt lat="44.8298192" lon="7.5996351"><ele>240.66666666666666</ele><time>2026-05-03T14:38:12.083Z</time></trkpt><trkpt lat="44.8298855" lon="7.5994201"><ele>240.33333333333331</ele><time>2026-05-03T14:38:13.081Z</time></trkpt><trkpt lat="44.8299508" lon="7.5992005"><ele>240.0</ele><time>2026-05-03T14:38:14.094Z</time></trkpt><trkpt lat="44.8300163" lon="7.5989805"><ele>240.0</ele><time>2026-05-03T14:38:15.09Z</time></trkpt><trkpt lat="44.8300859" lon="7.5987561"><ele>240.0</ele><time>2026-05-03T14:38:16.097Z</time></trkpt><trkpt lat="44.830157" lon="7.5985284"><ele>240.0</ele><time>2026-05-03T14:38:17.092Z</time></trkpt><trkpt lat="44.8302282" lon="7.5982961"><ele>240.0</ele><time>2026-05-03T14:38:18.093Z</time></trkpt><trkpt lat="44.8303" lon="7.5980587"><ele>240.0</ele><time>2026-05-03T14:38:19.086Z</time></trkpt><trkpt lat="44.8303762" lon="7.5978195"><ele>240.0</ele><time>2026-05-03T14:38:20.086Z</time></trkpt><trkpt lat="44.8304524" lon="7.5975837"><ele>240.33333333333331</ele><time>2026-05-03T14:38:21.096Z</time></trkpt><trkpt lat="44.8305255" lon="7.5973559"><ele>240.66666666666666</ele><time>2026-05-03T14:38:22.098Z</time></trkpt><trkpt lat="44.8305993" lon="7.5971322"><ele>241.0</ele><time>2026-05-03T14:38:23.092Z</time></trkpt><trkpt lat="44.8306724" lon="7.5969114"><ele>241.33333333333331</ele><time>2026-05-03T14:38:24.089Z</time></trkpt><trkpt lat="44.8307455" lon="7.5966916"><ele>241.66666666666669</ele><time>2026-05-03T14:38:25.095Z</time></trkpt><trkpt lat="44.830815" lon="7.5964679"><ele>242.0</ele><time>2026-05-03T14:38:26.103Z</time></trkpt><trkpt lat="44.8308817" lon="7.5962462"><ele>242.25</ele><time>2026-05-03T14:38:27.129Z</time></trkpt><trkpt lat="44.8309438" lon="7.5960446"><ele>242.5</ele><time>2026-05-03T14:38:28.094Z</time></trkpt><trkpt lat="44.8310086" lon="7.5958583"><ele>242.75</ele><time>2026-05-03T14:38:29.076Z</time></trkpt><trkpt lat="44.8310698" lon="7.5956769"><ele>243.0</ele><time>2026-05-03T14:38:30.096Z</time></trkpt><trkpt lat="44.8311241" lon="7.5955068"><ele>242.5</ele><time>2026-05-03T14:38:31.087Z</time></trkpt><trkpt lat="44.8311766" lon="7.5953411"><ele>242.0</ele><time>2026-05-03T14:38:32.085Z</time></trkpt><trkpt lat="44.8312311" lon="7.5951772"><ele>241.5</ele><time>2026-05-03T14:38:33.077Z</time></trkpt><trkpt lat="44.8312872" lon="7.5950032"><ele>241.0</ele><time>2026-05-03T14:38:34.082Z</time></trkpt><trkpt lat="44.831346" lon="7.5948389"><ele>241.0</ele><time>2026-05-03T14:38:35.081Z</time></trkpt><trkpt lat="44.8314071" lon="7.5946887"><ele>241.0</ele><time>2026-05-03T14:38:36.089Z</time></trkpt><trkpt lat="44.8314654" lon="7.594542"><ele>241.0</ele><time>2026-05-03T14:38:37.098Z</time></trkpt><trkpt lat="44.8315215" lon="7.594409"><ele>241.0</ele><time>2026-05-03T14:38:38.085Z</time></trkpt><trkpt lat="44.8315907" lon="7.5943027"><ele>241.0</ele><time>2026-05-03T14:38:39.099Z</time></trkpt><trkpt lat="44.8316657" lon="7.5942235"><ele>241.00000000000003</ele><time>2026-05-03T14:38:40.095Z</time></trkpt><trkpt lat="44.8317485" lon="7.5941616"><ele>241.00000000000003</ele><time>2026-05-03T14:38:41.087Z</time></trkpt><trkpt lat="44.8318446" lon="7.5940973"><ele>241.0</ele><time>2026-05-03T14:38:42.113Z</time></trkpt><trkpt lat="44.8319503" lon="7.5940405"><ele>241.0</ele><time>2026-05-03T14:38:43.085Z</time></trkpt><trkpt lat="44.8320648" lon="7.5940284"><ele>241.0</ele><time>2026-05-03T14:38:44.103Z</time></trkpt><trkpt lat="44.8321942" lon="7.5940094"><ele>241.0</ele><time>2026-05-03T14:38:45.091Z</time></trkpt><trkpt lat="44.8323287" lon="7.593988"><ele>241.0</ele><time>2026-05-03T14:38:46.091Z</time></trkpt><trkpt lat="44.8324702" lon="7.5939621"><ele>241.0</ele><time>2026-05-03T14:38:47.103Z</time></trkpt><trkpt lat="44.8326174" lon="7.5939347"><ele>241.0</ele><time>2026-05-03T14:38:48.098Z</time></trkpt><trkpt lat="44.8327711" lon="7.593915"><ele>241.0</ele><time>2026-05-03T14:38:49.089Z</time></trkpt><trkpt lat="44.8329183" lon="7.5938912"><ele>241.0</ele><time>2026-05-03T14:38:50.1Z</time></trkpt><trkpt lat="44.8330692" lon="7.5938647"><ele>241.0</ele><time>2026-05-03T14:38:51.082Z</time></trkpt><trkpt lat="44.8332169" lon="7.5938433"><ele>241.0</ele><time>2026-05-03T14:38:52.103Z</time></trkpt><trkpt lat="44.8333572" lon="7.5938232"><ele>241.0</ele><time>2026-05-03T14:38:53.084Z</time></trkpt><trkpt lat="44.8334899" lon="7.5937947"><ele>241.0</ele><time>2026-05-03T14:38:54.095Z</time></trkpt><trkpt lat="44.8336184" lon="7.5937605"><ele>241.5</ele><time>2026-05-03T14:38:55.087Z</time></trkpt><trkpt lat="44.8337424" lon="7.5937149"><ele>242.0</ele><time>2026-05-03T14:38:56.092Z</time></trkpt><trkpt lat="44.8338726" lon="7.5936569"><ele>242.5</ele><time>2026-05-03T14:38:57.087Z</time></trkpt><trkpt lat="44.8340098" lon="7.5936194"><ele>243.0</ele><time>2026-05-03T14:38:58.093Z</time></trkpt><trkpt lat="44.8341434" lon="7.5935914"><ele>243.0</ele><time>2026-05-03T14:38:59.096Z</time></trkpt><trkpt lat="44.8342699" lon="7.5935991"><ele>243.0</ele><time>2026-05-03T14:39:00.084Z</time></trkpt><trkpt lat="44.8343911" lon="7.5936185"><ele>243.0</ele><time>2026-05-03T14:39:01.088Z</time></trkpt><trkpt lat="44.8345069" lon="7.5936132"><ele>243.0</ele><time>2026-05-03T14:39:02.091Z</time></trkpt><trkpt lat="44.8346118" lon="7.5935773"><ele>242.5</ele><time>2026-05-03T14:39:03.087Z</time></trkpt><trkpt lat="44.8347113" lon="7.5934907"><ele>242.0</ele><time>2026-05-03T14:39:04.123Z</time></trkpt><trkpt lat="44.8347968" lon="7.5933719"><ele>241.5</ele><time>2026-05-03T14:39:05.105Z</time></trkpt><trkpt lat="44.8348879" lon="7.593232"><ele>241.0</ele><time>2026-05-03T14:39:06.086Z</time></trkpt><trkpt lat="44.834966" lon="7.5930837"><ele>241.0</ele><time>2026-05-03T14:39:07.1Z</time></trkpt><trkpt lat="44.8350401" lon="7.5929332"><ele>241.0</ele><time>2026-05-03T14:39:08.104Z</time></trkpt><trkpt lat="44.8351002" lon="7.5927868"><ele>241.0</ele><time>2026-05-03T14:39:09.104Z</time></trkpt><trkpt lat="44.8351577" lon="7.5926474"><ele>241.0</ele><time>2026-05-03T14:39:10.099Z</time></trkpt><trkpt lat="44.8352024" lon="7.5925164"><ele>241.4</ele><time>2026-05-03T14:39:11.091Z</time></trkpt><trkpt lat="44.8352474" lon="7.5924029"><ele>241.8</ele><time>2026-05-03T14:39:12.104Z</time></trkpt><trkpt lat="44.8352844" lon="7.5923198"><ele>242.20000000000002</ele><time>2026-05-03T14:39:13.094Z</time></trkpt><trkpt lat="44.8353578" lon="7.592158"><ele>242.60000000000002</ele><time>2026-05-03T14:39:15.095Z</time></trkpt><trkpt lat="44.8354059" lon="7.5920617"><ele>243.0</ele><time>2026-05-03T14:39:16.108Z</time></trkpt><trkpt lat="44.8354697" lon="7.5919574"><ele>243.0</ele><time>2026-05-03T14:39:17.081Z</time></trkpt><trkpt lat="44.8355322" lon="7.5918236"><ele>243.0</ele><time>2026-05-03T14:39:18.093Z</time></trkpt><trkpt lat="44.8356005" lon="7.5916761"><ele>243.0</ele><time>2026-05-03T14:39:19.113Z</time></trkpt><trkpt lat="44.8356763" lon="7.5915239"><ele>243.0</ele><time>2026-05-03T14:39:20.102Z</time></trkpt><trkpt lat="44.8357568" lon="7.5913737"><ele>243.0</ele><time>2026-05-03T14:39:21.153Z</time></trkpt><trkpt lat="44.8358367" lon="7.5912097"><ele>243.0</ele><time>2026-05-03T14:39:22.1Z</time></trkpt><trkpt lat="44.8359232" lon="7.5910443"><ele>243.0</ele><time>2026-05-03T14:39:23.08Z</time></trkpt><trkpt lat="44.8360073" lon="7.5908776"><ele>243.0</ele><time>2026-05-03T14:39:24.099Z</time></trkpt><trkpt lat="44.8360929" lon="7.5907168"><ele>243.33333333333331</ele><time>2026-05-03T14:39:25.093Z</time></trkpt><trkpt lat="44.8361816" lon="7.590547"><ele>243.66666666666666</ele><time>2026-05-03T14:39:26.109Z</time></trkpt><trkpt lat="44.836271" lon="7.5903736"><ele>244.0</ele><time>2026-05-03T14:39:27.111Z</time></trkpt><trkpt lat="44.8363611" lon="7.5901971"><ele>244.33333333333331</ele><time>2026-05-03T14:39:28.078Z</time></trkpt><trkpt lat="44.8364517" lon="7.5900188"><ele>244.66666666666669</ele><time>2026-05-03T14:39:29.085Z</time></trkpt><trkpt lat="44.8365431" lon="7.5898385"><ele>245.0</ele><time>2026-05-03T14:39:30.09Z</time></trkpt><trkpt lat="44.8366323" lon="7.5896567"><ele>245.33333333333334</ele><time>2026-05-03T14:39:31.101Z</time></trkpt><trkpt lat="44.8367261" lon="7.5894752"><ele>245.66666666666669</ele><time>2026-05-03T14:39:32.092Z</time></trkpt><trkpt lat="44.836818" lon="7.589289"><ele>246.0</ele><time>2026-05-03T14:39:33.094Z</time></trkpt><trkpt lat="44.8369131" lon="7.5891022"><ele>246.0</ele><time>2026-05-03T14:39:34.078Z</time></trkpt><trkpt lat="44.837008" lon="7.5889163"><ele>246.0</ele><time>2026-05-03T14:39:35.085Z</time></trkpt><trkpt lat="44.8371021" lon="7.5887238"><ele>246.0</ele><time>2026-05-03T14:39:36.087Z</time></trkpt><trkpt lat="44.8372023" lon="7.5885318"><ele>246.0</ele><time>2026-05-03T14:39:37.084Z</time></trkpt><trkpt lat="44.8373019" lon="7.588352"><ele>246.0</ele><time>2026-05-03T14:39:38.087Z</time></trkpt><trkpt lat="44.8373892" lon="7.5881773"><ele>246.0</ele><time>2026-05-03T14:39:39.092Z</time></trkpt><trkpt lat="44.8374753" lon="7.5880092"><ele>246.0</ele><time>2026-05-03T14:39:40.09Z</time></trkpt><trkpt lat="44.837563" lon="7.5878455"><ele>246.0</ele><time>2026-05-03T14:39:41.08Z</time></trkpt><trkpt lat="44.8376642" lon="7.5877059"><ele>246.0</ele><time>2026-05-03T14:39:42.113Z</time></trkpt><trkpt lat="44.8377771" lon="7.5875625"><ele>246.0</ele><time>2026-05-03T14:39:43.114Z</time></trkpt><trkpt lat="44.8379046" lon="7.5874283"><ele>245.33333333333331</ele><time>2026-05-03T14:39:44.091Z</time></trkpt><trkpt lat="44.8380282" lon="7.5872811"><ele>244.66666666666666</ele><time>2026-05-03T14:39:45.1Z</time></trkpt><trkpt lat="44.8381557" lon="7.5871328"><ele>244.0</ele><time>2026-05-03T14:39:46.091Z</time></trkpt><trkpt lat="44.8382865" lon="7.5869765"><ele>244.0</ele><time>2026-05-03T14:39:47.077Z</time></trkpt><trkpt lat="44.8384185" lon="7.5868129"><ele>244.0</ele><time>2026-05-03T14:39:48.128Z</time></trkpt><trkpt lat="44.8385508" lon="7.5866455"><ele>244.0</ele><time>2026-05-03T14:39:49.091Z</time></trkpt><trkpt lat="44.8386863" lon="7.5864773"><ele>244.0</ele><time>2026-05-03T14:39:50.096Z</time></trkpt><trkpt lat="44.8388179" lon="7.5863102"><ele>244.0</ele><time>2026-05-03T14:39:51.097Z</time></trkpt><trkpt lat="44.8389526" lon="7.5861478"><ele>244.0</ele><time>2026-05-03T14:39:52.099Z</time></trkpt><trkpt lat="44.8390886" lon="7.5859843"><ele>244.0</ele><time>2026-05-03T14:39:53.109Z</time></trkpt><trkpt lat="44.839225" lon="7.5858135"><ele>244.0</ele><time>2026-05-03T14:39:54.095Z</time></trkpt><trkpt lat="44.8393609" lon="7.5856437"><ele>244.0</ele><time>2026-05-03T14:39:55.106Z</time></trkpt><trkpt lat="44.8394982" lon="7.5854709"><ele>244.0</ele><time>2026-05-03T14:39:56.116Z</time></trkpt><trkpt lat="44.8396378" lon="7.5853042"><ele>244.0</ele><time>2026-05-03T14:39:57.103Z</time></trkpt><trkpt lat="44.8397732" lon="7.5851412"><ele>244.0</ele><time>2026-05-03T14:39:58.093Z</time></trkpt><trkpt lat="44.8398958" lon="7.5849934"><ele>244.0</ele><time>2026-05-03T14:39:59.093Z</time></trkpt><trkpt lat="44.8400124" lon="7.5848635"><ele>244.0</ele><time>2026-05-03T14:40:00.087Z</time></trkpt><trkpt lat="44.8401352" lon="7.5847464"><ele>244.0</ele><time>2026-05-03T14:40:01.097Z</time></trkpt><trkpt lat="44.840273" lon="7.5846417"><ele>244.0</ele><time>2026-05-03T14:40:02.09Z</time></trkpt><trkpt lat="44.8404192" lon="7.5845467"><ele>244.0</ele><time>2026-05-03T14:40:03.08Z</time></trkpt><trkpt lat="44.8405752" lon="7.5844721"><ele>244.0</ele><time>2026-05-03T14:40:04.072Z</time></trkpt><trkpt lat="44.8407384" lon="7.5844049"><ele>244.0</ele><time>2026-05-03T14:40:05.144Z</time></trkpt><trkpt lat="44.8409101" lon="7.5843431"><ele>244.0</ele><time>2026-05-03T14:40:06.11Z</time></trkpt><trkpt lat="44.8410875" lon="7.584285"><ele>244.0</ele><time>2026-05-03T14:40:07.101Z</time></trkpt><trkpt lat="44.8412569" lon="7.5842207"><ele>245.0</ele><time>2026-05-03T14:40:08.095Z</time></trkpt><trkpt lat="44.8414314" lon="7.5841544"><ele>246.0</ele><time>2026-05-03T14:40:09.091Z</time></trkpt><trkpt lat="44.8416049" lon="7.5840949"><ele>247.0</ele><time>2026-05-03T14:40:10.087Z</time></trkpt><trkpt lat="44.8417806" lon="7.5840319"><ele>246.66666666666666</ele><time>2026-05-03T14:40:11.1Z</time></trkpt><trkpt lat="44.8419523" lon="7.5839647"><ele>246.33333333333331</ele><time>2026-05-03T14:40:12.095Z</time></trkpt><trkpt lat="44.8421261" lon="7.5839022"><ele>246.0</ele><time>2026-05-03T14:40:13.109Z</time></trkpt><trkpt lat="44.8423" lon="7.5838426"><ele>246.0</ele><time>2026-05-03T14:40:14.092Z</time></trkpt><trkpt lat="44.842474" lon="7.5837771"><ele>246.0</ele><time>2026-05-03T14:40:15.105Z</time></trkpt><trkpt lat="44.842651" lon="7.5837209"><ele>246.0</ele><time>2026-05-03T14:40:16.087Z</time></trkpt><trkpt lat="44.8428295" lon="7.5836639"><ele>246.0</ele><time>2026-05-03T14:40:17.09Z</time></trkpt><trkpt lat="44.8430028" lon="7.5836017"><ele>246.0</ele><time>2026-05-03T14:40:18.078Z</time></trkpt><trkpt lat="44.8431829" lon="7.5835364"><ele>246.0</ele><time>2026-05-03T14:40:19.091Z</time></trkpt><trkpt lat="44.8433627" lon="7.5834691"><ele>245.0</ele><time>2026-05-03T14:40:20.097Z</time></trkpt><trkpt lat="44.8435425" lon="7.5834018"><ele>244.0</ele><time>2026-05-03T14:40:21.093Z</time></trkpt><trkpt lat="44.843719" lon="7.5833346"><ele>243.0</ele><time>2026-05-03T14:40:22.115Z</time></trkpt><trkpt lat="44.8438983" lon="7.5832702"><ele>243.0</ele><time>2026-05-03T14:40:23.081Z</time></trkpt><trkpt lat="44.8440834" lon="7.5832054"><ele>243.0</ele><time>2026-05-03T14:40:24.098Z</time></trkpt><trkpt lat="44.8442677" lon="7.5831418"><ele>243.0</ele><time>2026-05-03T14:40:25.074Z</time></trkpt><trkpt lat="44.8444548" lon="7.5830755"><ele>243.33333333333331</ele><time>2026-05-03T14:40:26.079Z</time></trkpt><trkpt lat="44.8446382" lon="7.5830015"><ele>243.66666666666666</ele><time>2026-05-03T14:40:27.097Z</time></trkpt><trkpt lat="44.8448271" lon="7.5829337"><ele>244.0</ele><time>2026-05-03T14:40:28.103Z</time></trkpt><trkpt lat="44.845014" lon="7.5828679"><ele>244.33333333333331</ele><time>2026-05-03T14:40:29.086Z</time></trkpt><trkpt lat="44.8452008" lon="7.5828052"><ele>244.66666666666669</ele><time>2026-05-03T14:40:30.103Z</time></trkpt><trkpt lat="44.8453818" lon="7.5827379"><ele>245.0</ele><time>2026-05-03T14:40:31.088Z</time></trkpt><trkpt lat="44.8455652" lon="7.5826732"><ele>245.0</ele><time>2026-05-03T14:40:32.098Z</time></trkpt><trkpt lat="44.8457499" lon="7.5826088"><ele>245.0</ele><time>2026-05-03T14:40:33.104Z</time></trkpt><trkpt lat="44.8459312" lon="7.5825403"><ele>245.0</ele><time>2026-05-03T14:40:34.092Z</time></trkpt><trkpt lat="44.8461109" lon="7.5824732"><ele>245.0</ele><time>2026-05-03T14:40:35.094Z</time></trkpt><trkpt lat="44.8462922" lon="7.582404"><ele>245.0</ele><time>2026-05-03T14:40:36.088Z</time></trkpt><trkpt lat="44.8464723" lon="7.5823365"><ele>245.0</ele><time>2026-05-03T14:40:37.106Z</time></trkpt><trkpt lat="44.8466522" lon="7.5822719"><ele>244.66666666666669</ele><time>2026-05-03T14:40:38.098Z</time></trkpt><trkpt lat="44.8468333" lon="7.5822079"><ele>244.33333333333331</ele><time>2026-05-03T14:40:39.093Z</time></trkpt><trkpt lat="44.8470119" lon="7.5821446"><ele>244.0</ele><time>2026-05-03T14:40:40.101Z</time></trkpt><trkpt lat="44.8471907" lon="7.5820798"><ele>244.0</ele><time>2026-05-03T14:40:41.103Z</time></trkpt><trkpt lat="44.8473692" lon="7.582014"><ele>244.0</ele><time>2026-05-03T14:40:42.078Z</time></trkpt><trkpt lat="44.8475466" lon="7.5819451"><ele>244.0</ele><time>2026-05-03T14:40:43.095Z</time></trkpt><trkpt lat="44.8477219" lon="7.5818696"><ele>244.66666666666666</ele><time>2026-05-03T14:40:44.105Z</time></trkpt><trkpt lat="44.8478967" lon="7.581787"><ele>245.33333333333331</ele><time>2026-05-03T14:40:45.099Z</time></trkpt><trkpt lat="44.8480613" lon="7.5816868"><ele>246.0</ele><time>2026-05-03T14:40:46.108Z</time></trkpt><trkpt lat="44.8482105" lon="7.5815827"><ele>246.0</ele><time>2026-05-03T14:40:47.073Z</time></trkpt><trkpt lat="44.8483573" lon="7.5814619"><ele>246.0</ele><time>2026-05-03T14:40:48.078Z</time></trkpt><trkpt lat="44.8484989" lon="7.5813283"><ele>246.0</ele><time>2026-05-03T14:40:49.093Z</time></trkpt><trkpt lat="44.8486435" lon="7.5811826"><ele>246.0</ele><time>2026-05-03T14:40:50.09Z</time></trkpt><trkpt lat="44.8487877" lon="7.5810267"><ele>246.0</ele><time>2026-05-03T14:40:51.08Z</time></trkpt><trkpt lat="44.8489342" lon="7.5808643"><ele>246.0</ele><time>2026-05-03T14:40:52.093Z</time></trkpt><trkpt lat="44.8490873" lon="7.5806991"><ele>246.0</ele><time>2026-05-03T14:40:53.098Z</time></trkpt><trkpt lat="44.8492443" lon="7.5805367"><ele>246.0</ele><time>2026-05-03T14:40:54.098Z</time></trkpt><trkpt lat="44.8494035" lon="7.5803733"><ele>246.0</ele><time>2026-05-03T14:40:55.101Z</time></trkpt><trkpt lat="44.8495585" lon="7.5802141"><ele>245.66666666666669</ele><time>2026-05-03T14:40:56.098Z</time></trkpt><trkpt lat="44.8497098" lon="7.5800483"><ele>245.33333333333334</ele><time>2026-05-03T14:40:57.092Z</time></trkpt><trkpt lat="44.8498666" lon="7.579881"><ele>245.0</ele><time>2026-05-03T14:40:58.088Z</time></trkpt><trkpt lat="44.8500224" lon="7.5797104"><ele>245.0</ele><time>2026-05-03T14:40:59.093Z</time></trkpt><trkpt lat="44.8501839" lon="7.5795421"><ele>245.0</ele><time>2026-05-03T14:41:00.096Z</time></trkpt><trkpt lat="44.8503408" lon="7.5793718"><ele>245.0</ele><time>2026-05-03T14:41:01.093Z</time></trkpt><trkpt lat="44.8505014" lon="7.5791962"><ele>245.33333333333334</ele><time>2026-05-03T14:41:02.085Z</time></trkpt><trkpt lat="44.8506546" lon="7.5790333"><ele>245.66666666666669</ele><time>2026-05-03T14:41:03.086Z</time></trkpt><trkpt lat="44.8507976" lon="7.5788788"><ele>246.0</ele><time>2026-05-03T14:41:04.084Z</time></trkpt><trkpt lat="44.8509361" lon="7.5787347"><ele>246.0</ele><time>2026-05-03T14:41:05.11Z</time></trkpt><trkpt lat="44.851069" lon="7.5786009"><ele>246.0</ele><time>2026-05-03T14:41:06.092Z</time></trkpt><trkpt lat="44.8512089" lon="7.5784709"><ele>246.0</ele><time>2026-05-03T14:41:07.105Z</time></trkpt><trkpt lat="44.8513522" lon="7.5783496"><ele>246.0</ele><time>2026-05-03T14:41:08.104Z</time></trkpt><trkpt lat="44.8515007" lon="7.5782357"><ele>246.0</ele><time>2026-05-03T14:41:09.11Z</time></trkpt><trkpt lat="44.8516504" lon="7.5781207"><ele>246.0</ele><time>2026-05-03T14:41:10.092Z</time></trkpt><trkpt lat="44.8518045" lon="7.5780083"><ele>246.33333333333331</ele><time>2026-05-03T14:41:11.097Z</time></trkpt><trkpt lat="44.8519602" lon="7.5779018"><ele>246.66666666666666</ele><time>2026-05-03T14:41:12.091Z</time></trkpt><trkpt lat="44.8521161" lon="7.5777969"><ele>247.0</ele><time>2026-05-03T14:41:13.082Z</time></trkpt><trkpt lat="44.8522699" lon="7.5776938"><ele>246.33333333333331</ele><time>2026-05-03T14:41:14.095Z</time></trkpt><trkpt lat="44.8524247" lon="7.5775884"><ele>245.66666666666669</ele><time>2026-05-03T14:41:15.09Z</time></trkpt><trkpt lat="44.8525757" lon="7.5774877"><ele>245.0</ele><time>2026-05-03T14:41:16.095Z</time></trkpt><trkpt lat="44.8527278" lon="7.5773882"><ele>245.0</ele><time>2026-05-03T14:41:17.112Z</time></trkpt><trkpt lat="44.8528765" lon="7.5772888"><ele>245.0</ele><time>2026-05-03T14:41:18.101Z</time></trkpt><trkpt lat="44.8530239" lon="7.5771934"><ele>245.0</ele><time>2026-05-03T14:41:19.092Z</time></trkpt><trkpt lat="44.853174" lon="7.5770914"><ele>245.0</ele><time>2026-05-03T14:41:20.09Z</time></trkpt><trkpt lat="44.853325" lon="7.5769897"><ele>245.0</ele><time>2026-05-03T14:41:21.083Z</time></trkpt><trkpt lat="44.8534765" lon="7.5768885"><ele>245.0</ele><time>2026-05-03T14:41:22.094Z</time></trkpt><trkpt lat="44.853629" lon="7.5767857"><ele>245.0</ele><time>2026-05-03T14:41:23.089Z</time></trkpt><trkpt lat="44.8537808" lon="7.5766837"><ele>245.0</ele><time>2026-05-03T14:41:24.101Z</time></trkpt><trkpt lat="44.8539341" lon="7.5765851"><ele>245.0</ele><time>2026-05-03T14:41:25.092Z</time></trkpt><trkpt lat="44.8540881" lon="7.5764853"><ele>245.0</ele><time>2026-05-03T14:41:26.097Z</time></trkpt><trkpt lat="44.8542416" lon="7.5763823"><ele>245.0</ele><time>2026-05-03T14:41:27.104Z</time></trkpt><trkpt lat="44.8543977" lon="7.5762728"><ele>245.0</ele><time>2026-05-03T14:41:28.101Z</time></trkpt><trkpt lat="44.8545536" lon="7.576167"><ele>244.66666666666669</ele><time>2026-05-03T14:41:29.096Z</time></trkpt><trkpt lat="44.8547101" lon="7.5760579"><ele>244.33333333333331</ele><time>2026-05-03T14:41:30.1Z</time></trkpt><trkpt lat="44.8548696" lon="7.5759534"><ele>244.0</ele><time>2026-05-03T14:41:31.074Z</time></trkpt><trkpt lat="44.8550277" lon="7.5758493"><ele>244.33333333333331</ele><time>2026-05-03T14:41:32.089Z</time></trkpt><trkpt lat="44.8551879" lon="7.5757431"><ele>244.66666666666669</ele><time>2026-05-03T14:41:33.074Z</time></trkpt><trkpt lat="44.8553469" lon="7.5756388"><ele>245.0</ele><time>2026-05-03T14:41:34.088Z</time></trkpt><trkpt lat="44.8555057" lon="7.5755343"><ele>245.0</ele><time>2026-05-03T14:41:35.074Z</time></trkpt><trkpt lat="44.8556662" lon="7.5754305"><ele>245.0</ele><time>2026-05-03T14:41:36.098Z</time></trkpt><trkpt lat="44.8558245" lon="7.5753274"><ele>245.0</ele><time>2026-05-03T14:41:37.096Z</time></trkpt><trkpt lat="44.8559838" lon="7.5752253"><ele>245.33333333333334</ele><time>2026-05-03T14:41:38.097Z</time></trkpt><trkpt lat="44.8561472" lon="7.5751256"><ele>245.66666666666669</ele><time>2026-05-03T14:41:39.099Z</time></trkpt><trkpt lat="44.8563097" lon="7.5750275"><ele>246.0</ele><time>2026-05-03T14:41:40.078Z</time></trkpt><trkpt lat="44.8564772" lon="7.5749368"><ele>246.0</ele><time>2026-05-03T14:41:41.1Z</time></trkpt><trkpt lat="44.8566462" lon="7.5748562"><ele>246.0</ele><time>2026-05-03T14:41:42.095Z</time></trkpt><trkpt lat="44.8568176" lon="7.5747683"><ele>246.0</ele><time>2026-05-03T14:41:43.093Z</time></trkpt><trkpt lat="44.8569899" lon="7.5746878"><ele>246.33333333333331</ele><time>2026-05-03T14:41:44.104Z</time></trkpt><trkpt lat="44.8571642" lon="7.5746106"><ele>246.66666666666666</ele><time>2026-05-03T14:41:45.087Z</time></trkpt><trkpt lat="44.8573397" lon="7.5745424"><ele>247.0</ele><time>2026-05-03T14:41:46.099Z</time></trkpt><trkpt lat="44.8575076" lon="7.5744801"><ele>246.66666666666666</ele><time>2026-05-03T14:41:47.097Z</time></trkpt><trkpt lat="44.8576783" lon="7.5744293"><ele>246.33333333333331</ele><time>2026-05-03T14:41:48.101Z</time></trkpt><trkpt lat="44.8578499" lon="7.5743775"><ele>246.0</ele><time>2026-05-03T14:41:49.088Z</time></trkpt><trkpt lat="44.8580241" lon="7.5743295"><ele>246.0</ele><time>2026-05-03T14:41:50.087Z</time></trkpt><trkpt lat="44.858201" lon="7.5742904"><ele>246.0</ele><time>2026-05-03T14:41:51.096Z</time></trkpt><trkpt lat="44.8583702" lon="7.574249"><ele>246.0</ele><time>2026-05-03T14:41:52.098Z</time></trkpt><trkpt lat="44.8585286" lon="7.5742163"><ele>246.25</ele><time>2026-05-03T14:41:53.088Z</time></trkpt><trkpt lat="44.8586792" lon="7.5741802"><ele>246.5</ele><time>2026-05-03T14:41:54.085Z</time></trkpt><trkpt lat="44.858825" lon="7.5741481"><ele>246.75</ele><time>2026-05-03T14:41:55.089Z</time></trkpt><trkpt lat="44.858968" lon="7.574118"><ele>247.0</ele><time>2026-05-03T14:41:56.106Z</time></trkpt><trkpt lat="44.8591147" lon="7.5740843"><ele>247.0</ele><time>2026-05-03T14:41:57.085Z</time></trkpt><trkpt lat="44.8592648" lon="7.5740502"><ele>247.0</ele><time>2026-05-03T14:41:58.08Z</time></trkpt><trkpt lat="44.8594186" lon="7.5740113"><ele>247.0</ele><time>2026-05-03T14:41:59.092Z</time></trkpt><trkpt lat="44.8595727" lon="7.5739759"><ele>246.0</ele><time>2026-05-03T14:42:00.087Z</time></trkpt><trkpt lat="44.8597297" lon="7.5739456"><ele>245.0</ele><time>2026-05-03T14:42:01.083Z</time></trkpt><trkpt lat="44.8598878" lon="7.5739161"><ele>244.0</ele><time>2026-05-03T14:42:02.086Z</time></trkpt><trkpt lat="44.8600507" lon="7.573884"><ele>245.33333333333331</ele><time>2026-05-03T14:42:03.096Z</time></trkpt><trkpt lat="44.8602169" lon="7.5738497"><ele>246.66666666666669</ele><time>2026-05-03T14:42:04.086Z</time></trkpt><trkpt lat="44.8603818" lon="7.5738156"><ele>248.0</ele><time>2026-05-03T14:42:05.095Z</time></trkpt><trkpt lat="44.860549" lon="7.5737792"><ele>248.0</ele><time>2026-05-03T14:42:06.093Z</time></trkpt><trkpt lat="44.8607201" lon="7.5737455"><ele>248.0</ele><time>2026-05-03T14:42:07.07Z</time></trkpt><trkpt lat="44.8608936" lon="7.5737171"><ele>248.0</ele><time>2026-05-03T14:42:08.073Z</time></trkpt><trkpt lat="44.8610627" lon="7.5736821"><ele>247.66666666666669</ele><time>2026-05-03T14:42:09.099Z</time></trkpt><trkpt lat="44.8612246" lon="7.5736467"><ele>247.33333333333331</ele><time>2026-05-03T14:42:10.103Z</time></trkpt><trkpt lat="44.8613766" lon="7.5736107"><ele>247.0</ele><time>2026-05-03T14:42:11.104Z</time></trkpt><trkpt lat="44.8615227" lon="7.5735872"><ele>247.0</ele><time>2026-05-03T14:42:12.085Z</time></trkpt><trkpt lat="44.8616564" lon="7.5735539"><ele>247.0</ele><time>2026-05-03T14:42:13.092Z</time></trkpt><trkpt lat="44.8617863" lon="7.5735299"><ele>247.0</ele><time>2026-05-03T14:42:14.093Z</time></trkpt><trkpt lat="44.8619226" lon="7.5734954"><ele>247.0</ele><time>2026-05-03T14:42:15.082Z</time></trkpt><trkpt lat="44.8620585" lon="7.5734729"><ele>247.2</ele><time>2026-05-03T14:42:16.08Z</time></trkpt><trkpt lat="44.862181" lon="7.5734489"><ele>247.39999999999998</ele><time>2026-05-03T14:42:17.079Z</time></trkpt><trkpt lat="44.8622983" lon="7.5734293"><ele>247.60000000000002</ele><time>2026-05-03T14:42:18.085Z</time></trkpt><trkpt lat="44.8624035" lon="7.5734083"><ele>247.8</ele><time>2026-05-03T14:42:19.086Z</time></trkpt><trkpt lat="44.8624998" lon="7.5733905"><ele>248.0</ele><time>2026-05-03T14:42:20.087Z</time></trkpt><trkpt lat="44.862567" lon="7.5733818"><ele>248.2</ele><time>2026-05-03T14:42:21.089Z</time></trkpt><trkpt lat="44.8626431" lon="7.5733908"><ele>248.4</ele><time>2026-05-03T14:42:23.093Z</time></trkpt><trkpt lat="44.8627294" lon="7.5734633"><ele>248.59999999999997</ele><time>2026-05-03T14:42:27.118Z</time></trkpt><trkpt lat="44.862839" lon="7.5735414"><ele>248.79999999999998</ele><time>2026-05-03T14:42:29.078Z</time></trkpt><trkpt lat="44.8629421" lon="7.5735171"><ele>249.0</ele><time>2026-05-03T14:42:31.092Z</time></trkpt><trkpt lat="44.8630245" lon="7.5733678"><ele>249.0</ele><time>2026-05-03T14:42:33.096Z</time></trkpt><trkpt lat="44.8630808" lon="7.5732863"><ele>248.99999999999997</ele><time>2026-05-03T14:42:34.082Z</time></trkpt><trkpt lat="44.8631601" lon="7.5732302"><ele>248.99999999999997</ele><time>2026-05-03T14:42:35.094Z</time></trkpt><trkpt lat="44.8632654" lon="7.5731738"><ele>249.0</ele><time>2026-05-03T14:42:36.084Z</time></trkpt><trkpt lat="44.8633661" lon="7.573102"><ele>249.0</ele><time>2026-05-03T14:42:37.096Z</time></trkpt><trkpt lat="44.8634682" lon="7.5730344"><ele>249.0</ele><time>2026-05-03T14:42:38.092Z</time></trkpt><trkpt lat="44.8635599" lon="7.5729678"><ele>248.99999999999997</ele><time>2026-05-03T14:42:39.085Z</time></trkpt><trkpt lat="44.8636437" lon="7.5729107"><ele>248.99999999999997</ele><time>2026-05-03T14:42:40.086Z</time></trkpt><trkpt lat="44.8637247" lon="7.5728452"><ele>249.0</ele><time>2026-05-03T14:42:41.105Z</time></trkpt><trkpt lat="44.863805" lon="7.5727815"><ele>249.0</ele><time>2026-05-03T14:42:42.1Z</time></trkpt><trkpt lat="44.863889" lon="7.572715"><ele>248.79999999999998</ele><time>2026-05-03T14:42:43.095Z</time></trkpt><trkpt lat="44.8639735" lon="7.5726427"><ele>248.59999999999997</ele><time>2026-05-03T14:42:44.101Z</time></trkpt><trkpt lat="44.8640644" lon="7.5725617"><ele>248.4</ele><time>2026-05-03T14:42:45.094Z</time></trkpt><trkpt lat="44.8641574" lon="7.5724879"><ele>248.2</ele><time>2026-05-03T14:42:46.103Z</time></trkpt><trkpt lat="44.8642503" lon="7.5724185"><ele>248.0</ele><time>2026-05-03T14:42:47.097Z</time></trkpt><trkpt lat="44.8643341" lon="7.5723629"><ele>248.00000000000003</ele><time>2026-05-03T14:42:48.102Z</time></trkpt><trkpt lat="44.864412" lon="7.5723042"><ele>248.0</ele><time>2026-05-03T14:42:49.089Z</time></trkpt><trkpt lat="44.8644801" lon="7.5722398"><ele>248.0</ele><time>2026-05-03T14:42:50.109Z</time></trkpt><trkpt lat="44.8645458" lon="7.5721765"><ele>248.0</ele><time>2026-05-03T14:42:51.074Z</time></trkpt><trkpt lat="44.8645984" lon="7.5721158"><ele>248.00000000000003</ele><time>2026-05-03T14:42:52.081Z</time></trkpt><trkpt lat="44.8646562" lon="7.5720548"><ele>248.0</ele><time>2026-05-03T14:42:53.089Z</time></trkpt><trkpt lat="44.864718" lon="7.5719879"><ele>248.0</ele><time>2026-05-03T14:42:54.096Z</time></trkpt><trkpt lat="44.8647847" lon="7.5719081"><ele>248.0</ele><time>2026-05-03T14:42:55.1Z</time></trkpt><trkpt lat="44.8648554" lon="7.5718207"><ele>248.0</ele><time>2026-05-03T14:42:56.112Z</time></trkpt><trkpt lat="44.8649317" lon="7.5717251"><ele>248.0</ele><time>2026-05-03T14:42:57.109Z</time></trkpt><trkpt lat="44.8650159" lon="7.5716303"><ele>248.0</ele><time>2026-05-03T14:42:58.089Z</time></trkpt><trkpt lat="44.8650959" lon="7.5715109"><ele>248.0</ele><time>2026-05-03T14:42:59.084Z</time></trkpt><trkpt lat="44.8651738" lon="7.5713966"><ele>248.0</ele><time>2026-05-03T14:43:00.089Z</time></trkpt><trkpt lat="44.865245" lon="7.5712923"><ele>248.0</ele><time>2026-05-03T14:43:01.1Z</time></trkpt><trkpt lat="44.8653037" lon="7.5711882"><ele>248.0</ele><time>2026-05-03T14:43:02.088Z</time></trkpt><trkpt lat="44.8653586" lon="7.5710841"><ele>248.0</ele><time>2026-05-03T14:43:03.094Z</time></trkpt><trkpt lat="44.8654035" lon="7.5709817"><ele>248.00000000000003</ele><time>2026-05-03T14:43:04.087Z</time></trkpt><trkpt lat="44.865425" lon="7.5708833"><ele>248.0</ele><time>2026-05-03T14:43:05.083Z</time></trkpt><trkpt lat="44.865426" lon="7.5707808"><ele>248.0</ele><time>2026-05-03T14:43:06.091Z</time></trkpt><trkpt lat="44.8653967" lon="7.5706935"><ele>248.0</ele><time>2026-05-03T14:43:07.134Z</time></trkpt><trkpt lat="44.8653569" lon="7.5705919"><ele>248.00000000000003</ele><time>2026-05-03T14:43:08.095Z</time></trkpt><trkpt lat="44.8652826" lon="7.5704823"><ele>248.0</ele><time>2026-05-03T14:43:09.118Z</time></trkpt><trkpt lat="44.8652069" lon="7.5703784"><ele>248.0</ele><time>2026-05-03T14:43:10.086Z</time></trkpt><trkpt lat="44.8651236" lon="7.5702896"><ele>248.0</ele><time>2026-05-03T14:43:11.09Z</time></trkpt><trkpt lat="44.8650532" lon="7.5702029"><ele>248.0</ele><time>2026-05-03T14:43:12.101Z</time></trkpt><trkpt lat="44.8649894" lon="7.570123"><ele>248.0</ele><time>2026-05-03T14:43:13.091Z</time></trkpt><trkpt lat="44.8649276" lon="7.5700253"><ele>248.0</ele><time>2026-05-03T14:43:14.085Z</time></trkpt><trkpt lat="44.864856" lon="7.5699135"><ele>248.0</ele><time>2026-05-03T14:43:15.084Z</time></trkpt><trkpt lat="44.8647957" lon="7.5697761"><ele>248.0</ele><time>2026-05-03T14:43:16.085Z</time></trkpt><trkpt lat="44.8647426" lon="7.5696334"><ele>248.0</ele><time>2026-05-03T14:43:17.091Z</time></trkpt><trkpt lat="44.8647093" lon="7.5694803"><ele>248.0</ele><time>2026-05-03T14:43:18.084Z</time></trkpt><trkpt lat="44.8646915" lon="7.5693388"><ele>248.0</ele><time>2026-05-03T14:43:19.085Z</time></trkpt><trkpt lat="44.8646812" lon="7.569213"><ele>248.0</ele><time>2026-05-03T14:43:20.09Z</time></trkpt><trkpt lat="44.8646757" lon="7.5691056"><ele>248.0</ele><time>2026-05-03T14:43:21.092Z</time></trkpt><trkpt lat="44.8646763" lon="7.5689246"><ele>248.0</ele><time>2026-05-03T14:43:23.084Z</time></trkpt><trkpt lat="44.8647094" lon="7.5687657"><ele>248.0</ele><time>2026-05-03T14:43:25.088Z</time></trkpt><trkpt lat="44.8648011" lon="7.568692"><ele>248.0</ele><time>2026-05-03T14:43:27.1Z</time></trkpt><trkpt lat="44.8648664" lon="7.5686556"><ele>248.0</ele><time>2026-05-03T14:43:28.115Z</time></trkpt><trkpt lat="44.8649379" lon="7.5686059"><ele>248.0</ele><time>2026-05-03T14:43:29.101Z</time></trkpt><trkpt lat="44.8650091" lon="7.5685519"><ele>248.0</ele><time>2026-05-03T14:43:30.071Z</time></trkpt><trkpt lat="44.8650986" lon="7.5684947"><ele>248.0</ele><time>2026-05-03T14:43:31.085Z</time></trkpt><trkpt lat="44.8651881" lon="7.5684317"><ele>248.0</ele><time>2026-05-03T14:43:32.092Z</time></trkpt><trkpt lat="44.865274" lon="7.5683725"><ele>248.25</ele><time>2026-05-03T14:43:33.095Z</time></trkpt><trkpt lat="44.8653468" lon="7.5683095"><ele>248.5</ele><time>2026-05-03T14:43:34.091Z</time></trkpt><trkpt lat="44.8654236" lon="7.568249"><ele>248.75</ele><time>2026-05-03T14:43:35.081Z</time></trkpt><trkpt lat="44.8655862" lon="7.56811"><ele>249.0</ele><time>2026-05-03T14:43:37.078Z</time></trkpt><trkpt lat="44.8656665" lon="7.5680445"><ele>249.0</ele><time>2026-05-03T14:43:38.1Z</time></trkpt><trkpt lat="44.8657479" lon="7.5679841"><ele>248.99999999999997</ele><time>2026-05-03T14:43:39.104Z</time></trkpt><trkpt lat="44.8658275" lon="7.5679312"><ele>248.99999999999997</ele><time>2026-05-03T14:43:40.1Z</time></trkpt><trkpt lat="44.8659108" lon="7.5678737"><ele>249.0</ele><time>2026-05-03T14:43:41.121Z</time></trkpt><trkpt lat="44.8660069" lon="7.5678111"><ele>249.0</ele><time>2026-05-03T14:43:42.093Z</time></trkpt><trkpt lat="44.8661021" lon="7.5677481"><ele>248.39999999999998</ele><time>2026-05-03T14:43:43.109Z</time></trkpt><trkpt lat="44.8661958" lon="7.5676817"><ele>247.79999999999998</ele><time>2026-05-03T14:43:44.094Z</time></trkpt><trkpt lat="44.8663032" lon="7.567631"><ele>247.20000000000002</ele><time>2026-05-03T14:43:45.095Z</time></trkpt><trkpt lat="44.8664164" lon="7.5676004"><ele>246.60000000000002</ele><time>2026-05-03T14:43:46.184Z</time></trkpt><trkpt lat="44.8665241" lon="7.5675753"><ele>246.0</ele><time>2026-05-03T14:43:47.143Z</time></trkpt><trkpt lat="44.8666225" lon="7.5675684"><ele>246.0</ele><time>2026-05-03T14:43:48.152Z</time></trkpt><trkpt lat="44.8667103" lon="7.5675745"><ele>246.0</ele><time>2026-05-03T14:43:49.13Z</time></trkpt><trkpt lat="44.8668041" lon="7.5675886"><ele>246.0</ele><time>2026-05-03T14:43:50.153Z</time></trkpt><trkpt lat="44.8668982" lon="7.5675906"><ele>246.0</ele><time>2026-05-03T14:43:51.145Z</time></trkpt><trkpt lat="44.8669831" lon="7.5675946"><ele>246.0</ele><time>2026-05-03T14:43:52.139Z</time></trkpt><trkpt lat="44.8670615" lon="7.5675994"><ele>246.0</ele><time>2026-05-03T14:43:53.141Z</time></trkpt><trkpt lat="44.8671337" lon="7.5675973"><ele>245.5</ele><time>2026-05-03T14:43:54.152Z</time></trkpt><trkpt lat="44.8672068" lon="7.5676026"><ele>245.0</ele><time>2026-05-03T14:43:55.146Z</time></trkpt><trkpt lat="44.8672874" lon="7.5676283"><ele>244.5</ele><time>2026-05-03T14:43:56.141Z</time></trkpt><trkpt lat="44.8673715" lon="7.5676636"><ele>244.0</ele><time>2026-05-03T14:43:57.138Z</time></trkpt><trkpt lat="44.867461" lon="7.567692"><ele>243.5</ele><time>2026-05-03T14:43:58.135Z</time></trkpt><trkpt lat="44.8675496" lon="7.5676724"><ele>243.0</ele><time>2026-05-03T14:43:59.125Z</time></trkpt><trkpt lat="44.86763" lon="7.5676426"><ele>242.25</ele><time>2026-05-03T14:44:00.127Z</time></trkpt><trkpt lat="44.8677228" lon="7.567618"><ele>241.5</ele><time>2026-05-03T14:44:01.132Z</time></trkpt><trkpt lat="44.8678406" lon="7.567607"><ele>240.75</ele><time>2026-05-03T14:44:02.144Z</time></trkpt><trkpt lat="44.8679695" lon="7.5676114"><ele>240.0</ele><time>2026-05-03T14:44:03.156Z</time></trkpt><trkpt lat="44.8681076" lon="7.5676238"><ele>240.0</ele><time>2026-05-03T14:44:04.143Z</time></trkpt><trkpt lat="44.868258" lon="7.5676357"><ele>240.0</ele><time>2026-05-03T14:44:05.126Z</time></trkpt><trkpt lat="44.8684337" lon="7.5676588"><ele>240.0</ele><time>2026-05-03T14:44:06.139Z</time></trkpt><trkpt lat="44.8686214" lon="7.5676873"><ele>241.33333333333331</ele><time>2026-05-03T14:44:07.131Z</time></trkpt><trkpt lat="44.8688261" lon="7.5677185"><ele>242.66666666666666</ele><time>2026-05-03T14:44:08.144Z</time></trkpt><trkpt lat="44.8690417" lon="7.567744"><ele>244.0</ele><time>2026-05-03T14:44:09.141Z</time></trkpt><trkpt lat="44.8692562" lon="7.5677626"><ele>244.33333333333331</ele><time>2026-05-03T14:44:10.144Z</time></trkpt><trkpt lat="44.8694703" lon="7.5677778"><ele>244.66666666666669</ele><time>2026-05-03T14:44:11.137Z</time></trkpt><trkpt lat="44.8696794" lon="7.5677975"><ele>245.0</ele><time>2026-05-03T14:44:12.16Z</time></trkpt><trkpt lat="44.8698876" lon="7.5678157"><ele>245.0</ele><time>2026-05-03T14:44:13.161Z</time></trkpt><trkpt lat="44.8700896" lon="7.5678281"><ele>245.0</ele><time>2026-05-03T14:44:14.169Z</time></trkpt><trkpt lat="44.8702864" lon="7.5678439"><ele>245.0</ele><time>2026-05-03T14:44:15.152Z</time></trkpt><trkpt lat="44.8704693" lon="7.5678256"><ele>244.33333333333334</ele><time>2026-05-03T14:44:16.146Z</time></trkpt><trkpt lat="44.8706653" lon="7.5678398"><ele>243.66666666666669</ele><time>2026-05-03T14:44:17.151Z</time></trkpt><trkpt lat="44.8708606" lon="7.5678558"><ele>243.0</ele><time>2026-05-03T14:44:18.149Z</time></trkpt><trkpt lat="44.8710555" lon="7.5678727"><ele>242.66666666666669</ele><time>2026-05-03T14:44:19.16Z</time></trkpt><trkpt lat="44.8712512" lon="7.5678911"><ele>242.33333333333334</ele><time>2026-05-03T14:44:20.158Z</time></trkpt><trkpt lat="44.8714505" lon="7.5679067"><ele>242.0</ele><time>2026-05-03T14:44:21.163Z</time></trkpt><trkpt lat="44.8716498" lon="7.5679231"><ele>243.33333333333334</ele><time>2026-05-03T14:44:22.168Z</time></trkpt><trkpt lat="44.8718511" lon="7.5679359"><ele>244.66666666666669</ele><time>2026-05-03T14:44:23.146Z</time></trkpt><trkpt lat="44.8720515" lon="7.5679511"><ele>246.0</ele><time>2026-05-03T14:44:24.167Z</time></trkpt><trkpt lat="44.8722521" lon="7.5679609"><ele>246.0</ele><time>2026-05-03T14:44:25.144Z</time></trkpt><trkpt lat="44.8724501" lon="7.5679765"><ele>246.0</ele><time>2026-05-03T14:44:26.147Z</time></trkpt><trkpt lat="44.8726504" lon="7.5679852"><ele>246.0</ele><time>2026-05-03T14:44:27.162Z</time></trkpt><trkpt lat="44.8728477" lon="7.5680027"><ele>245.66666666666669</ele><time>2026-05-03T14:44:28.161Z</time></trkpt><trkpt lat="44.8730466" lon="7.5680157"><ele>245.33333333333334</ele><time>2026-05-03T14:44:29.158Z</time></trkpt><trkpt lat="44.8732447" lon="7.5680348"><ele>245.0</ele><time>2026-05-03T14:44:30.157Z</time></trkpt><trkpt lat="44.8734431" lon="7.5680431"><ele>245.0</ele><time>2026-05-03T14:44:31.161Z</time></trkpt><trkpt lat="44.8736418" lon="7.5680595"><ele>245.0</ele><time>2026-05-03T14:44:32.152Z</time></trkpt><trkpt lat="44.8738404" lon="7.5680667"><ele>245.0</ele><time>2026-05-03T14:44:33.15Z</time></trkpt><trkpt lat="44.8740405" lon="7.56809"><ele>245.0</ele><time>2026-05-03T14:44:34.154Z</time></trkpt><trkpt lat="44.8742415" lon="7.5680981"><ele>245.0</ele><time>2026-05-03T14:44:35.15Z</time></trkpt><trkpt lat="44.8744434" lon="7.5681168"><ele>245.0</ele><time>2026-05-03T14:44:36.155Z</time></trkpt><trkpt lat="44.8746454" lon="7.5681221"><ele>244.66666666666669</ele><time>2026-05-03T14:44:37.128Z</time></trkpt><trkpt lat="44.874847" lon="7.5681367"><ele>244.33333333333331</ele><time>2026-05-03T14:44:38.135Z</time></trkpt><trkpt lat="44.8750515" lon="7.5681419"><ele>244.0</ele><time>2026-05-03T14:44:39.148Z</time></trkpt><trkpt lat="44.8752567" lon="7.5681559"><ele>244.0</ele><time>2026-05-03T14:44:40.155Z</time></trkpt><trkpt lat="44.8754651" lon="7.5681649"><ele>244.0</ele><time>2026-05-03T14:44:41.157Z</time></trkpt><trkpt lat="44.8756626" lon="7.5681756"><ele>244.0</ele><time>2026-05-03T14:44:42.152Z</time></trkpt><trkpt lat="44.8758484" lon="7.5681883"><ele>244.33333333333331</ele><time>2026-05-03T14:44:43.167Z</time></trkpt><trkpt lat="44.8760252" lon="7.5682003"><ele>244.66666666666669</ele><time>2026-05-03T14:44:44.157Z</time></trkpt><trkpt lat="44.876207" lon="7.5682154"><ele>245.0</ele><time>2026-05-03T14:44:45.159Z</time></trkpt><trkpt lat="44.8763822" lon="7.568231"><ele>245.0</ele><time>2026-05-03T14:44:46.125Z</time></trkpt><trkpt lat="44.8765626" lon="7.5682465"><ele>245.0</ele><time>2026-05-03T14:44:47.158Z</time></trkpt><trkpt lat="44.876745" lon="7.5682581"><ele>245.0</ele><time>2026-05-03T14:44:48.15Z</time></trkpt><trkpt lat="44.8769242" lon="7.5682669"><ele>244.66666666666669</ele><time>2026-05-03T14:44:49.164Z</time></trkpt><trkpt lat="44.8771021" lon="7.5682822"><ele>244.33333333333331</ele><time>2026-05-03T14:44:50.152Z</time></trkpt><trkpt lat="44.8772767" lon="7.5682982"><ele>244.0</ele><time>2026-05-03T14:44:51.183Z</time></trkpt><trkpt lat="44.8774509" lon="7.5683157"><ele>243.66666666666666</ele><time>2026-05-03T14:44:52.157Z</time></trkpt><trkpt lat="44.8776296" lon="7.5683317"><ele>243.33333333333331</ele><time>2026-05-03T14:44:53.146Z</time></trkpt><trkpt lat="44.8778086" lon="7.5683466"><ele>243.0</ele><time>2026-05-03T14:44:54.153Z</time></trkpt><trkpt lat="44.8779896" lon="7.5683611"><ele>243.0</ele><time>2026-05-03T14:44:55.148Z</time></trkpt><trkpt lat="44.8781722" lon="7.5683765"><ele>243.0</ele><time>2026-05-03T14:44:56.179Z</time></trkpt><trkpt lat="44.8783545" lon="7.5683904"><ele>243.0</ele><time>2026-05-03T14:44:57.16Z</time></trkpt><trkpt lat="44.8785407" lon="7.5684043"><ele>243.33333333333331</ele><time>2026-05-03T14:44:58.157Z</time></trkpt><trkpt lat="44.8787279" lon="7.5684158"><ele>243.66666666666666</ele><time>2026-05-03T14:44:59.139Z</time></trkpt><trkpt lat="44.8789146" lon="7.5684263"><ele>244.0</ele><time>2026-05-03T14:45:00.177Z</time></trkpt><trkpt lat="44.8791039" lon="7.5684421"><ele>244.0</ele><time>2026-05-03T14:45:01.145Z</time></trkpt><trkpt lat="44.8792949" lon="7.5684558"><ele>244.0</ele><time>2026-05-03T14:45:02.16Z</time></trkpt><trkpt lat="44.8794855" lon="7.5684673"><ele>244.0</ele><time>2026-05-03T14:45:03.159Z</time></trkpt><trkpt lat="44.879677" lon="7.56848"><ele>244.0</ele><time>2026-05-03T14:45:04.161Z</time></trkpt><trkpt lat="44.8798688" lon="7.5684953"><ele>244.0</ele><time>2026-05-03T14:45:05.159Z</time></trkpt><trkpt lat="44.880061" lon="7.568511"><ele>244.0</ele><time>2026-05-03T14:45:06.148Z</time></trkpt><trkpt lat="44.8802539" lon="7.5685289"><ele>243.66666666666666</ele><time>2026-05-03T14:45:07.173Z</time></trkpt><trkpt lat="44.8804493" lon="7.5685467"><ele>243.33333333333331</ele><time>2026-05-03T14:45:08.155Z</time></trkpt><trkpt lat="44.8806466" lon="7.5685582"><ele>243.0</ele><time>2026-05-03T14:45:09.17Z</time></trkpt><trkpt lat="44.8808435" lon="7.5685748"><ele>243.66666666666669</ele><time>2026-05-03T14:45:10.171Z</time></trkpt><trkpt lat="44.8810421" lon="7.568588"><ele>244.33333333333334</ele><time>2026-05-03T14:45:11.168Z</time></trkpt><trkpt lat="44.8812381" lon="7.5686084"><ele>245.0</ele><time>2026-05-03T14:45:12.161Z</time></trkpt><trkpt lat="44.8814376" lon="7.5686211"><ele>245.0</ele><time>2026-05-03T14:45:13.154Z</time></trkpt><trkpt lat="44.8816346" lon="7.5686403"><ele>245.0</ele><time>2026-05-03T14:45:14.156Z</time></trkpt><trkpt lat="44.8818392" lon="7.5686476"><ele>245.0</ele><time>2026-05-03T14:45:15.155Z</time></trkpt><trkpt lat="44.8820417" lon="7.5686638"><ele>245.0</ele><time>2026-05-03T14:45:16.162Z</time></trkpt><trkpt lat="44.8822462" lon="7.5686723"><ele>245.0</ele><time>2026-05-03T14:45:17.161Z</time></trkpt><trkpt lat="44.8824516" lon="7.5686943"><ele>245.0</ele><time>2026-05-03T14:45:18.149Z</time></trkpt><trkpt lat="44.8826612" lon="7.5687222"><ele>244.66666666666669</ele><time>2026-05-03T14:45:19.156Z</time></trkpt><trkpt lat="44.8828692" lon="7.5687394"><ele>244.33333333333331</ele><time>2026-05-03T14:45:20.166Z</time></trkpt><trkpt lat="44.8830616" lon="7.568735"><ele>244.0</ele><time>2026-05-03T14:45:21.147Z</time></trkpt><trkpt lat="44.8832515" lon="7.5687433"><ele>244.0</ele><time>2026-05-03T14:45:22.149Z</time></trkpt><trkpt lat="44.8834286" lon="7.5687599"><ele>244.0</ele><time>2026-05-03T14:45:23.145Z</time></trkpt><trkpt lat="44.8836054" lon="7.5687723"><ele>244.0</ele><time>2026-05-03T14:45:24.144Z</time></trkpt><trkpt lat="44.8837818" lon="7.568782"><ele>244.0</ele><time>2026-05-03T14:45:25.149Z</time></trkpt><trkpt lat="44.8839619" lon="7.5687938"><ele>244.0</ele><time>2026-05-03T14:45:26.152Z</time></trkpt><trkpt lat="44.884145" lon="7.5687997"><ele>244.0</ele><time>2026-05-03T14:45:27.153Z</time></trkpt><trkpt lat="44.884329" lon="7.5687964"><ele>244.0</ele><time>2026-05-03T14:45:28.155Z</time></trkpt><trkpt lat="44.8845149" lon="7.5687854"><ele>244.0</ele><time>2026-05-03T14:45:29.145Z</time></trkpt><trkpt lat="44.8847006" lon="7.5687578"><ele>244.0</ele><time>2026-05-03T14:45:30.162Z</time></trkpt><trkpt lat="44.8848889" lon="7.5687211"><ele>244.0</ele><time>2026-05-03T14:45:31.161Z</time></trkpt><trkpt lat="44.8850766" lon="7.5686805"><ele>244.0</ele><time>2026-05-03T14:45:32.153Z</time></trkpt><trkpt lat="44.885267" lon="7.5686382"><ele>244.0</ele><time>2026-05-03T14:45:33.153Z</time></trkpt><trkpt lat="44.8854578" lon="7.5685929"><ele>244.0</ele><time>2026-05-03T14:45:34.161Z</time></trkpt><trkpt lat="44.8856423" lon="7.5685437"><ele>244.0</ele><time>2026-05-03T14:45:35.137Z</time></trkpt><trkpt lat="44.8858236" lon="7.5685011"><ele>244.0</ele><time>2026-05-03T14:45:36.153Z</time></trkpt><trkpt lat="44.8860043" lon="7.568456"><ele>243.66666666666666</ele><time>2026-05-03T14:45:37.151Z</time></trkpt><trkpt lat="44.8861885" lon="7.5684095"><ele>243.33333333333331</ele><time>2026-05-03T14:45:38.133Z</time></trkpt><trkpt lat="44.8863791" lon="7.5683588"><ele>243.0</ele><time>2026-05-03T14:45:39.159Z</time></trkpt><trkpt lat="44.886576" lon="7.5683123"><ele>243.0</ele><time>2026-05-03T14:45:40.145Z</time></trkpt><trkpt lat="44.8867681" lon="7.5682599"><ele>243.0</ele><time>2026-05-03T14:45:41.158Z</time></trkpt><trkpt lat="44.8869645" lon="7.5682141"><ele>243.0</ele><time>2026-05-03T14:45:42.139Z</time></trkpt><trkpt lat="44.8871621" lon="7.5681644"><ele>243.0</ele><time>2026-05-03T14:45:43.147Z</time></trkpt><trkpt lat="44.8873559" lon="7.5681171"><ele>243.0</ele><time>2026-05-03T14:45:44.154Z</time></trkpt><trkpt lat="44.8875544" lon="7.5680685"><ele>243.0</ele><time>2026-05-03T14:45:45.155Z</time></trkpt><trkpt lat="44.8877515" lon="7.5680243"><ele>243.0</ele><time>2026-05-03T14:45:46.159Z</time></trkpt><trkpt lat="44.8879492" lon="7.5679706"><ele>243.0</ele><time>2026-05-03T14:45:47.167Z</time></trkpt><trkpt lat="44.8881484" lon="7.5679257"><ele>243.0</ele><time>2026-05-03T14:45:48.156Z</time></trkpt><trkpt lat="44.8883417" lon="7.5678743"><ele>243.66666666666669</ele><time>2026-05-03T14:45:49.142Z</time></trkpt><trkpt lat="44.8885329" lon="7.5678302"><ele>244.33333333333334</ele><time>2026-05-03T14:45:50.154Z</time></trkpt><trkpt lat="44.8887126" lon="7.5677806"><ele>245.0</ele><time>2026-05-03T14:45:51.15Z</time></trkpt><trkpt lat="44.8888887" lon="7.5677344"><ele>245.0</ele><time>2026-05-03T14:45:52.154Z</time></trkpt><trkpt lat="44.88906" lon="7.5676897"><ele>245.0</ele><time>2026-05-03T14:45:53.146Z</time></trkpt><trkpt lat="44.8892328" lon="7.5676423"><ele>245.0</ele><time>2026-05-03T14:45:54.146Z</time></trkpt><trkpt lat="44.8894082" lon="7.5675964"><ele>245.0</ele><time>2026-05-03T14:45:55.146Z</time></trkpt><trkpt lat="44.8895879" lon="7.5675464"><ele>245.0</ele><time>2026-05-03T14:45:56.147Z</time></trkpt><trkpt lat="44.8897718" lon="7.5674966"><ele>245.0</ele><time>2026-05-03T14:45:57.154Z</time></trkpt><trkpt lat="44.8899615" lon="7.5674359"><ele>244.66666666666669</ele><time>2026-05-03T14:45:58.153Z</time></trkpt><trkpt lat="44.8901546" lon="7.567368"><ele>244.33333333333331</ele><time>2026-05-03T14:45:59.159Z</time></trkpt><trkpt lat="44.8903462" lon="7.5672935"><ele>244.0</ele><time>2026-05-03T14:46:00.154Z</time></trkpt><trkpt lat="44.8905375" lon="7.5672081"><ele>244.0</ele><time>2026-05-03T14:46:01.158Z</time></trkpt><trkpt lat="44.8907253" lon="7.5671175"><ele>244.0</ele><time>2026-05-03T14:46:02.142Z</time></trkpt><trkpt lat="44.8909082" lon="7.567022"><ele>244.0</ele><time>2026-05-03T14:46:03.142Z</time></trkpt><trkpt lat="44.8910833" lon="7.5669207"><ele>243.33333333333331</ele><time>2026-05-03T14:46:04.171Z</time></trkpt><trkpt lat="44.8912488" lon="7.566815"><ele>242.66666666666669</ele><time>2026-05-03T14:46:05.146Z</time></trkpt><trkpt lat="44.8914169" lon="7.5667014"><ele>242.0</ele><time>2026-05-03T14:46:06.166Z</time></trkpt><trkpt lat="44.8915817" lon="7.5665737"><ele>242.0</ele><time>2026-05-03T14:46:07.161Z</time></trkpt><trkpt lat="44.891746" lon="7.566437"><ele>242.0</ele><time>2026-05-03T14:46:08.158Z</time></trkpt><trkpt lat="44.8919122" lon="7.5663011"><ele>242.0</ele><time>2026-05-03T14:46:09.136Z</time></trkpt><trkpt lat="44.8920783" lon="7.5661646"><ele>242.66666666666669</ele><time>2026-05-03T14:46:10.151Z</time></trkpt><trkpt lat="44.8922442" lon="7.5660294"><ele>243.33333333333331</ele><time>2026-05-03T14:46:11.145Z</time></trkpt><trkpt lat="44.8924061" lon="7.5658869"><ele>244.0</ele><time>2026-05-03T14:46:12.156Z</time></trkpt><trkpt lat="44.8925631" lon="7.5657316"><ele>244.0</ele><time>2026-05-03T14:46:13.149Z</time></trkpt><trkpt lat="44.892715" lon="7.5655672"><ele>244.0</ele><time>2026-05-03T14:46:14.154Z</time></trkpt><trkpt lat="44.8928583" lon="7.5653825"><ele>244.0</ele><time>2026-05-03T14:46:15.142Z</time></trkpt><trkpt lat="44.8929937" lon="7.5651802"><ele>244.0</ele><time>2026-05-03T14:46:16.149Z</time></trkpt><trkpt lat="44.8931332" lon="7.5649866"><ele>244.0</ele><time>2026-05-03T14:46:17.166Z</time></trkpt><trkpt lat="44.8932694" lon="7.5647891"><ele>244.0</ele><time>2026-05-03T14:46:18.157Z</time></trkpt><trkpt lat="44.8934039" lon="7.5645852"><ele>243.33333333333331</ele><time>2026-05-03T14:46:19.17Z</time></trkpt><trkpt lat="44.8935374" lon="7.5643804"><ele>242.66666666666669</ele><time>2026-05-03T14:46:20.149Z</time></trkpt><trkpt lat="44.8936754" lon="7.5641787"><ele>242.0</ele><time>2026-05-03T14:46:21.153Z</time></trkpt><trkpt lat="44.8938145" lon="7.5639775"><ele>242.0</ele><time>2026-05-03T14:46:22.159Z</time></trkpt><trkpt lat="44.8939554" lon="7.5637765"><ele>242.0</ele><time>2026-05-03T14:46:23.155Z</time></trkpt><trkpt lat="44.8940976" lon="7.5635727"><ele>242.0</ele><time>2026-05-03T14:46:24.161Z</time></trkpt><trkpt lat="44.8942476" lon="7.5633742"><ele>242.66666666666669</ele><time>2026-05-03T14:46:25.148Z</time></trkpt><trkpt lat="44.8944024" lon="7.5631835"><ele>243.33333333333331</ele><time>2026-05-03T14:46:26.148Z</time></trkpt><trkpt lat="44.8945506" lon="7.5630056"><ele>244.0</ele><time>2026-05-03T14:46:27.148Z</time></trkpt><trkpt lat="44.8946955" lon="7.5628475"><ele>244.0</ele><time>2026-05-03T14:46:28.147Z</time></trkpt><trkpt lat="44.8948315" lon="7.5627034"><ele>244.0</ele><time>2026-05-03T14:46:29.147Z</time></trkpt><trkpt lat="44.8949578" lon="7.5625765"><ele>244.0</ele><time>2026-05-03T14:46:30.152Z</time></trkpt><trkpt lat="44.8950781" lon="7.5624636"><ele>243.75</ele><time>2026-05-03T14:46:31.138Z</time></trkpt><trkpt lat="44.8951941" lon="7.5623601"><ele>243.5</ele><time>2026-05-03T14:46:32.141Z</time></trkpt><trkpt lat="44.8952983" lon="7.56227"><ele>243.25</ele><time>2026-05-03T14:46:33.148Z</time></trkpt><trkpt lat="44.8953942" lon="7.5621926"><ele>243.0</ele><time>2026-05-03T14:46:34.133Z</time></trkpt><trkpt lat="44.8954857" lon="7.562126"><ele>243.0</ele><time>2026-05-03T14:46:35.139Z</time></trkpt><trkpt lat="44.8955726" lon="7.5620713"><ele>243.0</ele><time>2026-05-03T14:46:36.132Z</time></trkpt><trkpt lat="44.8956564" lon="7.5620338"><ele>243.0</ele><time>2026-05-03T14:46:37.149Z</time></trkpt><trkpt lat="44.8957365" lon="7.56202"><ele>243.0</ele><time>2026-05-03T14:46:38.171Z</time></trkpt><trkpt lat="44.8958141" lon="7.5620324"><ele>243.0</ele><time>2026-05-03T14:46:39.152Z</time></trkpt><trkpt lat="44.8958865" lon="7.5620365"><ele>243.0</ele><time>2026-05-03T14:46:40.133Z</time></trkpt><trkpt lat="44.8959657" lon="7.5619927"><ele>243.0</ele><time>2026-05-03T14:46:41.157Z</time></trkpt><trkpt lat="44.8960238" lon="7.5619253"><ele>243.0</ele><time>2026-05-03T14:46:42.152Z</time></trkpt><trkpt lat="44.8960736" lon="7.5618287"><ele>243.0</ele><time>2026-05-03T14:46:43.138Z</time></trkpt><trkpt lat="44.8961567" lon="7.5617358"><ele>243.0</ele><time>2026-05-03T14:46:44.149Z</time></trkpt><trkpt lat="44.8962496" lon="7.5616577"><ele>243.0</ele><time>2026-05-03T14:46:45.169Z</time></trkpt><trkpt lat="44.8963657" lon="7.5615833"><ele>243.0</ele><time>2026-05-03T14:46:46.153Z</time></trkpt><trkpt lat="44.8964886" lon="7.5615173"><ele>243.0</ele><time>2026-05-03T14:46:47.15Z</time></trkpt><trkpt lat="44.8966186" lon="7.5614578"><ele>243.0</ele><time>2026-05-03T14:46:48.154Z</time></trkpt><trkpt lat="44.8967611" lon="7.5613942"><ele>243.0</ele><time>2026-05-03T14:46:49.145Z</time></trkpt><trkpt lat="44.8968846" lon="7.5613358"><ele>243.25</ele><time>2026-05-03T14:46:50.163Z</time></trkpt><trkpt lat="44.8970069" lon="7.5612786"><ele>243.5</ele><time>2026-05-03T14:46:51.162Z</time></trkpt><trkpt lat="44.8971347" lon="7.5612217"><ele>243.75</ele><time>2026-05-03T14:46:52.168Z</time></trkpt><trkpt lat="44.8972647" lon="7.5611655"><ele>244.0</ele><time>2026-05-03T14:46:53.147Z</time></trkpt><trkpt lat="44.8973966" lon="7.5611054"><ele>244.0</ele><time>2026-05-03T14:46:54.15Z</time></trkpt><trkpt lat="44.8975337" lon="7.5610429"><ele>244.0</ele><time>2026-05-03T14:46:55.14Z</time></trkpt><trkpt lat="44.8976702" lon="7.5609754"><ele>244.0</ele><time>2026-05-03T14:46:56.141Z</time></trkpt><trkpt lat="44.8978102" lon="7.5609061"><ele>244.0</ele><time>2026-05-03T14:46:57.146Z</time></trkpt><trkpt lat="44.8979525" lon="7.5608356"><ele>243.66666666666666</ele><time>2026-05-03T14:46:58.166Z</time></trkpt><trkpt lat="44.8980999" lon="7.5607684"><ele>243.33333333333331</ele><time>2026-05-03T14:46:59.169Z</time></trkpt><trkpt lat="44.8982474" lon="7.5607035"><ele>243.0</ele><time>2026-05-03T14:47:00.153Z</time></trkpt><trkpt lat="44.8983962" lon="7.5606399"><ele>243.25</ele><time>2026-05-03T14:47:01.16Z</time></trkpt><trkpt lat="44.8985412" lon="7.5605818"><ele>243.5</ele><time>2026-05-03T14:47:02.15Z</time></trkpt><trkpt lat="44.8986819" lon="7.5605228"><ele>243.75</ele><time>2026-05-03T14:47:03.146Z</time></trkpt><trkpt lat="44.8988212" lon="7.5604623"><ele>244.0</ele><time>2026-05-03T14:47:04.13Z</time></trkpt><trkpt lat="44.8989564" lon="7.5604006"><ele>244.0</ele><time>2026-05-03T14:47:05.145Z</time></trkpt><trkpt lat="44.8990945" lon="7.5603383"><ele>244.0</ele><time>2026-05-03T14:47:06.165Z</time></trkpt><trkpt lat="44.899235" lon="7.5602754"><ele>244.0</ele><time>2026-05-03T14:47:07.152Z</time></trkpt><trkpt lat="44.8993753" lon="7.5602135"><ele>244.0</ele><time>2026-05-03T14:47:08.164Z</time></trkpt><trkpt lat="44.8995189" lon="7.5601543"><ele>244.0</ele><time>2026-05-03T14:47:09.138Z</time></trkpt><trkpt lat="44.8996625" lon="7.5600943"><ele>244.0</ele><time>2026-05-03T14:47:10.145Z</time></trkpt><trkpt lat="44.8998059" lon="7.5600298"><ele>244.0</ele><time>2026-05-03T14:47:11.133Z</time></trkpt><trkpt lat="44.8999493" lon="7.5599677"><ele>243.75</ele><time>2026-05-03T14:47:12.15Z</time></trkpt><trkpt lat="44.9000893" lon="7.5599125"><ele>243.5</ele><time>2026-05-03T14:47:13.141Z</time></trkpt><trkpt lat="44.9002188" lon="7.5598612"><ele>243.25</ele><time>2026-05-03T14:47:14.156Z</time></trkpt><trkpt lat="44.9003372" lon="7.5598156"><ele>243.0</ele><time>2026-05-03T14:47:15.144Z</time></trkpt><trkpt lat="44.900441" lon="7.559779"><ele>243.0</ele><time>2026-05-03T14:47:16.14Z</time></trkpt><trkpt lat="44.9005281" lon="7.5597523"><ele>243.0</ele><time>2026-05-03T14:47:17.154Z</time></trkpt><trkpt lat="44.9006103" lon="7.5597363"><ele>243.0</ele><time>2026-05-03T14:47:18.146Z</time></trkpt><trkpt lat="44.900688" lon="7.5597348"><ele>243.0</ele><time>2026-05-03T14:47:19.152Z</time></trkpt><trkpt lat="44.9007619" lon="7.5597408"><ele>243.0</ele><time>2026-05-03T14:47:20.149Z</time></trkpt><trkpt lat="44.9008418" lon="7.559741"><ele>243.0</ele><time>2026-05-03T14:47:21.142Z</time></trkpt><trkpt lat="44.9009236" lon="7.5597218"><ele>243.60000000000002</ele><time>2026-05-03T14:47:22.133Z</time></trkpt><trkpt lat="44.9010043" lon="7.5596782"><ele>244.20000000000002</ele><time>2026-05-03T14:47:23.148Z</time></trkpt><trkpt lat="44.9011" lon="7.5596469"><ele>244.8</ele><time>2026-05-03T14:47:24.141Z</time></trkpt><trkpt lat="44.9012079" lon="7.5596251"><ele>245.4</ele><time>2026-05-03T14:47:25.167Z</time></trkpt><trkpt lat="44.9013319" lon="7.5596111"><ele>246.0</ele><time>2026-05-03T14:47:26.139Z</time></trkpt><trkpt lat="44.9014608" lon="7.5595994"><ele>246.0</ele><time>2026-05-03T14:47:27.15Z</time></trkpt><trkpt lat="44.9016015" lon="7.5595905"><ele>246.0</ele><time>2026-05-03T14:47:28.146Z</time></trkpt><trkpt lat="44.9017412" lon="7.5595812"><ele>246.0</ele><time>2026-05-03T14:47:29.152Z</time></trkpt><trkpt lat="44.9018907" lon="7.5595716"><ele>246.0</ele><time>2026-05-03T14:47:30.155Z</time></trkpt><trkpt lat="44.9020435" lon="7.5595601"><ele>245.66666666666669</ele><time>2026-05-03T14:47:31.141Z</time></trkpt><trkpt lat="44.9021988" lon="7.5595503"><ele>245.33333333333334</ele><time>2026-05-03T14:47:32.152Z</time></trkpt><trkpt lat="44.9023556" lon="7.5595426"><ele>245.0</ele><time>2026-05-03T14:47:33.16Z</time></trkpt><trkpt lat="44.9025165" lon="7.5595353"><ele>245.33333333333334</ele><time>2026-05-03T14:47:34.166Z</time></trkpt><trkpt lat="44.9026802" lon="7.5595319"><ele>245.66666666666669</ele><time>2026-05-03T14:47:35.146Z</time></trkpt><trkpt lat="44.902845" lon="7.5595288"><ele>246.0</ele><time>2026-05-03T14:47:36.156Z</time></trkpt><trkpt lat="44.9030147" lon="7.5595319"><ele>246.0</ele><time>2026-05-03T14:47:37.146Z</time></trkpt><trkpt lat="44.9031821" lon="7.559521"><ele>246.0</ele><time>2026-05-03T14:47:38.134Z</time></trkpt><trkpt lat="44.9033559" lon="7.5595189"><ele>246.0</ele><time>2026-05-03T14:47:39.154Z</time></trkpt><trkpt lat="44.903518" lon="7.5595112"><ele>245.25</ele><time>2026-05-03T14:47:40.169Z</time></trkpt><trkpt lat="44.9036727" lon="7.5595087"><ele>244.5</ele><time>2026-05-03T14:47:41.155Z</time></trkpt><trkpt lat="44.9038176" lon="7.5595056"><ele>243.75</ele><time>2026-05-03T14:47:42.146Z</time></trkpt><trkpt lat="44.9039582" lon="7.5595004"><ele>243.0</ele><time>2026-05-03T14:47:43.146Z</time></trkpt><trkpt lat="44.9041057" lon="7.5594946"><ele>242.25</ele><time>2026-05-03T14:47:44.153Z</time></trkpt><trkpt lat="44.904253" lon="7.5594918"><ele>241.5</ele><time>2026-05-03T14:47:45.148Z</time></trkpt><trkpt lat="44.9044016" lon="7.5594879"><ele>240.75</ele><time>2026-05-03T14:47:46.151Z</time></trkpt><trkpt lat="44.9045534" lon="7.5594893"><ele>240.0</ele><time>2026-05-03T14:47:47.141Z</time></trkpt><trkpt lat="44.9047111" lon="7.5594852"><ele>240.0</ele><time>2026-05-03T14:47:48.144Z</time></trkpt><trkpt lat="44.9048683" lon="7.5594756"><ele>240.0</ele><time>2026-05-03T14:47:49.146Z</time></trkpt><trkpt lat="44.905027" lon="7.5594572"><ele>240.0</ele><time>2026-05-03T14:47:50.158Z</time></trkpt><trkpt lat="44.9051844" lon="7.5594343"><ele>240.33333333333331</ele><time>2026-05-03T14:47:51.142Z</time></trkpt><trkpt lat="44.90534" lon="7.5594035"><ele>240.66666666666666</ele><time>2026-05-03T14:47:52.134Z</time></trkpt><trkpt lat="44.9054953" lon="7.5593665"><ele>241.0</ele><time>2026-05-03T14:47:53.151Z</time></trkpt><trkpt lat="44.9056523" lon="7.5593238"><ele>241.0</ele><time>2026-05-03T14:47:54.16Z</time></trkpt><trkpt lat="44.9058097" lon="7.5592745"><ele>241.0</ele><time>2026-05-03T14:47:55.133Z</time></trkpt><trkpt lat="44.9059668" lon="7.55922"><ele>241.0</ele><time>2026-05-03T14:47:56.15Z</time></trkpt><trkpt lat="44.9061247" lon="7.5591594"><ele>241.66666666666666</ele><time>2026-05-03T14:47:57.154Z</time></trkpt><trkpt lat="44.9062757" lon="7.5590941"><ele>242.33333333333331</ele><time>2026-05-03T14:47:58.163Z</time></trkpt><trkpt lat="44.9064233" lon="7.5590273"><ele>243.0</ele><time>2026-05-03T14:47:59.155Z</time></trkpt><trkpt lat="44.9065661" lon="7.558961"><ele>243.0</ele><time>2026-05-03T14:48:00.16Z</time></trkpt><trkpt lat="44.9067078" lon="7.558892"><ele>243.0</ele><time>2026-05-03T14:48:01.142Z</time></trkpt><trkpt lat="44.9068465" lon="7.5588218"><ele>243.0</ele><time>2026-05-03T14:48:02.164Z</time></trkpt><trkpt lat="44.9069837" lon="7.5587572"><ele>243.0</ele><time>2026-05-03T14:48:03.154Z</time></trkpt><trkpt lat="44.9071221" lon="7.5586935"><ele>243.25</ele><time>2026-05-03T14:48:04.15Z</time></trkpt><trkpt lat="44.9072621" lon="7.5586285"><ele>243.5</ele><time>2026-05-03T14:48:05.133Z</time></trkpt><trkpt lat="44.9074003" lon="7.5585614"><ele>243.75</ele><time>2026-05-03T14:48:06.146Z</time></trkpt><trkpt lat="44.9075388" lon="7.5584904"><ele>244.0</ele><time>2026-05-03T14:48:07.135Z</time></trkpt><trkpt lat="44.9076811" lon="7.5584197"><ele>243.33333333333331</ele><time>2026-05-03T14:48:08.148Z</time></trkpt><trkpt lat="44.9078229" lon="7.5583491"><ele>242.66666666666669</ele><time>2026-05-03T14:48:09.148Z</time></trkpt><trkpt lat="44.9079651" lon="7.5582809"><ele>242.0</ele><time>2026-05-03T14:48:10.156Z</time></trkpt><trkpt lat="44.9081069" lon="7.5582125"><ele>242.0</ele><time>2026-05-03T14:48:11.142Z</time></trkpt><trkpt lat="44.9082534" lon="7.5581419"><ele>242.0</ele><time>2026-05-03T14:48:12.147Z</time></trkpt><trkpt lat="44.9084013" lon="7.5580707"><ele>242.0</ele><time>2026-05-03T14:48:13.143Z</time></trkpt><trkpt lat="44.9085489" lon="7.5580007"><ele>242.0</ele><time>2026-05-03T14:48:14.142Z</time></trkpt><trkpt lat="44.9086932" lon="7.557931"><ele>242.0</ele><time>2026-05-03T14:48:15.156Z</time></trkpt><trkpt lat="44.9088357" lon="7.5578611"><ele>242.0</ele><time>2026-05-03T14:48:16.161Z</time></trkpt><trkpt lat="44.908976" lon="7.5577895"><ele>242.0</ele><time>2026-05-03T14:48:17.15Z</time></trkpt><trkpt lat="44.9091176" lon="7.5577194"><ele>242.0</ele><time>2026-05-03T14:48:18.159Z</time></trkpt><trkpt lat="44.9092591" lon="7.5576516"><ele>242.0</ele><time>2026-05-03T14:48:19.16Z</time></trkpt><trkpt lat="44.9093988" lon="7.557584"><ele>242.0</ele><time>2026-05-03T14:48:20.135Z</time></trkpt><trkpt lat="44.9095388" lon="7.557518"><ele>243.0</ele><time>2026-05-03T14:48:21.162Z</time></trkpt><trkpt lat="44.9096783" lon="7.5574509"><ele>244.0</ele><time>2026-05-03T14:48:22.151Z</time></trkpt><trkpt lat="44.9098189" lon="7.5573848"><ele>245.0</ele><time>2026-05-03T14:48:23.153Z</time></trkpt><trkpt lat="44.9099665" lon="7.5573169"><ele>243.33333333333334</ele><time>2026-05-03T14:48:24.161Z</time></trkpt><trkpt lat="44.9101081" lon="7.557246"><ele>241.66666666666669</ele><time>2026-05-03T14:48:25.166Z</time></trkpt><trkpt lat="44.910252" lon="7.5571699"><ele>240.0</ele><time>2026-05-03T14:48:26.161Z</time></trkpt><trkpt lat="44.9104024" lon="7.5570943"><ele>240.0</ele><time>2026-05-03T14:48:27.125Z</time></trkpt><trkpt lat="44.9105553" lon="7.5570208"><ele>240.0</ele><time>2026-05-03T14:48:28.168Z</time></trkpt><trkpt lat="44.9107117" lon="7.5569444"><ele>240.0</ele><time>2026-05-03T14:48:29.146Z</time></trkpt><trkpt lat="44.9108685" lon="7.556867"><ele>240.0</ele><time>2026-05-03T14:48:30.131Z</time></trkpt><trkpt lat="44.9110229" lon="7.5567901"><ele>240.0</ele><time>2026-05-03T14:48:31.155Z</time></trkpt><trkpt lat="44.9111749" lon="7.5567138"><ele>240.0</ele><time>2026-05-03T14:48:32.15Z</time></trkpt><trkpt lat="44.9113263" lon="7.5566361"><ele>240.0</ele><time>2026-05-03T14:48:33.149Z</time></trkpt><trkpt lat="44.9114726" lon="7.5565626"><ele>240.0</ele><time>2026-05-03T14:48:34.144Z</time></trkpt><trkpt lat="44.9116211" lon="7.5564894"><ele>240.0</ele><time>2026-05-03T14:48:35.172Z</time></trkpt><trkpt lat="44.911771" lon="7.5564184"><ele>240.33333333333331</ele><time>2026-05-03T14:48:36.161Z</time></trkpt><trkpt lat="44.9119212" lon="7.5563489"><ele>240.66666666666666</ele><time>2026-05-03T14:48:37.153Z</time></trkpt><trkpt lat="44.9120725" lon="7.5562822"><ele>241.0</ele><time>2026-05-03T14:48:38.127Z</time></trkpt><trkpt lat="44.9122226" lon="7.5562098"><ele>241.0</ele><time>2026-05-03T14:48:39.168Z</time></trkpt><trkpt lat="44.9123736" lon="7.5561379"><ele>241.0</ele><time>2026-05-03T14:48:40.132Z</time></trkpt><trkpt lat="44.9125226" lon="7.5560654"><ele>241.0</ele><time>2026-05-03T14:48:41.157Z</time></trkpt><trkpt lat="44.9126728" lon="7.5559903"><ele>241.0</ele><time>2026-05-03T14:48:42.152Z</time></trkpt><trkpt lat="44.9128225" lon="7.555919"><ele>241.0</ele><time>2026-05-03T14:48:43.147Z</time></trkpt><trkpt lat="44.9129707" lon="7.5558457"><ele>241.0</ele><time>2026-05-03T14:48:44.154Z</time></trkpt><trkpt lat="44.9131211" lon="7.5557699"><ele>241.0</ele><time>2026-05-03T14:48:45.135Z</time></trkpt><trkpt lat="44.9132715" lon="7.5556927"><ele>241.0</ele><time>2026-05-03T14:48:46.154Z</time></trkpt><trkpt lat="44.9134229" lon="7.5556157"><ele>241.0</ele><time>2026-05-03T14:48:47.146Z</time></trkpt><trkpt lat="44.9135799" lon="7.5555397"><ele>241.0</ele><time>2026-05-03T14:48:48.153Z</time></trkpt><trkpt lat="44.9137374" lon="7.5554647"><ele>241.0</ele><time>2026-05-03T14:48:49.151Z</time></trkpt><trkpt lat="44.9138923" lon="7.5553923"><ele>241.0</ele><time>2026-05-03T14:48:50.163Z</time></trkpt><trkpt lat="44.914042" lon="7.5553221"><ele>240.66666666666666</ele><time>2026-05-03T14:48:51.172Z</time></trkpt><trkpt lat="44.9141959" lon="7.5552503"><ele>240.33333333333331</ele><time>2026-05-03T14:48:52.156Z</time></trkpt><trkpt lat="44.9143527" lon="7.5551743"><ele>240.0</ele><time>2026-05-03T14:48:53.137Z</time></trkpt><trkpt lat="44.9145121" lon="7.5550947"><ele>240.0</ele><time>2026-05-03T14:48:54.157Z</time></trkpt><trkpt lat="44.914673" lon="7.5550141"><ele>240.0</ele><time>2026-05-03T14:48:55.147Z</time></trkpt><trkpt lat="44.914837" lon="7.5549326"><ele>240.0</ele><time>2026-05-03T14:48:56.151Z</time></trkpt><trkpt lat="44.9150033" lon="7.5548568"><ele>240.33333333333331</ele><time>2026-05-03T14:48:57.152Z</time></trkpt><trkpt lat="44.9151686" lon="7.5547788"><ele>240.66666666666666</ele><time>2026-05-03T14:48:58.159Z</time></trkpt><trkpt lat="44.9153287" lon="7.5546978"><ele>241.0</ele><time>2026-05-03T14:48:59.144Z</time></trkpt><trkpt lat="44.9154911" lon="7.5546159"><ele>241.0</ele><time>2026-05-03T14:49:00.158Z</time></trkpt><trkpt lat="44.915656" lon="7.5545381"><ele>241.0</ele><time>2026-05-03T14:49:01.155Z</time></trkpt><trkpt lat="44.9158226" lon="7.5544572"><ele>241.0</ele><time>2026-05-03T14:49:02.164Z</time></trkpt><trkpt lat="44.9159881" lon="7.5543715"><ele>241.33333333333331</ele><time>2026-05-03T14:49:03.149Z</time></trkpt><trkpt lat="44.9161566" lon="7.5542879"><ele>241.66666666666669</ele><time>2026-05-03T14:49:04.159Z</time></trkpt><trkpt lat="44.9163263" lon="7.554205"><ele>242.0</ele><time>2026-05-03T14:49:05.141Z</time></trkpt><trkpt lat="44.9164954" lon="7.5541231"><ele>242.0</ele><time>2026-05-03T14:49:06.154Z</time></trkpt><trkpt lat="44.916668" lon="7.5540417"><ele>242.0</ele><time>2026-05-03T14:49:07.145Z</time></trkpt><trkpt lat="44.916839" lon="7.5539633"><ele>242.0</ele><time>2026-05-03T14:49:08.153Z</time></trkpt><trkpt lat="44.9170034" lon="7.5538873"><ele>241.66666666666669</ele><time>2026-05-03T14:49:09.158Z</time></trkpt><trkpt lat="44.9171609" lon="7.5538136"><ele>241.33333333333331</ele><time>2026-05-03T14:49:10.142Z</time></trkpt><trkpt lat="44.917307" lon="7.5537397"><ele>241.0</ele><time>2026-05-03T14:49:11.163Z</time></trkpt><trkpt lat="44.917446" lon="7.5536703"><ele>241.25</ele><time>2026-05-03T14:49:12.153Z</time></trkpt><trkpt lat="44.9175798" lon="7.5536063"><ele>241.5</ele><time>2026-05-03T14:49:13.158Z</time></trkpt><trkpt lat="44.9177144" lon="7.553535"><ele>241.75</ele><time>2026-05-03T14:49:14.157Z</time></trkpt><trkpt lat="44.9178471" lon="7.5534574"><ele>242.0</ele><time>2026-05-03T14:49:15.15Z</time></trkpt><trkpt lat="44.9179798" lon="7.5533765"><ele>242.0</ele><time>2026-05-03T14:49:16.164Z</time></trkpt><trkpt lat="44.9181138" lon="7.5532852"><ele>242.0</ele><time>2026-05-03T14:49:17.158Z</time></trkpt><trkpt lat="44.9182514" lon="7.553183"><ele>242.0</ele><time>2026-05-03T14:49:18.148Z</time></trkpt><trkpt lat="44.9183874" lon="7.5530781"><ele>242.33333333333334</ele><time>2026-05-03T14:49:19.156Z</time></trkpt><trkpt lat="44.9185269" lon="7.552967"><ele>242.66666666666669</ele><time>2026-05-03T14:49:20.158Z</time></trkpt><trkpt lat="44.918667" lon="7.5528516"><ele>243.0</ele><time>2026-05-03T14:49:21.134Z</time></trkpt><trkpt lat="44.9188111" lon="7.5527344"><ele>243.0</ele><time>2026-05-03T14:49:22.16Z</time></trkpt><trkpt lat="44.9189583" lon="7.5526147"><ele>243.0</ele><time>2026-05-03T14:49:23.145Z</time></trkpt><trkpt lat="44.919107" lon="7.5524915"><ele>243.0</ele><time>2026-05-03T14:49:24.159Z</time></trkpt><trkpt lat="44.919257" lon="7.5523663"><ele>242.66666666666669</ele><time>2026-05-03T14:49:25.156Z</time></trkpt><trkpt lat="44.9194093" lon="7.5522411"><ele>242.33333333333334</ele><time>2026-05-03T14:49:26.138Z</time></trkpt><trkpt lat="44.9195647" lon="7.5521139"><ele>242.0</ele><time>2026-05-03T14:49:27.15Z</time></trkpt><trkpt lat="44.9197211" lon="7.5519904"><ele>242.0</ele><time>2026-05-03T14:49:28.146Z</time></trkpt><trkpt lat="44.9198795" lon="7.551864"><ele>242.0</ele><time>2026-05-03T14:49:29.158Z</time></trkpt><trkpt lat="44.9200393" lon="7.5517348"><ele>242.0</ele><time>2026-05-03T14:49:30.162Z</time></trkpt><trkpt lat="44.9201986" lon="7.5516013"><ele>241.66666666666669</ele><time>2026-05-03T14:49:31.158Z</time></trkpt><trkpt lat="44.9203566" lon="7.5514649"><ele>241.33333333333331</ele><time>2026-05-03T14:49:32.149Z</time></trkpt><trkpt lat="44.9205206" lon="7.5513263"><ele>241.0</ele><time>2026-05-03T14:49:33.161Z</time></trkpt><trkpt lat="44.9206832" lon="7.5511892"><ele>241.33333333333331</ele><time>2026-05-03T14:49:34.149Z</time></trkpt><trkpt lat="44.9208478" lon="7.5510555"><ele>241.66666666666669</ele><time>2026-05-03T14:49:35.144Z</time></trkpt><trkpt lat="44.9210119" lon="7.5509233"><ele>242.0</ele><time>2026-05-03T14:49:36.16Z</time></trkpt><trkpt lat="44.9211765" lon="7.5507894"><ele>242.0</ele><time>2026-05-03T14:49:37.156Z</time></trkpt><trkpt lat="44.9213375" lon="7.5506536"><ele>242.0</ele><time>2026-05-03T14:49:38.157Z</time></trkpt><trkpt lat="44.9214943" lon="7.5505118"><ele>242.0</ele><time>2026-05-03T14:49:39.149Z</time></trkpt><trkpt lat="44.9216485" lon="7.5503677"><ele>242.33333333333334</ele><time>2026-05-03T14:49:40.152Z</time></trkpt><trkpt lat="44.9217983" lon="7.5502191"><ele>242.66666666666669</ele><time>2026-05-03T14:49:41.141Z</time></trkpt><trkpt lat="44.9219458" lon="7.5500708"><ele>243.0</ele><time>2026-05-03T14:49:42.149Z</time></trkpt><trkpt lat="44.9220848" lon="7.5499156"><ele>243.0</ele><time>2026-05-03T14:49:43.161Z</time></trkpt><trkpt lat="44.9222217" lon="7.5497512"><ele>243.0</ele><time>2026-05-03T14:49:44.137Z</time></trkpt><trkpt lat="44.9223661" lon="7.5496094"><ele>243.0</ele><time>2026-05-03T14:49:45.159Z</time></trkpt><trkpt lat="44.922533" lon="7.5494838"><ele>243.0</ele><time>2026-05-03T14:49:46.144Z</time></trkpt><trkpt lat="44.9227168" lon="7.5493666"><ele>243.0</ele><time>2026-05-03T14:49:47.154Z</time></trkpt><trkpt lat="44.9228766" lon="7.5492271"><ele>243.0</ele><time>2026-05-03T14:49:48.156Z</time></trkpt><trkpt lat="44.9230438" lon="7.5490955"><ele>243.0</ele><time>2026-05-03T14:49:49.139Z</time></trkpt><trkpt lat="44.9232105" lon="7.5489655"><ele>243.0</ele><time>2026-05-03T14:49:50.133Z</time></trkpt><trkpt lat="44.9233781" lon="7.548839"><ele>243.0</ele><time>2026-05-03T14:49:51.142Z</time></trkpt><trkpt lat="44.9235451" lon="7.5487104"><ele>243.0</ele><time>2026-05-03T14:49:52.149Z</time></trkpt><trkpt lat="44.9237094" lon="7.5485811"><ele>243.0</ele><time>2026-05-03T14:49:53.138Z</time></trkpt><trkpt lat="44.9238743" lon="7.5484513"><ele>243.0</ele><time>2026-05-03T14:49:54.139Z</time></trkpt><trkpt lat="44.92404" lon="7.5483222"><ele>243.0</ele><time>2026-05-03T14:49:55.144Z</time></trkpt><trkpt lat="44.9242079" lon="7.5482012"><ele>243.0</ele><time>2026-05-03T14:49:56.148Z</time></trkpt><trkpt lat="44.9243765" lon="7.5480891"><ele>243.0</ele><time>2026-05-03T14:49:57.146Z</time></trkpt><trkpt lat="44.9245477" lon="7.5479801"><ele>244.0</ele><time>2026-05-03T14:49:58.142Z</time></trkpt><trkpt lat="44.9247188" lon="7.5478782"><ele>245.0</ele><time>2026-05-03T14:49:59.141Z</time></trkpt><trkpt lat="44.9248921" lon="7.5477767"><ele>246.0</ele><time>2026-05-03T14:50:00.151Z</time></trkpt><trkpt lat="44.9250639" lon="7.5476834"><ele>246.33333333333331</ele><time>2026-05-03T14:50:01.171Z</time></trkpt><trkpt lat="44.9252293" lon="7.5475987"><ele>246.66666666666666</ele><time>2026-05-03T14:50:02.147Z</time></trkpt><trkpt lat="44.9253882" lon="7.5475239"><ele>247.0</ele><time>2026-05-03T14:50:03.158Z</time></trkpt><trkpt lat="44.9255438" lon="7.547456"><ele>247.0</ele><time>2026-05-03T14:50:04.157Z</time></trkpt><trkpt lat="44.9256984" lon="7.5473949"><ele>247.0</ele><time>2026-05-03T14:50:05.145Z</time></trkpt><trkpt lat="44.925855" lon="7.5473378"><ele>247.0</ele><time>2026-05-03T14:50:06.157Z</time></trkpt><trkpt lat="44.9260157" lon="7.5472797"><ele>246.33333333333331</ele><time>2026-05-03T14:50:07.152Z</time></trkpt><trkpt lat="44.9261723" lon="7.5472269"><ele>245.66666666666669</ele><time>2026-05-03T14:50:08.153Z</time></trkpt><trkpt lat="44.9263274" lon="7.5471747"><ele>245.0</ele><time>2026-05-03T14:50:09.151Z</time></trkpt><trkpt lat="44.9264851" lon="7.5471279"><ele>245.0</ele><time>2026-05-03T14:50:10.151Z</time></trkpt><trkpt lat="44.9266453" lon="7.5470847"><ele>245.0</ele><time>2026-05-03T14:50:11.149Z</time></trkpt><trkpt lat="44.9268095" lon="7.5470481"><ele>245.0</ele><time>2026-05-03T14:50:12.144Z</time></trkpt><trkpt lat="44.9269822" lon="7.5470137"><ele>245.0</ele><time>2026-05-03T14:50:13.153Z</time></trkpt><trkpt lat="44.9271514" lon="7.546983"><ele>245.0</ele><time>2026-05-03T14:50:14.14Z</time></trkpt><trkpt lat="44.927325" lon="7.5469565"><ele>245.0</ele><time>2026-05-03T14:50:15.14Z</time></trkpt><trkpt lat="44.9274955" lon="7.5469269"><ele>245.0</ele><time>2026-05-03T14:50:16.145Z</time></trkpt><trkpt lat="44.9276593" lon="7.5469064"><ele>245.0</ele><time>2026-05-03T14:50:17.151Z</time></trkpt><trkpt lat="44.9278121" lon="7.5468856"><ele>245.0</ele><time>2026-05-03T14:50:18.15Z</time></trkpt><trkpt lat="44.9279619" lon="7.5468666"><ele>245.0</ele><time>2026-05-03T14:50:19.152Z</time></trkpt><trkpt lat="44.9281056" lon="7.546844"><ele>245.0</ele><time>2026-05-03T14:50:20.15Z</time></trkpt><trkpt lat="44.9282485" lon="7.5468195"><ele>245.0</ele><time>2026-05-03T14:50:21.139Z</time></trkpt><trkpt lat="44.9283957" lon="7.5467936"><ele>245.0</ele><time>2026-05-03T14:50:22.146Z</time></trkpt><trkpt lat="44.9285442" lon="7.546773"><ele>245.0</ele><time>2026-05-03T14:50:23.132Z</time></trkpt><trkpt lat="44.9286839" lon="7.5467585"><ele>245.0</ele><time>2026-05-03T14:50:24.15Z</time></trkpt><trkpt lat="44.9288209" lon="7.5467434"><ele>245.0</ele><time>2026-05-03T14:50:25.153Z</time></trkpt><trkpt lat="44.9289509" lon="7.5467265"><ele>245.0</ele><time>2026-05-03T14:50:26.144Z</time></trkpt><trkpt lat="44.9290719" lon="7.5467111"><ele>245.0</ele><time>2026-05-03T14:50:27.149Z</time></trkpt><trkpt lat="44.9291918" lon="7.5466951"><ele>245.0</ele><time>2026-05-03T14:50:28.149Z</time></trkpt><trkpt lat="44.9293026" lon="7.5466828"><ele>245.0</ele><time>2026-05-03T14:50:29.141Z</time></trkpt><trkpt lat="44.9294067" lon="7.5466721"><ele>245.0</ele><time>2026-05-03T14:50:30.147Z</time></trkpt><trkpt lat="44.9295081" lon="7.5466645"><ele>245.0</ele><time>2026-05-03T14:50:31.154Z</time></trkpt><trkpt lat="44.9296047" lon="7.5466605"><ele>245.0</ele><time>2026-05-03T14:50:32.144Z</time></trkpt><trkpt lat="44.9297034" lon="7.5466655"><ele>245.0</ele><time>2026-05-03T14:50:33.15Z</time></trkpt><trkpt lat="44.9297837" lon="7.5466915"><ele>245.0</ele><time>2026-05-03T14:50:34.144Z</time></trkpt><trkpt lat="44.9298706" lon="7.5467294"><ele>245.0</ele><time>2026-05-03T14:50:35.129Z</time></trkpt><trkpt lat="44.9299618" lon="7.5467347"><ele>245.0</ele><time>2026-05-03T14:50:36.134Z</time></trkpt><trkpt lat="44.9300539" lon="7.5466964"><ele>245.0</ele><time>2026-05-03T14:50:37.148Z</time></trkpt><trkpt lat="44.9301459" lon="7.5466362"><ele>245.0</ele><time>2026-05-03T14:50:38.146Z</time></trkpt><trkpt lat="44.9302561" lon="7.5466075"><ele>245.0</ele><time>2026-05-03T14:50:39.149Z</time></trkpt><trkpt lat="44.93038" lon="7.5465929"><ele>245.0</ele><time>2026-05-03T14:50:40.132Z</time></trkpt><trkpt lat="44.9306342" lon="7.5465618"><ele>245.0</ele><time>2026-05-03T14:50:42.151Z</time></trkpt><trkpt lat="44.9307669" lon="7.5465473"><ele>245.0</ele><time>2026-05-03T14:50:43.149Z</time></trkpt><trkpt lat="44.9309048" lon="7.5465288"><ele>245.0</ele><time>2026-05-03T14:50:44.135Z</time></trkpt><trkpt lat="44.9310426" lon="7.5465091"><ele>245.0</ele><time>2026-05-03T14:50:45.158Z</time></trkpt><trkpt lat="44.9311811" lon="7.546491"><ele>245.25</ele><time>2026-05-03T14:50:46.152Z</time></trkpt><trkpt lat="44.9313216" lon="7.5464702"><ele>245.5</ele><time>2026-05-03T14:50:47.147Z</time></trkpt><trkpt lat="44.931451" lon="7.5464511"><ele>245.75</ele><time>2026-05-03T14:50:48.15Z</time></trkpt><trkpt lat="44.9315732" lon="7.5464331"><ele>246.0</ele><time>2026-05-03T14:50:49.14Z</time></trkpt><trkpt lat="44.9316871" lon="7.5464148"><ele>246.4</ele><time>2026-05-03T14:50:50.165Z</time></trkpt><trkpt lat="44.9317938" lon="7.5463904"><ele>246.8</ele><time>2026-05-03T14:50:51.154Z</time></trkpt><trkpt lat="44.9318894" lon="7.5463565"><ele>247.20000000000002</ele><time>2026-05-03T14:50:52.156Z</time></trkpt><trkpt lat="44.9319731" lon="7.5463133"><ele>247.60000000000002</ele><time>2026-05-03T14:50:53.142Z</time></trkpt><trkpt lat="44.9320409" lon="7.5462628"><ele>248.0</ele><time>2026-05-03T14:50:54.159Z</time></trkpt><trkpt lat="44.9321306" lon="7.5461845"><ele>248.0</ele><time>2026-05-03T14:50:56.14Z</time></trkpt><trkpt lat="44.932215" lon="7.546167"><ele>248.0</ele><time>2026-05-03T14:50:58.149Z</time></trkpt><trkpt lat="44.9323184" lon="7.5462396"><ele>248.0</ele><time>2026-05-03T14:51:00.122Z</time></trkpt><trkpt lat="44.9323867" lon="7.5462995"><ele>248.0</ele><time>2026-05-03T14:51:01.136Z</time></trkpt><trkpt lat="44.9324716" lon="7.5463726"><ele>248.0</ele><time>2026-05-03T14:51:02.142Z</time></trkpt><trkpt lat="44.9325653" lon="7.5464547"><ele>247.60000000000002</ele><time>2026-05-03T14:51:03.145Z</time></trkpt><trkpt lat="44.9326654" lon="7.5465222"><ele>247.20000000000002</ele><time>2026-05-03T14:51:04.139Z</time></trkpt><trkpt lat="44.9327667" lon="7.5465938"><ele>246.8</ele><time>2026-05-03T14:51:05.145Z</time></trkpt><trkpt lat="44.9328594" lon="7.5466624"><ele>246.4</ele><time>2026-05-03T14:51:06.152Z</time></trkpt><trkpt lat="44.9329405" lon="7.5467266"><ele>246.0</ele><time>2026-05-03T14:51:07.139Z</time></trkpt><trkpt lat="44.9330125" lon="7.5467985"><ele>246.0</ele><time>2026-05-03T14:51:09.14Z</time></trkpt><trkpt lat="44.9330785" lon="7.5468503"><ele>246.0</ele><time>2026-05-03T14:51:10.149Z</time></trkpt><trkpt lat="44.9331588" lon="7.5469147"><ele>246.0</ele><time>2026-05-03T14:51:12.151Z</time></trkpt><trkpt lat="44.9332383" lon="7.5469542"><ele>246.0</ele><time>2026-05-03T14:51:15.147Z</time></trkpt><trkpt lat="44.9333159" lon="7.5469371"><ele>246.0</ele><time>2026-05-03T14:51:17.145Z</time></trkpt><trkpt lat="44.9334029" lon="7.5469137"><ele>246.0</ele><time>2026-05-03T14:51:18.088Z</time></trkpt><trkpt lat="44.9334867" lon="7.5469512"><ele>245.8</ele><time>2026-05-03T14:51:19.087Z</time></trkpt><trkpt lat="44.9335784" lon="7.5470073"><ele>245.60000000000002</ele><time>2026-05-03T14:51:20.1Z</time></trkpt><trkpt lat="44.9336607" lon="7.5470794"><ele>245.4</ele><time>2026-05-03T14:51:21.08Z</time></trkpt><trkpt lat="44.9337314" lon="7.5471632"><ele>245.2</ele><time>2026-05-03T14:51:22.092Z</time></trkpt><trkpt lat="44.9337785" lon="7.5472442"><ele>245.0</ele><time>2026-05-03T14:51:23.088Z</time></trkpt><trkpt lat="44.9338795" lon="7.5472893"><ele>245.0</ele><time>2026-05-03T14:51:25.077Z</time></trkpt><trkpt lat="44.933947" lon="7.5472473"><ele>245.0</ele><time>2026-05-03T14:51:26.073Z</time></trkpt><trkpt lat="44.9340076" lon="7.5471805"><ele>245.0</ele><time>2026-05-03T14:51:27.082Z</time></trkpt><trkpt lat="44.9340806" lon="7.5470863"><ele>245.0</ele><time>2026-05-03T14:51:28.094Z</time></trkpt><trkpt lat="44.9341623" lon="7.5469862"><ele>245.0</ele><time>2026-05-03T14:51:29.084Z</time></trkpt><trkpt lat="44.934253" lon="7.5468679"><ele>245.0</ele><time>2026-05-03T14:51:30.104Z</time></trkpt><trkpt lat="44.93435" lon="7.5467499"><ele>245.0</ele><time>2026-05-03T14:51:31.077Z</time></trkpt><trkpt lat="44.9344384" lon="7.5466302"><ele>245.0</ele><time>2026-05-03T14:51:32.082Z</time></trkpt><trkpt lat="44.934529" lon="7.5465137"><ele>245.0</ele><time>2026-05-03T14:51:33.081Z</time></trkpt><trkpt lat="44.934616" lon="7.5464122"><ele>245.0</ele><time>2026-05-03T14:51:34.08Z</time></trkpt><trkpt lat="44.9346941" lon="7.5463223"><ele>245.0</ele><time>2026-05-03T14:51:35.092Z</time></trkpt><trkpt lat="44.9347715" lon="7.5462245"><ele>245.0</ele><time>2026-05-03T14:51:36.097Z</time></trkpt><trkpt lat="44.934843" lon="7.5461339"><ele>245.0</ele><time>2026-05-03T14:51:37.092Z</time></trkpt><trkpt lat="44.9349199" lon="7.5460333"><ele>245.0</ele><time>2026-05-03T14:51:38.095Z</time></trkpt><trkpt lat="44.9350005" lon="7.5459299"><ele>245.33333333333334</ele><time>2026-05-03T14:51:39.08Z</time></trkpt><trkpt lat="44.9350653" lon="7.5458336"><ele>245.66666666666669</ele><time>2026-05-03T14:51:40.066Z</time></trkpt><trkpt lat="44.9351361" lon="7.5457381"><ele>246.0</ele><time>2026-05-03T14:51:42.061Z</time></trkpt><trkpt lat="44.9352003" lon="7.5457026"><ele>246.33333333333331</ele><time>2026-05-03T14:51:52.09Z</time></trkpt><trkpt lat="44.9352627" lon="7.5457625"><ele>246.66666666666666</ele><time>2026-05-03T14:51:54.09Z</time></trkpt><trkpt lat="44.9353079" lon="7.5458299"><ele>247.0</ele><time>2026-05-03T14:51:55.076Z</time></trkpt><trkpt lat="44.935364" lon="7.5459157"><ele>246.99999999999997</ele><time>2026-05-03T14:51:56.096Z</time></trkpt><trkpt lat="44.935425" lon="7.546002"><ele>247.0</ele><time>2026-05-03T14:51:57.095Z</time></trkpt><trkpt lat="44.9354756" lon="7.5460898"><ele>247.0</ele><time>2026-05-03T14:51:58.12Z</time></trkpt><trkpt lat="44.9355259" lon="7.5461619"><ele>247.0</ele><time>2026-05-03T14:51:59.084Z</time></trkpt><trkpt lat="44.9355757" lon="7.5462373"><ele>246.99999999999997</ele><time>2026-05-03T14:52:00.092Z</time></trkpt><trkpt lat="44.9356267" lon="7.5463221"><ele>247.0</ele><time>2026-05-03T14:52:01.091Z</time></trkpt><trkpt lat="44.9356761" lon="7.5464059"><ele>246.8</ele><time>2026-05-03T14:52:02.108Z</time></trkpt><trkpt lat="44.9357292" lon="7.5464689"><ele>246.6</ele><time>2026-05-03T14:52:03.101Z</time></trkpt><trkpt lat="44.9357973" lon="7.5465372"><ele>246.40000000000003</ele><time>2026-05-03T14:52:04.089Z</time></trkpt><trkpt lat="44.9358606" lon="7.5466274"><ele>246.20000000000002</ele><time>2026-05-03T14:52:05.071Z</time></trkpt><trkpt lat="44.93593" lon="7.5467309"><ele>246.0</ele><time>2026-05-03T14:52:06.075Z</time></trkpt><trkpt lat="44.936001" lon="7.5468493"><ele>245.75</ele><time>2026-05-03T14:52:07.099Z</time></trkpt><trkpt lat="44.9360703" lon="7.5469632"><ele>245.5</ele><time>2026-05-03T14:52:08.088Z</time></trkpt><trkpt lat="44.9361449" lon="7.5470823"><ele>245.25</ele><time>2026-05-03T14:52:09.11Z</time></trkpt><trkpt lat="44.9362299" lon="7.5472063"><ele>245.0</ele><time>2026-05-03T14:52:10.096Z</time></trkpt><trkpt lat="44.936305" lon="7.5473188"><ele>245.0</ele><time>2026-05-03T14:52:11.09Z</time></trkpt><trkpt lat="44.9363943" lon="7.5474395"><ele>245.0</ele><time>2026-05-03T14:52:12.099Z</time></trkpt><trkpt lat="44.9364705" lon="7.5475498"><ele>245.0</ele><time>2026-05-03T14:52:13.097Z</time></trkpt><trkpt lat="44.9365407" lon="7.5476635"><ele>245.0</ele><time>2026-05-03T14:52:14.082Z</time></trkpt><trkpt lat="44.9366122" lon="7.5477678"><ele>245.0</ele><time>2026-05-03T14:52:15.068Z</time></trkpt><trkpt lat="44.9366821" lon="7.5478814"><ele>245.0</ele><time>2026-05-03T14:52:16.09Z</time></trkpt><trkpt lat="44.9367627" lon="7.5479947"><ele>245.0</ele><time>2026-05-03T14:52:17.081Z</time></trkpt><trkpt lat="44.9368294" lon="7.5481018"><ele>245.0</ele><time>2026-05-03T14:52:18.108Z</time></trkpt><trkpt lat="44.9368937" lon="7.5482067"><ele>245.0</ele><time>2026-05-03T14:52:19.093Z</time></trkpt><trkpt lat="44.9369564" lon="7.5483058"><ele>245.0</ele><time>2026-05-03T14:52:20.082Z</time></trkpt><trkpt lat="44.9370243" lon="7.5484108"><ele>245.0</ele><time>2026-05-03T14:52:21.092Z</time></trkpt><trkpt lat="44.937099" lon="7.5485166"><ele>245.0</ele><time>2026-05-03T14:52:22.092Z</time></trkpt><trkpt lat="44.9371732" lon="7.5486325"><ele>245.0</ele><time>2026-05-03T14:52:23.096Z</time></trkpt><trkpt lat="44.9372444" lon="7.5487445"><ele>245.0</ele><time>2026-05-03T14:52:24.104Z</time></trkpt><trkpt lat="44.9373236" lon="7.5488621"><ele>245.0</ele><time>2026-05-03T14:52:25.104Z</time></trkpt><trkpt lat="44.9374003" lon="7.5489822"><ele>245.25</ele><time>2026-05-03T14:52:26.085Z</time></trkpt><trkpt lat="44.9374842" lon="7.5491062"><ele>245.5</ele><time>2026-05-03T14:52:27.089Z</time></trkpt><trkpt lat="44.9375702" lon="7.5492306"><ele>245.75</ele><time>2026-05-03T14:52:28.098Z</time></trkpt><trkpt lat="44.9376534" lon="7.5493547"><ele>246.0</ele><time>2026-05-03T14:52:29.107Z</time></trkpt><trkpt lat="44.9377287" lon="7.5494786"><ele>245.75</ele><time>2026-05-03T14:52:30.078Z</time></trkpt><trkpt lat="44.9378186" lon="7.5496064"><ele>245.5</ele><time>2026-05-03T14:52:31.096Z</time></trkpt><trkpt lat="44.9379121" lon="7.5497469"><ele>245.25</ele><time>2026-05-03T14:52:32.071Z</time></trkpt><trkpt lat="44.9380128" lon="7.5498934"><ele>245.0</ele><time>2026-05-03T14:52:33.092Z</time></trkpt><trkpt lat="44.9381136" lon="7.550044"><ele>245.0</ele><time>2026-05-03T14:52:34.088Z</time></trkpt><trkpt lat="44.938219" lon="7.5501993"><ele>245.0</ele><time>2026-05-03T14:52:35.086Z</time></trkpt><trkpt lat="44.9383242" lon="7.5503467"><ele>245.0</ele><time>2026-05-03T14:52:36.093Z</time></trkpt><trkpt lat="44.9384277" lon="7.5504952"><ele>245.0</ele><time>2026-05-03T14:52:37.088Z</time></trkpt><trkpt lat="44.9385276" lon="7.5506416"><ele>244.33333333333334</ele><time>2026-05-03T14:52:38.096Z</time></trkpt><trkpt lat="44.9386289" lon="7.5507978"><ele>243.66666666666669</ele><time>2026-05-03T14:52:39.085Z</time></trkpt><trkpt lat="44.9387326" lon="7.5509598"><ele>243.0</ele><time>2026-05-03T14:52:40.094Z</time></trkpt><trkpt lat="44.9388391" lon="7.551123"><ele>243.25</ele><time>2026-05-03T14:52:41.1Z</time></trkpt><trkpt lat="44.9389461" lon="7.5512798"><ele>243.5</ele><time>2026-05-03T14:52:42.108Z</time></trkpt><trkpt lat="44.9390535" lon="7.5514319"><ele>243.75</ele><time>2026-05-03T14:52:43.092Z</time></trkpt><trkpt lat="44.9391522" lon="7.5515758"><ele>244.0</ele><time>2026-05-03T14:52:44.096Z</time></trkpt><trkpt lat="44.9392498" lon="7.5517275"><ele>244.0</ele><time>2026-05-03T14:52:45.103Z</time></trkpt><trkpt lat="44.939349" lon="7.5518746"><ele>244.0</ele><time>2026-05-03T14:52:46.082Z</time></trkpt><trkpt lat="44.9394594" lon="7.5520387"><ele>244.0</ele><time>2026-05-03T14:52:47.081Z</time></trkpt><trkpt lat="44.9395696" lon="7.5522067"><ele>244.33333333333331</ele><time>2026-05-03T14:52:48.097Z</time></trkpt><trkpt lat="44.939686" lon="7.5523802"><ele>244.66666666666669</ele><time>2026-05-03T14:52:49.087Z</time></trkpt><trkpt lat="44.9398001" lon="7.5525592"><ele>245.0</ele><time>2026-05-03T14:52:50.09Z</time></trkpt><trkpt lat="44.9399124" lon="7.5527356"><ele>244.33333333333334</ele><time>2026-05-03T14:52:51.093Z</time></trkpt><trkpt lat="44.9400299" lon="7.5529072"><ele>243.66666666666669</ele><time>2026-05-03T14:52:52.094Z</time></trkpt><trkpt lat="44.9401523" lon="7.5530803"><ele>243.0</ele><time>2026-05-03T14:52:53.093Z</time></trkpt><trkpt lat="44.9402744" lon="7.5532614"><ele>242.66666666666669</ele><time>2026-05-03T14:52:54.096Z</time></trkpt><trkpt lat="44.9403978" lon="7.5534419"><ele>242.33333333333334</ele><time>2026-05-03T14:52:55.07Z</time></trkpt><trkpt lat="44.9405179" lon="7.5536225"><ele>242.0</ele><time>2026-05-03T14:52:56.091Z</time></trkpt><trkpt lat="44.9406397" lon="7.5538074"><ele>242.0</ele><time>2026-05-03T14:52:57.064Z</time></trkpt><trkpt lat="44.9407589" lon="7.5539949"><ele>242.0</ele><time>2026-05-03T14:52:58.098Z</time></trkpt><trkpt lat="44.940876" lon="7.5541805"><ele>242.0</ele><time>2026-05-03T14:52:59.1Z</time></trkpt><trkpt lat="44.9409949" lon="7.5543487"><ele>242.0</ele><time>2026-05-03T14:53:00.081Z</time></trkpt><trkpt lat="44.9411113" lon="7.5545145"><ele>242.0</ele><time>2026-05-03T14:53:01.089Z</time></trkpt><trkpt lat="44.9412262" lon="7.5546819"><ele>242.0</ele><time>2026-05-03T14:53:02.086Z</time></trkpt><trkpt lat="44.9413403" lon="7.5548524"><ele>242.33333333333334</ele><time>2026-05-03T14:53:03.105Z</time></trkpt><trkpt lat="44.9414554" lon="7.5550251"><ele>242.66666666666669</ele><time>2026-05-03T14:53:04.102Z</time></trkpt><trkpt lat="44.9415711" lon="7.5551915"><ele>243.0</ele><time>2026-05-03T14:53:05.075Z</time></trkpt><trkpt lat="44.9416832" lon="7.5553612"><ele>243.66666666666669</ele><time>2026-05-03T14:53:06.091Z</time></trkpt><trkpt lat="44.941796" lon="7.5555323"><ele>244.33333333333334</ele><time>2026-05-03T14:53:07.081Z</time></trkpt><trkpt lat="44.9419092" lon="7.5557087"><ele>245.0</ele><time>2026-05-03T14:53:08.089Z</time></trkpt><trkpt lat="44.9420224" lon="7.5558846"><ele>245.0</ele><time>2026-05-03T14:53:09.087Z</time></trkpt><trkpt lat="44.9421368" lon="7.5560584"><ele>245.0</ele><time>2026-05-03T14:53:10.071Z</time></trkpt><trkpt lat="44.9422517" lon="7.5562274"><ele>245.0</ele><time>2026-05-03T14:53:11.103Z</time></trkpt><trkpt lat="44.9423695" lon="7.5563975"><ele>244.66666666666669</ele><time>2026-05-03T14:53:12.089Z</time></trkpt><trkpt lat="44.9424896" lon="7.5565688"><ele>244.33333333333331</ele><time>2026-05-03T14:53:13.092Z</time></trkpt><trkpt lat="44.9426076" lon="7.5567413"><ele>244.0</ele><time>2026-05-03T14:53:14.097Z</time></trkpt><trkpt lat="44.9427249" lon="7.5569205"><ele>243.33333333333331</ele><time>2026-05-03T14:53:15.094Z</time></trkpt><trkpt lat="44.9428405" lon="7.557095"><ele>242.66666666666669</ele><time>2026-05-03T14:53:16.105Z</time></trkpt><trkpt lat="44.942959" lon="7.5572733"><ele>242.0</ele><time>2026-05-03T14:53:17.071Z</time></trkpt><trkpt lat="44.9430785" lon="7.5574524"><ele>242.0</ele><time>2026-05-03T14:53:18.104Z</time></trkpt><trkpt lat="44.9431979" lon="7.5576341"><ele>242.0</ele><time>2026-05-03T14:53:19.1Z</time></trkpt><trkpt lat="44.9433123" lon="7.5578155"><ele>242.0</ele><time>2026-05-03T14:53:20.087Z</time></trkpt><trkpt lat="44.9434289" lon="7.5579967"><ele>241.66666666666669</ele><time>2026-05-03T14:53:21.094Z</time></trkpt><trkpt lat="44.9435497" lon="7.55818"><ele>241.33333333333331</ele><time>2026-05-03T14:53:22.078Z</time></trkpt><trkpt lat="44.943673" lon="7.5583601"><ele>241.0</ele><time>2026-05-03T14:53:23.072Z</time></trkpt><trkpt lat="44.9437973" lon="7.5585423"><ele>241.66666666666666</ele><time>2026-05-03T14:53:24.097Z</time></trkpt><trkpt lat="44.9439217" lon="7.5587267"><ele>242.33333333333331</ele><time>2026-05-03T14:53:25.078Z</time></trkpt><trkpt lat="44.9440426" lon="7.5589118"><ele>243.0</ele><time>2026-05-03T14:53:26.098Z</time></trkpt><trkpt lat="44.9441647" lon="7.5590985"><ele>243.33333333333331</ele><time>2026-05-03T14:53:27.095Z</time></trkpt><trkpt lat="44.9442883" lon="7.5592872"><ele>243.66666666666666</ele><time>2026-05-03T14:53:28.087Z</time></trkpt><trkpt lat="44.9444105" lon="7.5594738"><ele>244.0</ele><time>2026-05-03T14:53:29.078Z</time></trkpt><trkpt lat="44.9445369" lon="7.5596593"><ele>244.66666666666666</ele><time>2026-05-03T14:53:30.089Z</time></trkpt><trkpt lat="44.9446647" lon="7.5598453"><ele>245.33333333333331</ele><time>2026-05-03T14:53:31.086Z</time></trkpt><trkpt lat="44.9447931" lon="7.5600332"><ele>246.0</ele><time>2026-05-03T14:53:32.094Z</time></trkpt><trkpt lat="44.9449214" lon="7.5602207"><ele>246.33333333333331</ele><time>2026-05-03T14:53:33.116Z</time></trkpt><trkpt lat="44.9450511" lon="7.5604094"><ele>246.66666666666666</ele><time>2026-05-03T14:53:34.085Z</time></trkpt><trkpt lat="44.9451808" lon="7.5605955"><ele>247.0</ele><time>2026-05-03T14:53:35.114Z</time></trkpt><trkpt lat="44.9453027" lon="7.5607836"><ele>247.0</ele><time>2026-05-03T14:53:36.084Z</time></trkpt><trkpt lat="44.9454316" lon="7.5609759"><ele>247.0</ele><time>2026-05-03T14:53:37.067Z</time></trkpt><trkpt lat="44.9455567" lon="7.5611631"><ele>247.0</ele><time>2026-05-03T14:53:38.06Z</time></trkpt><trkpt lat="44.9456748" lon="7.5613372"><ele>245.66666666666666</ele><time>2026-05-03T14:53:39.059Z</time></trkpt><trkpt lat="44.9457876" lon="7.5615128"><ele>244.33333333333331</ele><time>2026-05-03T14:53:40.074Z</time></trkpt><trkpt lat="44.9458986" lon="7.5616866"><ele>243.0</ele><time>2026-05-03T14:53:41.089Z</time></trkpt><trkpt lat="44.9460119" lon="7.5618589"><ele>243.33333333333331</ele><time>2026-05-03T14:53:42.085Z</time></trkpt><trkpt lat="44.9461319" lon="7.5620343"><ele>243.66666666666666</ele><time>2026-05-03T14:53:43.089Z</time></trkpt><trkpt lat="44.9462503" lon="7.5622152"><ele>244.0</ele><time>2026-05-03T14:53:44.095Z</time></trkpt><trkpt lat="44.9463719" lon="7.5623989"><ele>244.0</ele><time>2026-05-03T14:53:45.077Z</time></trkpt><trkpt lat="44.9464945" lon="7.5625836"><ele>244.0</ele><time>2026-05-03T14:53:46.091Z</time></trkpt><trkpt lat="44.9466201" lon="7.5627706"><ele>244.0</ele><time>2026-05-03T14:53:47.093Z</time></trkpt><trkpt lat="44.9467447" lon="7.5629553"><ele>243.0</ele><time>2026-05-03T14:53:48.068Z</time></trkpt><trkpt lat="44.946875" lon="7.5631467"><ele>242.0</ele><time>2026-05-03T14:53:49.089Z</time></trkpt><trkpt lat="44.9470042" lon="7.5633446"><ele>241.0</ele><time>2026-05-03T14:53:50.112Z</time></trkpt><trkpt lat="44.9471341" lon="7.5635395"><ele>240.33333333333331</ele><time>2026-05-03T14:53:51.09Z</time></trkpt><trkpt lat="44.9472632" lon="7.5637353"><ele>239.66666666666669</ele><time>2026-05-03T14:53:52.094Z</time></trkpt><trkpt lat="44.9473886" lon="7.5639243"><ele>239.0</ele><time>2026-05-03T14:53:53.086Z</time></trkpt><trkpt lat="44.9475074" lon="7.5641065"><ele>239.33333333333334</ele><time>2026-05-03T14:53:54.079Z</time></trkpt><trkpt lat="44.9476278" lon="7.564287"><ele>239.66666666666669</ele><time>2026-05-03T14:53:55.098Z</time></trkpt><trkpt lat="44.9477523" lon="7.564468"><ele>240.0</ele><time>2026-05-03T14:53:56.089Z</time></trkpt><trkpt lat="44.947878" lon="7.5646529"><ele>240.0</ele><time>2026-05-03T14:53:57.089Z</time></trkpt><trkpt lat="44.9480032" lon="7.5648347"><ele>240.0</ele><time>2026-05-03T14:53:58.098Z</time></trkpt><trkpt lat="44.9481244" lon="7.5650176"><ele>240.0</ele><time>2026-05-03T14:53:59.084Z</time></trkpt><trkpt lat="44.9482469" lon="7.5651924"><ele>240.33333333333331</ele><time>2026-05-03T14:54:00.063Z</time></trkpt><trkpt lat="44.9483615" lon="7.5653649"><ele>240.66666666666666</ele><time>2026-05-03T14:54:01.087Z</time></trkpt><trkpt lat="44.9484721" lon="7.5655308"><ele>241.0</ele><time>2026-05-03T14:54:02.082Z</time></trkpt><trkpt lat="44.9485821" lon="7.5657002"><ele>241.0</ele><time>2026-05-03T14:54:03.066Z</time></trkpt><trkpt lat="44.9486948" lon="7.5658622"><ele>241.0</ele><time>2026-05-03T14:54:04.088Z</time></trkpt><trkpt lat="44.9488041" lon="7.566026"><ele>241.0</ele><time>2026-05-03T14:54:05.101Z</time></trkpt><trkpt lat="44.9489145" lon="7.5661871"><ele>241.0</ele><time>2026-05-03T14:54:06.097Z</time></trkpt><trkpt lat="44.9490186" lon="7.5663442"><ele>241.0</ele><time>2026-05-03T14:54:07.081Z</time></trkpt><trkpt lat="44.9491159" lon="7.5665089"><ele>241.0</ele><time>2026-05-03T14:54:08.082Z</time></trkpt><trkpt lat="44.9492112" lon="7.5666777"><ele>241.0</ele><time>2026-05-03T14:54:09.078Z</time></trkpt><trkpt lat="44.9492911" lon="7.5668583"><ele>241.0</ele><time>2026-05-03T14:54:10.096Z</time></trkpt><trkpt lat="44.9493641" lon="7.5670533"><ele>241.0</ele><time>2026-05-03T14:54:11.078Z</time></trkpt><trkpt lat="44.9494277" lon="7.567261"><ele>241.66666666666666</ele><time>2026-05-03T14:54:12.099Z</time></trkpt><trkpt lat="44.9494904" lon="7.5674738"><ele>242.33333333333331</ele><time>2026-05-03T14:54:13.101Z</time></trkpt><trkpt lat="44.9495532" lon="7.5676931"><ele>243.0</ele><time>2026-05-03T14:54:14.089Z</time></trkpt><trkpt lat="44.9496163" lon="7.5679207"><ele>243.33333333333331</ele><time>2026-05-03T14:54:15.091Z</time></trkpt><trkpt lat="44.9496788" lon="7.5681522"><ele>243.66666666666666</ele><time>2026-05-03T14:54:16.098Z</time></trkpt><trkpt lat="44.9497442" lon="7.5683798"><ele>244.0</ele><time>2026-05-03T14:54:17.07Z</time></trkpt><trkpt lat="44.9498093" lon="7.5686115"><ele>243.66666666666666</ele><time>2026-05-03T14:54:18.117Z</time></trkpt><trkpt lat="44.9498784" lon="7.5688434"><ele>243.33333333333331</ele><time>2026-05-03T14:54:19.087Z</time></trkpt><trkpt lat="44.9499455" lon="7.5690805"><ele>243.0</ele><time>2026-05-03T14:54:20.087Z</time></trkpt><trkpt lat="44.950013" lon="7.569313"><ele>243.33333333333331</ele><time>2026-05-03T14:54:21.09Z</time></trkpt><trkpt lat="44.9500796" lon="7.5695513"><ele>243.66666666666666</ele><time>2026-05-03T14:54:22.093Z</time></trkpt><trkpt lat="44.9501423" lon="7.5697898"><ele>244.0</ele><time>2026-05-03T14:54:23.105Z</time></trkpt><trkpt lat="44.9502056" lon="7.5700322"><ele>244.0</ele><time>2026-05-03T14:54:24.105Z</time></trkpt><trkpt lat="44.950271" lon="7.5702729"><ele>244.0</ele><time>2026-05-03T14:54:25.077Z</time></trkpt><trkpt lat="44.9503326" lon="7.5705134"><ele>244.0</ele><time>2026-05-03T14:54:26.092Z</time></trkpt><trkpt lat="44.9504016" lon="7.5707542"><ele>243.0</ele><time>2026-05-03T14:54:27.103Z</time></trkpt><trkpt lat="44.9504667" lon="7.5709939"><ele>242.0</ele><time>2026-05-03T14:54:28.093Z</time></trkpt><trkpt lat="44.9505345" lon="7.5712334"><ele>241.0</ele><time>2026-05-03T14:54:29.073Z</time></trkpt><trkpt lat="44.9506048" lon="7.5714727"><ele>240.33333333333331</ele><time>2026-05-03T14:54:30.074Z</time></trkpt><trkpt lat="44.9506712" lon="7.5717139"><ele>239.66666666666669</ele><time>2026-05-03T14:54:31.088Z</time></trkpt><trkpt lat="44.9507386" lon="7.5719595"><ele>239.0</ele><time>2026-05-03T14:54:32.064Z</time></trkpt><trkpt lat="44.95081" lon="7.5722067"><ele>240.0</ele><time>2026-05-03T14:54:33.105Z</time></trkpt><trkpt lat="44.9508822" lon="7.5724534"><ele>241.0</ele><time>2026-05-03T14:54:34.095Z</time></trkpt><trkpt lat="44.9509507" lon="7.5727013"><ele>242.0</ele><time>2026-05-03T14:54:35.095Z</time></trkpt><trkpt lat="44.9510157" lon="7.5729494"><ele>242.0</ele><time>2026-05-03T14:54:36.093Z</time></trkpt><trkpt lat="44.9510844" lon="7.573195"><ele>242.0</ele><time>2026-05-03T14:54:37.085Z</time></trkpt><trkpt lat="44.9511517" lon="7.5734344"><ele>242.0</ele><time>2026-05-03T14:54:38.059Z</time></trkpt><trkpt lat="44.9512221" lon="7.5736738"><ele>242.0</ele><time>2026-05-03T14:54:39.112Z</time></trkpt><trkpt lat="44.9512908" lon="7.5739173"><ele>242.0</ele><time>2026-05-03T14:54:40.096Z</time></trkpt><trkpt lat="44.9513617" lon="7.5741695"><ele>242.0</ele><time>2026-05-03T14:54:41.085Z</time></trkpt><trkpt lat="44.9514329" lon="7.5744226"><ele>241.33333333333334</ele><time>2026-05-03T14:54:42.094Z</time></trkpt><trkpt lat="44.9515049" lon="7.5746779"><ele>240.66666666666669</ele><time>2026-05-03T14:54:43.092Z</time></trkpt><trkpt lat="44.9515755" lon="7.5749385"><ele>240.0</ele><time>2026-05-03T14:54:44.088Z</time></trkpt><trkpt lat="44.9516475" lon="7.5752054"><ele>239.33333333333331</ele><time>2026-05-03T14:54:45.109Z</time></trkpt><trkpt lat="44.9517193" lon="7.5754605"><ele>238.66666666666666</ele><time>2026-05-03T14:54:46.102Z</time></trkpt><trkpt lat="44.9517937" lon="7.5757113"><ele>238.0</ele><time>2026-05-03T14:54:47.082Z</time></trkpt><trkpt lat="44.951863" lon="7.5759519"><ele>238.0</ele><time>2026-05-03T14:54:48.095Z</time></trkpt><trkpt lat="44.9519288" lon="7.5761895"><ele>238.0</ele><time>2026-05-03T14:54:49.083Z</time></trkpt><trkpt lat="44.9519954" lon="7.5764262"><ele>238.0</ele><time>2026-05-03T14:54:50.083Z</time></trkpt><trkpt lat="44.9520608" lon="7.5766691"><ele>238.0</ele><time>2026-05-03T14:54:51.089Z</time></trkpt><trkpt lat="44.9521234" lon="7.5769103"><ele>238.0</ele><time>2026-05-03T14:54:52.09Z</time></trkpt><trkpt lat="44.9521893" lon="7.5771521"><ele>238.0</ele><time>2026-05-03T14:54:53.103Z</time></trkpt><trkpt lat="44.9522591" lon="7.5774011"><ele>238.0</ele><time>2026-05-03T14:54:54.097Z</time></trkpt><trkpt lat="44.9523294" lon="7.5776462"><ele>238.0</ele><time>2026-05-03T14:54:55.097Z</time></trkpt><trkpt lat="44.9523987" lon="7.5778948"><ele>238.0</ele><time>2026-05-03T14:54:56.099Z</time></trkpt><trkpt lat="44.9524682" lon="7.5781423"><ele>238.33333333333331</ele><time>2026-05-03T14:54:57.084Z</time></trkpt><trkpt lat="44.9525362" lon="7.5783928"><ele>238.66666666666669</ele><time>2026-05-03T14:54:58.082Z</time></trkpt><trkpt lat="44.9526053" lon="7.5786426"><ele>239.0</ele><time>2026-05-03T14:54:59.082Z</time></trkpt><trkpt lat="44.9526778" lon="7.5788918"><ele>239.0</ele><time>2026-05-03T14:55:00.073Z</time></trkpt><trkpt lat="44.952747" lon="7.5791437"><ele>239.0</ele><time>2026-05-03T14:55:01.093Z</time></trkpt><trkpt lat="44.9528174" lon="7.5793973"><ele>239.0</ele><time>2026-05-03T14:55:02.095Z</time></trkpt><trkpt lat="44.9528903" lon="7.5796503"><ele>239.0</ele><time>2026-05-03T14:55:03.092Z</time></trkpt><trkpt lat="44.9529631" lon="7.5799046"><ele>239.0</ele><time>2026-05-03T14:55:04.086Z</time></trkpt><trkpt lat="44.9530364" lon="7.5801609"><ele>239.0</ele><time>2026-05-03T14:55:05.083Z</time></trkpt><trkpt lat="44.9531067" lon="7.580416"><ele>239.33333333333334</ele><time>2026-05-03T14:55:06.075Z</time></trkpt><trkpt lat="44.9531788" lon="7.5806768"><ele>239.66666666666669</ele><time>2026-05-03T14:55:07.078Z</time></trkpt><trkpt lat="44.9532541" lon="7.5809341"><ele>240.0</ele><time>2026-05-03T14:55:08.086Z</time></trkpt><trkpt lat="44.9533278" lon="7.581192"><ele>240.0</ele><time>2026-05-03T14:55:09.079Z</time></trkpt><trkpt lat="44.9534008" lon="7.5814535"><ele>240.0</ele><time>2026-05-03T14:55:10.098Z</time></trkpt><trkpt lat="44.9534736" lon="7.5817069"><ele>240.0</ele><time>2026-05-03T14:55:11.092Z</time></trkpt><trkpt lat="44.953541" lon="7.5819463"><ele>240.0</ele><time>2026-05-03T14:55:12.096Z</time></trkpt><trkpt lat="44.9536042" lon="7.5821694"><ele>240.0</ele><time>2026-05-03T14:55:13.091Z</time></trkpt><trkpt lat="44.9536637" lon="7.5823891"><ele>240.0</ele><time>2026-05-03T14:55:14.073Z</time></trkpt><trkpt lat="44.9537191" lon="7.5825911"><ele>240.0</ele><time>2026-05-03T14:55:15.096Z</time></trkpt><trkpt lat="44.9537759" lon="7.5827803"><ele>240.0</ele><time>2026-05-03T14:55:16.094Z</time></trkpt><trkpt lat="44.9538265" lon="7.5829675"><ele>240.0</ele><time>2026-05-03T14:55:17.081Z</time></trkpt><trkpt lat="44.9538745" lon="7.5831405"><ele>240.0</ele><time>2026-05-03T14:55:18.082Z</time></trkpt><trkpt lat="44.9539192" lon="7.5832988"><ele>239.8</ele><time>2026-05-03T14:55:19.085Z</time></trkpt><trkpt lat="44.9539637" lon="7.5834586"><ele>239.6</ele><time>2026-05-03T14:55:20.095Z</time></trkpt><trkpt lat="44.9540036" lon="7.5836097"><ele>239.39999999999998</ele><time>2026-05-03T14:55:21.11Z</time></trkpt><trkpt lat="44.9540431" lon="7.5837401"><ele>239.2</ele><time>2026-05-03T14:55:22.086Z</time></trkpt><trkpt lat="44.9540738" lon="7.5838642"><ele>239.0</ele><time>2026-05-03T14:55:23.097Z</time></trkpt><trkpt lat="44.9540902" lon="7.5839826"><ele>238.83333333333334</ele><time>2026-05-03T14:55:24.081Z</time></trkpt><trkpt lat="44.954073" lon="7.5841027"><ele>238.66666666666669</ele><time>2026-05-03T14:55:25.087Z</time></trkpt><trkpt lat="44.9540492" lon="7.5842223"><ele>238.5</ele><time>2026-05-03T14:55:26.079Z</time></trkpt><trkpt lat="44.9540171" lon="7.5843396"><ele>238.33333333333331</ele><time>2026-05-03T14:55:27.093Z</time></trkpt><trkpt lat="44.9540094" lon="7.5844497"><ele>238.16666666666666</ele><time>2026-05-03T14:55:28.086Z</time></trkpt><trkpt lat="44.9540336" lon="7.5845592"><ele>238.0</ele><time>2026-05-03T14:55:29.088Z</time></trkpt><trkpt lat="44.9540906" lon="7.5846431"><ele>237.99999999999997</ele><time>2026-05-03T14:55:30.094Z</time></trkpt><trkpt lat="44.954161" lon="7.5846967"><ele>238.0</ele><time>2026-05-03T14:55:31.089Z</time></trkpt><trkpt lat="44.9542491" lon="7.5847079"><ele>238.0</ele><time>2026-05-03T14:55:32.074Z</time></trkpt><trkpt lat="44.9543221" lon="7.5846783"><ele>238.0</ele><time>2026-05-03T14:55:33.097Z</time></trkpt><trkpt lat="44.9543832" lon="7.5846072"><ele>237.99999999999997</ele><time>2026-05-03T14:55:34.093Z</time></trkpt><trkpt lat="44.9544195" lon="7.5845127"><ele>238.0</ele><time>2026-05-03T14:55:35.09Z</time></trkpt><trkpt lat="44.9544439" lon="7.584393"><ele>237.8</ele><time>2026-05-03T14:55:36.099Z</time></trkpt><trkpt lat="44.9544758" lon="7.5842718"><ele>237.60000000000002</ele><time>2026-05-03T14:55:37.082Z</time></trkpt><trkpt lat="44.9545185" lon="7.5841522"><ele>237.39999999999998</ele><time>2026-05-03T14:55:38.083Z</time></trkpt><trkpt lat="44.9545853" lon="7.5840428"><ele>237.2</ele><time>2026-05-03T14:55:39.098Z</time></trkpt><trkpt lat="44.954664" lon="7.5839418"><ele>237.0</ele><time>2026-05-03T14:55:40.09Z</time></trkpt><trkpt lat="44.9547579" lon="7.5838297"><ele>237.0</ele><time>2026-05-03T14:55:41.091Z</time></trkpt><trkpt lat="44.9548617" lon="7.5837135"><ele>237.0</ele><time>2026-05-03T14:55:42.088Z</time></trkpt><trkpt lat="44.9549719" lon="7.5835915"><ele>237.0</ele><time>2026-05-03T14:55:43.078Z</time></trkpt><trkpt lat="44.9550879" lon="7.5834663"><ele>237.0</ele><time>2026-05-03T14:55:44.082Z</time></trkpt><trkpt lat="44.9552126" lon="7.5833404"><ele>238.0</ele><time>2026-05-03T14:55:45.095Z</time></trkpt><trkpt lat="44.9553413" lon="7.5832107"><ele>239.0</ele><time>2026-05-03T14:55:46.101Z</time></trkpt><trkpt lat="44.9554706" lon="7.5831009"><ele>240.0</ele><time>2026-05-03T14:55:47.084Z</time></trkpt><trkpt lat="44.9556079" lon="7.5830113"><ele>240.0</ele><time>2026-05-03T14:55:48.077Z</time></trkpt><trkpt lat="44.9557517" lon="7.5829345"><ele>240.0</ele><time>2026-05-03T14:55:49.096Z</time></trkpt><trkpt lat="44.955901" lon="7.5828661"><ele>240.0</ele><time>2026-05-03T14:55:50.091Z</time></trkpt><trkpt lat="44.9560513" lon="7.5827903"><ele>240.0</ele><time>2026-05-03T14:55:51.088Z</time></trkpt><trkpt lat="44.9561989" lon="7.58271"><ele>240.0</ele><time>2026-05-03T14:55:52.098Z</time></trkpt><trkpt lat="44.9563512" lon="7.582621"><ele>240.0</ele><time>2026-05-03T14:55:53.093Z</time></trkpt><trkpt lat="44.9565052" lon="7.5825327"><ele>240.0</ele><time>2026-05-03T14:55:54.098Z</time></trkpt><trkpt lat="44.9566628" lon="7.5824455"><ele>240.0</ele><time>2026-05-03T14:55:55.093Z</time></trkpt><trkpt lat="44.9568214" lon="7.5823527"><ele>240.0</ele><time>2026-05-03T14:55:56.082Z</time></trkpt><trkpt lat="44.9569877" lon="7.5822658"><ele>240.0</ele><time>2026-05-03T14:55:57.094Z</time></trkpt><trkpt lat="44.9571612" lon="7.582176"><ele>240.0</ele><time>2026-05-03T14:55:58.103Z</time></trkpt><trkpt lat="44.9573327" lon="7.5820864"><ele>240.0</ele><time>2026-05-03T14:55:59.088Z</time></trkpt><trkpt lat="44.9575037" lon="7.5819951"><ele>240.0</ele><time>2026-05-03T14:56:00.086Z</time></trkpt><trkpt lat="44.9576708" lon="7.5818963"><ele>240.0</ele><time>2026-05-03T14:56:01.082Z</time></trkpt><trkpt lat="44.9578355" lon="7.5817975"><ele>240.0</ele><time>2026-05-03T14:56:02.08Z</time></trkpt><trkpt lat="44.9579951" lon="7.5816896"><ele>240.0</ele><time>2026-05-03T14:56:03.088Z</time></trkpt><trkpt lat="44.9581521" lon="7.581569"><ele>240.0</ele><time>2026-05-03T14:56:04.087Z</time></trkpt><trkpt lat="44.9583008" lon="7.5814323"><ele>240.0</ele><time>2026-05-03T14:56:05.097Z</time></trkpt><trkpt lat="44.9584488" lon="7.5812867"><ele>240.66666666666669</ele><time>2026-05-03T14:56:06.088Z</time></trkpt><trkpt lat="44.9585942" lon="7.5811418"><ele>241.33333333333334</ele><time>2026-05-03T14:56:07.097Z</time></trkpt><trkpt lat="44.958735" lon="7.5809808"><ele>242.0</ele><time>2026-05-03T14:56:08.097Z</time></trkpt><trkpt lat="44.9588671" lon="7.5808081"><ele>242.0</ele><time>2026-05-03T14:56:09.077Z</time></trkpt><trkpt lat="44.9589932" lon="7.580622"><ele>242.0</ele><time>2026-05-03T14:56:10.097Z</time></trkpt><trkpt lat="44.9591075" lon="7.5804335"><ele>242.0</ele><time>2026-05-03T14:56:11.098Z</time></trkpt><trkpt lat="44.9592192" lon="7.5802373"><ele>241.33333333333334</ele><time>2026-05-03T14:56:12.095Z</time></trkpt><trkpt lat="44.9593201" lon="7.5800415"><ele>240.66666666666669</ele><time>2026-05-03T14:56:13.1Z</time></trkpt><trkpt lat="44.9594153" lon="7.5798396"><ele>240.0</ele><time>2026-05-03T14:56:14.08Z</time></trkpt><trkpt lat="44.9595105" lon="7.5796233"><ele>240.66666666666669</ele><time>2026-05-03T14:56:15.072Z</time></trkpt><trkpt lat="44.9596048" lon="7.5793965"><ele>241.33333333333334</ele><time>2026-05-03T14:56:16.095Z</time></trkpt><trkpt lat="44.9596975" lon="7.5791862"><ele>242.0</ele><time>2026-05-03T14:56:17.099Z</time></trkpt><trkpt lat="44.9597898" lon="7.5789868"><ele>242.0</ele><time>2026-05-03T14:56:18.072Z</time></trkpt><trkpt lat="44.9598814" lon="7.5787924"><ele>242.0</ele><time>2026-05-03T14:56:19.094Z</time></trkpt><trkpt lat="44.9599741" lon="7.5785988"><ele>242.0</ele><time>2026-05-03T14:56:20.094Z</time></trkpt><trkpt lat="44.9600606" lon="7.5784"><ele>242.0</ele><time>2026-05-03T14:56:21.086Z</time></trkpt><trkpt lat="44.9601492" lon="7.5781995"><ele>242.0</ele><time>2026-05-03T14:56:22.096Z</time></trkpt><trkpt lat="44.9602376" lon="7.5780002"><ele>242.0</ele><time>2026-05-03T14:56:23.102Z</time></trkpt><trkpt lat="44.9603277" lon="7.5777982"><ele>242.0</ele><time>2026-05-03T14:56:24.094Z</time></trkpt><trkpt lat="44.9604165" lon="7.5775974"><ele>242.0</ele><time>2026-05-03T14:56:25.067Z</time></trkpt><trkpt lat="44.9605083" lon="7.5774237"><ele>242.0</ele><time>2026-05-03T14:56:26.058Z</time></trkpt><trkpt lat="44.9606025" lon="7.5772711"><ele>242.0</ele><time>2026-05-03T14:56:27.08Z</time></trkpt><trkpt lat="44.9607131" lon="7.5771414"><ele>242.0</ele><time>2026-05-03T14:56:28.077Z</time></trkpt><trkpt lat="44.9608304" lon="7.5770341"><ele>242.0</ele><time>2026-05-03T14:56:29.072Z</time></trkpt><trkpt lat="44.9609576" lon="7.5769474"><ele>242.0</ele><time>2026-05-03T14:56:30.067Z</time></trkpt><trkpt lat="44.9610894" lon="7.5768786"><ele>242.0</ele><time>2026-05-03T14:56:31.094Z</time></trkpt><trkpt lat="44.9612273" lon="7.5768313"><ele>242.0</ele><time>2026-05-03T14:56:32.062Z</time></trkpt><trkpt lat="44.9613556" lon="7.5768341"><ele>242.0</ele><time>2026-05-03T14:56:33.088Z</time></trkpt><trkpt lat="44.9614652" lon="7.5768445"><ele>242.0</ele><time>2026-05-03T14:56:34.073Z</time></trkpt><trkpt lat="44.9615668" lon="7.5768574"><ele>242.00000000000003</ele><time>2026-05-03T14:56:35.096Z</time></trkpt><trkpt lat="44.9616484" lon="7.5768697"><ele>242.0</ele><time>2026-05-03T14:56:36.082Z</time></trkpt><trkpt lat="44.96172" lon="7.5768781"><ele>242.0</ele><time>2026-05-03T14:56:37.077Z</time></trkpt><trkpt lat="44.9617958" lon="7.576907"><ele>242.0</ele><time>2026-05-03T14:56:39.078Z</time></trkpt><trkpt lat="44.961858" lon="7.5769779"><ele>242.00000000000003</ele><time>2026-05-03T14:56:50.113Z</time></trkpt><trkpt lat="44.9619123" lon="7.5770594"><ele>242.0</ele><time>2026-05-03T14:56:51.082Z</time></trkpt><trkpt lat="44.9619614" lon="7.577152"><ele>242.2</ele><time>2026-05-03T14:56:52.071Z</time></trkpt><trkpt lat="44.9620223" lon="7.5772545"><ele>242.39999999999998</ele><time>2026-05-03T14:56:53.086Z</time></trkpt><trkpt lat="44.9620888" lon="7.5773374"><ele>242.60000000000002</ele><time>2026-05-03T14:56:54.085Z</time></trkpt><trkpt lat="44.9621733" lon="7.5773861"><ele>242.8</ele><time>2026-05-03T14:56:55.082Z</time></trkpt><trkpt lat="44.9622704" lon="7.5774122"><ele>243.0</ele><time>2026-05-03T14:56:56.074Z</time></trkpt><trkpt lat="44.9623661" lon="7.5774115"><ele>243.0</ele><time>2026-05-03T14:56:57.078Z</time></trkpt><trkpt lat="44.9624545" lon="7.5773663"><ele>243.0</ele><time>2026-05-03T14:56:58.088Z</time></trkpt><trkpt lat="44.9625291" lon="7.5772879"><ele>243.0</ele><time>2026-05-03T14:56:59.089Z</time></trkpt><trkpt lat="44.9625961" lon="7.5771853"><ele>243.0</ele><time>2026-05-03T14:57:00.085Z</time></trkpt><trkpt lat="44.9626464" lon="7.5770631"><ele>243.0</ele><time>2026-05-03T14:57:01.083Z</time></trkpt><trkpt lat="44.9626673" lon="7.5769297"><ele>243.8</ele><time>2026-05-03T14:57:02.089Z</time></trkpt><trkpt lat="44.9626654" lon="7.5767788"><ele>244.60000000000002</ele><time>2026-05-03T14:57:03.081Z</time></trkpt><trkpt lat="44.9626536" lon="7.5766312"><ele>245.39999999999998</ele><time>2026-05-03T14:57:04.101Z</time></trkpt><trkpt lat="44.9626498" lon="7.5764869"><ele>246.2</ele><time>2026-05-03T14:57:05.073Z</time></trkpt><trkpt lat="44.9626749" lon="7.5763487"><ele>247.0</ele><time>2026-05-03T14:57:06.074Z</time></trkpt><trkpt lat="44.9627334" lon="7.5762102"><ele>246.25</ele><time>2026-05-03T14:57:07.088Z</time></trkpt><trkpt lat="44.9628046" lon="7.5760816"><ele>245.5</ele><time>2026-05-03T14:57:08.088Z</time></trkpt><trkpt lat="44.9628846" lon="7.5759538"><ele>244.75</ele><time>2026-05-03T14:57:09.093Z</time></trkpt><trkpt lat="44.9629686" lon="7.5758192"><ele>244.0</ele><time>2026-05-03T14:57:10.088Z</time></trkpt><trkpt lat="44.9630563" lon="7.5756713"><ele>244.0</ele><time>2026-05-03T14:57:11.084Z</time></trkpt><trkpt lat="44.9631502" lon="7.5755171"><ele>244.0</ele><time>2026-05-03T14:57:12.089Z</time></trkpt><trkpt lat="44.9632513" lon="7.5753531"><ele>244.0</ele><time>2026-05-03T14:57:13.083Z</time></trkpt><trkpt lat="44.9633553" lon="7.5751926"><ele>244.75</ele><time>2026-05-03T14:57:14.086Z</time></trkpt><trkpt lat="44.963455" lon="7.5750299"><ele>245.5</ele><time>2026-05-03T14:57:15.087Z</time></trkpt><trkpt lat="44.9635504" lon="7.574877"><ele>246.25</ele><time>2026-05-03T14:57:16.083Z</time></trkpt><trkpt lat="44.9636409" lon="7.5747282"><ele>247.0</ele><time>2026-05-03T14:57:17.095Z</time></trkpt><trkpt lat="44.9637362" lon="7.5745784"><ele>247.0</ele><time>2026-05-03T14:57:18.096Z</time></trkpt><trkpt lat="44.9638367" lon="7.5744208"><ele>247.0</ele><time>2026-05-03T14:57:19.09Z</time></trkpt><trkpt lat="44.9639429" lon="7.5742529"><ele>247.0</ele><time>2026-05-03T14:57:20.064Z</time></trkpt><trkpt lat="44.9640523" lon="7.5740716"><ele>247.0</ele><time>2026-05-03T14:57:21.09Z</time></trkpt><trkpt lat="44.9641626" lon="7.5738929"><ele>247.0</ele><time>2026-05-03T14:57:22.093Z</time></trkpt><trkpt lat="44.9642872" lon="7.5737027"><ele>247.0</ele><time>2026-05-03T14:57:23.087Z</time></trkpt><trkpt lat="44.9644099" lon="7.5735088"><ele>247.0</ele><time>2026-05-03T14:57:24.092Z</time></trkpt><trkpt lat="44.9645309" lon="7.5733126"><ele>247.0</ele><time>2026-05-03T14:57:25.083Z</time></trkpt><trkpt lat="44.9646472" lon="7.5731234"><ele>247.0</ele><time>2026-05-03T14:57:26.084Z</time></trkpt><trkpt lat="44.9647627" lon="7.5729434"><ele>246.66666666666666</ele><time>2026-05-03T14:57:27.08Z</time></trkpt><trkpt lat="44.9648759" lon="7.5727633"><ele>246.33333333333331</ele><time>2026-05-03T14:57:28.098Z</time></trkpt><trkpt lat="44.964987" lon="7.5725895"><ele>246.0</ele><time>2026-05-03T14:57:29.084Z</time></trkpt><trkpt lat="44.9651007" lon="7.5724155"><ele>245.66666666666669</ele><time>2026-05-03T14:57:30.087Z</time></trkpt><trkpt lat="44.9652138" lon="7.5722395"><ele>245.33333333333334</ele><time>2026-05-03T14:57:31.065Z</time></trkpt><trkpt lat="44.9653218" lon="7.5720757"><ele>245.0</ele><time>2026-05-03T14:57:32.066Z</time></trkpt><trkpt lat="44.9654214" lon="7.5719221"><ele>245.75</ele><time>2026-05-03T14:57:33.092Z</time></trkpt><trkpt lat="44.9655181" lon="7.5717704"><ele>246.5</ele><time>2026-05-03T14:57:34.069Z</time></trkpt><trkpt lat="44.9656108" lon="7.5716326"><ele>247.25</ele><time>2026-05-03T14:57:35.08Z</time></trkpt><trkpt lat="44.9657001" lon="7.5714976"><ele>248.0</ele><time>2026-05-03T14:57:36.084Z</time></trkpt><trkpt lat="44.965788" lon="7.5713557"><ele>248.0</ele><time>2026-05-03T14:57:37.099Z</time></trkpt><trkpt lat="44.9658741" lon="7.5712152"><ele>248.0</ele><time>2026-05-03T14:57:38.088Z</time></trkpt><trkpt lat="44.9659616" lon="7.5710689"><ele>248.0</ele><time>2026-05-03T14:57:39.073Z</time></trkpt><trkpt lat="44.966054" lon="7.5709219"><ele>248.0</ele><time>2026-05-03T14:57:40.094Z</time></trkpt><trkpt lat="44.9661471" lon="7.5707617"><ele>248.0</ele><time>2026-05-03T14:57:41.09Z</time></trkpt><trkpt lat="44.9662377" lon="7.5705876"><ele>248.0</ele><time>2026-05-03T14:57:42.082Z</time></trkpt><trkpt lat="44.9663361" lon="7.5704194"><ele>248.0</ele><time>2026-05-03T14:57:43.072Z</time></trkpt><trkpt lat="44.9664399" lon="7.5702481"><ele>248.66666666666669</ele><time>2026-05-03T14:57:44.078Z</time></trkpt><trkpt lat="44.9665446" lon="7.5700746"><ele>249.33333333333331</ele><time>2026-05-03T14:57:45.088Z</time></trkpt><trkpt lat="44.9666512" lon="7.5699085"><ele>250.0</ele><time>2026-05-03T14:57:46.079Z</time></trkpt><trkpt lat="44.9667593" lon="7.5697304"><ele>251.0</ele><time>2026-05-03T14:57:47.073Z</time></trkpt><trkpt lat="44.9668686" lon="7.5695508"><ele>252.0</ele><time>2026-05-03T14:57:48.085Z</time></trkpt><trkpt lat="44.9669828" lon="7.5693684"><ele>253.0</ele><time>2026-05-03T14:57:49.095Z</time></trkpt><trkpt lat="44.967099" lon="7.5691859"><ele>253.0</ele><time>2026-05-03T14:57:50.085Z</time></trkpt><trkpt lat="44.9672141" lon="7.5689964"><ele>253.0</ele><time>2026-05-03T14:57:51.094Z</time></trkpt><trkpt lat="44.9673244" lon="7.5688074"><ele>253.0</ele><time>2026-05-03T14:57:52.075Z</time></trkpt><trkpt lat="44.9674283" lon="7.5686273"><ele>253.66666666666666</ele><time>2026-05-03T14:57:53.077Z</time></trkpt><trkpt lat="44.9675282" lon="7.5684556"><ele>254.33333333333331</ele><time>2026-05-03T14:57:54.093Z</time></trkpt><trkpt lat="44.9676255" lon="7.5682946"><ele>255.0</ele><time>2026-05-03T14:57:55.088Z</time></trkpt><trkpt lat="44.9677166" lon="7.5681368"><ele>255.0</ele><time>2026-05-03T14:57:56.089Z</time></trkpt><trkpt lat="44.9678033" lon="7.5679855"><ele>255.0</ele><time>2026-05-03T14:57:57.069Z</time></trkpt><trkpt lat="44.9678924" lon="7.5678433"><ele>255.0</ele><time>2026-05-03T14:57:58.08Z</time></trkpt><trkpt lat="44.9679722" lon="7.5677163"><ele>255.0</ele><time>2026-05-03T14:57:59.085Z</time></trkpt><trkpt lat="44.968051" lon="7.5676048"><ele>255.0</ele><time>2026-05-03T14:58:00.082Z</time></trkpt><trkpt lat="44.9681293" lon="7.5674916"><ele>255.0</ele><time>2026-05-03T14:58:01.075Z</time></trkpt><trkpt lat="44.9682134" lon="7.5673646"><ele>255.0</ele><time>2026-05-03T14:58:02.073Z</time></trkpt><trkpt lat="44.968299" lon="7.5672348"><ele>255.0</ele><time>2026-05-03T14:58:03.071Z</time></trkpt><trkpt lat="44.9683769" lon="7.5670822"><ele>254.75</ele><time>2026-05-03T14:58:04.079Z</time></trkpt><trkpt lat="44.9684563" lon="7.566925"><ele>254.5</ele><time>2026-05-03T14:58:05.095Z</time></trkpt><trkpt lat="44.9685504" lon="7.5667788"><ele>254.25</ele><time>2026-05-03T14:58:06.088Z</time></trkpt><trkpt lat="44.9686498" lon="7.5666388"><ele>254.0</ele><time>2026-05-03T14:58:07.099Z</time></trkpt><trkpt lat="44.9687537" lon="7.5664884"><ele>254.0</ele><time>2026-05-03T14:58:08.09Z</time></trkpt><trkpt lat="44.9688605" lon="7.5663377"><ele>254.0</ele><time>2026-05-03T14:58:09.092Z</time></trkpt><trkpt lat="44.968967" lon="7.5661763"><ele>254.0</ele><time>2026-05-03T14:58:10.103Z</time></trkpt><trkpt lat="44.9690764" lon="7.5660128"><ele>254.0</ele><time>2026-05-03T14:58:11.084Z</time></trkpt><trkpt lat="44.9691867" lon="7.5658504"><ele>254.0</ele><time>2026-05-03T14:58:12.078Z</time></trkpt><trkpt lat="44.9692887" lon="7.5656903"><ele>254.0</ele><time>2026-05-03T14:58:13.084Z</time></trkpt><trkpt lat="44.9693861" lon="7.5655294"><ele>254.0</ele><time>2026-05-03T14:58:14.098Z</time></trkpt><trkpt lat="44.9694838" lon="7.565356"><ele>254.0</ele><time>2026-05-03T14:58:15.076Z</time></trkpt><trkpt lat="44.9695893" lon="7.5651878"><ele>254.0</ele><time>2026-05-03T14:58:16.099Z</time></trkpt><trkpt lat="44.969699" lon="7.5650231"><ele>254.0</ele><time>2026-05-03T14:58:17.095Z</time></trkpt><trkpt lat="44.9698064" lon="7.564858"><ele>254.0</ele><time>2026-05-03T14:58:18.09Z</time></trkpt><trkpt lat="44.9699119" lon="7.5646933"><ele>254.0</ele><time>2026-05-03T14:58:19.085Z</time></trkpt><trkpt lat="44.9700234" lon="7.5645321"><ele>254.33333333333334</ele><time>2026-05-03T14:58:20.087Z</time></trkpt><trkpt lat="44.9701363" lon="7.5643804"><ele>254.66666666666669</ele><time>2026-05-03T14:58:21.081Z</time></trkpt><trkpt lat="44.970253" lon="7.5642412"><ele>255.0</ele><time>2026-05-03T14:58:22.082Z</time></trkpt><trkpt lat="44.9703779" lon="7.5641139"><ele>255.0</ele><time>2026-05-03T14:58:23.087Z</time></trkpt><trkpt lat="44.9705187" lon="7.5639915"><ele>255.0</ele><time>2026-05-03T14:58:24.09Z</time></trkpt><trkpt lat="44.9706676" lon="7.56388"><ele>255.0</ele><time>2026-05-03T14:58:25.083Z</time></trkpt><trkpt lat="44.9708215" lon="7.5637696"><ele>255.33333333333331</ele><time>2026-05-03T14:58:26.095Z</time></trkpt><trkpt lat="44.9709807" lon="7.5636734"><ele>255.66666666666666</ele><time>2026-05-03T14:58:27.089Z</time></trkpt><trkpt lat="44.9711496" lon="7.5635943"><ele>256.0</ele><time>2026-05-03T14:58:28.088Z</time></trkpt><trkpt lat="44.9713244" lon="7.5635333"><ele>256.0</ele><time>2026-05-03T14:58:29.084Z</time></trkpt><trkpt lat="44.9714972" lon="7.5634788"><ele>256.0</ele><time>2026-05-03T14:58:30.103Z</time></trkpt><trkpt lat="44.9716816" lon="7.5634297"><ele>256.0</ele><time>2026-05-03T14:58:31.079Z</time></trkpt><trkpt lat="44.9718605" lon="7.5633743"><ele>256.0</ele><time>2026-05-03T14:58:32.059Z</time></trkpt><trkpt lat="44.9720401" lon="7.5633075"><ele>256.0</ele><time>2026-05-03T14:58:33.074Z</time></trkpt><trkpt lat="44.9722173" lon="7.5632406"><ele>256.0</ele><time>2026-05-03T14:58:34.092Z</time></trkpt><trkpt lat="44.972394" lon="7.5631759"><ele>256.0</ele><time>2026-05-03T14:58:35.083Z</time></trkpt><trkpt lat="44.9725721" lon="7.5631143"><ele>256.0</ele><time>2026-05-03T14:58:36.09Z</time></trkpt><trkpt lat="44.9727491" lon="7.5630457"><ele>256.0</ele><time>2026-05-03T14:58:37.078Z</time></trkpt><trkpt lat="44.9729288" lon="7.5629607"><ele>256.66666666666663</ele><time>2026-05-03T14:58:38.097Z</time></trkpt><trkpt lat="44.9731027" lon="7.5628528"><ele>257.3333333333333</ele><time>2026-05-03T14:58:39.078Z</time></trkpt><trkpt lat="44.9732642" lon="7.5627297"><ele>258.0</ele><time>2026-05-03T14:58:40.093Z</time></trkpt><trkpt lat="44.9734218" lon="7.5625871"><ele>258.0</ele><time>2026-05-03T14:58:41.081Z</time></trkpt><trkpt lat="44.9735716" lon="7.5624478"><ele>258.0</ele><time>2026-05-03T14:58:42.065Z</time></trkpt><trkpt lat="44.973718" lon="7.5622948"><ele>258.0</ele><time>2026-05-03T14:58:43.08Z</time></trkpt><trkpt lat="44.973853" lon="7.5621333"><ele>258.3333333333333</ele><time>2026-05-03T14:58:44.094Z</time></trkpt><trkpt lat="44.9739794" lon="7.5619629"><ele>258.66666666666663</ele><time>2026-05-03T14:58:45.098Z</time></trkpt><trkpt lat="44.9741036" lon="7.5617845"><ele>259.0</ele><time>2026-05-03T14:58:46.097Z</time></trkpt><trkpt lat="44.9742338" lon="7.5616087"><ele>259.0</ele><time>2026-05-03T14:58:47.079Z</time></trkpt><trkpt lat="44.974362" lon="7.5614294"><ele>259.0</ele><time>2026-05-03T14:58:48.1Z</time></trkpt><trkpt lat="44.974497" lon="7.5612522"><ele>259.0</ele><time>2026-05-03T14:58:49.088Z</time></trkpt><trkpt lat="44.9746353" lon="7.5610714"><ele>258.66666666666663</ele><time>2026-05-03T14:58:50.091Z</time></trkpt><trkpt lat="44.9747727" lon="7.5608973"><ele>258.3333333333333</ele><time>2026-05-03T14:58:51.094Z</time></trkpt><trkpt lat="44.9749094" lon="7.5607334"><ele>258.0</ele><time>2026-05-03T14:58:52.091Z</time></trkpt><trkpt lat="44.9750425" lon="7.5605839"><ele>258.0</ele><time>2026-05-03T14:58:53.077Z</time></trkpt><trkpt lat="44.9751798" lon="7.5604371"><ele>258.0</ele><time>2026-05-03T14:58:54.093Z</time></trkpt><trkpt lat="44.9753186" lon="7.5602913"><ele>258.0</ele><time>2026-05-03T14:58:55.09Z</time></trkpt><trkpt lat="44.9754637" lon="7.5601423"><ele>256.3333333333333</ele><time>2026-05-03T14:58:56.079Z</time></trkpt><trkpt lat="44.9756102" lon="7.5599973"><ele>254.66666666666666</ele><time>2026-05-03T14:58:57.078Z</time></trkpt><trkpt lat="44.975764" lon="7.5598542"><ele>253.0</ele><time>2026-05-03T14:58:58.088Z</time></trkpt><trkpt lat="44.9759166" lon="7.5597086"><ele>252.0</ele><time>2026-05-03T14:58:59.085Z</time></trkpt><trkpt lat="44.9760755" lon="7.5595555"><ele>251.0</ele><time>2026-05-03T14:59:00.085Z</time></trkpt><trkpt lat="44.9762327" lon="7.5594029"><ele>250.0</ele><time>2026-05-03T14:59:01.073Z</time></trkpt><trkpt lat="44.9763871" lon="7.5592419"><ele>250.0</ele><time>2026-05-03T14:59:02.09Z</time></trkpt><trkpt lat="44.9765375" lon="7.5590793"><ele>250.0</ele><time>2026-05-03T14:59:03.086Z</time></trkpt><trkpt lat="44.9766814" lon="7.5589281"><ele>250.0</ele><time>2026-05-03T14:59:04.084Z</time></trkpt><trkpt lat="44.9768193" lon="7.5587678"><ele>251.0</ele><time>2026-05-03T14:59:05.091Z</time></trkpt><trkpt lat="44.9769536" lon="7.5585979"><ele>252.0</ele><time>2026-05-03T14:59:06.086Z</time></trkpt><trkpt lat="44.9770843" lon="7.5584131"><ele>253.0</ele><time>2026-05-03T14:59:07.074Z</time></trkpt><trkpt lat="44.9772083" lon="7.5582245"><ele>253.0</ele><time>2026-05-03T14:59:08.09Z</time></trkpt><trkpt lat="44.977329" lon="7.5580338"><ele>253.0</ele><time>2026-05-03T14:59:09.087Z</time></trkpt><trkpt lat="44.9774446" lon="7.5578468"><ele>253.0</ele><time>2026-05-03T14:59:10.084Z</time></trkpt><trkpt lat="44.9775582" lon="7.5576593"><ele>253.0</ele><time>2026-05-03T14:59:11.091Z</time></trkpt><trkpt lat="44.9776703" lon="7.5574634"><ele>253.0</ele><time>2026-05-03T14:59:12.088Z</time></trkpt><trkpt lat="44.9777841" lon="7.5572618"><ele>253.0</ele><time>2026-05-03T14:59:13.091Z</time></trkpt><trkpt lat="44.9778993" lon="7.5570594"><ele>253.66666666666666</ele><time>2026-05-03T14:59:14.092Z</time></trkpt><trkpt lat="44.9780191" lon="7.5568569"><ele>254.33333333333331</ele><time>2026-05-03T14:59:15.092Z</time></trkpt><trkpt lat="44.9781426" lon="7.5566514"><ele>255.0</ele><time>2026-05-03T14:59:16.091Z</time></trkpt><trkpt lat="44.9782636" lon="7.556439"><ele>254.33333333333331</ele><time>2026-05-03T14:59:17.079Z</time></trkpt><trkpt lat="44.9783837" lon="7.5562296"><ele>253.66666666666666</ele><time>2026-05-03T14:59:18.085Z</time></trkpt><trkpt lat="44.9785029" lon="7.5560293"><ele>253.0</ele><time>2026-05-03T14:59:19.079Z</time></trkpt><trkpt lat="44.9786146" lon="7.5558406"><ele>253.0</ele><time>2026-05-03T14:59:20.086Z</time></trkpt><trkpt lat="44.9787195" lon="7.5556583"><ele>253.0</ele><time>2026-05-03T14:59:21.083Z</time></trkpt><trkpt lat="44.9788212" lon="7.555481"><ele>253.0</ele><time>2026-05-03T14:59:22.069Z</time></trkpt><trkpt lat="44.9789282" lon="7.5552987"><ele>253.0</ele><time>2026-05-03T14:59:23.081Z</time></trkpt><trkpt lat="44.9790384" lon="7.5551082"><ele>253.0</ele><time>2026-05-03T14:59:24.085Z</time></trkpt><trkpt lat="44.97915" lon="7.5549205"><ele>253.0</ele><time>2026-05-03T14:59:25.091Z</time></trkpt><trkpt lat="44.9792647" lon="7.5547241"><ele>253.33333333333331</ele><time>2026-05-03T14:59:26.091Z</time></trkpt><trkpt lat="44.9793803" lon="7.5545278"><ele>253.66666666666669</ele><time>2026-05-03T14:59:27.098Z</time></trkpt><trkpt lat="44.9794966" lon="7.5543266"><ele>254.0</ele><time>2026-05-03T14:59:28.09Z</time></trkpt><trkpt lat="44.9796047" lon="7.5541397"><ele>254.0</ele><time>2026-05-03T14:59:29.076Z</time></trkpt><trkpt lat="44.9797057" lon="7.5539634"><ele>254.0</ele><time>2026-05-03T14:59:30.078Z</time></trkpt><trkpt lat="44.9797998" lon="7.5538008"><ele>254.0</ele><time>2026-05-03T14:59:31.102Z</time></trkpt><trkpt lat="44.9798887" lon="7.5536567"><ele>254.0</ele><time>2026-05-03T14:59:32.066Z</time></trkpt><trkpt lat="44.9799731" lon="7.5535312"><ele>254.6</ele><time>2026-05-03T14:59:33.082Z</time></trkpt><trkpt lat="44.9800569" lon="7.5534174"><ele>255.2</ele><time>2026-05-03T14:59:34.096Z</time></trkpt><trkpt lat="44.9801382" lon="7.5533117"><ele>255.79999999999998</ele><time>2026-05-03T14:59:35.093Z</time></trkpt><trkpt lat="44.9802213" lon="7.5532227"><ele>256.4</ele><time>2026-05-03T14:59:36.082Z</time></trkpt><trkpt lat="44.9803063" lon="7.5531475"><ele>257.0</ele><time>2026-05-03T14:59:37.075Z</time></trkpt><trkpt lat="44.9803865" lon="7.5530885"><ele>257.0</ele><time>2026-05-03T14:59:38.089Z</time></trkpt><trkpt lat="44.9804741" lon="7.5530199"><ele>257.0</ele><time>2026-05-03T14:59:39.077Z</time></trkpt><trkpt lat="44.9805655" lon="7.5529353"><ele>257.0</ele><time>2026-05-03T14:59:40.082Z</time></trkpt><trkpt lat="44.9806613" lon="7.5528339"><ele>257.0</ele><time>2026-05-03T14:59:41.083Z</time></trkpt><trkpt lat="44.9807519" lon="7.5527076"><ele>257.5</ele><time>2026-05-03T14:59:42.064Z</time></trkpt><trkpt lat="44.9808348" lon="7.5525665"><ele>258.0</ele><time>2026-05-03T14:59:43.099Z</time></trkpt><trkpt lat="44.9809154" lon="7.5524021"><ele>258.5</ele><time>2026-05-03T14:59:44.094Z</time></trkpt><trkpt lat="44.9809837" lon="7.5522267"><ele>259.0</ele><time>2026-05-03T14:59:45.097Z</time></trkpt><trkpt lat="44.981033" lon="7.5520465"><ele>258.0</ele><time>2026-05-03T14:59:46.077Z</time></trkpt><trkpt lat="44.9810647" lon="7.5518549"><ele>257.0</ele><time>2026-05-03T14:59:47.088Z</time></trkpt><trkpt lat="44.981087" lon="7.5516671"><ele>256.0</ele><time>2026-05-03T14:59:48.085Z</time></trkpt><trkpt lat="44.9810931" lon="7.5514847"><ele>255.0</ele><time>2026-05-03T14:59:49.063Z</time></trkpt><trkpt lat="44.9811017" lon="7.5513019"><ele>255.5</ele><time>2026-05-03T14:59:50.064Z</time></trkpt><trkpt lat="44.9811259" lon="7.5511208"><ele>256.0</ele><time>2026-05-03T14:59:51.074Z</time></trkpt><trkpt lat="44.9811623" lon="7.5509313"><ele>256.5</ele><time>2026-05-03T14:59:52.066Z</time></trkpt><trkpt lat="44.9812074" lon="7.5507439"><ele>257.0</ele><time>2026-05-03T14:59:53.079Z</time></trkpt><trkpt lat="44.9812712" lon="7.5505563"><ele>257.33333333333337</ele><time>2026-05-03T14:59:54.085Z</time></trkpt><trkpt lat="44.9813451" lon="7.5503733"><ele>257.6666666666667</ele><time>2026-05-03T14:59:55.09Z</time></trkpt><trkpt lat="44.9814237" lon="7.5501792"><ele>258.0</ele><time>2026-05-03T14:59:56.075Z</time></trkpt><trkpt lat="44.9815107" lon="7.5499811"><ele>258.0</ele><time>2026-05-03T14:59:57.075Z</time></trkpt><trkpt lat="44.9816047" lon="7.5497804"><ele>258.0</ele><time>2026-05-03T14:59:58.059Z</time></trkpt><trkpt lat="44.9816953" lon="7.5495719"><ele>258.0</ele><time>2026-05-03T14:59:59.087Z</time></trkpt><trkpt lat="44.9817816" lon="7.5493707"><ele>257.6666666666667</ele><time>2026-05-03T15:00:00.072Z</time></trkpt><trkpt lat="44.9818621" lon="7.5491793"><ele>257.33333333333337</ele><time>2026-05-03T15:00:01.089Z</time></trkpt><trkpt lat="44.9819402" lon="7.5489795"><ele>257.0</ele><time>2026-05-03T15:00:02.087Z</time></trkpt><trkpt lat="44.9820222" lon="7.548771"><ele>256.33333333333337</ele><time>2026-05-03T15:00:03.082Z</time></trkpt><trkpt lat="44.9821092" lon="7.5485599"><ele>255.66666666666669</ele><time>2026-05-03T15:00:04.081Z</time></trkpt><trkpt lat="44.9822018" lon="7.5483355"><ele>255.0</ele><time>2026-05-03T15:00:05.079Z</time></trkpt><trkpt lat="44.9822944" lon="7.5481111"><ele>255.0</ele><time>2026-05-03T15:00:06.094Z</time></trkpt><trkpt lat="44.9823878" lon="7.5478783"><ele>255.0</ele><time>2026-05-03T15:00:07.072Z</time></trkpt><trkpt lat="44.9824827" lon="7.5476398"><ele>255.0</ele><time>2026-05-03T15:00:08.083Z</time></trkpt><trkpt lat="44.9825844" lon="7.5473914"><ele>255.33333333333331</ele><time>2026-05-03T15:00:09.08Z</time></trkpt><trkpt lat="44.9826832" lon="7.5471525"><ele>255.66666666666666</ele><time>2026-05-03T15:00:10.087Z</time></trkpt><trkpt lat="44.9827801" lon="7.5469202"><ele>256.0</ele><time>2026-05-03T15:00:11.086Z</time></trkpt><trkpt lat="44.9828748" lon="7.5466958"><ele>256.0</ele><time>2026-05-03T15:00:12.099Z</time></trkpt><trkpt lat="44.982967" lon="7.5464744"><ele>256.0</ele><time>2026-05-03T15:00:13.087Z</time></trkpt><trkpt lat="44.9830603" lon="7.546261"><ele>256.0</ele><time>2026-05-03T15:00:14.111Z</time></trkpt><trkpt lat="44.983146" lon="7.5460479"><ele>256.3333333333333</ele><time>2026-05-03T15:00:15.086Z</time></trkpt><trkpt lat="44.9832297" lon="7.5458383"><ele>256.6666666666667</ele><time>2026-05-03T15:00:16.101Z</time></trkpt><trkpt lat="44.9833133" lon="7.5456337"><ele>257.0</ele><time>2026-05-03T15:00:17.073Z</time></trkpt><trkpt lat="44.9833994" lon="7.5454322"><ele>258.33333333333337</ele><time>2026-05-03T15:00:18.071Z</time></trkpt><trkpt lat="44.9834824" lon="7.5452286"><ele>259.6666666666667</ele><time>2026-05-03T15:00:19.078Z</time></trkpt><trkpt lat="44.9835699" lon="7.5450188"><ele>261.0</ele><time>2026-05-03T15:00:20.088Z</time></trkpt><trkpt lat="44.9836533" lon="7.5448098"><ele>261.0</ele><time>2026-05-03T15:00:21.088Z</time></trkpt><trkpt lat="44.9837397" lon="7.5445976"><ele>261.0</ele><time>2026-05-03T15:00:22.084Z</time></trkpt><trkpt lat="44.9838324" lon="7.5443879"><ele>261.0</ele><time>2026-05-03T15:00:23.086Z</time></trkpt><trkpt lat="44.9839319" lon="7.5441755"><ele>260.6666666666667</ele><time>2026-05-03T15:00:24.082Z</time></trkpt><trkpt lat="44.9840281" lon="7.5439594"><ele>260.33333333333337</ele><time>2026-05-03T15:00:25.115Z</time></trkpt><trkpt lat="44.9841288" lon="7.5437469"><ele>260.0</ele><time>2026-05-03T15:00:26.088Z</time></trkpt><trkpt lat="44.9842269" lon="7.5435311"><ele>259.6666666666667</ele><time>2026-05-03T15:00:27.085Z</time></trkpt><trkpt lat="44.984329" lon="7.5433124"><ele>259.3333333333333</ele><time>2026-05-03T15:00:28.07Z</time></trkpt><trkpt lat="44.9844294" lon="7.5430982"><ele>259.0</ele><time>2026-05-03T15:00:29.093Z</time></trkpt><trkpt lat="44.984536" lon="7.5428865"><ele>259.0</ele><time>2026-05-03T15:00:30.073Z</time></trkpt><trkpt lat="44.984643" lon="7.5426719"><ele>259.0</ele><time>2026-05-03T15:00:31.081Z</time></trkpt><trkpt lat="44.9847478" lon="7.5424612"><ele>259.0</ele><time>2026-05-03T15:00:32.069Z</time></trkpt><trkpt lat="44.9848479" lon="7.5422509"><ele>259.0</ele><time>2026-05-03T15:00:33.09Z</time></trkpt><trkpt lat="44.9849485" lon="7.5420465"><ele>259.0</ele><time>2026-05-03T15:00:34.077Z</time></trkpt><trkpt lat="44.9850471" lon="7.5418459"><ele>259.0</ele><time>2026-05-03T15:00:35.084Z</time></trkpt><trkpt lat="44.985145" lon="7.5416367"><ele>259.0</ele><time>2026-05-03T15:00:36.08Z</time></trkpt><trkpt lat="44.9852476" lon="7.5414302"><ele>259.0</ele><time>2026-05-03T15:00:37.088Z</time></trkpt><trkpt lat="44.985346" lon="7.5412187"><ele>259.0</ele><time>2026-05-03T15:00:38.075Z</time></trkpt><trkpt lat="44.9854504" lon="7.5410074"><ele>259.66666666666663</ele><time>2026-05-03T15:00:39.077Z</time></trkpt><trkpt lat="44.985553" lon="7.5407937"><ele>260.3333333333333</ele><time>2026-05-03T15:00:40.105Z</time></trkpt><trkpt lat="44.9856577" lon="7.5405815"><ele>261.0</ele><time>2026-05-03T15:00:41.091Z</time></trkpt><trkpt lat="44.9857552" lon="7.5403698"><ele>260.6666666666667</ele><time>2026-05-03T15:00:42.097Z</time></trkpt><trkpt lat="44.9858613" lon="7.5401601"><ele>260.33333333333337</ele><time>2026-05-03T15:00:43.09Z</time></trkpt><trkpt lat="44.9859676" lon="7.5399584"><ele>260.0</ele><time>2026-05-03T15:00:44.093Z</time></trkpt><trkpt lat="44.9860741" lon="7.5397607"><ele>260.0</ele><time>2026-05-03T15:00:45.098Z</time></trkpt><trkpt lat="44.9861808" lon="7.5395615"><ele>260.0</ele><time>2026-05-03T15:00:46.103Z</time></trkpt><trkpt lat="44.9862987" lon="7.5393648"><ele>260.0</ele><time>2026-05-03T15:00:47.08Z</time></trkpt><trkpt lat="44.986418" lon="7.5391773"><ele>260.33333333333337</ele><time>2026-05-03T15:00:48.079Z</time></trkpt><trkpt lat="44.9865388" lon="7.538988"><ele>260.6666666666667</ele><time>2026-05-03T15:00:49.086Z</time></trkpt><trkpt lat="44.9866679" lon="7.5388046"><ele>261.0</ele><time>2026-05-03T15:00:50.093Z</time></trkpt><trkpt lat="44.9867964" lon="7.5386191"><ele>261.3333333333333</ele><time>2026-05-03T15:00:51.084Z</time></trkpt><trkpt lat="44.986929" lon="7.5384333"><ele>261.66666666666663</ele><time>2026-05-03T15:00:52.083Z</time></trkpt><trkpt lat="44.987062" lon="7.5382468"><ele>262.0</ele><time>2026-05-03T15:00:53.079Z</time></trkpt><trkpt lat="44.9871902" lon="7.5380683"><ele>262.0</ele><time>2026-05-03T15:00:54.093Z</time></trkpt><trkpt lat="44.9873118" lon="7.5378968"><ele>262.0</ele><time>2026-05-03T15:00:55.066Z</time></trkpt><trkpt lat="44.9874241" lon="7.5377249"><ele>262.0</ele><time>2026-05-03T15:00:56.089Z</time></trkpt><trkpt lat="44.9875492" lon="7.5375524"><ele>262.0</ele><time>2026-05-03T15:00:57.071Z</time></trkpt><trkpt lat="44.9876703" lon="7.5373791"><ele>262.0</ele><time>2026-05-03T15:00:58.077Z</time></trkpt><trkpt lat="44.9877954" lon="7.5372038"><ele>262.0</ele><time>2026-05-03T15:00:59.094Z</time></trkpt><trkpt lat="44.9879241" lon="7.5370302"><ele>262.0</ele><time>2026-05-03T15:01:00.091Z</time></trkpt><trkpt lat="44.9880476" lon="7.5368526"><ele>262.0</ele><time>2026-05-03T15:01:01.105Z</time></trkpt><trkpt lat="44.9881736" lon="7.5366736"><ele>262.0</ele><time>2026-05-03T15:01:02.07Z</time></trkpt><trkpt lat="44.9882968" lon="7.5364962"><ele>262.66666666666663</ele><time>2026-05-03T15:01:03.082Z</time></trkpt><trkpt lat="44.9884212" lon="7.536319"><ele>263.3333333333333</ele><time>2026-05-03T15:01:04.081Z</time></trkpt><trkpt lat="44.9885484" lon="7.5361434"><ele>264.0</ele><time>2026-05-03T15:01:05.099Z</time></trkpt><trkpt lat="44.9886745" lon="7.5359726"><ele>264.3333333333333</ele><time>2026-05-03T15:01:06.083Z</time></trkpt><trkpt lat="44.9887996" lon="7.5358028"><ele>264.66666666666663</ele><time>2026-05-03T15:01:07.082Z</time></trkpt><trkpt lat="44.9889276" lon="7.5356249"><ele>265.0</ele><time>2026-05-03T15:01:08.085Z</time></trkpt><trkpt lat="44.9890581" lon="7.5354466"><ele>265.3333333333333</ele><time>2026-05-03T15:01:09.094Z</time></trkpt><trkpt lat="44.9891866" lon="7.5352658"><ele>265.6666666666667</ele><time>2026-05-03T15:01:10.094Z</time></trkpt><trkpt lat="44.9893159" lon="7.5350865"><ele>266.0</ele><time>2026-05-03T15:01:11.085Z</time></trkpt><trkpt lat="44.9894435" lon="7.5348997"><ele>266.0</ele><time>2026-05-03T15:01:12.087Z</time></trkpt><trkpt lat="44.9895696" lon="7.5347132"><ele>266.0</ele><time>2026-05-03T15:01:13.08Z</time></trkpt><trkpt lat="44.9896968" lon="7.5345288"><ele>266.0</ele><time>2026-05-03T15:01:14.085Z</time></trkpt><trkpt lat="44.9898283" lon="7.5343435"><ele>266.0</ele><time>2026-05-03T15:01:15.1Z</time></trkpt><trkpt lat="44.9899582" lon="7.5341613"><ele>266.0</ele><time>2026-05-03T15:01:16.095Z</time></trkpt><trkpt lat="44.9900939" lon="7.5339753"><ele>266.0</ele><time>2026-05-03T15:01:17.086Z</time></trkpt><trkpt lat="44.9902271" lon="7.5337904"><ele>265.6666666666667</ele><time>2026-05-03T15:01:18.094Z</time></trkpt><trkpt lat="44.9903657" lon="7.5336037"><ele>265.3333333333333</ele><time>2026-05-03T15:01:19.082Z</time></trkpt><trkpt lat="44.9905036" lon="7.5334131"><ele>265.0</ele><time>2026-05-03T15:01:20.08Z</time></trkpt><trkpt lat="44.9906373" lon="7.5332255"><ele>265.0</ele><time>2026-05-03T15:01:21.087Z</time></trkpt><trkpt lat="44.9907678" lon="7.5330372"><ele>265.0</ele><time>2026-05-03T15:01:22.075Z</time></trkpt><trkpt lat="44.9908905" lon="7.5328518"><ele>265.0</ele><time>2026-05-03T15:01:23.079Z</time></trkpt><trkpt lat="44.9910022" lon="7.5326675"><ele>265.66666666666663</ele><time>2026-05-03T15:01:24.08Z</time></trkpt><trkpt lat="44.9911037" lon="7.5324727"><ele>266.3333333333333</ele><time>2026-05-03T15:01:25.092Z</time></trkpt><trkpt lat="44.9911921" lon="7.532284"><ele>267.0</ele><time>2026-05-03T15:01:26.073Z</time></trkpt><trkpt lat="44.9912731" lon="7.5321033"><ele>267.25</ele><time>2026-05-03T15:01:27.085Z</time></trkpt><trkpt lat="44.9913422" lon="7.5319326"><ele>267.5</ele><time>2026-05-03T15:01:28.085Z</time></trkpt><trkpt lat="44.9914071" lon="7.5317846"><ele>267.75</ele><time>2026-05-03T15:01:29.085Z</time></trkpt><trkpt lat="44.9914594" lon="7.5316384"><ele>268.0</ele><time>2026-05-03T15:01:30.092Z</time></trkpt><trkpt lat="44.9915114" lon="7.531494"><ele>268.0</ele><time>2026-05-03T15:01:31.086Z</time></trkpt><trkpt lat="44.9915702" lon="7.5313749"><ele>268.0</ele><time>2026-05-03T15:01:32.063Z</time></trkpt><trkpt lat="44.9916325" lon="7.5312686"><ele>268.0</ele><time>2026-05-03T15:01:33.08Z</time></trkpt><trkpt lat="44.9916955" lon="7.5311822"><ele>268.0</ele><time>2026-05-03T15:01:34.098Z</time></trkpt><trkpt lat="44.9917483" lon="7.531111"><ele>268.0</ele><time>2026-05-03T15:01:35.09Z</time></trkpt><trkpt lat="44.991841" lon="7.5310232"><ele>268.0</ele><time>2026-05-03T15:01:37.069Z</time></trkpt><trkpt lat="44.9919287" lon="7.5309796"><ele>268.0</ele><time>2026-05-03T15:01:39.076Z</time></trkpt><trkpt lat="44.9919931" lon="7.5309617"><ele>268.0</ele><time>2026-05-03T15:01:40.091Z</time></trkpt><trkpt lat="44.9920717" lon="7.5309429"><ele>268.0</ele><time>2026-05-03T15:01:41.108Z</time></trkpt><trkpt lat="44.9921573" lon="7.5309287"><ele>268.0</ele><time>2026-05-03T15:01:42.093Z</time></trkpt><trkpt lat="44.9922468" lon="7.5309232"><ele>268.0</ele><time>2026-05-03T15:01:43.09Z</time></trkpt><trkpt lat="44.9923432" lon="7.5309183"><ele>268.0</ele><time>2026-05-03T15:01:44.094Z</time></trkpt><trkpt lat="44.9924485" lon="7.5309131"><ele>268.0</ele><time>2026-05-03T15:01:45.092Z</time></trkpt><trkpt lat="44.9925653" lon="7.5309154"><ele>268.0</ele><time>2026-05-03T15:01:46.064Z</time></trkpt><trkpt lat="44.9926866" lon="7.5309191"><ele>268.0</ele><time>2026-05-03T15:01:47.09Z</time></trkpt><trkpt lat="44.9928124" lon="7.5309173"><ele>268.0</ele><time>2026-05-03T15:01:48.09Z</time></trkpt><trkpt lat="44.992953" lon="7.5309151"><ele>268.0</ele><time>2026-05-03T15:01:49.079Z</time></trkpt><trkpt lat="44.9930955" lon="7.5309162"><ele>268.0</ele><time>2026-05-03T15:01:50.091Z</time></trkpt><trkpt lat="44.9932438" lon="7.5309235"><ele>268.0</ele><time>2026-05-03T15:01:51.087Z</time></trkpt><trkpt lat="44.9933964" lon="7.5309334"><ele>268.5</ele><time>2026-05-03T15:01:52.073Z</time></trkpt><trkpt lat="44.9935345" lon="7.5309393"><ele>269.0</ele><time>2026-05-03T15:01:53.063Z</time></trkpt><trkpt lat="44.9936659" lon="7.5309616"><ele>269.5</ele><time>2026-05-03T15:01:54.087Z</time></trkpt><trkpt lat="44.993803" lon="7.5309931"><ele>270.0</ele><time>2026-05-03T15:01:55.088Z</time></trkpt><trkpt lat="44.9939552" lon="7.5310291"><ele>270.0</ele><time>2026-05-03T15:01:56.078Z</time></trkpt><trkpt lat="44.994111" lon="7.5310759"><ele>270.0</ele><time>2026-05-03T15:01:57.091Z</time></trkpt><trkpt lat="44.9942669" lon="7.5311327"><ele>270.0</ele><time>2026-05-03T15:01:58.068Z</time></trkpt><trkpt lat="44.9944252" lon="7.531194"><ele>269.5</ele><time>2026-05-03T15:01:59.096Z</time></trkpt><trkpt lat="44.994566" lon="7.5312659"><ele>269.0</ele><time>2026-05-03T15:02:00.084Z</time></trkpt><trkpt lat="44.9947034" lon="7.5313326"><ele>268.5</ele><time>2026-05-03T15:02:01.099Z</time></trkpt><trkpt lat="44.9948293" lon="7.5313898"><ele>268.0</ele><time>2026-05-03T15:02:02.083Z</time></trkpt><trkpt lat="44.9949503" lon="7.5314397"><ele>268.4</ele><time>2026-05-03T15:02:03.088Z</time></trkpt><trkpt lat="44.9950685" lon="7.5314884"><ele>268.8</ele><time>2026-05-03T15:02:04.083Z</time></trkpt><trkpt lat="44.995174" lon="7.5315354"><ele>269.2</ele><time>2026-05-03T15:02:05.064Z</time></trkpt><trkpt lat="44.9952739" lon="7.5315853"><ele>269.6</ele><time>2026-05-03T15:02:06.088Z</time></trkpt><trkpt lat="44.995375" lon="7.5316453"><ele>270.0</ele><time>2026-05-03T15:02:07.076Z</time></trkpt><trkpt lat="44.9954777" lon="7.5317007"><ele>270.0</ele><time>2026-05-03T15:02:08.094Z</time></trkpt><trkpt lat="44.9955806" lon="7.5317594"><ele>270.0</ele><time>2026-05-03T15:02:09.08Z</time></trkpt><trkpt lat="44.9956754" lon="7.5318156"><ele>270.0</ele><time>2026-05-03T15:02:10.075Z</time></trkpt><trkpt lat="44.9957572" lon="7.5318681"><ele>270.0</ele><time>2026-05-03T15:02:11.095Z</time></trkpt><trkpt lat="44.9958293" lon="7.5319151"><ele>270.0</ele><time>2026-05-03T15:02:12.092Z</time></trkpt><trkpt lat="44.9959191" lon="7.5319999"><ele>270.3333333333333</ele><time>2026-05-03T15:02:14.081Z</time></trkpt><trkpt lat="44.995967" lon="7.5320725"><ele>270.6666666666667</ele><time>2026-05-03T15:02:17.088Z</time></trkpt><trkpt lat="44.9960435" lon="7.5321908"><ele>271.0</ele><time>2026-05-03T15:02:20.076Z</time></trkpt><trkpt lat="44.9960919" lon="7.5322625"><ele>271.33333333333337</ele><time>2026-05-03T15:02:21.08Z</time></trkpt><trkpt lat="44.9961615" lon="7.5323011"><ele>271.6666666666667</ele><time>2026-05-03T15:02:22.094Z</time></trkpt><trkpt lat="44.9962751" lon="7.5322617"><ele>272.0</ele><time>2026-05-03T15:02:24.07Z</time></trkpt><trkpt lat="44.9963259" lon="7.5321949"><ele>272.0</ele><time>2026-05-03T15:02:25.105Z</time></trkpt><trkpt lat="44.9963543" lon="7.5321084"><ele>272.0</ele><time>2026-05-03T15:02:26.088Z</time></trkpt><trkpt lat="44.9963532" lon="7.5320061"><ele>272.0</ele><time>2026-05-03T15:02:27.079Z</time></trkpt><trkpt lat="44.9963445" lon="7.5318998"><ele>272.0</ele><time>2026-05-03T15:02:28.07Z</time></trkpt><trkpt lat="44.9963294" lon="7.5317664"><ele>272.0</ele><time>2026-05-03T15:02:29.083Z</time></trkpt><trkpt lat="44.9963171" lon="7.5316114"><ele>272.0</ele><time>2026-05-03T15:02:30.088Z</time></trkpt><trkpt lat="44.9963146" lon="7.5314533"><ele>271.75</ele><time>2026-05-03T15:02:31.082Z</time></trkpt><trkpt lat="44.9963162" lon="7.5312835"><ele>271.5</ele><time>2026-05-03T15:02:32.09Z</time></trkpt><trkpt lat="44.9963252" lon="7.5310973"><ele>271.25</ele><time>2026-05-03T15:02:33.086Z</time></trkpt><trkpt lat="44.9963382" lon="7.5308997"><ele>271.0</ele><time>2026-05-03T15:02:34.091Z</time></trkpt><trkpt lat="44.996348" lon="7.5307"><ele>270.66666666666663</ele><time>2026-05-03T15:02:35.084Z</time></trkpt><trkpt lat="44.9963601" lon="7.5304968"><ele>270.3333333333333</ele><time>2026-05-03T15:02:36.079Z</time></trkpt><trkpt lat="44.9963734" lon="7.5302816"><ele>270.0</ele><time>2026-05-03T15:02:37.088Z</time></trkpt><trkpt lat="44.9963885" lon="7.5300587"><ele>270.0</ele><time>2026-05-03T15:02:38.095Z</time></trkpt><trkpt lat="44.9964024" lon="7.5298416"><ele>270.0</ele><time>2026-05-03T15:02:39.089Z</time></trkpt><trkpt lat="44.9964206" lon="7.5296101"><ele>270.0</ele><time>2026-05-03T15:02:40.065Z</time></trkpt><trkpt lat="44.9964377" lon="7.5293807"><ele>270.0</ele><time>2026-05-03T15:02:41.098Z</time></trkpt><trkpt lat="44.9964561" lon="7.5291426"><ele>270.0</ele><time>2026-05-03T15:02:42.09Z</time></trkpt><trkpt lat="44.9964709" lon="7.5288962"><ele>270.0</ele><time>2026-05-03T15:02:43.082Z</time></trkpt><trkpt lat="44.996489" lon="7.5286477"><ele>270.0</ele><time>2026-05-03T15:02:44.095Z</time></trkpt><trkpt lat="44.9965094" lon="7.5283995"><ele>270.0</ele><time>2026-05-03T15:02:45.081Z</time></trkpt><trkpt lat="44.9965295" lon="7.5281484"><ele>270.0</ele><time>2026-05-03T15:02:46.09Z</time></trkpt><trkpt lat="44.9965545" lon="7.5279006"><ele>271.3333333333333</ele><time>2026-05-03T15:02:47.081Z</time></trkpt><trkpt lat="44.9965762" lon="7.5276481"><ele>272.66666666666663</ele><time>2026-05-03T15:02:48.089Z</time></trkpt><trkpt lat="44.996594" lon="7.527393"><ele>274.0</ele><time>2026-05-03T15:02:49.087Z</time></trkpt><trkpt lat="44.9966105" lon="7.5271326"><ele>274.3333333333333</ele><time>2026-05-03T15:02:50.084Z</time></trkpt><trkpt lat="44.996629" lon="7.5268743"><ele>274.6666666666667</ele><time>2026-05-03T15:02:51.069Z</time></trkpt><trkpt lat="44.9966482" lon="7.5266204"><ele>275.0</ele><time>2026-05-03T15:02:52.08Z</time></trkpt><trkpt lat="44.9966691" lon="7.5263661"><ele>274.33333333333337</ele><time>2026-05-03T15:02:53.09Z</time></trkpt><trkpt lat="44.9966875" lon="7.5261146"><ele>273.6666666666667</ele><time>2026-05-03T15:02:54.084Z</time></trkpt><trkpt lat="44.9967045" lon="7.5258612"><ele>273.0</ele><time>2026-05-03T15:02:55.084Z</time></trkpt><trkpt lat="44.9967218" lon="7.5256087"><ele>273.3333333333333</ele><time>2026-05-03T15:02:56.087Z</time></trkpt><trkpt lat="44.9967411" lon="7.5253581"><ele>273.66666666666663</ele><time>2026-05-03T15:02:57.08Z</time></trkpt><trkpt lat="44.9967584" lon="7.5251045"><ele>274.0</ele><time>2026-05-03T15:02:58.075Z</time></trkpt><trkpt lat="44.9967813" lon="7.5248547"><ele>274.0</ele><time>2026-05-03T15:02:59.083Z</time></trkpt><trkpt lat="44.9967987" lon="7.5245988"><ele>274.0</ele><time>2026-05-03T15:03:00.09Z</time></trkpt><trkpt lat="44.9968158" lon="7.5243446"><ele>274.0</ele><time>2026-05-03T15:03:01.088Z</time></trkpt><trkpt lat="44.9968333" lon="7.5240949"><ele>273.3333333333333</ele><time>2026-05-03T15:03:02.086Z</time></trkpt><trkpt lat="44.9968559" lon="7.5238588"><ele>272.6666666666667</ele><time>2026-05-03T15:03:03.097Z</time></trkpt><trkpt lat="44.9968784" lon="7.5236424"><ele>272.0</ele><time>2026-05-03T15:03:04.066Z</time></trkpt><trkpt lat="44.996899" lon="7.5234343"><ele>272.0</ele><time>2026-05-03T15:03:05.08Z</time></trkpt><trkpt lat="44.9969233" lon="7.5232337"><ele>272.0</ele><time>2026-05-03T15:03:06.086Z</time></trkpt><trkpt lat="44.9969594" lon="7.5230453"><ele>272.0</ele><time>2026-05-03T15:03:07.074Z</time></trkpt><trkpt lat="44.9970121" lon="7.522854"><ele>272.0</ele><time>2026-05-03T15:03:08.072Z</time></trkpt><trkpt lat="44.9970669" lon="7.5226581"><ele>272.33333333333337</ele><time>2026-05-03T15:03:09.07Z</time></trkpt><trkpt lat="44.9971248" lon="7.5224661"><ele>272.6666666666667</ele><time>2026-05-03T15:03:10.083Z</time></trkpt><trkpt lat="44.9971922" lon="7.5222722"><ele>273.0</ele><time>2026-05-03T15:03:11.08Z</time></trkpt><trkpt lat="44.9972762" lon="7.522081"><ele>273.3333333333333</ele><time>2026-05-03T15:03:12.074Z</time></trkpt><trkpt lat="44.9973715" lon="7.5218921"><ele>273.66666666666663</ele><time>2026-05-03T15:03:13.077Z</time></trkpt><trkpt lat="44.9974757" lon="7.5217032"><ele>274.0</ele><time>2026-05-03T15:03:14.085Z</time></trkpt><trkpt lat="44.9975883" lon="7.5215257"><ele>274.3333333333333</ele><time>2026-05-03T15:03:15.096Z</time></trkpt><trkpt lat="44.997707" lon="7.5213511"><ele>274.6666666666667</ele><time>2026-05-03T15:03:16.08Z</time></trkpt><trkpt lat="44.9978332" lon="7.5211908"><ele>275.0</ele><time>2026-05-03T15:03:17.093Z</time></trkpt><trkpt lat="44.9979548" lon="7.5210484"><ele>275.0</ele><time>2026-05-03T15:03:18.086Z</time></trkpt><trkpt lat="44.9980764" lon="7.5209242"><ele>275.0</ele><time>2026-05-03T15:03:19.075Z</time></trkpt><trkpt lat="44.9982016" lon="7.5208127"><ele>275.0</ele><time>2026-05-03T15:03:20.097Z</time></trkpt><trkpt lat="44.9983294" lon="7.5207094"><ele>275.0</ele><time>2026-05-03T15:03:21.094Z</time></trkpt><trkpt lat="44.9984681" lon="7.5206209"><ele>275.0</ele><time>2026-05-03T15:03:22.1Z</time></trkpt><trkpt lat="44.9986175" lon="7.5205479"><ele>275.0</ele><time>2026-05-03T15:03:23.079Z</time></trkpt><trkpt lat="44.9987609" lon="7.5204687"><ele>275.0</ele><time>2026-05-03T15:03:24.098Z</time></trkpt><trkpt lat="44.9988946" lon="7.5203982"><ele>275.25</ele><time>2026-05-03T15:03:25.095Z</time></trkpt><trkpt lat="44.9990243" lon="7.520337"><ele>275.5</ele><time>2026-05-03T15:03:26.105Z</time></trkpt><trkpt lat="44.9991505" lon="7.5202682"><ele>275.75</ele><time>2026-05-03T15:03:27.087Z</time></trkpt><trkpt lat="44.9992846" lon="7.5202071"><ele>276.0</ele><time>2026-05-03T15:03:28.076Z</time></trkpt><trkpt lat="44.9994132" lon="7.5201468"><ele>276.0</ele><time>2026-05-03T15:03:29.09Z</time></trkpt><trkpt lat="44.9995297" lon="7.520099"><ele>276.0</ele><time>2026-05-03T15:03:30.092Z</time></trkpt><trkpt lat="44.9996484" lon="7.5200424"><ele>276.0</ele><time>2026-05-03T15:03:31.074Z</time></trkpt><trkpt lat="44.9997739" lon="7.5199904"><ele>276.0</ele><time>2026-05-03T15:03:32.071Z</time></trkpt><trkpt lat="44.9998953" lon="7.5199441"><ele>276.0</ele><time>2026-05-03T15:03:33.058Z</time></trkpt><trkpt lat="45.00001" lon="7.5199091"><ele>276.0</ele><time>2026-05-03T15:03:34.081Z</time></trkpt><trkpt lat="45.0001189" lon="7.5198863"><ele>276.0</ele><time>2026-05-03T15:03:35.086Z</time></trkpt><trkpt lat="45.0002245" lon="7.5198716"><ele>276.0</ele><time>2026-05-03T15:03:36.087Z</time></trkpt><trkpt lat="45.0003254" lon="7.5198622"><ele>276.0</ele><time>2026-05-03T15:03:37.088Z</time></trkpt><trkpt lat="45.0004164" lon="7.5198627"><ele>276.0</ele><time>2026-05-03T15:03:38.098Z</time></trkpt><trkpt lat="45.0005088" lon="7.5198604"><ele>276.0</ele><time>2026-05-03T15:03:39.082Z</time></trkpt><trkpt lat="45.0006037" lon="7.519821"><ele>276.0</ele><time>2026-05-03T15:03:40.088Z</time></trkpt><trkpt lat="45.0006988" lon="7.5197581"><ele>276.0</ele><time>2026-05-03T15:03:41.094Z</time></trkpt><trkpt lat="45.0008089" lon="7.5196874"><ele>276.0</ele><time>2026-05-03T15:03:42.08Z</time></trkpt><trkpt lat="45.0009322" lon="7.5196374"><ele>276.0</ele><time>2026-05-03T15:03:43.093Z</time></trkpt><trkpt lat="45.0010729" lon="7.5196062"><ele>276.0</ele><time>2026-05-03T15:03:44.078Z</time></trkpt><trkpt lat="45.001226" lon="7.51957"><ele>276.0</ele><time>2026-05-03T15:03:45.084Z</time></trkpt><trkpt lat="45.0013905" lon="7.5195229"><ele>276.0</ele><time>2026-05-03T15:03:46.085Z</time></trkpt><trkpt lat="45.0015629" lon="7.5194716"><ele>276.0</ele><time>2026-05-03T15:03:47.082Z</time></trkpt><trkpt lat="45.0017447" lon="7.5194233"><ele>276.0</ele><time>2026-05-03T15:03:48.079Z</time></trkpt><trkpt lat="45.0019327" lon="7.5193721"><ele>276.0</ele><time>2026-05-03T15:03:49.096Z</time></trkpt><trkpt lat="45.0021266" lon="7.5193211"><ele>276.0</ele><time>2026-05-03T15:03:50.1Z</time></trkpt><trkpt lat="45.0023219" lon="7.5192602"><ele>276.0</ele><time>2026-05-03T15:03:51.069Z</time></trkpt><trkpt lat="45.0025225" lon="7.5192089"><ele>276.0</ele><time>2026-05-03T15:03:52.099Z</time></trkpt><trkpt lat="45.002723" lon="7.5191511"><ele>276.0</ele><time>2026-05-03T15:03:53.08Z</time></trkpt><trkpt lat="45.0029299" lon="7.5190991"><ele>276.0</ele><time>2026-05-03T15:03:54.088Z</time></trkpt><trkpt lat="45.0031352" lon="7.5190481"><ele>276.6666666666667</ele><time>2026-05-03T15:03:55.097Z</time></trkpt><trkpt lat="45.003344" lon="7.5190028"><ele>277.33333333333337</ele><time>2026-05-03T15:03:56.098Z</time></trkpt><trkpt lat="45.003546" lon="7.5189554"><ele>278.0</ele><time>2026-05-03T15:03:57.083Z</time></trkpt><trkpt lat="45.0037304" lon="7.518922"><ele>278.0</ele><time>2026-05-03T15:03:58.097Z</time></trkpt><trkpt lat="45.0039161" lon="7.5188956"><ele>278.0</ele><time>2026-05-03T15:03:59.083Z</time></trkpt><trkpt lat="45.0041059" lon="7.5188761"><ele>278.0</ele><time>2026-05-03T15:04:00.079Z</time></trkpt><trkpt lat="45.0042939" lon="7.5188534"><ele>279.33333333333337</ele><time>2026-05-03T15:04:01.069Z</time></trkpt><trkpt lat="45.0044821" lon="7.5188372"><ele>280.6666666666667</ele><time>2026-05-03T15:04:02.093Z</time></trkpt><trkpt lat="45.0046751" lon="7.518832"><ele>282.0</ele><time>2026-05-03T15:04:03.101Z</time></trkpt><trkpt lat="45.0048724" lon="7.5188334"><ele>282.0</ele><time>2026-05-03T15:04:04.079Z</time></trkpt><trkpt lat="45.0050698" lon="7.5188398"><ele>282.0</ele><time>2026-05-03T15:04:05.083Z</time></trkpt><trkpt lat="45.0052657" lon="7.5188567"><ele>282.0</ele><time>2026-05-03T15:04:06.087Z</time></trkpt><trkpt lat="45.0054606" lon="7.5188738"><ele>282.0</ele><time>2026-05-03T15:04:07.087Z</time></trkpt><trkpt lat="45.0056548" lon="7.5188979"><ele>282.0</ele><time>2026-05-03T15:04:08.089Z</time></trkpt><trkpt lat="45.0058496" lon="7.5189358"><ele>282.0</ele><time>2026-05-03T15:04:09.071Z</time></trkpt><trkpt lat="45.0060452" lon="7.5189764"><ele>281.3333333333333</ele><time>2026-05-03T15:04:10.084Z</time></trkpt><trkpt lat="45.0062418" lon="7.5190228"><ele>280.66666666666663</ele><time>2026-05-03T15:04:11.098Z</time></trkpt><trkpt lat="45.0064399" lon="7.5190665"><ele>280.0</ele><time>2026-05-03T15:04:12.089Z</time></trkpt><trkpt lat="45.0066283" lon="7.5191251"><ele>280.3333333333333</ele><time>2026-05-03T15:04:13.085Z</time></trkpt><trkpt lat="45.0068118" lon="7.5191873"><ele>280.6666666666667</ele><time>2026-05-03T15:04:14.087Z</time></trkpt><trkpt lat="45.0069887" lon="7.5192576"><ele>281.0</ele><time>2026-05-03T15:04:15.089Z</time></trkpt><trkpt lat="45.0071658" lon="7.5193197"><ele>281.0</ele><time>2026-05-03T15:04:16.094Z</time></trkpt><trkpt lat="45.0073373" lon="7.5193843"><ele>281.0</ele><time>2026-05-03T15:04:17.083Z</time></trkpt><trkpt lat="45.0075132" lon="7.5194526"><ele>281.0</ele><time>2026-05-03T15:04:18.084Z</time></trkpt><trkpt lat="45.0076912" lon="7.5195278"><ele>280.0</ele><time>2026-05-03T15:04:19.094Z</time></trkpt><trkpt lat="45.0080351" lon="7.5196877"><ele>279.0</ele><time>2026-05-03T15:04:21.083Z</time></trkpt><trkpt lat="45.00819" lon="7.5197609"><ele>280.0</ele><time>2026-05-03T15:04:22.084Z</time></trkpt><trkpt lat="45.0083431" lon="7.5198266"><ele>281.0</ele><time>2026-05-03T15:04:23.095Z</time></trkpt><trkpt lat="45.0084841" lon="7.5198914"><ele>282.0</ele><time>2026-05-03T15:04:24.103Z</time></trkpt><trkpt lat="45.0086252" lon="7.5199489"><ele>282.0</ele><time>2026-05-03T15:04:25.083Z</time></trkpt><trkpt lat="45.0087619" lon="7.5200077"><ele>282.0</ele><time>2026-05-03T15:04:26.09Z</time></trkpt><trkpt lat="45.008889" lon="7.5200683"><ele>282.0</ele><time>2026-05-03T15:04:27.09Z</time></trkpt><trkpt lat="45.0090114" lon="7.5201283"><ele>282.0</ele><time>2026-05-03T15:04:28.088Z</time></trkpt><trkpt lat="45.0091232" lon="7.5201874"><ele>282.2</ele><time>2026-05-03T15:04:29.076Z</time></trkpt><trkpt lat="45.0092167" lon="7.5202522"><ele>282.4</ele><time>2026-05-03T15:04:30.083Z</time></trkpt><trkpt lat="45.009302" lon="7.5203195"><ele>282.6</ele><time>2026-05-03T15:04:31.083Z</time></trkpt><trkpt lat="45.00938" lon="7.5203881"><ele>282.8</ele><time>2026-05-03T15:04:32.091Z</time></trkpt><trkpt lat="45.0094604" lon="7.5204504"><ele>283.0</ele><time>2026-05-03T15:04:33.084Z</time></trkpt><trkpt lat="45.0095507" lon="7.5204937"><ele>283.0</ele><time>2026-05-03T15:04:34.081Z</time></trkpt><trkpt lat="45.0096592" lon="7.520522"><ele>283.0</ele><time>2026-05-03T15:04:35.092Z</time></trkpt><trkpt lat="45.009779" lon="7.5205274"><ele>283.0</ele><time>2026-05-03T15:04:36.072Z</time></trkpt><trkpt lat="45.0099042" lon="7.5205383"><ele>283.0</ele><time>2026-05-03T15:04:37.095Z</time></trkpt><trkpt lat="45.0100283" lon="7.5205813"><ele>282.5</ele><time>2026-05-03T15:04:38.082Z</time></trkpt><trkpt lat="45.0101468" lon="7.5206417"><ele>282.0</ele><time>2026-05-03T15:04:39.08Z</time></trkpt><trkpt lat="45.0102765" lon="7.5207169"><ele>281.5</ele><time>2026-05-03T15:04:40.075Z</time></trkpt><trkpt lat="45.0104089" lon="7.5207873"><ele>281.0</ele><time>2026-05-03T15:04:41.09Z</time></trkpt><trkpt lat="45.0105358" lon="7.520845"><ele>281.0</ele><time>2026-05-03T15:04:42.084Z</time></trkpt><trkpt lat="45.0106581" lon="7.5209031"><ele>281.0</ele><time>2026-05-03T15:04:43.095Z</time></trkpt><trkpt lat="45.0107725" lon="7.5209518"><ele>281.0</ele><time>2026-05-03T15:04:44.09Z</time></trkpt><trkpt lat="45.0108897" lon="7.5209988"><ele>281.0</ele><time>2026-05-03T15:04:45.069Z</time></trkpt><trkpt lat="45.0110056" lon="7.5210516"><ele>281.0</ele><time>2026-05-03T15:04:46.082Z</time></trkpt><trkpt lat="45.0111232" lon="7.5211023"><ele>281.0</ele><time>2026-05-03T15:04:47.089Z</time></trkpt><trkpt lat="45.0112433" lon="7.5211542"><ele>281.0</ele><time>2026-05-03T15:04:48.096Z</time></trkpt><trkpt lat="45.0113675" lon="7.521212"><ele>281.0</ele><time>2026-05-03T15:04:49.108Z</time></trkpt><trkpt lat="45.0114947" lon="7.5212706"><ele>281.25</ele><time>2026-05-03T15:04:50.058Z</time></trkpt><trkpt lat="45.0116194" lon="7.5213258"><ele>281.5</ele><time>2026-05-03T15:04:51.067Z</time></trkpt><trkpt lat="45.0117451" lon="7.5213824"><ele>281.75</ele><time>2026-05-03T15:04:52.093Z</time></trkpt><trkpt lat="45.0118688" lon="7.5214384"><ele>282.0</ele><time>2026-05-03T15:04:53.082Z</time></trkpt><trkpt lat="45.0120034" lon="7.5214988"><ele>282.0</ele><time>2026-05-03T15:04:54.107Z</time></trkpt><trkpt lat="45.0121412" lon="7.5215629"><ele>282.0</ele><time>2026-05-03T15:04:55.088Z</time></trkpt><trkpt lat="45.0122833" lon="7.5216322"><ele>282.0</ele><time>2026-05-03T15:04:56.085Z</time></trkpt><trkpt lat="45.0124292" lon="7.5216966"><ele>282.0</ele><time>2026-05-03T15:04:57.089Z</time></trkpt><trkpt lat="45.0125801" lon="7.5217601"><ele>281.6666666666667</ele><time>2026-05-03T15:04:58.105Z</time></trkpt><trkpt lat="45.0127301" lon="7.5218259"><ele>281.33333333333337</ele><time>2026-05-03T15:04:59.085Z</time></trkpt><trkpt lat="45.0128877" lon="7.5218951"><ele>281.0</ele><time>2026-05-03T15:05:00.074Z</time></trkpt><trkpt lat="45.0130445" lon="7.5219708"><ele>281.0</ele><time>2026-05-03T15:05:01.078Z</time></trkpt><trkpt lat="45.0132045" lon="7.5220548"><ele>281.0</ele><time>2026-05-03T15:05:02.07Z</time></trkpt><trkpt lat="45.0133707" lon="7.5221276"><ele>281.0</ele><time>2026-05-03T15:05:03.091Z</time></trkpt><trkpt lat="45.0135387" lon="7.522197"><ele>281.33333333333337</ele><time>2026-05-03T15:05:04.098Z</time></trkpt><trkpt lat="45.0137109" lon="7.5222761"><ele>281.6666666666667</ele><time>2026-05-03T15:05:05.084Z</time></trkpt><trkpt lat="45.0138791" lon="7.5223564"><ele>282.0</ele><time>2026-05-03T15:05:06.092Z</time></trkpt><trkpt lat="45.0140503" lon="7.5224378"><ele>282.3333333333333</ele><time>2026-05-03T15:05:07.088Z</time></trkpt><trkpt lat="45.0142114" lon="7.5225238"><ele>282.66666666666663</ele><time>2026-05-03T15:05:08.075Z</time></trkpt><trkpt lat="45.014364" lon="7.5225954"><ele>283.0</ele><time>2026-05-03T15:05:09.085Z</time></trkpt><trkpt lat="45.0145134" lon="7.5226633"><ele>283.0</ele><time>2026-05-03T15:05:10.076Z</time></trkpt><trkpt lat="45.0146501" lon="7.5227139"><ele>283.0</ele><time>2026-05-03T15:05:11.082Z</time></trkpt><trkpt lat="45.014785" lon="7.5227621"><ele>283.0</ele><time>2026-05-03T15:05:12.065Z</time></trkpt><trkpt lat="45.0149225" lon="7.5228227"><ele>283.0</ele><time>2026-05-03T15:05:13.097Z</time></trkpt><trkpt lat="45.0150702" lon="7.5228936"><ele>282.75</ele><time>2026-05-03T15:05:14.078Z</time></trkpt><trkpt lat="45.015214" lon="7.5229629"><ele>282.5</ele><time>2026-05-03T15:05:15.075Z</time></trkpt><trkpt lat="45.0153524" lon="7.5230387"><ele>282.25</ele><time>2026-05-03T15:05:16.086Z</time></trkpt><trkpt lat="45.0154901" lon="7.5231183"><ele>282.0</ele><time>2026-05-03T15:05:17.081Z</time></trkpt><trkpt lat="45.0156339" lon="7.5231991"><ele>282.0</ele><time>2026-05-03T15:05:18.067Z</time></trkpt><trkpt lat="45.0157866" lon="7.5232867"><ele>282.0</ele><time>2026-05-03T15:05:19.086Z</time></trkpt><trkpt lat="45.0159419" lon="7.523382"><ele>282.0</ele><time>2026-05-03T15:05:20.088Z</time></trkpt><trkpt lat="45.0161043" lon="7.5234846"><ele>282.0</ele><time>2026-05-03T15:05:21.071Z</time></trkpt><trkpt lat="45.0162644" lon="7.5235908"><ele>282.0</ele><time>2026-05-03T15:05:22.075Z</time></trkpt><trkpt lat="45.0164268" lon="7.5237115"><ele>282.0</ele><time>2026-05-03T15:05:23.063Z</time></trkpt><trkpt lat="45.0165905" lon="7.5238373"><ele>281.0</ele><time>2026-05-03T15:05:24.083Z</time></trkpt><trkpt lat="45.0167372" lon="7.523967"><ele>280.0</ele><time>2026-05-03T15:05:25.097Z</time></trkpt><trkpt lat="45.0168703" lon="7.5240942"><ele>279.0</ele><time>2026-05-03T15:05:26.093Z</time></trkpt><trkpt lat="45.016999" lon="7.5242169"><ele>279.0</ele><time>2026-05-03T15:05:27.063Z</time></trkpt><trkpt lat="45.0171136" lon="7.524348"><ele>279.0</ele><time>2026-05-03T15:05:28.074Z</time></trkpt><trkpt lat="45.0172022" lon="7.5244919"><ele>279.0</ele><time>2026-05-03T15:05:29.081Z</time></trkpt><trkpt lat="45.0172765" lon="7.5246523"><ele>279.0</ele><time>2026-05-03T15:05:30.081Z</time></trkpt><trkpt lat="45.0173409" lon="7.5248241"><ele>279.25</ele><time>2026-05-03T15:05:31.077Z</time></trkpt><trkpt lat="45.0173932" lon="7.525016"><ele>279.5</ele><time>2026-05-03T15:05:32.079Z</time></trkpt><trkpt lat="45.0174371" lon="7.5252166"><ele>279.75</ele><time>2026-05-03T15:05:33.091Z</time></trkpt><trkpt lat="45.0174696" lon="7.5254241"><ele>280.0</ele><time>2026-05-03T15:05:34.077Z</time></trkpt><trkpt lat="45.0175039" lon="7.5256337"><ele>280.0</ele><time>2026-05-03T15:05:35.088Z</time></trkpt><trkpt lat="45.0175344" lon="7.5258246"><ele>280.0</ele><time>2026-05-03T15:05:36.072Z</time></trkpt><trkpt lat="45.0175639" lon="7.5260042"><ele>280.0</ele><time>2026-05-03T15:05:37.075Z</time></trkpt><trkpt lat="45.0175936" lon="7.5261778"><ele>280.0</ele><time>2026-05-03T15:05:38.1Z</time></trkpt><trkpt lat="45.017623" lon="7.5263368"><ele>279.8</ele><time>2026-05-03T15:05:39.072Z</time></trkpt><trkpt lat="45.0176498" lon="7.5264902"><ele>279.6</ele><time>2026-05-03T15:05:40.069Z</time></trkpt><trkpt lat="45.0176807" lon="7.5266315"><ele>279.4</ele><time>2026-05-03T15:05:41.076Z</time></trkpt><trkpt lat="45.017716" lon="7.5267551"><ele>279.2</ele><time>2026-05-03T15:05:42.082Z</time></trkpt><trkpt lat="45.0177747" lon="7.5268429"><ele>279.0</ele><time>2026-05-03T15:05:43.085Z</time></trkpt><trkpt lat="45.0178337" lon="7.526903"><ele>279.0</ele><time>2026-05-03T15:05:44.079Z</time></trkpt><trkpt lat="45.0179138" lon="7.5269398"><ele>279.0</ele><time>2026-05-03T15:05:45.101Z</time></trkpt><trkpt lat="45.0179947" lon="7.5269459"><ele>279.0</ele><time>2026-05-03T15:05:46.101Z</time></trkpt><trkpt lat="45.0180908" lon="7.5269097"><ele>279.0</ele><time>2026-05-03T15:05:47.08Z</time></trkpt><trkpt lat="45.0182072" lon="7.526849"><ele>279.0</ele><time>2026-05-03T15:05:48.076Z</time></trkpt><trkpt lat="45.018324" lon="7.526788"><ele>279.25</ele><time>2026-05-03T15:05:49.09Z</time></trkpt><trkpt lat="45.0184497" lon="7.5267176"><ele>279.5</ele><time>2026-05-03T15:05:50.078Z</time></trkpt><trkpt lat="45.0185858" lon="7.5266536"><ele>279.75</ele><time>2026-05-03T15:05:51.074Z</time></trkpt><trkpt lat="45.0187224" lon="7.5265879"><ele>280.0</ele><time>2026-05-03T15:05:52.092Z</time></trkpt><trkpt lat="45.018848" lon="7.5265222"><ele>280.0</ele><time>2026-05-03T15:05:53.078Z</time></trkpt><trkpt lat="45.0189641" lon="7.5264637"><ele>280.0</ele><time>2026-05-03T15:05:54.083Z</time></trkpt><trkpt lat="45.0190692" lon="7.5264191"><ele>280.0</ele><time>2026-05-03T15:05:55.08Z</time></trkpt><trkpt lat="45.0191722" lon="7.5263838"><ele>280.0</ele><time>2026-05-03T15:05:56.083Z</time></trkpt><trkpt lat="45.0192733" lon="7.5263726"><ele>280.0</ele><time>2026-05-03T15:05:57.086Z</time></trkpt><trkpt lat="45.0193891" lon="7.5263852"><ele>280.0</ele><time>2026-05-03T15:05:58.089Z</time></trkpt><trkpt lat="45.0195042" lon="7.5264242"><ele>280.0</ele><time>2026-05-03T15:05:59.083Z</time></trkpt><trkpt lat="45.0196202" lon="7.5264678"><ele>280.0</ele><time>2026-05-03T15:06:00.079Z</time></trkpt><trkpt lat="45.0197367" lon="7.5265415"><ele>280.0</ele><time>2026-05-03T15:06:01.087Z</time></trkpt><trkpt lat="45.0198579" lon="7.5266224"><ele>279.75</ele><time>2026-05-03T15:06:02.094Z</time></trkpt><trkpt lat="45.019987" lon="7.5267029"><ele>279.5</ele><time>2026-05-03T15:06:03.071Z</time></trkpt><trkpt lat="45.0201164" lon="7.5267816"><ele>279.25</ele><time>2026-05-03T15:06:04.08Z</time></trkpt><trkpt lat="45.020241" lon="7.5268605"><ele>279.0</ele><time>2026-05-03T15:06:05.078Z</time></trkpt><trkpt lat="45.0203571" lon="7.5269314"><ele>279.0</ele><time>2026-05-03T15:06:06.089Z</time></trkpt><trkpt lat="45.020466" lon="7.5270105"><ele>279.0</ele><time>2026-05-03T15:06:07.083Z</time></trkpt><trkpt lat="45.0205689" lon="7.5270848"><ele>279.0</ele><time>2026-05-03T15:06:08.097Z</time></trkpt><trkpt lat="45.0206609" lon="7.5271433"><ele>279.0</ele><time>2026-05-03T15:06:09.091Z</time></trkpt><trkpt lat="45.0207529" lon="7.5271907"><ele>279.0</ele><time>2026-05-03T15:06:10.092Z</time></trkpt><trkpt lat="45.02084" lon="7.5272418"><ele>279.1666666666667</ele><time>2026-05-03T15:06:11.081Z</time></trkpt><trkpt lat="45.020917" lon="7.527298"><ele>279.3333333333333</ele><time>2026-05-03T15:06:12.082Z</time></trkpt><trkpt lat="45.0209888" lon="7.5273615"><ele>279.5</ele><time>2026-05-03T15:06:13.086Z</time></trkpt><trkpt lat="45.0210524" lon="7.5274329"><ele>279.66666666666663</ele><time>2026-05-03T15:06:14.068Z</time></trkpt><trkpt lat="45.0211177" lon="7.5275104"><ele>279.8333333333333</ele><time>2026-05-03T15:06:15.073Z</time></trkpt><trkpt lat="45.0211799" lon="7.527588"><ele>280.0</ele><time>2026-05-03T15:06:16.07Z</time></trkpt><trkpt lat="45.0212501" lon="7.52761"><ele>280.0</ele><time>2026-05-03T15:06:17.084Z</time></trkpt><trkpt lat="45.0213217" lon="7.5275856"><ele>280.0</ele><time>2026-05-03T15:06:18.09Z</time></trkpt><trkpt lat="45.0213886" lon="7.5275245"><ele>280.0</ele><time>2026-05-03T15:06:19.098Z</time></trkpt><trkpt lat="45.021443" lon="7.5274458"><ele>280.0</ele><time>2026-05-03T15:06:20.079Z</time></trkpt><trkpt lat="45.0215187" lon="7.5273558"><ele>280.0</ele><time>2026-05-03T15:06:21.083Z</time></trkpt><trkpt lat="45.0216174" lon="7.5272703"><ele>280.0</ele><time>2026-05-03T15:06:22.088Z</time></trkpt><trkpt lat="45.0217292" lon="7.5271941"><ele>280.0</ele><time>2026-05-03T15:06:23.096Z</time></trkpt><trkpt lat="45.0218409" lon="7.527113"><ele>280.0</ele><time>2026-05-03T15:06:24.075Z</time></trkpt><trkpt lat="45.0219598" lon="7.5270412"><ele>280.0</ele><time>2026-05-03T15:06:25.085Z</time></trkpt><trkpt lat="45.0220844" lon="7.5269898"><ele>280.0</ele><time>2026-05-03T15:06:26.085Z</time></trkpt><trkpt lat="45.0222139" lon="7.5269522"><ele>280.0</ele><time>2026-05-03T15:06:27.089Z</time></trkpt><trkpt lat="45.022358" lon="7.526926"><ele>280.0</ele><time>2026-05-03T15:06:28.103Z</time></trkpt><trkpt lat="45.0225012" lon="7.5269003"><ele>280.0</ele><time>2026-05-03T15:06:29.095Z</time></trkpt><trkpt lat="45.0226327" lon="7.5268723"><ele>280.0</ele><time>2026-05-03T15:06:30.09Z</time></trkpt><trkpt lat="45.0227634" lon="7.526857"><ele>280.0</ele><time>2026-05-03T15:06:31.093Z</time></trkpt><trkpt lat="45.022893" lon="7.5268268"><ele>280.0</ele><time>2026-05-03T15:06:32.054Z</time></trkpt><trkpt lat="45.0230289" lon="7.5268027"><ele>280.0</ele><time>2026-05-03T15:06:33.08Z</time></trkpt><trkpt lat="45.0231592" lon="7.5267768"><ele>280.0</ele><time>2026-05-03T15:06:34.088Z</time></trkpt><trkpt lat="45.0232862" lon="7.5267625"><ele>279.8</ele><time>2026-05-03T15:06:35.101Z</time></trkpt><trkpt lat="45.0234069" lon="7.5267458"><ele>279.6</ele><time>2026-05-03T15:06:36.089Z</time></trkpt><trkpt lat="45.0235205" lon="7.5267338"><ele>279.4</ele><time>2026-05-03T15:06:37.083Z</time></trkpt><trkpt lat="45.0236106" lon="7.5267254"><ele>279.2</ele><time>2026-05-03T15:06:38.071Z</time></trkpt><trkpt lat="45.0237004" lon="7.5267218"><ele>279.0</ele><time>2026-05-03T15:06:39.072Z</time></trkpt><trkpt lat="45.0237826" lon="7.5267232"><ele>278.99999999999994</ele><time>2026-05-03T15:06:40.088Z</time></trkpt><trkpt lat="45.0238532" lon="7.5267354"><ele>279.0</ele><time>2026-05-03T15:06:41.086Z</time></trkpt><trkpt lat="45.0239184" lon="7.526731"><ele>279.0</ele><time>2026-05-03T15:06:42.092Z</time></trkpt><trkpt lat="45.0239815" lon="7.5267063"><ele>279.0</ele><time>2026-05-03T15:06:43.085Z</time></trkpt><trkpt lat="45.0240426" lon="7.5266798"><ele>279.0</ele><time>2026-05-03T15:06:44.073Z</time></trkpt><trkpt lat="45.0241044" lon="7.5266595"><ele>278.99999999999994</ele><time>2026-05-03T15:06:45.086Z</time></trkpt><trkpt lat="45.0241763" lon="7.5266556"><ele>279.0</ele><time>2026-05-03T15:06:46.082Z</time></trkpt><trkpt lat="45.0242519" lon="7.5266467"><ele>279.1666666666667</ele><time>2026-05-03T15:06:47.108Z</time></trkpt><trkpt lat="45.0243355" lon="7.5266289"><ele>279.3333333333333</ele><time>2026-05-03T15:06:48.094Z</time></trkpt><trkpt lat="45.024423" lon="7.5266099"><ele>279.5</ele><time>2026-05-03T15:06:49.086Z</time></trkpt><trkpt lat="45.0245047" lon="7.5265883"><ele>279.66666666666663</ele><time>2026-05-03T15:06:50.092Z</time></trkpt><trkpt lat="45.0245866" lon="7.5265804"><ele>279.8333333333333</ele><time>2026-05-03T15:06:51.084Z</time></trkpt><trkpt lat="45.0246707" lon="7.5265649"><ele>280.0</ele><time>2026-05-03T15:06:52.076Z</time></trkpt><trkpt lat="45.0247593" lon="7.526547"><ele>280.0</ele><time>2026-05-03T15:06:53.081Z</time></trkpt><trkpt lat="45.0248514" lon="7.5265331"><ele>280.0</ele><time>2026-05-03T15:06:54.077Z</time></trkpt><trkpt lat="45.024953" lon="7.526517"><ele>280.0</ele><time>2026-05-03T15:06:55.088Z</time></trkpt><trkpt lat="45.0250603" lon="7.5264958"><ele>280.0</ele><time>2026-05-03T15:06:56.104Z</time></trkpt><trkpt lat="45.0251795" lon="7.5264715"><ele>280.0</ele><time>2026-05-03T15:06:57.076Z</time></trkpt><trkpt lat="45.0253135" lon="7.5264491"><ele>279.66666666666663</ele><time>2026-05-03T15:06:58.087Z</time></trkpt><trkpt lat="45.0254637" lon="7.526418"><ele>279.3333333333333</ele><time>2026-05-03T15:06:59.069Z</time></trkpt><trkpt lat="45.0256352" lon="7.5263939"><ele>279.0</ele><time>2026-05-03T15:07:00.078Z</time></trkpt><trkpt lat="45.0258233" lon="7.5263683"><ele>279.6666666666667</ele><time>2026-05-03T15:07:01.087Z</time></trkpt><trkpt lat="45.0259991" lon="7.5263468"><ele>280.33333333333337</ele><time>2026-05-03T15:07:02.078Z</time></trkpt><trkpt lat="45.0261782" lon="7.526324"><ele>281.0</ele><time>2026-05-03T15:07:03.087Z</time></trkpt><trkpt lat="45.026363" lon="7.5262968"><ele>281.0</ele><time>2026-05-03T15:07:04.094Z</time></trkpt><trkpt lat="45.0265333" lon="7.5262691"><ele>281.0</ele><time>2026-05-03T15:07:05.08Z</time></trkpt><trkpt lat="45.0266927" lon="7.5262423"><ele>281.0</ele><time>2026-05-03T15:07:06.08Z</time></trkpt><trkpt lat="45.0268425" lon="7.5262136"><ele>281.0</ele><time>2026-05-03T15:07:07.1Z</time></trkpt><trkpt lat="45.0269992" lon="7.5261839"><ele>281.0</ele><time>2026-05-03T15:07:08.076Z</time></trkpt><trkpt lat="45.0271571" lon="7.5261575"><ele>281.0</ele><time>2026-05-03T15:07:09.078Z</time></trkpt><trkpt lat="45.027321" lon="7.5261365"><ele>281.6666666666667</ele><time>2026-05-03T15:07:10.085Z</time></trkpt><trkpt lat="45.0275044" lon="7.5261026"><ele>282.3333333333333</ele><time>2026-05-03T15:07:11.077Z</time></trkpt><trkpt lat="45.0276796" lon="7.5260773"><ele>283.0</ele><time>2026-05-03T15:07:12.063Z</time></trkpt><trkpt lat="45.0278349" lon="7.5260499"><ele>283.0</ele><time>2026-05-03T15:07:13.08Z</time></trkpt><trkpt lat="45.0279819" lon="7.5260183"><ele>283.0</ele><time>2026-05-03T15:07:14.081Z</time></trkpt><trkpt lat="45.0281193" lon="7.5259971"><ele>283.0</ele><time>2026-05-03T15:07:15.078Z</time></trkpt><trkpt lat="45.0282465" lon="7.5259854"><ele>283.0</ele><time>2026-05-03T15:07:16.074Z</time></trkpt><trkpt lat="45.0283638" lon="7.5259574"><ele>283.0</ele><time>2026-05-03T15:07:17.078Z</time></trkpt><trkpt lat="45.0284729" lon="7.5259472"><ele>283.0</ele><time>2026-05-03T15:07:18.072Z</time></trkpt><trkpt lat="45.0285758" lon="7.5259553"><ele>283.0</ele><time>2026-05-03T15:07:19.074Z</time></trkpt><trkpt lat="45.0286736" lon="7.5259996"><ele>283.0</ele><time>2026-05-03T15:07:20.079Z</time></trkpt><trkpt lat="45.0287632" lon="7.5260752"><ele>283.0</ele><time>2026-05-03T15:07:21.086Z</time></trkpt><trkpt lat="45.0288418" lon="7.5261414"><ele>283.0</ele><time>2026-05-03T15:07:22.063Z</time></trkpt><trkpt lat="45.0289131" lon="7.5261606"><ele>283.0</ele><time>2026-05-03T15:07:23.066Z</time></trkpt><trkpt lat="45.0289829" lon="7.5261261"><ele>283.0</ele><time>2026-05-03T15:07:24.08Z</time></trkpt><trkpt lat="45.0290653" lon="7.5260617"><ele>283.0</ele><time>2026-05-03T15:07:25.082Z</time></trkpt><trkpt lat="45.0291376" lon="7.525972"><ele>283.0</ele><time>2026-05-03T15:07:26.083Z</time></trkpt><trkpt lat="45.0292169" lon="7.525884"><ele>283.0</ele><time>2026-05-03T15:07:27.084Z</time></trkpt><trkpt lat="45.0293141" lon="7.5258146"><ele>283.25</ele><time>2026-05-03T15:07:28.077Z</time></trkpt><trkpt lat="45.0294328" lon="7.5257566"><ele>283.5</ele><time>2026-05-03T15:07:29.074Z</time></trkpt><trkpt lat="45.0295608" lon="7.5257151"><ele>283.75</ele><time>2026-05-03T15:07:30.078Z</time></trkpt><trkpt lat="45.0296939" lon="7.5256753"><ele>284.0</ele><time>2026-05-03T15:07:31.084Z</time></trkpt><trkpt lat="45.0298348" lon="7.5256509"><ele>284.0</ele><time>2026-05-03T15:07:32.078Z</time></trkpt><trkpt lat="45.0299671" lon="7.5256312"><ele>284.0</ele><time>2026-05-03T15:07:33.081Z</time></trkpt><trkpt lat="45.0301008" lon="7.5256071"><ele>284.0</ele><time>2026-05-03T15:07:34.095Z</time></trkpt><trkpt lat="45.0302272" lon="7.5255809"><ele>284.0</ele><time>2026-05-03T15:07:35.072Z</time></trkpt><trkpt lat="45.0303499" lon="7.5255525"><ele>284.0</ele><time>2026-05-03T15:07:36.089Z</time></trkpt><trkpt lat="45.0304639" lon="7.5255302"><ele>284.0</ele><time>2026-05-03T15:07:37.077Z</time></trkpt><trkpt lat="45.0305737" lon="7.5255085"><ele>284.0</ele><time>2026-05-03T15:07:38.093Z</time></trkpt><trkpt lat="45.0306899" lon="7.5254936"><ele>284.0</ele><time>2026-05-03T15:07:39.085Z</time></trkpt><trkpt lat="45.0308039" lon="7.5254696"><ele>284.5</ele><time>2026-05-03T15:07:40.074Z</time></trkpt><trkpt lat="45.0309112" lon="7.5254499"><ele>285.0</ele><time>2026-05-03T15:07:41.075Z</time></trkpt><trkpt lat="45.0310076" lon="7.5254435"><ele>285.5</ele><time>2026-05-03T15:07:42.066Z</time></trkpt><trkpt lat="45.0310943" lon="7.5254435"><ele>286.0</ele><time>2026-05-03T15:07:43.094Z</time></trkpt><trkpt lat="45.0311722" lon="7.5254356"><ele>286.5</ele><time>2026-05-03T15:07:44.079Z</time></trkpt><trkpt lat="45.0312415" lon="7.5254344"><ele>287.0</ele><time>2026-05-03T15:07:45.077Z</time></trkpt><trkpt lat="45.0313077" lon="7.5254303"><ele>287.0</ele><time>2026-05-03T15:07:46.077Z</time></trkpt><trkpt lat="45.0314019" lon="7.5254319"><ele>287.0</ele><time>2026-05-03T15:07:48.094Z</time></trkpt><trkpt lat="45.0314952" lon="7.5254292"><ele>287.0</ele><time>2026-05-03T15:08:13.084Z</time></trkpt><trkpt lat="45.0315633" lon="7.5254354"><ele>287.0</ele><time>2026-05-03T15:08:14.086Z</time></trkpt><trkpt lat="45.0316887" lon="7.5254541"><ele>287.0</ele><time>2026-05-03T15:08:16.082Z</time></trkpt><trkpt lat="45.0317658" lon="7.5254676"><ele>287.0</ele><time>2026-05-03T15:08:17.08Z</time></trkpt><trkpt lat="45.0318589" lon="7.5254877"><ele>287.0</ele><time>2026-05-03T15:08:18.095Z</time></trkpt><trkpt lat="45.0319819" lon="7.5255153"><ele>287.0</ele><time>2026-05-03T15:08:19.07Z</time></trkpt><trkpt lat="45.0321257" lon="7.5255426"><ele>287.0</ele><time>2026-05-03T15:08:20.089Z</time></trkpt><trkpt lat="45.0322731" lon="7.5255748"><ele>287.0</ele><time>2026-05-03T15:08:21.071Z</time></trkpt><trkpt lat="45.0324174" lon="7.5256058"><ele>287.0</ele><time>2026-05-03T15:08:22.092Z</time></trkpt><trkpt lat="45.0325612" lon="7.5256285"><ele>287.0</ele><time>2026-05-03T15:08:23.085Z</time></trkpt><trkpt lat="45.0326977" lon="7.5256395"><ele>287.0</ele><time>2026-05-03T15:08:24.09Z</time></trkpt><trkpt lat="45.0328315" lon="7.5256416"><ele>287.5</ele><time>2026-05-03T15:08:25.076Z</time></trkpt><trkpt lat="45.032962" lon="7.5256135"><ele>288.0</ele><time>2026-05-03T15:08:26.081Z</time></trkpt><trkpt lat="45.0330951" lon="7.5255701"><ele>288.5</ele><time>2026-05-03T15:08:27.071Z</time></trkpt><trkpt lat="45.0332281" lon="7.5255189"><ele>289.0</ele><time>2026-05-03T15:08:28.079Z</time></trkpt><trkpt lat="45.0333641" lon="7.5254536"><ele>289.75</ele><time>2026-05-03T15:08:29.084Z</time></trkpt><trkpt lat="45.0334991" lon="7.5253783"><ele>290.5</ele><time>2026-05-03T15:08:30.068Z</time></trkpt><trkpt lat="45.0336333" lon="7.5252985"><ele>291.25</ele><time>2026-05-03T15:08:31.086Z</time></trkpt><trkpt lat="45.0337479" lon="7.525206"><ele>292.0</ele><time>2026-05-03T15:08:32.067Z</time></trkpt><trkpt lat="45.0338683" lon="7.5251148"><ele>292.0</ele><time>2026-05-03T15:08:33.085Z</time></trkpt><trkpt lat="45.0339912" lon="7.5250243"><ele>292.0</ele><time>2026-05-03T15:08:34.054Z</time></trkpt><trkpt lat="45.0341155" lon="7.5249376"><ele>292.0</ele><time>2026-05-03T15:08:35.077Z</time></trkpt><trkpt lat="45.0342435" lon="7.5248451"><ele>292.0</ele><time>2026-05-03T15:08:36.095Z</time></trkpt><trkpt lat="45.0343774" lon="7.524746"><ele>292.3333333333333</ele><time>2026-05-03T15:08:37.077Z</time></trkpt><trkpt lat="45.0345097" lon="7.524636"><ele>292.6666666666667</ele><time>2026-05-03T15:08:38.09Z</time></trkpt><trkpt lat="45.0346503" lon="7.5245336"><ele>293.0</ele><time>2026-05-03T15:08:39.095Z</time></trkpt><trkpt lat="45.0347919" lon="7.5244348"><ele>292.6666666666667</ele><time>2026-05-03T15:08:40.092Z</time></trkpt><trkpt lat="45.0349318" lon="7.5243439"><ele>292.3333333333333</ele><time>2026-05-03T15:08:41.083Z</time></trkpt><trkpt lat="45.0350741" lon="7.5242504"><ele>292.0</ele><time>2026-05-03T15:08:42.08Z</time></trkpt><trkpt lat="45.0352102" lon="7.5241593"><ele>292.0</ele><time>2026-05-03T15:08:43.091Z</time></trkpt><trkpt lat="45.0353434" lon="7.5240648"><ele>292.0</ele><time>2026-05-03T15:08:44.084Z</time></trkpt><trkpt lat="45.0354741" lon="7.5239828"><ele>292.0</ele><time>2026-05-03T15:08:45.083Z</time></trkpt><trkpt lat="45.0355922" lon="7.5239068"><ele>292.0</ele><time>2026-05-03T15:08:46.081Z</time></trkpt><trkpt lat="45.0357072" lon="7.5238442"><ele>292.25</ele><time>2026-05-03T15:08:47.084Z</time></trkpt><trkpt lat="45.0358183" lon="7.5237876"><ele>292.5</ele><time>2026-05-03T15:08:48.081Z</time></trkpt><trkpt lat="45.0359279" lon="7.5237326"><ele>292.75</ele><time>2026-05-03T15:08:49.076Z</time></trkpt><trkpt lat="45.0360355" lon="7.5236742"><ele>293.0</ele><time>2026-05-03T15:08:50.08Z</time></trkpt><trkpt lat="45.0361486" lon="7.5236227"><ele>293.5</ele><time>2026-05-03T15:08:51.07Z</time></trkpt><trkpt lat="45.0362773" lon="7.5236001"><ele>294.0</ele><time>2026-05-03T15:08:52.089Z</time></trkpt><trkpt lat="45.0364157" lon="7.5235925"><ele>294.5</ele><time>2026-05-03T15:08:53.063Z</time></trkpt><trkpt lat="45.0365629" lon="7.5235776"><ele>295.0</ele><time>2026-05-03T15:08:54.086Z</time></trkpt><trkpt lat="45.0367096" lon="7.5235613"><ele>295.5</ele><time>2026-05-03T15:08:55.067Z</time></trkpt><trkpt lat="45.0368546" lon="7.5235345"><ele>296.0</ele><time>2026-05-03T15:08:56.079Z</time></trkpt><trkpt lat="45.0370033" lon="7.5235038"><ele>296.5</ele><time>2026-05-03T15:08:57.08Z</time></trkpt><trkpt lat="45.0371365" lon="7.5234801"><ele>297.0</ele><time>2026-05-03T15:08:58.073Z</time></trkpt><trkpt lat="45.0372648" lon="7.5234589"><ele>297.0</ele><time>2026-05-03T15:08:59.109Z</time></trkpt><trkpt lat="45.0374011" lon="7.5234407"><ele>297.0</ele><time>2026-05-03T15:09:00.076Z</time></trkpt><trkpt lat="45.0375479" lon="7.5234196"><ele>297.0</ele><time>2026-05-03T15:09:01.08Z</time></trkpt><trkpt lat="45.0377036" lon="7.5233916"><ele>297.0</ele><time>2026-05-03T15:09:02.072Z</time></trkpt><trkpt lat="45.0378744" lon="7.5233478"><ele>297.6666666666667</ele><time>2026-05-03T15:09:03.084Z</time></trkpt><trkpt lat="45.0380383" lon="7.5233105"><ele>298.33333333333337</ele><time>2026-05-03T15:09:04.09Z</time></trkpt><trkpt lat="45.0382085" lon="7.523267"><ele>299.0</ele><time>2026-05-03T15:09:05.071Z</time></trkpt><trkpt lat="45.0383835" lon="7.5232281"><ele>300.0</ele><time>2026-05-03T15:09:06.089Z</time></trkpt><trkpt lat="45.0385624" lon="7.523194"><ele>301.0</ele><time>2026-05-03T15:09:07.09Z</time></trkpt><trkpt lat="45.0387255" lon="7.5231717"><ele>302.0</ele><time>2026-05-03T15:09:08.085Z</time></trkpt><trkpt lat="45.0388776" lon="7.5231468"><ele>302.0</ele><time>2026-05-03T15:09:09.073Z</time></trkpt><trkpt lat="45.0390163" lon="7.5231133"><ele>302.0</ele><time>2026-05-03T15:09:10.081Z</time></trkpt><trkpt lat="45.0391442" lon="7.5230868"><ele>302.0</ele><time>2026-05-03T15:09:11.088Z</time></trkpt><trkpt lat="45.039257" lon="7.5230681"><ele>302.0</ele><time>2026-05-03T15:09:12.074Z</time></trkpt><trkpt lat="45.0393488" lon="7.5230565"><ele>302.33333333333337</ele><time>2026-05-03T15:09:13.089Z</time></trkpt><trkpt lat="45.0394302" lon="7.5230468"><ele>302.6666666666667</ele><time>2026-05-03T15:09:14.097Z</time></trkpt><trkpt lat="45.0395076" lon="7.5230663"><ele>303.0</ele><time>2026-05-03T15:09:15.077Z</time></trkpt><trkpt lat="45.0395831" lon="7.5231077"><ele>303.3333333333333</ele><time>2026-05-03T15:09:16.076Z</time></trkpt><trkpt lat="45.0396715" lon="7.5231398"><ele>303.66666666666663</ele><time>2026-05-03T15:09:17.071Z</time></trkpt><trkpt lat="45.0397374" lon="7.523117"><ele>304.0</ele><time>2026-05-03T15:09:18.07Z</time></trkpt><trkpt lat="45.0397998" lon="7.5230683"><ele>304.0</ele><time>2026-05-03T15:09:19.082Z</time></trkpt><trkpt lat="45.0398649" lon="7.5230115"><ele>304.0</ele><time>2026-05-03T15:09:20.077Z</time></trkpt><trkpt lat="45.0399497" lon="7.5229681"><ele>304.0</ele><time>2026-05-03T15:09:21.09Z</time></trkpt><trkpt lat="45.0400601" lon="7.5229338"><ele>304.0</ele><time>2026-05-03T15:09:22.086Z</time></trkpt><trkpt lat="45.0401917" lon="7.5229138"><ele>304.0</ele><time>2026-05-03T15:09:23.077Z</time></trkpt><trkpt lat="45.0403298" lon="7.5228878"><ele>305.0</ele><time>2026-05-03T15:09:24.052Z</time></trkpt><trkpt lat="45.0404788" lon="7.5228552"><ele>306.0</ele><time>2026-05-03T15:09:25.066Z</time></trkpt><trkpt lat="45.0406361" lon="7.5228223"><ele>307.0</ele><time>2026-05-03T15:09:26.087Z</time></trkpt><trkpt lat="45.0407971" lon="7.5227835"><ele>307.66666666666663</ele><time>2026-05-03T15:09:27.085Z</time></trkpt><trkpt lat="45.0409633" lon="7.5227493"><ele>308.3333333333333</ele><time>2026-05-03T15:09:28.095Z</time></trkpt><trkpt lat="45.0411293" lon="7.5227156"><ele>309.0</ele><time>2026-05-03T15:09:29.101Z</time></trkpt><trkpt lat="45.0412948" lon="7.5226808"><ele>309.0</ele><time>2026-05-03T15:09:30.09Z</time></trkpt><trkpt lat="45.0414564" lon="7.5226445"><ele>309.0</ele><time>2026-05-03T15:09:31.092Z</time></trkpt><trkpt lat="45.041625" lon="7.5226113"><ele>309.0</ele><time>2026-05-03T15:09:32.084Z</time></trkpt><trkpt lat="45.0417936" lon="7.5225773"><ele>310.0</ele><time>2026-05-03T15:09:33.085Z</time></trkpt><trkpt lat="45.0419679" lon="7.5225368"><ele>311.0</ele><time>2026-05-03T15:09:34.081Z</time></trkpt><trkpt lat="45.0421413" lon="7.5225041"><ele>312.0</ele><time>2026-05-03T15:09:35.079Z</time></trkpt><trkpt lat="45.0423143" lon="7.522472"><ele>312.6666666666667</ele><time>2026-05-03T15:09:36.078Z</time></trkpt><trkpt lat="45.0424851" lon="7.522436"><ele>313.33333333333337</ele><time>2026-05-03T15:09:37.097Z</time></trkpt><trkpt lat="45.0426533" lon="7.5223986"><ele>314.0</ele><time>2026-05-03T15:09:38.082Z</time></trkpt><trkpt lat="45.0428118" lon="7.5223657"><ele>314.0</ele><time>2026-05-03T15:09:39.081Z</time></trkpt><trkpt lat="45.0429761" lon="7.5223318"><ele>314.0</ele><time>2026-05-03T15:09:40.078Z</time></trkpt><trkpt lat="45.0431432" lon="7.5222992"><ele>314.0</ele><time>2026-05-03T15:09:41.079Z</time></trkpt><trkpt lat="45.04331" lon="7.5222673"><ele>314.33333333333337</ele><time>2026-05-03T15:09:42.098Z</time></trkpt><trkpt lat="45.0434734" lon="7.5222305"><ele>314.6666666666667</ele><time>2026-05-03T15:09:43.089Z</time></trkpt><trkpt lat="45.0436418" lon="7.5222024"><ele>315.0</ele><time>2026-05-03T15:09:44.104Z</time></trkpt><trkpt lat="45.0438113" lon="7.5221679"><ele>315.0</ele><time>2026-05-03T15:09:45.055Z</time></trkpt><trkpt lat="45.0439814" lon="7.5221363"><ele>315.0</ele><time>2026-05-03T15:09:46.061Z</time></trkpt><trkpt lat="45.044151" lon="7.5221069"><ele>315.0</ele><time>2026-05-03T15:09:47.083Z</time></trkpt><trkpt lat="45.0443237" lon="7.5220767"><ele>314.6666666666667</ele><time>2026-05-03T15:09:48.081Z</time></trkpt><trkpt lat="45.0445012" lon="7.5220444"><ele>314.33333333333337</ele><time>2026-05-03T15:09:49.081Z</time></trkpt><trkpt lat="45.044676" lon="7.5220035"><ele>314.0</ele><time>2026-05-03T15:09:50.087Z</time></trkpt><trkpt lat="45.0448501" lon="7.5219673"><ele>314.0</ele><time>2026-05-03T15:09:51.088Z</time></trkpt><trkpt lat="45.0450198" lon="7.5219305"><ele>314.0</ele><time>2026-05-03T15:09:52.081Z</time></trkpt><trkpt lat="45.0451793" lon="7.5218946"><ele>314.0</ele><time>2026-05-03T15:09:53.087Z</time></trkpt><trkpt lat="45.0453439" lon="7.5218585"><ele>314.0</ele><time>2026-05-03T15:09:54.084Z</time></trkpt><trkpt lat="45.0455088" lon="7.5218319"><ele>314.0</ele><time>2026-05-03T15:09:55.086Z</time></trkpt><trkpt lat="45.0456729" lon="7.5218028"><ele>314.0</ele><time>2026-05-03T15:09:56.1Z</time></trkpt><trkpt lat="45.0458334" lon="7.521769"><ele>314.33333333333337</ele><time>2026-05-03T15:09:57.089Z</time></trkpt><trkpt lat="45.0459954" lon="7.5217343"><ele>314.6666666666667</ele><time>2026-05-03T15:09:58.081Z</time></trkpt><trkpt lat="45.0461583" lon="7.5217023"><ele>315.0</ele><time>2026-05-03T15:09:59.081Z</time></trkpt><trkpt lat="45.0463201" lon="7.5216636"><ele>315.0</ele><time>2026-05-03T15:10:00.067Z</time></trkpt><trkpt lat="45.0464813" lon="7.5216265"><ele>315.0</ele><time>2026-05-03T15:10:01.084Z</time></trkpt><trkpt lat="45.0466387" lon="7.5215945"><ele>315.0</ele><time>2026-05-03T15:10:02.064Z</time></trkpt><trkpt lat="45.0467943" lon="7.5215662"><ele>316.3333333333333</ele><time>2026-05-03T15:10:03.086Z</time></trkpt><trkpt lat="45.0469472" lon="7.5215308"><ele>317.66666666666663</ele><time>2026-05-03T15:10:04.084Z</time></trkpt><trkpt lat="45.0471012" lon="7.5214984"><ele>319.0</ele><time>2026-05-03T15:10:05.077Z</time></trkpt><trkpt lat="45.0472559" lon="7.5214663"><ele>319.0</ele><time>2026-05-03T15:10:06.078Z</time></trkpt><trkpt lat="45.0474121" lon="7.5214338"><ele>319.0</ele><time>2026-05-03T15:10:07.098Z</time></trkpt><trkpt lat="45.0475689" lon="7.5214"><ele>319.0</ele><time>2026-05-03T15:10:08.085Z</time></trkpt><trkpt lat="45.047728" lon="7.5213664"><ele>318.0</ele><time>2026-05-03T15:10:09.09Z</time></trkpt><trkpt lat="45.0478922" lon="7.5213288"><ele>317.0</ele><time>2026-05-03T15:10:10.099Z</time></trkpt><trkpt lat="45.0480565" lon="7.5212996"><ele>316.0</ele><time>2026-05-03T15:10:11.086Z</time></trkpt><trkpt lat="45.0482234" lon="7.5212783"><ele>316.3333333333333</ele><time>2026-05-03T15:10:12.096Z</time></trkpt><trkpt lat="45.0483895" lon="7.5212455"><ele>316.6666666666667</ele><time>2026-05-03T15:10:13.082Z</time></trkpt><trkpt lat="45.0485586" lon="7.5212147"><ele>317.0</ele><time>2026-05-03T15:10:14.082Z</time></trkpt><trkpt lat="45.0487265" lon="7.5211859"><ele>317.0</ele><time>2026-05-03T15:10:15.08Z</time></trkpt><trkpt lat="45.0488947" lon="7.5211535"><ele>317.0</ele><time>2026-05-03T15:10:16.08Z</time></trkpt><trkpt lat="45.0490613" lon="7.52112"><ele>317.0</ele><time>2026-05-03T15:10:17.078Z</time></trkpt><trkpt lat="45.049235" lon="7.5210817"><ele>317.6666666666667</ele><time>2026-05-03T15:10:18.083Z</time></trkpt><trkpt lat="45.0494079" lon="7.5210453"><ele>318.3333333333333</ele><time>2026-05-03T15:10:19.072Z</time></trkpt><trkpt lat="45.0495791" lon="7.5210113"><ele>319.0</ele><time>2026-05-03T15:10:20.08Z</time></trkpt><trkpt lat="45.0497473" lon="7.5209785"><ele>319.0</ele><time>2026-05-03T15:10:21.082Z</time></trkpt><trkpt lat="45.0499197" lon="7.5209396"><ele>319.0</ele><time>2026-05-03T15:10:22.087Z</time></trkpt><trkpt lat="45.0500861" lon="7.5209047"><ele>319.0</ele><time>2026-05-03T15:10:23.08Z</time></trkpt><trkpt lat="45.0502453" lon="7.5208716"><ele>319.66666666666663</ele><time>2026-05-03T15:10:24.083Z</time></trkpt><trkpt lat="45.050405" lon="7.5208365"><ele>320.3333333333333</ele><time>2026-05-03T15:10:25.086Z</time></trkpt><trkpt lat="45.0505715" lon="7.5208032"><ele>321.0</ele><time>2026-05-03T15:10:26.078Z</time></trkpt><trkpt lat="45.0507344" lon="7.5207706"><ele>321.3333333333333</ele><time>2026-05-03T15:10:27.092Z</time></trkpt><trkpt lat="45.0508997" lon="7.5207363"><ele>321.66666666666663</ele><time>2026-05-03T15:10:28.082Z</time></trkpt><trkpt lat="45.0510692" lon="7.5206987"><ele>322.0</ele><time>2026-05-03T15:10:29.065Z</time></trkpt><trkpt lat="45.0512447" lon="7.5206627"><ele>322.0</ele><time>2026-05-03T15:10:30.083Z</time></trkpt><trkpt lat="45.0514235" lon="7.5206215"><ele>322.0</ele><time>2026-05-03T15:10:31.089Z</time></trkpt><trkpt lat="45.0516114" lon="7.5205801"><ele>322.0</ele><time>2026-05-03T15:10:32.07Z</time></trkpt><trkpt lat="45.0517998" lon="7.5205445"><ele>322.0</ele><time>2026-05-03T15:10:33.081Z</time></trkpt><trkpt lat="45.0519905" lon="7.5205075"><ele>322.0</ele><time>2026-05-03T15:10:34.086Z</time></trkpt><trkpt lat="45.0521784" lon="7.5204752"><ele>322.0</ele><time>2026-05-03T15:10:35.058Z</time></trkpt><trkpt lat="45.0523599" lon="7.5204454"><ele>323.0</ele><time>2026-05-03T15:10:36.11Z</time></trkpt><trkpt lat="45.0525377" lon="7.5204082"><ele>324.0</ele><time>2026-05-03T15:10:37.074Z</time></trkpt><trkpt lat="45.0527206" lon="7.5203671"><ele>325.0</ele><time>2026-05-03T15:10:38.06Z</time></trkpt><trkpt lat="45.0529053" lon="7.5203287"><ele>325.0</ele><time>2026-05-03T15:10:39.063Z</time></trkpt><trkpt lat="45.0530904" lon="7.520292"><ele>325.0</ele><time>2026-05-03T15:10:40.06Z</time></trkpt><trkpt lat="45.0532801" lon="7.5202589"><ele>325.0</ele><time>2026-05-03T15:10:41.066Z</time></trkpt><trkpt lat="45.0534704" lon="7.5202203"><ele>326.0</ele><time>2026-05-03T15:10:42.077Z</time></trkpt><trkpt lat="45.0536597" lon="7.5201821"><ele>327.0</ele><time>2026-05-03T15:10:43.072Z</time></trkpt><trkpt lat="45.053843" lon="7.5201406"><ele>328.0</ele><time>2026-05-03T15:10:44.081Z</time></trkpt><trkpt lat="45.0540355" lon="7.5201036"><ele>329.0</ele><time>2026-05-03T15:10:45.055Z</time></trkpt><trkpt lat="45.0542253" lon="7.5200636"><ele>330.0</ele><time>2026-05-03T15:10:46.068Z</time></trkpt><trkpt lat="45.0544162" lon="7.5200265"><ele>331.0</ele><time>2026-05-03T15:10:47.077Z</time></trkpt><trkpt lat="45.0546059" lon="7.5199848"><ele>331.0</ele><time>2026-05-03T15:10:48.074Z</time></trkpt><trkpt lat="45.0547967" lon="7.5199457"><ele>331.0</ele><time>2026-05-03T15:10:49.094Z</time></trkpt><trkpt lat="45.0549836" lon="7.5199056"><ele>331.0</ele><time>2026-05-03T15:10:50.084Z</time></trkpt><trkpt lat="45.0551727" lon="7.5198652"><ele>330.66666666666663</ele><time>2026-05-03T15:10:51.089Z</time></trkpt><trkpt lat="45.055364" lon="7.5198203"><ele>330.3333333333333</ele><time>2026-05-03T15:10:52.1Z</time></trkpt><trkpt lat="45.0555447" lon="7.5197878"><ele>330.0</ele><time>2026-05-03T15:10:53.078Z</time></trkpt><trkpt lat="45.055713" lon="7.519751"><ele>330.3333333333333</ele><time>2026-05-03T15:10:54.082Z</time></trkpt><trkpt lat="45.0558783" lon="7.5197194"><ele>330.66666666666663</ele><time>2026-05-03T15:10:55.065Z</time></trkpt><trkpt lat="45.0560371" lon="7.5196834"><ele>331.0</ele><time>2026-05-03T15:10:56.067Z</time></trkpt><trkpt lat="45.0561958" lon="7.5196508"><ele>331.0</ele><time>2026-05-03T15:10:57.077Z</time></trkpt><trkpt lat="45.0563584" lon="7.5196166"><ele>331.0</ele><time>2026-05-03T15:10:58.073Z</time></trkpt><trkpt lat="45.0565194" lon="7.5195814"><ele>331.0</ele><time>2026-05-03T15:10:59.089Z</time></trkpt><trkpt lat="45.0566816" lon="7.5195506"><ele>332.3333333333333</ele><time>2026-05-03T15:11:00.084Z</time></trkpt><trkpt lat="45.0568446" lon="7.5195207"><ele>333.6666666666667</ele><time>2026-05-03T15:11:01.088Z</time></trkpt><trkpt lat="45.0570083" lon="7.5194881"><ele>335.0</ele><time>2026-05-03T15:11:02.082Z</time></trkpt><trkpt lat="45.0571694" lon="7.5194547"><ele>335.0</ele><time>2026-05-03T15:11:03.082Z</time></trkpt><trkpt lat="45.0573353" lon="7.5194197"><ele>335.0</ele><time>2026-05-03T15:11:04.087Z</time></trkpt><trkpt lat="45.0575003" lon="7.5193847"><ele>335.0</ele><time>2026-05-03T15:11:05.105Z</time></trkpt><trkpt lat="45.0576638" lon="7.5193529"><ele>336.0</ele><time>2026-05-03T15:11:06.088Z</time></trkpt><trkpt lat="45.0578225" lon="7.5193235"><ele>337.0</ele><time>2026-05-03T15:11:07.087Z</time></trkpt><trkpt lat="45.0579807" lon="7.5192856"><ele>338.0</ele><time>2026-05-03T15:11:08.089Z</time></trkpt><trkpt lat="45.0581405" lon="7.5192538"><ele>339.0</ele><time>2026-05-03T15:11:09.082Z</time></trkpt><trkpt lat="45.058294" lon="7.519225"><ele>340.0</ele><time>2026-05-03T15:11:10.08Z</time></trkpt><trkpt lat="45.0584364" lon="7.5191916"><ele>341.0</ele><time>2026-05-03T15:11:11.077Z</time></trkpt><trkpt lat="45.0585701" lon="7.5191608"><ele>342.0</ele><time>2026-05-03T15:11:12.082Z</time></trkpt><trkpt lat="45.0587016" lon="7.5191333"><ele>342.0</ele><time>2026-05-03T15:11:13.09Z</time></trkpt><trkpt lat="45.058836" lon="7.5191027"><ele>342.0</ele><time>2026-05-03T15:11:14.094Z</time></trkpt><trkpt lat="45.0589765" lon="7.5190808"><ele>342.0</ele><time>2026-05-03T15:11:15.063Z</time></trkpt><trkpt lat="45.0591112" lon="7.5190566"><ele>342.0</ele><time>2026-05-03T15:11:16.109Z</time></trkpt><trkpt lat="45.0592315" lon="7.519037"><ele>342.20000000000005</ele><time>2026-05-03T15:11:17.076Z</time></trkpt><trkpt lat="45.0593408" lon="7.5190136"><ele>342.4</ele><time>2026-05-03T15:11:18.082Z</time></trkpt><trkpt lat="45.0594391" lon="7.5189897"><ele>342.6</ele><time>2026-05-03T15:11:19.08Z</time></trkpt><trkpt lat="45.0595295" lon="7.5189639"><ele>342.79999999999995</ele><time>2026-05-03T15:11:20.088Z</time></trkpt><trkpt lat="45.0596162" lon="7.51894"><ele>343.0</ele><time>2026-05-03T15:11:21.087Z</time></trkpt><trkpt lat="45.0597099" lon="7.5189178"><ele>343.0</ele><time>2026-05-03T15:11:22.084Z</time></trkpt><trkpt lat="45.0598028" lon="7.5188976"><ele>343.0</ele><time>2026-05-03T15:11:23.072Z</time></trkpt><trkpt lat="45.0598807" lon="7.5188807"><ele>343.0</ele><time>2026-05-03T15:11:24.089Z</time></trkpt><trkpt lat="45.0599492" lon="7.5188662"><ele>343.0</ele><time>2026-05-03T15:11:25.065Z</time></trkpt><trkpt lat="45.0600566" lon="7.5188444"><ele>343.0</ele><time>2026-05-03T15:11:27.091Z</time></trkpt><trkpt lat="45.0601221" lon="7.5188257"><ele>343.0</ele><time>2026-05-03T15:11:30.074Z</time></trkpt><trkpt lat="45.0602089" lon="7.5188349"><ele>343.66666666666663</ele><time>2026-05-03T15:11:33.082Z</time></trkpt><trkpt lat="45.0603219" lon="7.5188578"><ele>344.3333333333333</ele><time>2026-05-03T15:11:35.083Z</time></trkpt><trkpt lat="45.0603867" lon="7.5188461"><ele>345.0</ele><time>2026-05-03T15:11:36.082Z</time></trkpt><trkpt lat="45.0604592" lon="7.5188035"><ele>345.6666666666667</ele><time>2026-05-03T15:11:37.073Z</time></trkpt><trkpt lat="45.0605315" lon="7.5187705"><ele>346.33333333333337</ele><time>2026-05-03T15:11:38.097Z</time></trkpt><trkpt lat="45.0606106" lon="7.5187401"><ele>347.0</ele><time>2026-05-03T15:11:39.071Z</time></trkpt><trkpt lat="45.0607049" lon="7.5187199"><ele>347.40000000000003</ele><time>2026-05-03T15:11:40.061Z</time></trkpt><trkpt lat="45.0608063" lon="7.5187042"><ele>347.8</ele><time>2026-05-03T15:11:41.073Z</time></trkpt><trkpt lat="45.0609096" lon="7.5186795"><ele>348.2</ele><time>2026-05-03T15:11:42.071Z</time></trkpt><trkpt lat="45.061017" lon="7.5186488"><ele>348.6</ele><time>2026-05-03T15:11:43.059Z</time></trkpt><trkpt lat="45.0611305" lon="7.5186282"><ele>349.0</ele><time>2026-05-03T15:11:44.078Z</time></trkpt><trkpt lat="45.0612452" lon="7.5186003"><ele>349.0</ele><time>2026-05-03T15:11:45.091Z</time></trkpt><trkpt lat="45.0613568" lon="7.5185774"><ele>349.0</ele><time>2026-05-03T15:11:46.071Z</time></trkpt><trkpt lat="45.0614598" lon="7.5185578"><ele>349.0</ele><time>2026-05-03T15:11:47.075Z</time></trkpt><trkpt lat="45.0615665" lon="7.5185371"><ele>349.0</ele><time>2026-05-03T15:11:48.09Z</time></trkpt><trkpt lat="45.0616757" lon="7.5185148"><ele>349.0</ele><time>2026-05-03T15:11:49.094Z</time></trkpt><trkpt lat="45.0617802" lon="7.5185001"><ele>349.25</ele><time>2026-05-03T15:11:50.085Z</time></trkpt><trkpt lat="45.0618802" lon="7.5184802"><ele>349.5</ele><time>2026-05-03T15:11:51.08Z</time></trkpt><trkpt lat="45.0619913" lon="7.5184573"><ele>349.75</ele><time>2026-05-03T15:11:52.083Z</time></trkpt><trkpt lat="45.0621261" lon="7.5184276"><ele>350.0</ele><time>2026-05-03T15:11:53.077Z</time></trkpt><trkpt lat="45.06225" lon="7.5183998"><ele>350.0</ele><time>2026-05-03T15:11:54.083Z</time></trkpt><trkpt lat="45.0623648" lon="7.518381"><ele>350.0</ele><time>2026-05-03T15:11:55.072Z</time></trkpt><trkpt lat="45.0624789" lon="7.5183592"><ele>350.0</ele><time>2026-05-03T15:11:56.076Z</time></trkpt><trkpt lat="45.0625878" lon="7.5183406"><ele>350.0</ele><time>2026-05-03T15:11:57.074Z</time></trkpt><trkpt lat="45.0627001" lon="7.5183262"><ele>350.0</ele><time>2026-05-03T15:11:58.097Z</time></trkpt><trkpt lat="45.0628121" lon="7.5183194"><ele>350.0</ele><time>2026-05-03T15:11:59.075Z</time></trkpt><trkpt lat="45.0629159" lon="7.5183174"><ele>350.0</ele><time>2026-05-03T15:12:00.067Z</time></trkpt><trkpt lat="45.0630063" lon="7.5183268"><ele>350.0</ele><time>2026-05-03T15:12:01.086Z</time></trkpt><trkpt lat="45.0630991" lon="7.5183496"><ele>350.0</ele><time>2026-05-03T15:12:02.072Z</time></trkpt><trkpt lat="45.0631946" lon="7.518392"><ele>350.8</ele><time>2026-05-03T15:12:03.082Z</time></trkpt><trkpt lat="45.0633008" lon="7.5184512"><ele>351.6</ele><time>2026-05-03T15:12:04.082Z</time></trkpt><trkpt lat="45.063417" lon="7.518507"><ele>352.4</ele><time>2026-05-03T15:12:05.072Z</time></trkpt><trkpt lat="45.0635149" lon="7.5185604"><ele>353.2</ele><time>2026-05-03T15:12:06.076Z</time></trkpt><trkpt lat="45.0636007" lon="7.5186269"><ele>354.0</ele><time>2026-05-03T15:12:07.081Z</time></trkpt><trkpt lat="45.0636887" lon="7.5186644"><ele>354.0</ele><time>2026-05-03T15:12:08.089Z</time></trkpt><trkpt lat="45.0637796" lon="7.5187174"><ele>354.0</ele><time>2026-05-03T15:12:09.082Z</time></trkpt><trkpt lat="45.0638718" lon="7.5187651"><ele>354.0</ele><time>2026-05-03T15:12:10.077Z</time></trkpt><trkpt lat="45.0639618" lon="7.5188259"><ele>354.0</ele><time>2026-05-03T15:12:11.078Z</time></trkpt><trkpt lat="45.0640516" lon="7.5188944"><ele>354.0</ele><time>2026-05-03T15:12:12.081Z</time></trkpt><trkpt lat="45.0641464" lon="7.5189577"><ele>354.75</ele><time>2026-05-03T15:12:13.076Z</time></trkpt><trkpt lat="45.0642415" lon="7.519039"><ele>355.5</ele><time>2026-05-03T15:12:14.093Z</time></trkpt><trkpt lat="45.0643439" lon="7.5190943"><ele>356.25</ele><time>2026-05-03T15:12:15.074Z</time></trkpt><trkpt lat="45.0644657" lon="7.5191643"><ele>357.0</ele><time>2026-05-03T15:12:16.086Z</time></trkpt><trkpt lat="45.0645596" lon="7.5192556"><ele>357.0</ele><time>2026-05-03T15:12:17.087Z</time></trkpt><trkpt lat="45.0646526" lon="7.5193544"><ele>357.0</ele><time>2026-05-03T15:12:18.091Z</time></trkpt><trkpt lat="45.0647477" lon="7.519447"><ele>357.0</ele><time>2026-05-03T15:12:19.067Z</time></trkpt><trkpt lat="45.0648326" lon="7.5195319"><ele>357.0</ele><time>2026-05-03T15:12:20.085Z</time></trkpt><trkpt lat="45.0649041" lon="7.5196095"><ele>357.0</ele><time>2026-05-03T15:12:21.085Z</time></trkpt><trkpt lat="45.0649679" lon="7.5196758"><ele>357.3333333333333</ele><time>2026-05-03T15:12:22.086Z</time></trkpt><trkpt lat="45.0650309" lon="7.5197395"><ele>357.6666666666667</ele><time>2026-05-03T15:12:23.089Z</time></trkpt><trkpt lat="45.0650825" lon="7.5197961"><ele>358.0</ele><time>2026-05-03T15:12:24.097Z</time></trkpt><trkpt lat="45.0651817" lon="7.5198971"><ele>358.33333333333337</ele><time>2026-05-03T15:12:26.072Z</time></trkpt><trkpt lat="45.0652767" lon="7.5199632"><ele>358.6666666666667</ele><time>2026-05-03T15:12:28.077Z</time></trkpt><trkpt lat="45.0653423" lon="7.5200175"><ele>359.0</ele><time>2026-05-03T15:12:30.077Z</time></trkpt><trkpt lat="45.0654131" lon="7.5200641"><ele>359.0</ele><time>2026-05-03T15:13:03.1Z</time></trkpt><trkpt lat="45.0655098" lon="7.5201733"><ele>359.0</ele><time>2026-05-03T15:13:05.083Z</time></trkpt><trkpt lat="45.0655802" lon="7.5202053"><ele>359.0</ele><time>2026-05-03T15:13:06.08Z</time></trkpt><trkpt lat="45.0656591" lon="7.5202159"><ele>359.0</ele><time>2026-05-03T15:13:07.053Z</time></trkpt><trkpt lat="45.0657399" lon="7.5202025"><ele>359.0</ele><time>2026-05-03T15:13:08.077Z</time></trkpt><trkpt lat="45.0658248" lon="7.5201911"><ele>359.0</ele><time>2026-05-03T15:13:09.074Z</time></trkpt><trkpt lat="45.0659093" lon="7.5201624"><ele>358.4</ele><time>2026-05-03T15:13:10.061Z</time></trkpt><trkpt lat="45.0659896" lon="7.5201418"><ele>357.79999999999995</ele><time>2026-05-03T15:13:11.083Z</time></trkpt><trkpt lat="45.0660862" lon="7.520154"><ele>357.20000000000005</ele><time>2026-05-03T15:13:12.075Z</time></trkpt><trkpt lat="45.0661759" lon="7.5201835"><ele>356.6</ele><time>2026-05-03T15:13:13.073Z</time></trkpt><trkpt lat="45.0662664" lon="7.5202091"><ele>356.0</ele><time>2026-05-03T15:13:14.078Z</time></trkpt><trkpt lat="45.0663708" lon="7.5202394"><ele>356.0</ele><time>2026-05-03T15:13:15.078Z</time></trkpt><trkpt lat="45.0664719" lon="7.5202763"><ele>356.0</ele><time>2026-05-03T15:13:16.07Z</time></trkpt><trkpt lat="45.0665614" lon="7.5203071"><ele>356.0</ele><time>2026-05-03T15:13:17.063Z</time></trkpt><trkpt lat="45.066646" lon="7.5203154"><ele>356.0</ele><time>2026-05-03T15:13:18.081Z</time></trkpt><trkpt lat="45.0667316" lon="7.5203284"><ele>356.0</ele><time>2026-05-03T15:13:19.084Z</time></trkpt><trkpt lat="45.0668118" lon="7.5203487"><ele>356.0</ele><time>2026-05-03T15:13:20.075Z</time></trkpt><trkpt lat="45.0669062" lon="7.5203722"><ele>356.0</ele><time>2026-05-03T15:13:21.072Z</time></trkpt><trkpt lat="45.0669966" lon="7.520397"><ele>356.0</ele><time>2026-05-03T15:13:22.086Z</time></trkpt><trkpt lat="45.0670802" lon="7.5204171"><ele>356.0</ele><time>2026-05-03T15:13:23.075Z</time></trkpt><trkpt lat="45.0671463" lon="7.5204353"><ele>356.0</ele><time>2026-05-03T15:13:24.085Z</time></trkpt><trkpt lat="45.0672566" lon="7.5204699"><ele>356.0</ele><time>2026-05-03T15:13:26.075Z</time></trkpt><trkpt lat="45.0673184" lon="7.5204901"><ele>356.0</ele><time>2026-05-03T15:13:27.082Z</time></trkpt><trkpt lat="45.0673929" lon="7.520519"><ele>356.1666666666667</ele><time>2026-05-03T15:13:28.084Z</time></trkpt><trkpt lat="45.0674791" lon="7.5205366"><ele>356.33333333333337</ele><time>2026-05-03T15:13:29.072Z</time></trkpt><trkpt lat="45.0675682" lon="7.5205612"><ele>356.5</ele><time>2026-05-03T15:13:30.072Z</time></trkpt><trkpt lat="45.0676405" lon="7.5205889"><ele>356.6666666666667</ele><time>2026-05-03T15:13:31.076Z</time></trkpt><trkpt lat="45.06774" lon="7.5206313"><ele>356.8333333333333</ele><time>2026-05-03T15:13:33.077Z</time></trkpt><trkpt lat="45.0678218" lon="7.5206377"><ele>357.0</ele><time>2026-05-03T15:14:11.11Z</time></trkpt><trkpt lat="45.0679552" lon="7.5206651"><ele>357.0</ele><time>2026-05-03T15:14:13.078Z</time></trkpt><trkpt lat="45.0680334" lon="7.5206807"><ele>357.0</ele><time>2026-05-03T15:14:14.082Z</time></trkpt><trkpt lat="45.0681107" lon="7.5206962"><ele>357.0</ele><time>2026-05-03T15:14:15.078Z</time></trkpt><trkpt lat="45.0682093" lon="7.5207104"><ele>357.0</ele><time>2026-05-03T15:14:16.058Z</time></trkpt><trkpt lat="45.0683046" lon="7.5207246"><ele>357.0</ele><time>2026-05-03T15:14:17.091Z</time></trkpt><trkpt lat="45.0683903" lon="7.5207308"><ele>357.0</ele><time>2026-05-03T15:14:18.086Z</time></trkpt><trkpt lat="45.0684761" lon="7.520758"><ele>357.20000000000005</ele><time>2026-05-03T15:14:19.073Z</time></trkpt><trkpt lat="45.0685794" lon="7.5207772"><ele>357.4</ele><time>2026-05-03T15:14:20.076Z</time></trkpt><trkpt lat="45.0686666" lon="7.5208187"><ele>357.6</ele><time>2026-05-03T15:14:21.069Z</time></trkpt><trkpt lat="45.0687539" lon="7.52085"><ele>357.79999999999995</ele><time>2026-05-03T15:14:22.081Z</time></trkpt><trkpt lat="45.068838" lon="7.5208613"><ele>358.0</ele><time>2026-05-03T15:14:23.065Z</time></trkpt><trkpt lat="45.0689213" lon="7.5209042"><ele>358.0</ele><time>2026-05-03T15:14:24.09Z</time></trkpt><trkpt lat="45.0689885" lon="7.5209891"><ele>358.0</ele><time>2026-05-03T15:14:25.081Z</time></trkpt><trkpt lat="45.069056" lon="7.5210934"><ele>358.0</ele><time>2026-05-03T15:14:26.053Z</time></trkpt><trkpt lat="45.0691112" lon="7.5212002"><ele>358.0</ele><time>2026-05-03T15:14:27.082Z</time></trkpt><trkpt lat="45.0691634" lon="7.5212972"><ele>358.0</ele><time>2026-05-03T15:14:28.079Z</time></trkpt><trkpt lat="45.0692234" lon="7.5213844"><ele>358.0</ele><time>2026-05-03T15:14:29.138Z</time></trkpt><trkpt lat="45.0692702" lon="7.5214669"><ele>358.0</ele><time>2026-05-03T15:14:30.088Z</time></trkpt><trkpt lat="45.0693187" lon="7.5215499"><ele>358.0</ele><time>2026-05-03T15:14:31.065Z</time></trkpt><trkpt lat="45.069355" lon="7.5216358"><ele>358.0</ele><time>2026-05-03T15:14:32.079Z</time></trkpt><trkpt lat="45.0693852" lon="7.5217184"><ele>358.0</ele><time>2026-05-03T15:14:33.081Z</time></trkpt><trkpt lat="45.0694126" lon="7.5218836"><ele>358.0</ele><time>2026-05-03T15:14:35.082Z</time></trkpt><trkpt lat="45.0694168" lon="7.5219784"><ele>357.79999999999995</ele><time>2026-05-03T15:14:36.085Z</time></trkpt><trkpt lat="45.0694188" lon="7.5221042"><ele>357.6</ele><time>2026-05-03T15:14:37.089Z</time></trkpt><trkpt lat="45.0694072" lon="7.5222445"><ele>357.4</ele><time>2026-05-03T15:14:38.081Z</time></trkpt><trkpt lat="45.0694157" lon="7.5223988"><ele>357.20000000000005</ele><time>2026-05-03T15:14:39.085Z</time></trkpt><trkpt lat="45.0694203" lon="7.5225611"><ele>357.0</ele><time>2026-05-03T15:14:40.085Z</time></trkpt><trkpt lat="45.0694252" lon="7.5227306"><ele>356.8</ele><time>2026-05-03T15:14:41.085Z</time></trkpt><trkpt lat="45.0694315" lon="7.5228989"><ele>356.6</ele><time>2026-05-03T15:14:42.076Z</time></trkpt><trkpt lat="45.0694342" lon="7.5230575"><ele>356.40000000000003</ele><time>2026-05-03T15:14:43.085Z</time></trkpt><trkpt lat="45.069439" lon="7.5232032"><ele>356.20000000000005</ele><time>2026-05-03T15:14:44.067Z</time></trkpt><trkpt lat="45.0694496" lon="7.5233391"><ele>356.0</ele><time>2026-05-03T15:14:45.074Z</time></trkpt><trkpt lat="45.0694611" lon="7.5234481"><ele>356.0</ele><time>2026-05-03T15:14:46.069Z</time></trkpt><trkpt lat="45.0694606" lon="7.5235612"><ele>356.0</ele><time>2026-05-03T15:14:47.07Z</time></trkpt><trkpt lat="45.0694672" lon="7.5236566"><ele>356.0</ele><time>2026-05-03T15:14:48.133Z</time></trkpt><trkpt lat="45.0694712" lon="7.5237464"><ele>356.0</ele><time>2026-05-03T15:14:49.067Z</time></trkpt><trkpt lat="45.0694931" lon="7.5238609"><ele>356.0</ele><time>2026-05-03T15:14:51.083Z</time></trkpt><trkpt lat="45.069582" lon="7.5238925"><ele>356.0</ele><time>2026-05-03T15:14:53.072Z</time></trkpt><trkpt lat="45.0696744" lon="7.5238786"><ele>356.0</ele><time>2026-05-03T15:14:54.079Z</time></trkpt><trkpt lat="45.0697616" lon="7.5238766"><ele>356.0</ele><time>2026-05-03T15:14:55.083Z</time></trkpt><trkpt lat="45.0698373" lon="7.5238778"><ele>356.0</ele><time>2026-05-03T15:14:56.074Z</time></trkpt><trkpt lat="45.0699133" lon="7.523887"><ele>356.0</ele><time>2026-05-03T15:14:57.083Z</time></trkpt><trkpt lat="45.0700132" lon="7.5238861"><ele>356.0</ele><time>2026-05-03T15:14:59.081Z</time></trkpt><trkpt lat="45.0701026" lon="7.523901"><ele>356.0</ele><time>2026-05-03T15:15:01.077Z</time></trkpt><trkpt lat="45.0702288" lon="7.5239018"><ele>356.6</ele><time>2026-05-03T15:15:03.073Z</time></trkpt><trkpt lat="45.0703034" lon="7.5238844"><ele>357.20000000000005</ele><time>2026-05-03T15:15:04.069Z</time></trkpt><trkpt lat="45.0704294" lon="7.5238641"><ele>357.79999999999995</ele><time>2026-05-03T15:15:06.147Z</time></trkpt><trkpt lat="45.0705332" lon="7.523792"><ele>358.4</ele><time>2026-05-03T15:15:08.059Z</time></trkpt><trkpt lat="45.0705685" lon="7.523655"><ele>359.0</ele><time>2026-05-03T15:15:10.082Z</time></trkpt><trkpt lat="45.0705393" lon="7.5234701"><ele>359.0</ele><time>2026-05-03T15:15:12.073Z</time></trkpt><trkpt lat="45.0705248" lon="7.5233633"><ele>359.0</ele><time>2026-05-03T15:15:13.08Z</time></trkpt><trkpt lat="45.0705177" lon="7.5232504"><ele>359.0</ele><time>2026-05-03T15:15:14.07Z</time></trkpt><trkpt lat="45.0705153" lon="7.5231212"><ele>359.0</ele><time>2026-05-03T15:15:15.088Z</time></trkpt><trkpt lat="45.07051" lon="7.5229938"><ele>359.0</ele><time>2026-05-03T15:15:16.066Z</time></trkpt><trkpt lat="45.0705079" lon="7.5228832"><ele>359.0</ele><time>2026-05-03T15:15:17.068Z</time></trkpt><trkpt lat="45.0705043" lon="7.5227736"><ele>359.0</ele><time>2026-05-03T15:15:18.075Z</time></trkpt><trkpt lat="45.0705035" lon="7.5226808"><ele>359.0</ele><time>2026-05-03T15:15:19.078Z</time></trkpt><trkpt lat="45.0704957" lon="7.5225822"><ele>359.0</ele><time>2026-05-03T15:15:20.078Z</time></trkpt><trkpt lat="45.0704957" lon="7.5224692"><ele>359.0</ele><time>2026-05-03T15:15:21.081Z</time></trkpt><trkpt lat="45.0704886" lon="7.5223656"><ele>359.0</ele><time>2026-05-03T15:15:22.081Z</time></trkpt><trkpt lat="45.0704796" lon="7.5222631"><ele>359.0</ele><time>2026-05-03T15:15:23.071Z</time></trkpt><trkpt lat="45.0704673" lon="7.5221595"><ele>359.0</ele><time>2026-05-03T15:15:24.082Z</time></trkpt><trkpt lat="45.070458" lon="7.522057"><ele>358.6666666666667</ele><time>2026-05-03T15:15:25.08Z</time></trkpt><trkpt lat="45.0704597" lon="7.5219464"><ele>358.33333333333337</ele><time>2026-05-03T15:15:26.082Z</time></trkpt><trkpt lat="45.070471" lon="7.5218318"><ele>358.0</ele><time>2026-05-03T15:15:27.089Z</time></trkpt><trkpt lat="45.0704804" lon="7.5217014"><ele>357.6666666666667</ele><time>2026-05-03T15:15:28.101Z</time></trkpt><trkpt lat="45.0704852" lon="7.5215705"><ele>357.3333333333333</ele><time>2026-05-03T15:15:29.059Z</time></trkpt><trkpt lat="45.0704882" lon="7.5214309"><ele>357.0</ele><time>2026-05-03T15:15:30.089Z</time></trkpt><trkpt lat="45.0704876" lon="7.5212864"><ele>357.20000000000005</ele><time>2026-05-03T15:15:31.083Z</time></trkpt><trkpt lat="45.0704908" lon="7.521127"><ele>357.4</ele><time>2026-05-03T15:15:32.064Z</time></trkpt><trkpt lat="45.0704954" lon="7.5209743"><ele>357.6</ele><time>2026-05-03T15:15:33.071Z</time></trkpt><trkpt lat="45.0704946" lon="7.5208273"><ele>357.79999999999995</ele><time>2026-05-03T15:15:34.074Z</time></trkpt><trkpt lat="45.0705012" lon="7.5206743"><ele>358.0</ele><time>2026-05-03T15:15:35.081Z</time></trkpt><trkpt lat="45.0705027" lon="7.5205138"><ele>358.16666666666663</ele><time>2026-05-03T15:15:36.076Z</time></trkpt><trkpt lat="45.0705077" lon="7.5203674"><ele>358.3333333333333</ele><time>2026-05-03T15:15:37.097Z</time></trkpt><trkpt lat="45.0705145" lon="7.5202304"><ele>358.5</ele><time>2026-05-03T15:15:38.085Z</time></trkpt><trkpt lat="45.0705363" lon="7.5201107"><ele>358.6666666666667</ele><time>2026-05-03T15:15:39.066Z</time></trkpt><trkpt lat="45.0705657" lon="7.5200288"><ele>358.83333333333337</ele><time>2026-05-03T15:15:40.062Z</time></trkpt><trkpt lat="45.0706213" lon="7.5199434"><ele>359.0</ele><time>2026-05-03T15:15:42.068Z</time></trkpt><trkpt lat="45.0707049" lon="7.5198663"><ele>359.0</ele><time>2026-05-03T15:15:45.079Z</time></trkpt><trkpt lat="45.0707886" lon="7.5198129"><ele>359.0</ele><time>2026-05-03T15:15:47.072Z</time></trkpt><trkpt lat="45.070854" lon="7.5198208"><ele>359.0</ele><time>2026-05-03T15:15:48.065Z</time></trkpt><trkpt lat="45.0709227" lon="7.5198429"><ele>359.0</ele><time>2026-05-03T15:15:49.102Z</time></trkpt><trkpt lat="45.0709967" lon="7.519837"><ele>359.0</ele><time>2026-05-03T15:15:50.076Z</time></trkpt><trkpt lat="45.0710818" lon="7.5198424"><ele>359.0</ele><time>2026-05-03T15:15:51.071Z</time></trkpt><trkpt lat="45.0711787" lon="7.5198489"><ele>359.0</ele><time>2026-05-03T15:15:52.076Z</time></trkpt><trkpt lat="45.0712613" lon="7.5198599"><ele>359.0</ele><time>2026-05-03T15:15:53.083Z</time></trkpt><trkpt lat="45.0713494" lon="7.5198783"><ele>359.0</ele><time>2026-05-03T15:15:55.078Z</time></trkpt><trkpt lat="45.0714123" lon="7.5198575"><ele>359.0</ele><time>2026-05-03T15:15:58.059Z</time></trkpt><trkpt lat="45.0715173" lon="7.5198574"><ele>359.0</ele><time>2026-05-03T15:16:01.085Z</time></trkpt><trkpt lat="45.0716419" lon="7.5198601"><ele>358.83333333333337</ele><time>2026-05-03T15:16:03.086Z</time></trkpt><trkpt lat="45.0717192" lon="7.5198544"><ele>358.6666666666667</ele><time>2026-05-03T15:16:04.081Z</time></trkpt><trkpt lat="45.0718018" lon="7.5198499"><ele>358.5</ele><time>2026-05-03T15:16:05.076Z</time></trkpt><trkpt lat="45.0718778" lon="7.5198404"><ele>358.3333333333333</ele><time>2026-05-03T15:16:06.083Z</time></trkpt><trkpt lat="45.0719502" lon="7.5198374"><ele>358.16666666666663</ele><time>2026-05-03T15:16:07.081Z</time></trkpt><trkpt lat="45.0720475" lon="7.5198369"><ele>358.0</ele><time>2026-05-03T15:16:08.056Z</time></trkpt><trkpt lat="45.0721462" lon="7.5198349"><ele>358.0</ele><time>2026-05-03T15:16:09.088Z</time></trkpt><trkpt lat="45.0722505" lon="7.5198298"><ele>358.0</ele><time>2026-05-03T15:16:10.122Z</time></trkpt><trkpt lat="45.0723468" lon="7.5198249"><ele>358.0</ele><time>2026-05-03T15:16:11.084Z</time></trkpt><trkpt lat="45.0724321" lon="7.5198241"><ele>358.0</ele><time>2026-05-03T15:16:12.084Z</time></trkpt><trkpt lat="45.0725103" lon="7.5198149"><ele>358.0</ele><time>2026-05-03T15:16:13.073Z</time></trkpt><trkpt lat="45.0725768" lon="7.5198078"><ele>358.0</ele><time>2026-05-03T15:16:14.076Z</time></trkpt><trkpt lat="45.0726537" lon="7.5197935"><ele>357.8333333333333</ele><time>2026-05-03T15:16:15.074Z</time></trkpt><trkpt lat="45.072733" lon="7.5197795"><ele>357.66666666666663</ele><time>2026-05-03T15:16:16.075Z</time></trkpt><trkpt lat="45.0728117" lon="7.5197732"><ele>357.5</ele><time>2026-05-03T15:16:17.079Z</time></trkpt><trkpt lat="45.072903" lon="7.5197691"><ele>357.3333333333333</ele><time>2026-05-03T15:16:19.086Z</time></trkpt><trkpt lat="45.0729783" lon="7.5197397"><ele>357.1666666666667</ele><time>2026-05-03T15:17:19.119Z</time></trkpt><trkpt lat="45.0730948" lon="7.5197619"><ele>357.0</ele><time>2026-05-03T15:17:21.07Z</time></trkpt><trkpt lat="45.0731621" lon="7.5197644"><ele>357.0</ele><time>2026-05-03T15:17:22.085Z</time></trkpt><trkpt lat="45.0732807" lon="7.5197803"><ele>357.0</ele><time>2026-05-03T15:17:24.073Z</time></trkpt><trkpt lat="45.0733523" lon="7.5197866"><ele>357.0</ele><time>2026-05-03T15:17:25.086Z</time></trkpt><trkpt lat="45.0734305" lon="7.5197891"><ele>357.0</ele><time>2026-05-03T15:17:26.162Z</time></trkpt><trkpt lat="45.0735203" lon="7.5197778"><ele>357.0</ele><time>2026-05-03T15:17:27.118Z</time></trkpt><trkpt lat="45.0736189" lon="7.5197627"><ele>357.0</ele><time>2026-05-03T15:17:28.123Z</time></trkpt><trkpt lat="45.0737245" lon="7.5197575"><ele>357.0</ele><time>2026-05-03T15:17:29.128Z</time></trkpt><trkpt lat="45.0738316" lon="7.5197518"><ele>357.0</ele><time>2026-05-03T15:17:30.13Z</time></trkpt><trkpt lat="45.0739433" lon="7.5197581"><ele>357.0</ele><time>2026-05-03T15:17:31.125Z</time></trkpt><trkpt lat="45.0740446" lon="7.5197679"><ele>357.0</ele><time>2026-05-03T15:17:32.12Z</time></trkpt><trkpt lat="45.07414" lon="7.5197677"><ele>356.6</ele><time>2026-05-03T15:17:33.131Z</time></trkpt><trkpt lat="45.0742503" lon="7.5197737"><ele>356.20000000000005</ele><time>2026-05-03T15:17:34.133Z</time></trkpt><trkpt lat="45.074358" lon="7.5197772"><ele>355.8</ele><time>2026-05-03T15:17:35.128Z</time></trkpt><trkpt lat="45.0744666" lon="7.5197761"><ele>355.4</ele><time>2026-05-03T15:17:36.127Z</time></trkpt><trkpt lat="45.0745716" lon="7.5197812"><ele>355.0</ele><time>2026-05-03T15:17:37.114Z</time></trkpt><trkpt lat="45.0746808" lon="7.5197823"><ele>355.0</ele><time>2026-05-03T15:17:38.139Z</time></trkpt><trkpt lat="45.0747789" lon="7.5197786"><ele>355.0</ele><time>2026-05-03T15:17:39.121Z</time></trkpt><trkpt lat="45.0748733" lon="7.519778"><ele>355.0</ele><time>2026-05-03T15:17:40.125Z</time></trkpt><trkpt lat="45.0749543" lon="7.5197757"><ele>355.0</ele><time>2026-05-03T15:17:41.123Z</time></trkpt><trkpt lat="45.0750284" lon="7.5197695"><ele>355.0</ele><time>2026-05-03T15:17:42.129Z</time></trkpt><trkpt lat="45.0751027" lon="7.5197756"><ele>355.0</ele><time>2026-05-03T15:17:43.132Z</time></trkpt><trkpt lat="45.0751797" lon="7.5197784"><ele>354.66666666666663</ele><time>2026-05-03T15:17:44.128Z</time></trkpt><trkpt lat="45.0752581" lon="7.5197881"><ele>354.3333333333333</ele><time>2026-05-03T15:17:45.146Z</time></trkpt><trkpt lat="45.0753231" lon="7.5197901"><ele>354.0</ele><time>2026-05-03T15:17:46.125Z</time></trkpt><trkpt lat="45.0754322" lon="7.5197886"><ele>353.6666666666667</ele><time>2026-05-03T15:17:48.118Z</time></trkpt><trkpt lat="45.0755355" lon="7.5198266"><ele>353.33333333333337</ele><time>2026-05-03T15:17:50.126Z</time></trkpt><trkpt lat="45.0755936" lon="7.5198715"><ele>353.0</ele><time>2026-05-03T15:17:51.136Z</time></trkpt><trkpt lat="45.0757067" lon="7.5199111"><ele>352.79999999999995</ele><time>2026-05-03T15:17:53.106Z</time></trkpt><trkpt lat="45.0757976" lon="7.5198207"><ele>352.6</ele><time>2026-05-03T15:17:55.126Z</time></trkpt><trkpt lat="45.0758064" lon="7.519712"><ele>352.4</ele><time>2026-05-03T15:17:56.13Z</time></trkpt><trkpt lat="45.0758308" lon="7.5195995"><ele>352.20000000000005</ele><time>2026-05-03T15:17:57.132Z</time></trkpt><trkpt lat="45.0758582" lon="7.5194826"><ele>352.0</ele><time>2026-05-03T15:17:58.133Z</time></trkpt><trkpt lat="45.0759045" lon="7.5193556"><ele>352.0</ele><time>2026-05-03T15:17:59.123Z</time></trkpt><trkpt lat="45.0759679" lon="7.5192287"><ele>352.0</ele><time>2026-05-03T15:18:00.12Z</time></trkpt><trkpt lat="45.0760328" lon="7.5191072"><ele>352.0</ele><time>2026-05-03T15:18:01.121Z</time></trkpt><trkpt lat="45.076092" lon="7.5189765"><ele>352.0</ele><time>2026-05-03T15:18:02.118Z</time></trkpt><trkpt lat="45.0761516" lon="7.5188293"><ele>352.0</ele><time>2026-05-03T15:18:03.118Z</time></trkpt><trkpt lat="45.0762089" lon="7.5186739"><ele>352.25</ele><time>2026-05-03T15:18:04.13Z</time></trkpt><trkpt lat="45.0762675" lon="7.518525"><ele>352.5</ele><time>2026-05-03T15:18:05.134Z</time></trkpt><trkpt lat="45.0763283" lon="7.5183743"><ele>352.75</ele><time>2026-05-03T15:18:06.124Z</time></trkpt><trkpt lat="45.0763914" lon="7.518223"><ele>353.0</ele><time>2026-05-03T15:18:07.139Z</time></trkpt><trkpt lat="45.076457" lon="7.5180567"><ele>353.5</ele><time>2026-05-03T15:18:08.125Z</time></trkpt><trkpt lat="45.0765218" lon="7.5178872"><ele>354.0</ele><time>2026-05-03T15:18:09.122Z</time></trkpt><trkpt lat="45.0765805" lon="7.5177312"><ele>354.5</ele><time>2026-05-03T15:18:10.121Z</time></trkpt><trkpt lat="45.0766349" lon="7.5175827"><ele>355.0</ele><time>2026-05-03T15:18:11.12Z</time></trkpt><trkpt lat="45.0766869" lon="7.5174488"><ele>355.0</ele><time>2026-05-03T15:18:12.134Z</time></trkpt><trkpt lat="45.0767313" lon="7.5173188"><ele>355.0</ele><time>2026-05-03T15:18:13.12Z</time></trkpt><trkpt lat="45.0767736" lon="7.5172009"><ele>355.0</ele><time>2026-05-03T15:18:14.118Z</time></trkpt><trkpt lat="45.0768208" lon="7.5170777"><ele>355.0</ele><time>2026-05-03T15:18:15.114Z</time></trkpt><trkpt lat="45.0768642" lon="7.5169513"><ele>355.0</ele><time>2026-05-03T15:18:16.117Z</time></trkpt><trkpt lat="45.0769098" lon="7.5168199"><ele>355.0</ele><time>2026-05-03T15:18:17.111Z</time></trkpt><trkpt lat="45.07696" lon="7.516682"><ele>355.0</ele><time>2026-05-03T15:18:18.112Z</time></trkpt><trkpt lat="45.077007" lon="7.5165452"><ele>355.0</ele><time>2026-05-03T15:18:19.134Z</time></trkpt><trkpt lat="45.0770474" lon="7.5164165"><ele>355.0</ele><time>2026-05-03T15:18:20.129Z</time></trkpt><trkpt lat="45.077091" lon="7.5162986"><ele>355.0</ele><time>2026-05-03T15:18:21.121Z</time></trkpt><trkpt lat="45.0771348" lon="7.5161859"><ele>354.66666666666663</ele><time>2026-05-03T15:18:22.139Z</time></trkpt><trkpt lat="45.0771789" lon="7.5160824"><ele>354.3333333333333</ele><time>2026-05-03T15:18:23.128Z</time></trkpt><trkpt lat="45.077219" lon="7.5159805"><ele>354.0</ele><time>2026-05-03T15:18:24.13Z</time></trkpt><trkpt lat="45.0772574" lon="7.5158921"><ele>353.6666666666667</ele><time>2026-05-03T15:18:25.116Z</time></trkpt><trkpt lat="45.0772942" lon="7.515815"><ele>353.33333333333337</ele><time>2026-05-03T15:18:26.127Z</time></trkpt><trkpt lat="45.0773854" lon="7.5157253"><ele>353.0</ele><time>2026-05-03T15:18:28.118Z</time></trkpt><trkpt lat="45.0774459" lon="7.5156971"><ele>353.0</ele><time>2026-05-03T15:18:29.122Z</time></trkpt><trkpt lat="45.0775351" lon="7.5155805"><ele>353.0</ele><time>2026-05-03T15:18:31.129Z</time></trkpt><trkpt lat="45.0775555" lon="7.5154822"><ele>353.0</ele><time>2026-05-03T15:18:32.117Z</time></trkpt><trkpt lat="45.0775648" lon="7.5153637"><ele>353.0</ele><time>2026-05-03T15:18:33.129Z</time></trkpt><trkpt lat="45.0775797" lon="7.515242"><ele>353.0</ele><time>2026-05-03T15:18:34.134Z</time></trkpt><trkpt lat="45.0776089" lon="7.5151157"><ele>353.0</ele><time>2026-05-03T15:18:35.121Z</time></trkpt><trkpt lat="45.0776386" lon="7.5149926"><ele>353.0</ele><time>2026-05-03T15:18:36.121Z</time></trkpt><trkpt lat="45.0776707" lon="7.5148793"><ele>353.0</ele><time>2026-05-03T15:18:37.124Z</time></trkpt><trkpt lat="45.0777079" lon="7.5147748"><ele>353.0</ele><time>2026-05-03T15:18:38.121Z</time></trkpt><trkpt lat="45.0777476" lon="7.5146865"><ele>353.0</ele><time>2026-05-03T15:18:39.123Z</time></trkpt><trkpt lat="45.0778086" lon="7.5145494"><ele>353.0</ele><time>2026-05-03T15:18:41.136Z</time></trkpt><trkpt lat="45.0778521" lon="7.5144629"><ele>353.0</ele><time>2026-05-03T15:18:43.126Z</time></trkpt><trkpt lat="45.0779125" lon="7.514368"><ele>353.0</ele><time>2026-05-03T15:18:45.122Z</time></trkpt><trkpt lat="45.0780345" lon="7.5142485"><ele>353.0</ele><time>2026-05-03T15:18:47.064Z</time></trkpt><trkpt lat="45.0780721" lon="7.5141567"><ele>353.0</ele><time>2026-05-03T15:18:48.081Z</time></trkpt><trkpt lat="45.0780748" lon="7.5140245"><ele>353.0</ele><time>2026-05-03T15:18:49.07Z</time></trkpt><trkpt lat="45.0780841" lon="7.5138913"><ele>353.0</ele><time>2026-05-03T15:18:50.073Z</time></trkpt><trkpt lat="45.0781085" lon="7.5137395"><ele>353.0</ele><time>2026-05-03T15:18:51.077Z</time></trkpt><trkpt lat="45.0781547" lon="7.5135924"><ele>353.0</ele><time>2026-05-03T15:18:52.073Z</time></trkpt><trkpt lat="45.078212" lon="7.5134511"><ele>353.0</ele><time>2026-05-03T15:18:53.071Z</time></trkpt><trkpt lat="45.078277" lon="7.5133104"><ele>353.0</ele><time>2026-05-03T15:18:54.067Z</time></trkpt><trkpt lat="45.0783335" lon="7.5131776"><ele>353.0</ele><time>2026-05-03T15:18:55.08Z</time></trkpt><trkpt lat="45.0783869" lon="7.5130422"><ele>353.0</ele><time>2026-05-03T15:18:56.072Z</time></trkpt><trkpt lat="45.078428" lon="7.5129143"><ele>353.0</ele><time>2026-05-03T15:18:57.08Z</time></trkpt><trkpt lat="45.0784699" lon="7.512796"><ele>353.0</ele><time>2026-05-03T15:18:58.082Z</time></trkpt><trkpt lat="45.0785158" lon="7.5126891"><ele>353.0</ele><time>2026-05-03T15:18:59.084Z</time></trkpt><trkpt lat="45.078558" lon="7.5125927"><ele>353.0</ele><time>2026-05-03T15:19:00.074Z</time></trkpt><trkpt lat="45.0785918" lon="7.5124936"><ele>353.0</ele><time>2026-05-03T15:19:01.082Z</time></trkpt><trkpt lat="45.0786545" lon="7.5123537"><ele>353.0</ele><time>2026-05-03T15:19:03.092Z</time></trkpt><trkpt lat="45.0787109" lon="7.512223"><ele>353.0</ele><time>2026-05-03T15:19:05.075Z</time></trkpt><trkpt lat="45.0787502" lon="7.5120619"><ele>353.0</ele><time>2026-05-03T15:19:07.07Z</time></trkpt><trkpt lat="45.0787752" lon="7.5119661"><ele>353.0</ele><time>2026-05-03T15:19:08.072Z</time></trkpt><trkpt lat="45.0788069" lon="7.5118697"><ele>353.0</ele><time>2026-05-03T15:19:09.075Z</time></trkpt><trkpt lat="45.0788445" lon="7.5117551"><ele>353.0</ele><time>2026-05-03T15:19:10.076Z</time></trkpt><trkpt lat="45.078887" lon="7.5116346"><ele>353.0</ele><time>2026-05-03T15:19:11.082Z</time></trkpt><trkpt lat="45.078931" lon="7.5114942"><ele>353.0</ele><time>2026-05-03T15:19:12.078Z</time></trkpt><trkpt lat="45.0789828" lon="7.5113537"><ele>353.0</ele><time>2026-05-03T15:19:13.078Z</time></trkpt><trkpt lat="45.0790327" lon="7.5112112"><ele>353.0</ele><time>2026-05-03T15:19:14.084Z</time></trkpt><trkpt lat="45.0790828" lon="7.5110789"><ele>353.0</ele><time>2026-05-03T15:19:15.076Z</time></trkpt><trkpt lat="45.0791321" lon="7.5109512"><ele>353.0</ele><time>2026-05-03T15:19:16.074Z</time></trkpt><trkpt lat="45.0791803" lon="7.5108187"><ele>353.0</ele><time>2026-05-03T15:19:17.076Z</time></trkpt><trkpt lat="45.0792367" lon="7.510677"><ele>353.0</ele><time>2026-05-03T15:19:18.082Z</time></trkpt><trkpt lat="45.0792896" lon="7.5105342"><ele>353.0</ele><time>2026-05-03T15:19:19.067Z</time></trkpt><trkpt lat="45.0793442" lon="7.5103926"><ele>353.0</ele><time>2026-05-03T15:19:20.102Z</time></trkpt><trkpt lat="45.0793827" lon="7.5102707"><ele>353.0</ele><time>2026-05-03T15:19:21.068Z</time></trkpt><trkpt lat="45.0794258" lon="7.5101678"><ele>353.0</ele><time>2026-05-03T15:19:22.077Z</time></trkpt><trkpt lat="45.0794581" lon="7.5100753"><ele>353.1666666666667</ele><time>2026-05-03T15:19:23.076Z</time></trkpt><trkpt lat="45.0794914" lon="7.5099901"><ele>353.33333333333337</ele><time>2026-05-03T15:19:24.079Z</time></trkpt><trkpt lat="45.0795273" lon="7.5098974"><ele>353.5</ele><time>2026-05-03T15:19:25.071Z</time></trkpt><trkpt lat="45.0795681" lon="7.5097935"><ele>353.6666666666667</ele><time>2026-05-03T15:19:26.066Z</time></trkpt><trkpt lat="45.0796106" lon="7.5096796"><ele>353.8333333333333</ele><time>2026-05-03T15:19:27.1Z</time></trkpt><trkpt lat="45.0796643" lon="7.5095489"><ele>354.0</ele><time>2026-05-03T15:19:28.075Z</time></trkpt><trkpt lat="45.0797222" lon="7.5094025"><ele>354.2</ele><time>2026-05-03T15:19:29.058Z</time></trkpt><trkpt lat="45.0797823" lon="7.509258"><ele>354.4</ele><time>2026-05-03T15:19:30.07Z</time></trkpt><trkpt lat="45.079842" lon="7.5091156"><ele>354.6</ele><time>2026-05-03T15:19:31.07Z</time></trkpt><trkpt lat="45.0798959" lon="7.50898"><ele>354.8</ele><time>2026-05-03T15:19:32.071Z</time></trkpt><trkpt lat="45.0799434" lon="7.5088535"><ele>355.0</ele><time>2026-05-03T15:19:33.07Z</time></trkpt><trkpt lat="45.0799876" lon="7.5087301"><ele>355.16666666666663</ele><time>2026-05-03T15:19:34.085Z</time></trkpt><trkpt lat="45.0800247" lon="7.5086204"><ele>355.3333333333333</ele><time>2026-05-03T15:19:35.076Z</time></trkpt><trkpt lat="45.0800566" lon="7.508525"><ele>355.5</ele><time>2026-05-03T15:19:36.076Z</time></trkpt><trkpt lat="45.0800937" lon="7.5084308"><ele>355.6666666666667</ele><time>2026-05-03T15:19:37.074Z</time></trkpt><trkpt lat="45.0801325" lon="7.5083413"><ele>355.83333333333337</ele><time>2026-05-03T15:19:38.08Z</time></trkpt><trkpt lat="45.0801804" lon="7.5082434"><ele>356.0</ele><time>2026-05-03T15:19:39.075Z</time></trkpt><trkpt lat="45.0802276" lon="7.5081409"><ele>356.0</ele><time>2026-05-03T15:19:40.071Z</time></trkpt><trkpt lat="45.0802726" lon="7.5080218"><ele>356.0</ele><time>2026-05-03T15:19:41.086Z</time></trkpt><trkpt lat="45.0803252" lon="7.5078894"><ele>356.0</ele><time>2026-05-03T15:19:42.078Z</time></trkpt><trkpt lat="45.080377" lon="7.5077415"><ele>356.0</ele><time>2026-05-03T15:19:43.077Z</time></trkpt><trkpt lat="45.0804327" lon="7.5075781"><ele>356.0</ele><time>2026-05-03T15:19:44.078Z</time></trkpt><trkpt lat="45.0804905" lon="7.5074096"><ele>356.0</ele><time>2026-05-03T15:19:45.094Z</time></trkpt><trkpt lat="45.0805589" lon="7.507242"><ele>356.0</ele><time>2026-05-03T15:19:46.082Z</time></trkpt><trkpt lat="45.0806162" lon="7.5070655"><ele>356.0</ele><time>2026-05-03T15:19:47.094Z</time></trkpt><trkpt lat="45.080678" lon="7.5069008"><ele>356.0</ele><time>2026-05-03T15:19:48.064Z</time></trkpt><trkpt lat="45.0807348" lon="7.5067508"><ele>355.8</ele><time>2026-05-03T15:19:49.053Z</time></trkpt><trkpt lat="45.0807863" lon="7.506607"><ele>355.6</ele><time>2026-05-03T15:19:50.069Z</time></trkpt><trkpt lat="45.0808399" lon="7.506471"><ele>355.4</ele><time>2026-05-03T15:19:51.076Z</time></trkpt><trkpt lat="45.0808882" lon="7.506339"><ele>355.2</ele><time>2026-05-03T15:19:52.096Z</time></trkpt><trkpt lat="45.0809365" lon="7.5062043"><ele>355.0</ele><time>2026-05-03T15:19:53.07Z</time></trkpt><trkpt lat="45.0809946" lon="7.5060589"><ele>356.0</ele><time>2026-05-03T15:19:54.078Z</time></trkpt><trkpt lat="45.081051" lon="7.5059204"><ele>357.0</ele><time>2026-05-03T15:19:55.083Z</time></trkpt><trkpt lat="45.0811087" lon="7.5057988"><ele>358.0</ele><time>2026-05-03T15:19:56.06Z</time></trkpt><trkpt lat="45.0811562" lon="7.5057049"><ele>359.0</ele><time>2026-05-03T15:19:57.067Z</time></trkpt><trkpt lat="45.0811975" lon="7.5056366"><ele>360.0</ele><time>2026-05-03T15:19:58.062Z</time></trkpt><trkpt lat="45.0812765" lon="7.5055267"><ele>360.2</ele><time>2026-05-03T15:20:00.087Z</time></trkpt><trkpt lat="45.0813546" lon="7.50539"><ele>360.4</ele><time>2026-05-03T15:20:02.058Z</time></trkpt><trkpt lat="45.081372" lon="7.5052733"><ele>360.6</ele><time>2026-05-03T15:20:03.063Z</time></trkpt><trkpt lat="45.081374" lon="7.5051611"><ele>360.8</ele><time>2026-05-03T15:20:04.052Z</time></trkpt><trkpt lat="45.0813838" lon="7.5050569"><ele>361.0</ele><time>2026-05-03T15:20:05.076Z</time></trkpt><trkpt lat="45.0814142" lon="7.5049351"><ele>361.0</ele><time>2026-05-03T15:20:06.061Z</time></trkpt><trkpt lat="45.0814584" lon="7.5048133"><ele>361.0</ele><time>2026-05-03T15:20:07.07Z</time></trkpt><trkpt lat="45.0815046" lon="7.5046767"><ele>361.0</ele><time>2026-05-03T15:20:08.055Z</time></trkpt><trkpt lat="45.0815531" lon="7.5045329"><ele>361.0</ele><time>2026-05-03T15:20:09.06Z</time></trkpt><trkpt lat="45.0816014" lon="7.5043864"><ele>361.0</ele><time>2026-05-03T15:20:10.073Z</time></trkpt><trkpt lat="45.0816525" lon="7.5042374"><ele>360.75</ele><time>2026-05-03T15:20:11.084Z</time></trkpt><trkpt lat="45.0817103" lon="7.5040888"><ele>360.5</ele><time>2026-05-03T15:20:12.087Z</time></trkpt><trkpt lat="45.0817673" lon="7.5039466"><ele>360.25</ele><time>2026-05-03T15:20:13.079Z</time></trkpt><trkpt lat="45.081823" lon="7.5037881"><ele>360.0</ele><time>2026-05-03T15:20:14.075Z</time></trkpt><trkpt lat="45.0818883" lon="7.5036222"><ele>360.0</ele><time>2026-05-03T15:20:15.072Z</time></trkpt><trkpt lat="45.0819596" lon="7.5034339"><ele>360.0</ele><time>2026-05-03T15:20:16.076Z</time></trkpt><trkpt lat="45.0820279" lon="7.5032527"><ele>360.0</ele><time>2026-05-03T15:20:17.087Z</time></trkpt><trkpt lat="45.0820885" lon="7.5030687"><ele>360.0</ele><time>2026-05-03T15:20:18.103Z</time></trkpt><trkpt lat="45.0821431" lon="7.5029097"><ele>360.25</ele><time>2026-05-03T15:20:19.086Z</time></trkpt><trkpt lat="45.0821978" lon="7.5027387"><ele>360.5</ele><time>2026-05-03T15:20:20.068Z</time></trkpt><trkpt lat="45.0822569" lon="7.5025734"><ele>360.75</ele><time>2026-05-03T15:20:21.083Z</time></trkpt><trkpt lat="45.0823235" lon="7.5024119"><ele>361.0</ele><time>2026-05-03T15:20:22.075Z</time></trkpt><trkpt lat="45.082388" lon="7.5022465"><ele>360.6</ele><time>2026-05-03T15:20:23.075Z</time></trkpt><trkpt lat="45.0824586" lon="7.5020995"><ele>360.20000000000005</ele><time>2026-05-03T15:20:24.076Z</time></trkpt><trkpt lat="45.0825156" lon="7.5019617"><ele>359.79999999999995</ele><time>2026-05-03T15:20:25.086Z</time></trkpt><trkpt lat="45.08256" lon="7.5018424"><ele>359.4</ele><time>2026-05-03T15:20:26.067Z</time></trkpt><trkpt lat="45.0826065" lon="7.501756"><ele>359.0</ele><time>2026-05-03T15:20:27.074Z</time></trkpt><trkpt lat="45.0826518" lon="7.5016869"><ele>359.0</ele><time>2026-05-03T15:20:28.074Z</time></trkpt><trkpt lat="45.0827361" lon="7.5015693"><ele>359.0</ele><time>2026-05-03T15:20:30.057Z</time></trkpt><trkpt lat="45.0827686" lon="7.5014833"><ele>359.0</ele><time>2026-05-03T15:20:31.086Z</time></trkpt><trkpt lat="45.0827884" lon="7.5013827"><ele>359.0</ele><time>2026-05-03T15:20:32.066Z</time></trkpt><trkpt lat="45.08281" lon="7.5012729"><ele>359.0</ele><time>2026-05-03T15:20:33.086Z</time></trkpt><trkpt lat="45.0828492" lon="7.5011398"><ele>359.0</ele><time>2026-05-03T15:20:34.074Z</time></trkpt><trkpt lat="45.0829003" lon="7.5010064"><ele>359.0</ele><time>2026-05-03T15:20:35.064Z</time></trkpt><trkpt lat="45.0829582" lon="7.5008532"><ele>359.0</ele><time>2026-05-03T15:20:36.081Z</time></trkpt><trkpt lat="45.0830193" lon="7.5006988"><ele>359.0</ele><time>2026-05-03T15:20:37.084Z</time></trkpt><trkpt lat="45.0830789" lon="7.5005287"><ele>359.0</ele><time>2026-05-03T15:20:38.077Z</time></trkpt><trkpt lat="45.083138" lon="7.5003595"><ele>359.25</ele><time>2026-05-03T15:20:39.067Z</time></trkpt><trkpt lat="45.083199" lon="7.5001907"><ele>359.5</ele><time>2026-05-03T15:20:40.089Z</time></trkpt><trkpt lat="45.0832639" lon="7.5000225"><ele>359.75</ele><time>2026-05-03T15:20:41.082Z</time></trkpt><trkpt lat="45.0833261" lon="7.4998588"><ele>360.0</ele><time>2026-05-03T15:20:42.081Z</time></trkpt><trkpt lat="45.0833929" lon="7.4996831"><ele>359.6666666666667</ele><time>2026-05-03T15:20:43.077Z</time></trkpt><trkpt lat="45.0834564" lon="7.4995016"><ele>359.33333333333337</ele><time>2026-05-03T15:20:44.087Z</time></trkpt><trkpt lat="45.0835201" lon="7.4993103"><ele>359.0</ele><time>2026-05-03T15:20:45.081Z</time></trkpt><trkpt lat="45.0835931" lon="7.4990987"><ele>359.0</ele><time>2026-05-03T15:20:46.08Z</time></trkpt><trkpt lat="45.0836716" lon="7.4988776"><ele>359.0</ele><time>2026-05-03T15:20:47.07Z</time></trkpt><trkpt lat="45.0837604" lon="7.4986389"><ele>359.0</ele><time>2026-05-03T15:20:48.078Z</time></trkpt><trkpt lat="45.0838536" lon="7.4983957"><ele>358.6666666666667</ele><time>2026-05-03T15:20:49.07Z</time></trkpt><trkpt lat="45.0839476" lon="7.4981616"><ele>358.3333333333333</ele><time>2026-05-03T15:20:50.071Z</time></trkpt><trkpt lat="45.0840357" lon="7.497932"><ele>358.0</ele><time>2026-05-03T15:20:51.086Z</time></trkpt><trkpt lat="45.0841188" lon="7.4977049"><ele>358.0</ele><time>2026-05-03T15:20:52.098Z</time></trkpt><trkpt lat="45.0841942" lon="7.497474"><ele>358.0</ele><time>2026-05-03T15:20:53.087Z</time></trkpt><trkpt lat="45.0842628" lon="7.4972322"><ele>358.0</ele><time>2026-05-03T15:20:54.063Z</time></trkpt><trkpt lat="45.0843241" lon="7.4969781"><ele>357.66666666666663</ele><time>2026-05-03T15:20:55.07Z</time></trkpt><trkpt lat="45.0843756" lon="7.49671"><ele>357.3333333333333</ele><time>2026-05-03T15:20:56.073Z</time></trkpt><trkpt lat="45.084409" lon="7.4964349"><ele>357.0</ele><time>2026-05-03T15:20:57.082Z</time></trkpt><trkpt lat="45.084426" lon="7.4961461"><ele>357.0</ele><time>2026-05-03T15:20:58.077Z</time></trkpt><trkpt lat="45.0844342" lon="7.4958627"><ele>357.0</ele><time>2026-05-03T15:20:59.054Z</time></trkpt><trkpt lat="45.084435" lon="7.4955835"><ele>357.0</ele><time>2026-05-03T15:21:00.077Z</time></trkpt><trkpt lat="45.0844374" lon="7.4953065"><ele>355.3333333333333</ele><time>2026-05-03T15:21:01.078Z</time></trkpt><trkpt lat="45.0844229" lon="7.4950304"><ele>353.66666666666663</ele><time>2026-05-03T15:21:02.082Z</time></trkpt><trkpt lat="45.0843847" lon="7.4947532"><ele>352.0</ele><time>2026-05-03T15:21:03.079Z</time></trkpt><trkpt lat="45.0843246" lon="7.4944843"><ele>350.0</ele><time>2026-05-03T15:21:04.089Z</time></trkpt><trkpt lat="45.0842598" lon="7.4942215"><ele>348.0</ele><time>2026-05-03T15:21:05.061Z</time></trkpt><trkpt lat="45.0842275" lon="7.4939714"><ele>346.0</ele><time>2026-05-03T15:21:06.081Z</time></trkpt><trkpt lat="45.0842194" lon="7.4937158"><ele>344.3333333333333</ele><time>2026-05-03T15:21:07.079Z</time></trkpt><trkpt lat="45.0842289" lon="7.4934774"><ele>342.6666666666667</ele><time>2026-05-03T15:21:08.063Z</time></trkpt><trkpt lat="45.0842656" lon="7.4932236"><ele>341.0</ele><time>2026-05-03T15:21:09.056Z</time></trkpt><trkpt lat="45.0843274" lon="7.4929835"><ele>340.6666666666667</ele><time>2026-05-03T15:21:10.073Z</time></trkpt><trkpt lat="45.0844108" lon="7.4927542"><ele>340.3333333333333</ele><time>2026-05-03T15:21:11.077Z</time></trkpt><trkpt lat="45.0845014" lon="7.4925155"><ele>340.0</ele><time>2026-05-03T15:21:12.082Z</time></trkpt><trkpt lat="45.0845993" lon="7.4922764"><ele>340.0</ele><time>2026-05-03T15:21:13.082Z</time></trkpt><trkpt lat="45.0846952" lon="7.4920375"><ele>340.0</ele><time>2026-05-03T15:21:14.072Z</time></trkpt><trkpt lat="45.0847853" lon="7.4917932"><ele>340.0</ele><time>2026-05-03T15:21:15.086Z</time></trkpt><trkpt lat="45.084865" lon="7.4915534"><ele>340.0</ele><time>2026-05-03T15:21:16.07Z</time></trkpt><trkpt lat="45.0849411" lon="7.4913143"><ele>340.0</ele><time>2026-05-03T15:21:17.077Z</time></trkpt><trkpt lat="45.0850016" lon="7.4910564"><ele>340.0</ele><time>2026-05-03T15:21:18.079Z</time></trkpt><trkpt lat="45.0850478" lon="7.4908007"><ele>339.66666666666663</ele><time>2026-05-03T15:21:19.091Z</time></trkpt><trkpt lat="45.0850728" lon="7.4905381"><ele>339.3333333333333</ele><time>2026-05-03T15:21:20.08Z</time></trkpt><trkpt lat="45.0850781" lon="7.4902624"><ele>339.0</ele><time>2026-05-03T15:21:21.084Z</time></trkpt><trkpt lat="45.085071" lon="7.4899823"><ele>339.0</ele><time>2026-05-03T15:21:22.076Z</time></trkpt><trkpt lat="45.0850556" lon="7.4897038"><ele>339.0</ele><time>2026-05-03T15:21:23.076Z</time></trkpt><trkpt lat="45.0850407" lon="7.4894211"><ele>339.0</ele><time>2026-05-03T15:21:24.074Z</time></trkpt><trkpt lat="45.0850352" lon="7.489134"><ele>339.0</ele><time>2026-05-03T15:21:25.093Z</time></trkpt><trkpt lat="45.0850297" lon="7.4888371"><ele>339.0</ele><time>2026-05-03T15:21:26.075Z</time></trkpt><trkpt lat="45.0850264" lon="7.4885474"><ele>339.0</ele><time>2026-05-03T15:21:27.077Z</time></trkpt><trkpt lat="45.0850219" lon="7.4882586"><ele>338.6666666666667</ele><time>2026-05-03T15:21:28.082Z</time></trkpt><trkpt lat="45.0850149" lon="7.4879729"><ele>338.33333333333337</ele><time>2026-05-03T15:21:29.07Z</time></trkpt><trkpt lat="45.0850076" lon="7.4877019"><ele>338.0</ele><time>2026-05-03T15:21:30.095Z</time></trkpt><trkpt lat="45.0850036" lon="7.4874407"><ele>337.33333333333337</ele><time>2026-05-03T15:21:31.076Z</time></trkpt><trkpt lat="45.0849952" lon="7.4871891"><ele>336.6666666666667</ele><time>2026-05-03T15:21:32.066Z</time></trkpt><trkpt lat="45.0849819" lon="7.48694"><ele>336.0</ele><time>2026-05-03T15:21:33.078Z</time></trkpt><trkpt lat="45.0849765" lon="7.4866865"><ele>336.0</ele><time>2026-05-03T15:21:34.071Z</time></trkpt><trkpt lat="45.0849727" lon="7.4864285"><ele>336.0</ele><time>2026-05-03T15:21:35.08Z</time></trkpt><trkpt lat="45.0849692" lon="7.486166"><ele>336.0</ele><time>2026-05-03T15:21:36.076Z</time></trkpt><trkpt lat="45.0849643" lon="7.4859091"><ele>335.3333333333333</ele><time>2026-05-03T15:21:37.076Z</time></trkpt><trkpt lat="45.0849528" lon="7.4856475"><ele>334.66666666666663</ele><time>2026-05-03T15:21:38.089Z</time></trkpt><trkpt lat="45.084943" lon="7.4853855"><ele>334.0</ele><time>2026-05-03T15:21:39.078Z</time></trkpt><trkpt lat="45.0849325" lon="7.4851214"><ele>334.0</ele><time>2026-05-03T15:21:40.081Z</time></trkpt><trkpt lat="45.0849234" lon="7.4848682"><ele>334.0</ele><time>2026-05-03T15:21:41.071Z</time></trkpt><trkpt lat="45.0849141" lon="7.4846338"><ele>334.0</ele><time>2026-05-03T15:21:42.087Z</time></trkpt><trkpt lat="45.0849025" lon="7.4844015"><ele>334.0</ele><time>2026-05-03T15:21:43.068Z</time></trkpt><trkpt lat="45.0848963" lon="7.4841827"><ele>334.0</ele><time>2026-05-03T15:21:44.076Z</time></trkpt><trkpt lat="45.0848928" lon="7.4839711"><ele>334.0</ele><time>2026-05-03T15:21:45.072Z</time></trkpt><trkpt lat="45.0848906" lon="7.4837505"><ele>333.25</ele><time>2026-05-03T15:21:46.088Z</time></trkpt><trkpt lat="45.0848875" lon="7.4835335"><ele>332.5</ele><time>2026-05-03T15:21:47.071Z</time></trkpt><trkpt lat="45.0848791" lon="7.4833256"><ele>331.75</ele><time>2026-05-03T15:21:48.075Z</time></trkpt><trkpt lat="45.0848761" lon="7.4831325"><ele>331.0</ele><time>2026-05-03T15:21:49.091Z</time></trkpt><trkpt lat="45.0848723" lon="7.4829402"><ele>330.75</ele><time>2026-05-03T15:21:50.08Z</time></trkpt><trkpt lat="45.0848697" lon="7.4827542"><ele>330.5</ele><time>2026-05-03T15:21:51.057Z</time></trkpt><trkpt lat="45.0848759" lon="7.4825867"><ele>330.25</ele><time>2026-05-03T15:21:52.085Z</time></trkpt><trkpt lat="45.084894" lon="7.4824262"><ele>330.0</ele><time>2026-05-03T15:21:53.069Z</time></trkpt><trkpt lat="45.0849345" lon="7.48228"><ele>330.0</ele><time>2026-05-03T15:21:54.078Z</time></trkpt><trkpt lat="45.084978" lon="7.4821367"><ele>330.0</ele><time>2026-05-03T15:21:55.069Z</time></trkpt><trkpt lat="45.0850137" lon="7.4819889"><ele>330.0</ele><time>2026-05-03T15:21:56.084Z</time></trkpt><trkpt lat="45.0850214" lon="7.4818349"><ele>330.0</ele><time>2026-05-03T15:21:57.065Z</time></trkpt><trkpt lat="45.0849973" lon="7.4816751"><ele>330.0</ele><time>2026-05-03T15:21:58.072Z</time></trkpt><trkpt lat="45.0849604" lon="7.4815176"><ele>330.25</ele><time>2026-05-03T15:21:59.073Z</time></trkpt><trkpt lat="45.0849266" lon="7.4813668"><ele>330.5</ele><time>2026-05-03T15:22:00.064Z</time></trkpt><trkpt lat="45.084895" lon="7.4812013"><ele>330.75</ele><time>2026-05-03T15:22:01.087Z</time></trkpt><trkpt lat="45.084872" lon="7.4810113"><ele>331.0</ele><time>2026-05-03T15:22:02.103Z</time></trkpt><trkpt lat="45.0848593" lon="7.4808157"><ele>331.66666666666663</ele><time>2026-05-03T15:22:03.07Z</time></trkpt><trkpt lat="45.0848405" lon="7.4806115"><ele>332.3333333333333</ele><time>2026-05-03T15:22:04.084Z</time></trkpt><trkpt lat="45.0848315" lon="7.4803843"><ele>333.0</ele><time>2026-05-03T15:22:05.079Z</time></trkpt><trkpt lat="45.0848221" lon="7.4801512"><ele>333.0</ele><time>2026-05-03T15:22:06.079Z</time></trkpt><trkpt lat="45.0848161" lon="7.4799031"><ele>333.0</ele><time>2026-05-03T15:22:07.083Z</time></trkpt><trkpt lat="45.0848114" lon="7.4796536"><ele>333.0</ele><time>2026-05-03T15:22:08.075Z</time></trkpt><trkpt lat="45.0848081" lon="7.479416"><ele>333.0</ele><time>2026-05-03T15:22:09.075Z</time></trkpt><trkpt lat="45.0848034" lon="7.4791932"><ele>333.0</ele><time>2026-05-03T15:22:10.096Z</time></trkpt><trkpt lat="45.0847969" lon="7.4789732"><ele>333.0</ele><time>2026-05-03T15:22:11.091Z</time></trkpt><trkpt lat="45.0847878" lon="7.4787541"><ele>333.0</ele><time>2026-05-03T15:22:12.092Z</time></trkpt><trkpt lat="45.0847811" lon="7.4785248"><ele>333.0</ele><time>2026-05-03T15:22:13.089Z</time></trkpt><trkpt lat="45.0847784" lon="7.4782887"><ele>333.0</ele><time>2026-05-03T15:22:14.076Z</time></trkpt><trkpt lat="45.0847693" lon="7.4780427"><ele>332.6666666666667</ele><time>2026-05-03T15:22:15.079Z</time></trkpt><trkpt lat="45.0847637" lon="7.4778001"><ele>332.33333333333337</ele><time>2026-05-03T15:22:16.085Z</time></trkpt><trkpt lat="45.084759" lon="7.4775509"><ele>332.0</ele><time>2026-05-03T15:22:17.062Z</time></trkpt><trkpt lat="45.0847481" lon="7.4772967"><ele>332.33333333333337</ele><time>2026-05-03T15:22:18.083Z</time></trkpt><trkpt lat="45.0847414" lon="7.477039"><ele>332.6666666666667</ele><time>2026-05-03T15:22:19.083Z</time></trkpt><trkpt lat="45.0847377" lon="7.4767802"><ele>333.0</ele><time>2026-05-03T15:22:20.082Z</time></trkpt><trkpt lat="45.0847338" lon="7.4765262"><ele>333.0</ele><time>2026-05-03T15:22:21.077Z</time></trkpt><trkpt lat="45.0847241" lon="7.4762762"><ele>333.0</ele><time>2026-05-03T15:22:22.077Z</time></trkpt><trkpt lat="45.0847151" lon="7.4760344"><ele>333.0</ele><time>2026-05-03T15:22:23.086Z</time></trkpt><trkpt lat="45.0847102" lon="7.4757978"><ele>332.3333333333333</ele><time>2026-05-03T15:22:24.088Z</time></trkpt><trkpt lat="45.0847048" lon="7.4755601"><ele>331.66666666666663</ele><time>2026-05-03T15:22:25.092Z</time></trkpt><trkpt lat="45.0846946" lon="7.4753218"><ele>331.0</ele><time>2026-05-03T15:22:26.084Z</time></trkpt><trkpt lat="45.084689" lon="7.4750866"><ele>331.0</ele><time>2026-05-03T15:22:27.068Z</time></trkpt><trkpt lat="45.084685" lon="7.4748611"><ele>331.0</ele><time>2026-05-03T15:22:28.093Z</time></trkpt><trkpt lat="45.084679" lon="7.4746279"><ele>331.0</ele><time>2026-05-03T15:22:29.081Z</time></trkpt><trkpt lat="45.0846752" lon="7.474391"><ele>331.0</ele><time>2026-05-03T15:22:30.07Z</time></trkpt><trkpt lat="45.0846669" lon="7.4741509"><ele>331.0</ele><time>2026-05-03T15:22:31.081Z</time></trkpt><trkpt lat="45.0846599" lon="7.4739097"><ele>331.0</ele><time>2026-05-03T15:22:32.079Z</time></trkpt><trkpt lat="45.0846537" lon="7.4736691"><ele>331.0</ele><time>2026-05-03T15:22:33.069Z</time></trkpt><trkpt lat="45.0846448" lon="7.4734162"><ele>331.0</ele><time>2026-05-03T15:22:34.084Z</time></trkpt><trkpt lat="45.0846357" lon="7.4731675"><ele>331.0</ele><time>2026-05-03T15:22:35.075Z</time></trkpt><trkpt lat="45.0846226" lon="7.4729165"><ele>331.0</ele><time>2026-05-03T15:22:36.091Z</time></trkpt><trkpt lat="45.0846118" lon="7.4726701"><ele>331.0</ele><time>2026-05-03T15:22:37.088Z</time></trkpt><trkpt lat="45.0846014" lon="7.4724389"><ele>331.0</ele><time>2026-05-03T15:22:38.081Z</time></trkpt><trkpt lat="45.0845905" lon="7.4722083"><ele>330.66666666666663</ele><time>2026-05-03T15:22:39.085Z</time></trkpt><trkpt lat="45.084583" lon="7.4719763"><ele>330.3333333333333</ele><time>2026-05-03T15:22:40.071Z</time></trkpt><trkpt lat="45.0845803" lon="7.4717336"><ele>330.0</ele><time>2026-05-03T15:22:41.086Z</time></trkpt><trkpt lat="45.0845752" lon="7.4714944"><ele>329.6666666666667</ele><time>2026-05-03T15:22:42.083Z</time></trkpt><trkpt lat="45.0845683" lon="7.4712566"><ele>329.33333333333337</ele><time>2026-05-03T15:22:43.067Z</time></trkpt><trkpt lat="45.0845727" lon="7.4710228"><ele>329.0</ele><time>2026-05-03T15:22:44.076Z</time></trkpt><trkpt lat="45.084571" lon="7.470775"><ele>329.0</ele><time>2026-05-03T15:22:45.065Z</time></trkpt><trkpt lat="45.0845701" lon="7.4705276"><ele>329.0</ele><time>2026-05-03T15:22:46.071Z</time></trkpt><trkpt lat="45.0845629" lon="7.4702787"><ele>329.0</ele><time>2026-05-03T15:22:47.089Z</time></trkpt><trkpt lat="45.0845579" lon="7.4700439"><ele>328.6666666666667</ele><time>2026-05-03T15:22:48.088Z</time></trkpt><trkpt lat="45.084553" lon="7.4698251"><ele>328.3333333333333</ele><time>2026-05-03T15:22:49.074Z</time></trkpt><trkpt lat="45.0845473" lon="7.4696046"><ele>328.0</ele><time>2026-05-03T15:22:50.083Z</time></trkpt><trkpt lat="45.0845401" lon="7.4693836"><ele>329.3333333333333</ele><time>2026-05-03T15:22:51.082Z</time></trkpt><trkpt lat="45.0845317" lon="7.4691591"><ele>330.6666666666667</ele><time>2026-05-03T15:22:52.085Z</time></trkpt><trkpt lat="45.0845242" lon="7.468932"><ele>332.0</ele><time>2026-05-03T15:22:53.086Z</time></trkpt><trkpt lat="45.0845172" lon="7.4687109"><ele>332.0</ele><time>2026-05-03T15:22:54.092Z</time></trkpt><trkpt lat="45.0845084" lon="7.4684758"><ele>332.0</ele><time>2026-05-03T15:22:55.08Z</time></trkpt><trkpt lat="45.0845022" lon="7.4682396"><ele>332.0</ele><time>2026-05-03T15:22:56.084Z</time></trkpt><trkpt lat="45.0844954" lon="7.4679987"><ele>332.0</ele><time>2026-05-03T15:22:57.062Z</time></trkpt><trkpt lat="45.0844845" lon="7.467755"><ele>332.0</ele><time>2026-05-03T15:22:58.077Z</time></trkpt><trkpt lat="45.0844743" lon="7.4675219"><ele>332.0</ele><time>2026-05-03T15:22:59.063Z</time></trkpt><trkpt lat="45.084469" lon="7.4672997"><ele>331.6666666666667</ele><time>2026-05-03T15:23:00.088Z</time></trkpt><trkpt lat="45.0844622" lon="7.4670873"><ele>331.3333333333333</ele><time>2026-05-03T15:23:01.087Z</time></trkpt><trkpt lat="45.0844578" lon="7.4668769"><ele>331.0</ele><time>2026-05-03T15:23:02.085Z</time></trkpt><trkpt lat="45.0844517" lon="7.4666545"><ele>331.0</ele><time>2026-05-03T15:23:03.087Z</time></trkpt><trkpt lat="45.0844501" lon="7.4664289"><ele>331.0</ele><time>2026-05-03T15:23:04.095Z</time></trkpt><trkpt lat="45.0844437" lon="7.4662059"><ele>331.0</ele><time>2026-05-03T15:23:05.055Z</time></trkpt><trkpt lat="45.0844352" lon="7.4660004"><ele>331.25</ele><time>2026-05-03T15:23:06.081Z</time></trkpt><trkpt lat="45.0844219" lon="7.4658017"><ele>331.5</ele><time>2026-05-03T15:23:07.076Z</time></trkpt><trkpt lat="45.0844189" lon="7.4656009"><ele>331.75</ele><time>2026-05-03T15:23:08.08Z</time></trkpt><trkpt lat="45.0844188" lon="7.4654018"><ele>332.0</ele><time>2026-05-03T15:23:09.083Z</time></trkpt><trkpt lat="45.0844213" lon="7.4651893"><ele>332.0</ele><time>2026-05-03T15:23:10.094Z</time></trkpt><trkpt lat="45.0844221" lon="7.464979"><ele>332.0</ele><time>2026-05-03T15:23:11.071Z</time></trkpt><trkpt lat="45.0844166" lon="7.4647752"><ele>332.0</ele><time>2026-05-03T15:23:12.079Z</time></trkpt><trkpt lat="45.0844113" lon="7.4645696"><ele>332.0</ele><time>2026-05-03T15:23:13.096Z</time></trkpt><trkpt lat="45.0844094" lon="7.4643755"><ele>332.0</ele><time>2026-05-03T15:23:14.077Z</time></trkpt><trkpt lat="45.0844066" lon="7.46419"><ele>332.0</ele><time>2026-05-03T15:23:15.077Z</time></trkpt><trkpt lat="45.0844032" lon="7.4640146"><ele>332.0</ele><time>2026-05-03T15:23:16.081Z</time></trkpt><trkpt lat="45.0843976" lon="7.4638417"><ele>332.0</ele><time>2026-05-03T15:23:17.08Z</time></trkpt><trkpt lat="45.0843947" lon="7.4636835"><ele>331.5</ele><time>2026-05-03T15:23:18.051Z</time></trkpt><trkpt lat="45.0843926" lon="7.4635249"><ele>331.0</ele><time>2026-05-03T15:23:19.077Z</time></trkpt><trkpt lat="45.0843982" lon="7.4633689"><ele>330.5</ele><time>2026-05-03T15:23:20.082Z</time></trkpt><trkpt lat="45.0844085" lon="7.4632043"><ele>330.0</ele><time>2026-05-03T15:23:21.075Z</time></trkpt><trkpt lat="45.0844326" lon="7.4630492"><ele>329.75</ele><time>2026-05-03T15:23:22.078Z</time></trkpt><trkpt lat="45.0844676" lon="7.4628989"><ele>329.5</ele><time>2026-05-03T15:23:23.075Z</time></trkpt><trkpt lat="45.0844959" lon="7.4627451"><ele>329.25</ele><time>2026-05-03T15:23:24.072Z</time></trkpt><trkpt lat="45.0845046" lon="7.4625785"><ele>329.0</ele><time>2026-05-03T15:23:25.083Z</time></trkpt><trkpt lat="45.0844754" lon="7.4624051"><ele>329.0</ele><time>2026-05-03T15:23:26.08Z</time></trkpt><trkpt lat="45.0844232" lon="7.4622339"><ele>329.0</ele><time>2026-05-03T15:23:27.057Z</time></trkpt><trkpt lat="45.0843799" lon="7.4620565"><ele>329.0</ele><time>2026-05-03T15:23:28.089Z</time></trkpt><trkpt lat="45.0843428" lon="7.4618743"><ele>329.0</ele><time>2026-05-03T15:23:29.071Z</time></trkpt><trkpt lat="45.0843262" lon="7.4616648"><ele>328.75</ele><time>2026-05-03T15:23:30.081Z</time></trkpt><trkpt lat="45.0843181" lon="7.4614564"><ele>328.5</ele><time>2026-05-03T15:23:31.066Z</time></trkpt><trkpt lat="45.0843118" lon="7.4612422"><ele>328.25</ele><time>2026-05-03T15:23:32.074Z</time></trkpt><trkpt lat="45.0843089" lon="7.4610339"><ele>328.0</ele><time>2026-05-03T15:23:33.073Z</time></trkpt><trkpt lat="45.0843012" lon="7.4608205"><ele>327.66666666666663</ele><time>2026-05-03T15:23:34.086Z</time></trkpt><trkpt lat="45.0842981" lon="7.4605977"><ele>327.3333333333333</ele><time>2026-05-03T15:23:35.077Z</time></trkpt><trkpt lat="45.0842911" lon="7.4603674"><ele>327.0</ele><time>2026-05-03T15:23:36.079Z</time></trkpt><trkpt lat="45.0842894" lon="7.4601354"><ele>327.0</ele><time>2026-05-03T15:23:37.078Z</time></trkpt><trkpt lat="45.0842831" lon="7.4599019"><ele>327.0</ele><time>2026-05-03T15:23:38.083Z</time></trkpt><trkpt lat="45.0842771" lon="7.4596658"><ele>327.0</ele><time>2026-05-03T15:23:39.086Z</time></trkpt><trkpt lat="45.0842719" lon="7.4594327"><ele>327.0</ele><time>2026-05-03T15:23:40.077Z</time></trkpt><trkpt lat="45.0842686" lon="7.4592104"><ele>327.0</ele><time>2026-05-03T15:23:41.077Z</time></trkpt><trkpt lat="45.084266" lon="7.4589854"><ele>327.0</ele><time>2026-05-03T15:23:42.081Z</time></trkpt><trkpt lat="45.084258" lon="7.4587585"><ele>327.3333333333333</ele><time>2026-05-03T15:23:43.09Z</time></trkpt><trkpt lat="45.0842533" lon="7.4585191"><ele>327.66666666666663</ele><time>2026-05-03T15:23:44.076Z</time></trkpt><trkpt lat="45.0842444" lon="7.4582763"><ele>328.0</ele><time>2026-05-03T15:23:45.08Z</time></trkpt><trkpt lat="45.0842426" lon="7.4580375"><ele>328.3333333333333</ele><time>2026-05-03T15:23:46.091Z</time></trkpt><trkpt lat="45.0842359" lon="7.4577898"><ele>328.6666666666667</ele><time>2026-05-03T15:23:47.081Z</time></trkpt><trkpt lat="45.0842295" lon="7.4575443"><ele>329.0</ele><time>2026-05-03T15:23:48.089Z</time></trkpt><trkpt lat="45.0842191" lon="7.4573016"><ele>329.6666666666667</ele><time>2026-05-03T15:23:49.084Z</time></trkpt><trkpt lat="45.0842135" lon="7.4570688"><ele>330.3333333333333</ele><time>2026-05-03T15:23:50.094Z</time></trkpt><trkpt lat="45.084205" lon="7.4568375"><ele>331.0</ele><time>2026-05-03T15:23:51.089Z</time></trkpt><trkpt lat="45.0841946" lon="7.456612"><ele>331.0</ele><time>2026-05-03T15:23:52.079Z</time></trkpt><trkpt lat="45.0841856" lon="7.4563795"><ele>331.0</ele><time>2026-05-03T15:23:53.094Z</time></trkpt><trkpt lat="45.0841793" lon="7.4561415"><ele>331.0</ele><time>2026-05-03T15:23:54.078Z</time></trkpt><trkpt lat="45.0841759" lon="7.455908"><ele>332.0</ele><time>2026-05-03T15:23:55.083Z</time></trkpt><trkpt lat="45.0841746" lon="7.4556824"><ele>333.0</ele><time>2026-05-03T15:23:56.09Z</time></trkpt><trkpt lat="45.0841708" lon="7.4554574"><ele>334.0</ele><time>2026-05-03T15:23:57.087Z</time></trkpt><trkpt lat="45.0841619" lon="7.4552409"><ele>334.0</ele><time>2026-05-03T15:23:58.077Z</time></trkpt><trkpt lat="45.0841485" lon="7.4550307"><ele>334.0</ele><time>2026-05-03T15:23:59.073Z</time></trkpt><trkpt lat="45.0841381" lon="7.4548155"><ele>334.0</ele><time>2026-05-03T15:24:00.084Z</time></trkpt><trkpt lat="45.084131" lon="7.4546059"><ele>334.0</ele><time>2026-05-03T15:24:01.082Z</time></trkpt><trkpt lat="45.084129" lon="7.4543938"><ele>333.66666666666663</ele><time>2026-05-03T15:24:02.089Z</time></trkpt><trkpt lat="45.084123" lon="7.4541721"><ele>333.3333333333333</ele><time>2026-05-03T15:24:03.075Z</time></trkpt><trkpt lat="45.0841195" lon="7.4539438"><ele>333.0</ele><time>2026-05-03T15:24:04.078Z</time></trkpt><trkpt lat="45.084114" lon="7.4537072"><ele>333.3333333333333</ele><time>2026-05-03T15:24:05.086Z</time></trkpt><trkpt lat="45.0841056" lon="7.4534611"><ele>333.66666666666663</ele><time>2026-05-03T15:24:06.082Z</time></trkpt><trkpt lat="45.0840998" lon="7.4532"><ele>334.0</ele><time>2026-05-03T15:24:07.067Z</time></trkpt><trkpt lat="45.0840929" lon="7.4529327"><ele>334.0</ele><time>2026-05-03T15:24:08.107Z</time></trkpt><trkpt lat="45.0840889" lon="7.4526822"><ele>334.0</ele><time>2026-05-03T15:24:09.08Z</time></trkpt><trkpt lat="45.0840816" lon="7.4524393"><ele>334.0</ele><time>2026-05-03T15:24:10.08Z</time></trkpt><trkpt lat="45.0840745" lon="7.4522147"><ele>334.0</ele><time>2026-05-03T15:24:11.084Z</time></trkpt><trkpt lat="45.0840688" lon="7.4519954"><ele>334.0</ele><time>2026-05-03T15:24:12.081Z</time></trkpt><trkpt lat="45.0840685" lon="7.4517728"><ele>334.0</ele><time>2026-05-03T15:24:13.082Z</time></trkpt><trkpt lat="45.0840662" lon="7.4515523"><ele>334.0</ele><time>2026-05-03T15:24:14.08Z</time></trkpt><trkpt lat="45.0840647" lon="7.4513413"><ele>334.0</ele><time>2026-05-03T15:24:15.078Z</time></trkpt><trkpt lat="45.0840678" lon="7.4511375"><ele>334.0</ele><time>2026-05-03T15:24:16.086Z</time></trkpt><trkpt lat="45.0840713" lon="7.4509415"><ele>334.0</ele><time>2026-05-03T15:24:17.084Z</time></trkpt><trkpt lat="45.0840711" lon="7.4507338"><ele>334.0</ele><time>2026-05-03T15:24:18.077Z</time></trkpt><trkpt lat="45.0840665" lon="7.4505349"><ele>334.0</ele><time>2026-05-03T15:24:19.082Z</time></trkpt><trkpt lat="45.0840596" lon="7.4503489"><ele>334.0</ele><time>2026-05-03T15:24:20.091Z</time></trkpt><trkpt lat="45.0840621" lon="7.4501721"><ele>334.0</ele><time>2026-05-03T15:24:21.097Z</time></trkpt><trkpt lat="45.0840642" lon="7.4499966"><ele>334.2</ele><time>2026-05-03T15:24:22.072Z</time></trkpt><trkpt lat="45.0840696" lon="7.4498335"><ele>334.4</ele><time>2026-05-03T15:24:23.075Z</time></trkpt><trkpt lat="45.0840755" lon="7.449676"><ele>334.6</ele><time>2026-05-03T15:24:24.092Z</time></trkpt><trkpt lat="45.0840807" lon="7.4495254"><ele>334.8</ele><time>2026-05-03T15:24:25.078Z</time></trkpt><trkpt lat="45.0840821" lon="7.4493837"><ele>335.0</ele><time>2026-05-03T15:24:26.08Z</time></trkpt><trkpt lat="45.0840836" lon="7.4492509"><ele>335.1666666666667</ele><time>2026-05-03T15:24:27.067Z</time></trkpt><trkpt lat="45.0840899" lon="7.4491144"><ele>335.33333333333337</ele><time>2026-05-03T15:24:28.075Z</time></trkpt><trkpt lat="45.0840964" lon="7.448984"><ele>335.5</ele><time>2026-05-03T15:24:29.076Z</time></trkpt><trkpt lat="45.0841202" lon="7.4488655"><ele>335.6666666666667</ele><time>2026-05-03T15:24:30.088Z</time></trkpt><trkpt lat="45.0841594" lon="7.4487685"><ele>335.8333333333333</ele><time>2026-05-03T15:24:31.068Z</time></trkpt><trkpt lat="45.0842145" lon="7.4487052"><ele>336.0</ele><time>2026-05-03T15:24:32.073Z</time></trkpt><trkpt lat="45.0842826" lon="7.4486749"><ele>335.6</ele><time>2026-05-03T15:24:33.07Z</time></trkpt><trkpt lat="45.0843659" lon="7.4486614"><ele>335.20000000000005</ele><time>2026-05-03T15:24:34.085Z</time></trkpt><trkpt lat="45.084463" lon="7.4486512"><ele>334.79999999999995</ele><time>2026-05-03T15:24:35.078Z</time></trkpt><trkpt lat="45.0845636" lon="7.4486446"><ele>334.4</ele><time>2026-05-03T15:24:36.092Z</time></trkpt><trkpt lat="45.0846652" lon="7.4486336"><ele>334.0</ele><time>2026-05-03T15:24:37.069Z</time></trkpt><trkpt lat="45.0847657" lon="7.4486293"><ele>334.0</ele><time>2026-05-03T15:24:38.064Z</time></trkpt><trkpt lat="45.0848645" lon="7.4486317"><ele>334.0</ele><time>2026-05-03T15:24:39.076Z</time></trkpt><trkpt lat="45.0849621" lon="7.4486328"><ele>334.0</ele><time>2026-05-03T15:24:40.088Z</time></trkpt><trkpt lat="45.0850614" lon="7.4486265"><ele>334.0</ele><time>2026-05-03T15:24:41.08Z</time></trkpt><trkpt lat="45.085159" lon="7.4486229"><ele>334.0</ele><time>2026-05-03T15:24:42.068Z</time></trkpt><trkpt lat="45.0852584" lon="7.4486144"><ele>333.4</ele><time>2026-05-03T15:24:43.082Z</time></trkpt><trkpt lat="45.0853542" lon="7.4486048"><ele>332.79999999999995</ele><time>2026-05-03T15:24:44.083Z</time></trkpt><trkpt lat="45.08545" lon="7.4486036"><ele>332.20000000000005</ele><time>2026-05-03T15:24:45.081Z</time></trkpt><trkpt lat="45.0855436" lon="7.4486019"><ele>331.6</ele><time>2026-05-03T15:24:46.076Z</time></trkpt><trkpt lat="45.0856406" lon="7.4486"><ele>331.0</ele><time>2026-05-03T15:24:47.071Z</time></trkpt><trkpt lat="45.085736" lon="7.4485985"><ele>331.20000000000005</ele><time>2026-05-03T15:24:48.077Z</time></trkpt><trkpt lat="45.0858323" lon="7.4485903"><ele>331.40000000000003</ele><time>2026-05-03T15:24:49.092Z</time></trkpt><trkpt lat="45.0859316" lon="7.4485809"><ele>331.6</ele><time>2026-05-03T15:24:50.093Z</time></trkpt><trkpt lat="45.0860281" lon="7.448574"><ele>331.8</ele><time>2026-05-03T15:24:51.087Z</time></trkpt><trkpt lat="45.0861211" lon="7.4485669"><ele>332.0</ele><time>2026-05-03T15:24:52.071Z</time></trkpt><trkpt lat="45.08621" lon="7.4485551"><ele>332.0</ele><time>2026-05-03T15:24:53.104Z</time></trkpt><trkpt lat="45.086305" lon="7.4485442"><ele>332.0</ele><time>2026-05-03T15:24:54.092Z</time></trkpt><trkpt lat="45.0864" lon="7.4485361"><ele>332.0</ele><time>2026-05-03T15:24:55.054Z</time></trkpt><trkpt lat="45.0864896" lon="7.4485334"><ele>332.0</ele><time>2026-05-03T15:24:56.075Z</time></trkpt><trkpt lat="45.0865751" lon="7.4485284"><ele>332.0</ele><time>2026-05-03T15:24:57.075Z</time></trkpt><trkpt lat="45.0866525" lon="7.4485257"><ele>332.0</ele><time>2026-05-03T15:24:58.068Z</time></trkpt><trkpt lat="45.086731" lon="7.4485258"><ele>332.33333333333337</ele><time>2026-05-03T15:24:59.1Z</time></trkpt><trkpt lat="45.0868022" lon="7.4485263"><ele>332.6666666666667</ele><time>2026-05-03T15:25:00.073Z</time></trkpt><trkpt lat="45.0868684" lon="7.4485305"><ele>333.0</ele><time>2026-05-03T15:25:01.072Z</time></trkpt><trkpt lat="45.0869744" lon="7.4485558"><ele>333.3333333333333</ele><time>2026-05-03T15:25:03.094Z</time></trkpt><trkpt lat="45.0870365" lon="7.4486327"><ele>333.66666666666663</ele><time>2026-05-03T15:25:05.092Z</time></trkpt><trkpt lat="45.087065" lon="7.4487549"><ele>334.0</ele><time>2026-05-03T15:25:07.07Z</time></trkpt><trkpt lat="45.0870679" lon="7.4488825"><ele>334.1428571428571</ele><time>2026-05-03T15:25:09.087Z</time></trkpt><trkpt lat="45.0870651" lon="7.4489926"><ele>334.2857142857143</ele><time>2026-05-03T15:25:11.081Z</time></trkpt><trkpt lat="45.0870498" lon="7.4490929"><ele>334.42857142857144</ele><time>2026-05-03T15:25:14.07Z</time></trkpt><trkpt lat="45.0870303" lon="7.4491847"><ele>334.57142857142856</ele><time>2026-05-03T15:25:17.069Z</time></trkpt><trkpt lat="45.0870305" lon="7.4492757"><ele>334.7142857142857</ele><time>2026-05-03T15:25:20.092Z</time></trkpt><trkpt lat="45.0870225" lon="7.4493695"><ele>334.85714285714283</ele><time>2026-05-03T15:25:23.074Z</time></trkpt><trkpt lat="45.0870345" lon="7.4494827"><ele>335.0</ele><time>2026-05-03T15:25:28.08Z</time></trkpt><trkpt lat="45.0870124" lon="7.4495936"><ele>334.4</ele><time>2026-05-03T15:25:30.064Z</time></trkpt><trkpt lat="45.0869933" lon="7.4497461"><ele>333.8</ele><time>2026-05-03T15:25:32.068Z</time></trkpt><trkpt lat="45.0869934" lon="7.4498453"><ele>333.20000000000005</ele><time>2026-05-03T15:25:33.09Z</time></trkpt><trkpt lat="45.0869794" lon="7.4500132"><ele>332.6</ele><time>2026-05-03T15:25:35.077Z</time></trkpt><trkpt lat="45.0869804" lon="7.4501413"><ele>332.0</ele><time>2026-05-03T15:25:37.059Z</time></trkpt><trkpt lat="45.0869918" lon="7.4502488"><ele>332.0</ele><time>2026-05-03T15:25:39.081Z</time></trkpt><trkpt lat="45.0869987" lon="7.4503503"><ele>332.0</ele><time>2026-05-03T15:25:41.064Z</time></trkpt><trkpt lat="45.0870404" lon="7.4504431"><ele>332.0</ele><time>2026-05-03T15:25:44.072Z</time></trkpt><trkpt lat="45.0871167" lon="7.4504736"><ele>332.0</ele><time>2026-05-03T15:25:47.063Z</time></trkpt><trkpt lat="45.0871825" lon="7.450471"><ele>332.0</ele><time>2026-05-03T15:25:50.07Z</time></trkpt><trkpt lat="45.0871682" lon="7.4505608"><ele>332.0</ele><time>2026-05-03T15:30:29.108Z</time></trkpt><trkpt lat="45.0872186" lon="7.4504595"><ele>332.0</ele><time>2026-05-03T15:31:16.099Z</time></trkpt><trkpt lat="45.087223" lon="7.450561"><ele>332.0</ele><time>2026-05-03T15:33:58.108Z</time></trkpt><trkpt lat="45.087234" lon="7.4506524"><ele>332.0</ele><time>2026-05-03T15:34:04.077Z</time></trkpt><trkpt lat="45.0872191" lon="7.4507414"><ele>332.0</ele><time>2026-05-03T15:34:10.083Z</time></trkpt><trkpt lat="45.0872568" lon="7.4508155"><ele>332.0</ele><time>2026-05-03T15:34:17.105Z</time></trkpt><trkpt lat="45.0872285" lon="7.4507206"><ele>332.0</ele><time>2026-05-03T15:34:41.092Z</time></trkpt><trkpt lat="45.0871641" lon="7.4507807"><ele>332.0</ele><time>2026-05-03T15:34:51.114Z</time></trkpt><trkpt lat="45.0870962" lon="7.4508009"><ele>332.0</ele><time>2026-05-03T15:36:17.118Z</time></trkpt><trkpt lat="45.0871696" lon="7.4507709"><ele>332.0</ele><time>2026-05-03T15:36:25.139Z</time></trkpt><trkpt lat="45.0872358" lon="7.4507779"><ele>332.0</ele><time>2026-05-03T15:36:30.121Z</time></trkpt><trkpt lat="45.0871667" lon="7.4507507"><ele>332.0</ele><time>2026-05-03T15:37:39.124Z</time></trkpt><trkpt lat="45.0871234" lon="7.4508237"><ele>332.0</ele><time>2026-05-03T15:38:29.101Z</time></trkpt><trkpt lat="45.0871284" lon="7.4507214"><ele>332.0</ele><time>2026-05-03T15:40:29.079Z</time></trkpt><trkpt lat="45.0870982" lon="7.4508254"><ele>332.0</ele><time>2026-05-03T15:41:41.112Z</time></trkpt><trkpt lat="45.0870476" lon="7.450737"><ele>332.0</ele><time>2026-05-03T15:58:11.122Z</time></trkpt><trkpt lat="45.0870953" lon="7.4508051"><ele>332.0</ele><time>2026-05-03T16:17:13.088Z</time></trkpt><trkpt lat="45.0871468" lon="7.4507517"><ele>332.0</ele><time>2026-05-03T16:17:59.099Z</time></trkpt><trkpt lat="45.0872121" lon="7.4507196"><ele>332.0</ele><time>2026-05-03T16:18:06.098Z</time></trkpt><trkpt lat="45.0872295" lon="7.4506182"><ele>332.0</ele><time>2026-05-03T16:18:20.056Z</time></trkpt><trkpt lat="45.0872311" lon="7.4505259"><ele>332.0</ele><time>2026-05-03T16:18:26.076Z</time></trkpt><trkpt lat="45.0872038" lon="7.450414"><ele>332.0</ele><time>2026-05-03T16:19:00.089Z</time></trkpt><trkpt lat="45.0872383" lon="7.4503253"><ele>332.0</ele><time>2026-05-03T16:19:20.094Z</time></trkpt><trkpt lat="45.08725" lon="7.4502284"><ele>332.0</ele><time>2026-05-03T16:20:04.012Z</time></trkpt><trkpt lat="45.0872477" lon="7.4501337"><ele>332.0</ele><time>2026-05-03T16:20:21.089Z</time></trkpt><trkpt lat="45.0872757" lon="7.4500456"><ele>332.0</ele><time>2026-05-03T16:21:23.095Z</time></trkpt><trkpt lat="45.0872687" lon="7.4499547"><ele>332.0</ele><time>2026-05-03T16:21:29.107Z</time></trkpt><trkpt lat="45.0872635" lon="7.4498599"><ele>332.0</ele><time>2026-05-03T16:21:35.111Z</time></trkpt><trkpt lat="45.0873074" lon="7.4496969"><ele>332.0</ele><time>2026-05-03T16:22:18.09Z</time></trkpt><trkpt lat="45.0873556" lon="7.4496214"><ele>332.1428571428571</ele><time>2026-05-03T16:22:31.085Z</time></trkpt><trkpt lat="45.0874062" lon="7.4495553"><ele>332.28571428571433</ele><time>2026-05-03T16:22:40.1Z</time></trkpt><trkpt lat="45.0874446" lon="7.4496313"><ele>332.42857142857144</ele><time>2026-05-03T16:22:59.092Z</time></trkpt><trkpt lat="45.0874879" lon="7.4496991"><ele>332.57142857142856</ele><time>2026-05-03T16:23:07.098Z</time></trkpt><trkpt lat="45.0875206" lon="7.4497767"><ele>332.71428571428567</ele><time>2026-05-03T16:23:15.101Z</time></trkpt><trkpt lat="45.0875486" lon="7.4498595"><ele>332.8571428571429</ele><time>2026-05-03T16:23:25.03Z</time></trkpt><trkpt lat="45.0875491" lon="7.4499503"><ele>333.0</ele><time>2026-05-03T16:23:32.097Z</time></trkpt><trkpt lat="45.0875637" lon="7.4500453"><ele>333.0</ele><time>2026-05-03T16:23:40.097Z</time></trkpt><trkpt lat="45.0875559" lon="7.4501404"><ele>333.0</ele><time>2026-05-03T16:23:47.095Z</time></trkpt><trkpt lat="45.0875083" lon="7.4502101"><ele>333.0</ele><time>2026-05-03T16:23:56.109Z</time></trkpt><trkpt lat="45.0874287" lon="7.4502479"><ele>333.0</ele><time>2026-05-03T16:29:41.103Z</time></trkpt><trkpt lat="45.0873611" lon="7.4502504"><ele>333.0</ele><time>2026-05-03T16:29:58.017Z</time></trkpt><trkpt lat="45.0872965" lon="7.4502495"><ele>333.0</ele><time>2026-05-03T16:30:05.095Z</time></trkpt><trkpt lat="45.0872322" lon="7.4501777"><ele>333.0</ele><time>2026-05-03T16:31:31.058Z</time></trkpt><trkpt lat="45.0872644" lon="7.4502577"><ele>332.8571428571429</ele><time>2026-05-03T16:32:33.103Z</time></trkpt><trkpt lat="45.0872494" lon="7.4503533"><ele>332.71428571428567</ele><time>2026-05-03T16:32:42.091Z</time></trkpt><trkpt lat="45.0872304" lon="7.4504397"><ele>332.57142857142856</ele><time>2026-05-03T16:32:51.049Z</time></trkpt><trkpt lat="45.0872555" lon="7.4503541"><ele>332.42857142857144</ele><time>2026-05-03T16:41:23.013Z</time></trkpt><trkpt lat="45.0872553" lon="7.4502614"><ele>332.28571428571433</ele><time>2026-05-03T16:41:30.117Z</time></trkpt><trkpt lat="45.0872842" lon="7.450167"><ele>332.1428571428571</ele><time>2026-05-03T16:43:11.105Z</time></trkpt><trkpt lat="45.0872873" lon="7.4500639"><ele>332.0</ele><time>2026-05-03T16:43:18.071Z</time></trkpt><trkpt lat="45.0872922" lon="7.4499611"><ele>332.0</ele><time>2026-05-03T16:43:25.098Z</time></trkpt><trkpt lat="45.0873281" lon="7.4498843"><ele>332.0</ele><time>2026-05-03T16:43:31.991Z</time></trkpt><trkpt lat="45.0873973" lon="7.4498699"><ele>332.0</ele><time>2026-05-03T16:43:57.067Z</time></trkpt><trkpt lat="45.0874395" lon="7.4499361"><ele>332.0</ele><time>2026-05-03T16:44:30.067Z</time></trkpt><trkpt lat="45.0873827" lon="7.4500178"><ele>332.0</ele><time>2026-05-03T16:44:32.074Z</time></trkpt><trkpt lat="45.0873266" lon="7.4500818"><ele>332.0</ele><time>2026-05-03T16:44:38.068Z</time></trkpt><trkpt lat="45.0874701" lon="7.4500784"><ele>332.1428571428571</ele><time>2026-05-03T16:45:07.072Z</time></trkpt><trkpt lat="45.0874897" lon="7.4499816"><ele>332.28571428571433</ele><time>2026-05-03T16:45:10.071Z</time></trkpt><trkpt lat="45.0874969" lon="7.4498891"><ele>332.42857142857144</ele><time>2026-05-03T16:45:14.076Z</time></trkpt><trkpt lat="45.0874961" lon="7.4497933"><ele>332.57142857142856</ele><time>2026-05-03T16:45:21.082Z</time></trkpt><trkpt lat="45.0874761" lon="7.4496992"><ele>332.71428571428567</ele><time>2026-05-03T16:45:27.068Z</time></trkpt><trkpt lat="45.0875275" lon="7.4497566"><ele>332.8571428571429</ele><time>2026-05-03T16:45:43.077Z</time></trkpt><trkpt lat="45.0875335" lon="7.4498575"><ele>333.0</ele><time>2026-05-03T16:45:44.053Z</time></trkpt><trkpt lat="45.0875175" lon="7.4499593"><ele>333.0</ele><time>2026-05-03T16:45:51.071Z</time></trkpt><trkpt lat="45.0874622" lon="7.4500067"><ele>333.0</ele><time>2026-05-03T16:45:53.022Z</time></trkpt><trkpt lat="45.0873932" lon="7.4500381"><ele>333.0</ele><time>2026-05-03T16:45:57.073Z</time></trkpt><trkpt lat="45.0873531" lon="7.4501311"><ele>333.0</ele><time>2026-05-03T16:46:21.054Z</time></trkpt><trkpt lat="45.0873225" lon="7.4502277"><ele>333.0</ele><time>2026-05-03T16:46:26.083Z</time></trkpt><trkpt lat="45.0872729" lon="7.4502841"><ele>333.0</ele><time>2026-05-03T16:46:34.068Z</time></trkpt><trkpt lat="45.087366" lon="7.4502801"><ele>333.0</ele><time>2026-05-03T16:46:45.074Z</time></trkpt><trkpt lat="45.0874355" lon="7.4501927"><ele>333.0</ele><time>2026-05-03T16:47:00.064Z</time></trkpt><trkpt lat="45.0873988" lon="7.4500944"><ele>333.0</ele><time>2026-05-03T16:47:24.061Z</time></trkpt><trkpt lat="45.0873614" lon="7.4499945"><ele>333.0</ele><time>2026-05-03T16:47:28.059Z</time></trkpt><trkpt lat="45.0873226" lon="7.4499111"><ele>333.0</ele><time>2026-05-03T16:47:31.056Z</time></trkpt><trkpt lat="45.0873538" lon="7.449833"><ele>333.0</ele><time>2026-05-03T16:47:34.055Z</time></trkpt><trkpt lat="45.0874588" lon="7.4497907"><ele>333.0</ele><time>2026-05-03T16:48:03.066Z</time></trkpt><trkpt lat="45.0875304" lon="7.4498213"><ele>333.0</ele><time>2026-05-03T16:48:08.07Z</time></trkpt><trkpt lat="45.0875169" lon="7.4499623"><ele>333.0</ele><time>2026-05-03T16:48:24.051Z</time></trkpt><trkpt lat="45.0874475" lon="7.4499212"><ele>333.0</ele><time>2026-05-03T16:48:31.083Z</time></trkpt><trkpt lat="45.0873268" lon="7.4499886"><ele>333.0</ele><time>2026-05-03T16:49:02.05Z</time></trkpt><trkpt lat="45.0872597" lon="7.4500695"><ele>333.0</ele><time>2026-05-03T16:49:03.07Z</time></trkpt><trkpt lat="45.0873084" lon="7.450258"><ele>332.79999999999995</ele><time>2026-05-03T16:49:15.01Z</time></trkpt><trkpt lat="45.0872633" lon="7.4503289"><ele>332.6</ele><time>2026-05-03T16:49:19.028Z</time></trkpt><trkpt lat="45.0872186" lon="7.4503937"><ele>332.4</ele><time>2026-05-03T16:50:24.098Z</time></trkpt><trkpt lat="45.0871869" lon="7.4504886"><ele>332.20000000000005</ele><time>2026-05-03T16:52:26.091Z</time></trkpt><trkpt lat="45.0870254" lon="7.4504324"><ele>332.0</ele><time>2026-05-03T16:53:09.102Z</time></trkpt><trkpt lat="45.0869612" lon="7.4503368"><ele>332.0</ele><time>2026-05-03T16:53:11.08Z</time></trkpt><trkpt lat="45.0869543" lon="7.4502451"><ele>332.0</ele><time>2026-05-03T16:53:13.097Z</time></trkpt><trkpt lat="45.0869395" lon="7.4501226"><ele>332.0</ele><time>2026-05-03T16:53:16.09Z</time></trkpt><trkpt lat="45.0869421" lon="7.450016"><ele>332.0</ele><time>2026-05-03T16:53:19.085Z</time></trkpt><trkpt lat="45.0869233" lon="7.4498966"><ele>332.0</ele><time>2026-05-03T16:53:23.084Z</time></trkpt><trkpt lat="45.0869449" lon="7.4498002"><ele>332.0</ele><time>2026-05-03T16:53:26.104Z</time></trkpt><trkpt lat="45.0869708" lon="7.4496799"><ele>332.6</ele><time>2026-05-03T16:53:29.09Z</time></trkpt><trkpt lat="45.0869766" lon="7.4495726"><ele>333.20000000000005</ele><time>2026-05-03T16:53:32.076Z</time></trkpt><trkpt lat="45.086997" lon="7.4494553"><ele>333.8</ele><time>2026-05-03T16:53:35.1Z</time></trkpt><trkpt lat="45.0869991" lon="7.4493271"><ele>334.4</ele><time>2026-05-03T16:53:38.092Z</time></trkpt><trkpt lat="45.0870018" lon="7.4491905"><ele>335.0</ele><time>2026-05-03T16:53:41.095Z</time></trkpt><trkpt lat="45.0870218" lon="7.4490371"><ele>335.0</ele><time>2026-05-03T16:53:43.08Z</time></trkpt><trkpt lat="45.0870369" lon="7.4488908"><ele>335.0</ele><time>2026-05-03T16:53:45.099Z</time></trkpt><trkpt lat="45.0870567" lon="7.448761"><ele>335.0</ele><time>2026-05-03T16:53:47.098Z</time></trkpt><trkpt lat="45.0870584" lon="7.4486099"><ele>335.0</ele><time>2026-05-03T16:53:49.093Z</time></trkpt><trkpt lat="45.0870031" lon="7.4485115"><ele>335.0</ele><time>2026-05-03T16:53:51.092Z</time></trkpt><trkpt lat="45.0868507" lon="7.4485058"><ele>334.75</ele><time>2026-05-03T16:53:53.059Z</time></trkpt><trkpt lat="45.0867578" lon="7.4485158"><ele>334.5</ele><time>2026-05-03T16:53:54.096Z</time></trkpt><trkpt lat="45.0866538" lon="7.4485306"><ele>334.25</ele><time>2026-05-03T16:53:55.095Z</time></trkpt><trkpt lat="45.0865227" lon="7.448537"><ele>334.0</ele><time>2026-05-03T16:53:56.1Z</time></trkpt><trkpt lat="45.0863596" lon="7.4485358"><ele>333.5</ele><time>2026-05-03T16:53:57.087Z</time></trkpt><trkpt lat="45.0861997" lon="7.4485529"><ele>333.0</ele><time>2026-05-03T16:53:58.09Z</time></trkpt><trkpt lat="45.0860516" lon="7.4485743"><ele>332.5</ele><time>2026-05-03T16:53:59.114Z</time></trkpt><trkpt lat="45.0859175" lon="7.4485906"><ele>332.0</ele><time>2026-05-03T16:54:00.09Z</time></trkpt><trkpt lat="45.0858058" lon="7.4486011"><ele>331.8</ele><time>2026-05-03T16:54:01.085Z</time></trkpt><trkpt lat="45.0857078" lon="7.4486139"><ele>331.6</ele><time>2026-05-03T16:54:02.076Z</time></trkpt><trkpt lat="45.0856085" lon="7.4486265"><ele>331.40000000000003</ele><time>2026-05-03T16:54:03.088Z</time></trkpt><trkpt lat="45.0855007" lon="7.448629"><ele>331.20000000000005</ele><time>2026-05-03T16:54:04.082Z</time></trkpt><trkpt lat="45.0853902" lon="7.448641"><ele>331.0</ele><time>2026-05-03T16:54:05.083Z</time></trkpt><trkpt lat="45.0852615" lon="7.4486456"><ele>331.0</ele><time>2026-05-03T16:54:06.087Z</time></trkpt><trkpt lat="45.085143" lon="7.4486478"><ele>331.0</ele><time>2026-05-03T16:54:07.1Z</time></trkpt><trkpt lat="45.0850268" lon="7.4486531"><ele>331.0</ele><time>2026-05-03T16:54:08.085Z</time></trkpt><trkpt lat="45.0849199" lon="7.4486601"><ele>331.0</ele><time>2026-05-03T16:54:09.09Z</time></trkpt><trkpt lat="45.0848076" lon="7.4486632"><ele>331.6</ele><time>2026-05-03T16:54:10.097Z</time></trkpt><trkpt lat="45.0847008" lon="7.4486665"><ele>332.20000000000005</ele><time>2026-05-03T16:54:11.089Z</time></trkpt><trkpt lat="45.084598" lon="7.4486638"><ele>332.79999999999995</ele><time>2026-05-03T16:54:12.05Z</time></trkpt><trkpt lat="45.0845006" lon="7.4486534"><ele>333.4</ele><time>2026-05-03T16:54:13.101Z</time></trkpt><trkpt lat="45.0844089" lon="7.4486299"><ele>334.0</ele><time>2026-05-03T16:54:14.109Z</time></trkpt><trkpt lat="45.0843221" lon="7.4486192"><ele>334.0</ele><time>2026-05-03T16:54:15.087Z</time></trkpt><trkpt lat="45.0842432" lon="7.4486022"><ele>334.0</ele><time>2026-05-03T16:54:16.092Z</time></trkpt><trkpt lat="45.0841616" lon="7.4485877"><ele>334.0</ele><time>2026-05-03T16:54:17.093Z</time></trkpt><trkpt lat="45.0840442" lon="7.4484862"><ele>334.0</ele><time>2026-05-03T16:54:19.083Z</time></trkpt><trkpt lat="45.0839995" lon="7.4483544"><ele>334.0</ele><time>2026-05-03T16:54:20.035Z</time></trkpt><trkpt lat="45.0839645" lon="7.4481635"><ele>334.0</ele><time>2026-05-03T16:54:21.073Z</time></trkpt><trkpt lat="45.0839334" lon="7.4479551"><ele>334.0</ele><time>2026-05-03T16:54:22.09Z</time></trkpt><trkpt lat="45.0839141" lon="7.4477463"><ele>334.0</ele><time>2026-05-03T16:54:23.097Z</time></trkpt><trkpt lat="45.0838948" lon="7.4475096"><ele>334.0</ele><time>2026-05-03T16:54:24.084Z</time></trkpt><trkpt lat="45.0838827" lon="7.4472449"><ele>334.0</ele><time>2026-05-03T16:54:25.092Z</time></trkpt><trkpt lat="45.0838645" lon="7.4469715"><ele>334.0</ele><time>2026-05-03T16:54:26.113Z</time></trkpt><trkpt lat="45.0838422" lon="7.4466829"><ele>334.0</ele><time>2026-05-03T16:54:27.083Z</time></trkpt><trkpt lat="45.0838147" lon="7.4463796"><ele>334.0</ele><time>2026-05-03T16:54:28.104Z</time></trkpt><trkpt lat="45.0837799" lon="7.4460599"><ele>334.0</ele><time>2026-05-03T16:54:29.099Z</time></trkpt><trkpt lat="45.0837589" lon="7.445733"><ele>333.5</ele><time>2026-05-03T16:54:30.107Z</time></trkpt><trkpt lat="45.0837463" lon="7.4453945"><ele>333.0</ele><time>2026-05-03T16:54:31.048Z</time></trkpt><trkpt lat="45.0837377" lon="7.445057"><ele>333.0</ele><time>2026-05-03T16:54:32.087Z</time></trkpt><trkpt lat="45.0837282" lon="7.4447118"><ele>333.0</ele><time>2026-05-03T16:54:33.084Z</time></trkpt><trkpt lat="45.083729" lon="7.4443688"><ele>332.5</ele><time>2026-05-03T16:54:34.078Z</time></trkpt><trkpt lat="45.0837212" lon="7.4440239"><ele>332.0</ele><time>2026-05-03T16:54:35.079Z</time></trkpt><trkpt lat="45.0837164" lon="7.4436628"><ele>333.0</ele><time>2026-05-03T16:54:36.043Z</time></trkpt><trkpt lat="45.0837105" lon="7.4433095"><ele>334.0</ele><time>2026-05-03T16:54:37.085Z</time></trkpt><trkpt lat="45.0837109" lon="7.4429646"><ele>334.5</ele><time>2026-05-03T16:54:38.105Z</time></trkpt><trkpt lat="45.0837068" lon="7.4426216"><ele>335.0</ele><time>2026-05-03T16:54:39.045Z</time></trkpt><trkpt lat="45.0836969" lon="7.4422789"><ele>335.5</ele><time>2026-05-03T16:54:40.088Z</time></trkpt><trkpt lat="45.083681" lon="7.4419395"><ele>336.0</ele><time>2026-05-03T16:54:41.096Z</time></trkpt><trkpt lat="45.0836656" lon="7.4415976"><ele>335.5</ele><time>2026-05-03T16:54:42.082Z</time></trkpt><trkpt lat="45.0836505" lon="7.4412552"><ele>335.0</ele><time>2026-05-03T16:54:43.1Z</time></trkpt><trkpt lat="45.0836343" lon="7.4409043"><ele>335.0</ele><time>2026-05-03T16:54:44.092Z</time></trkpt><trkpt lat="45.0836342" lon="7.4405548"><ele>335.0</ele><time>2026-05-03T16:54:45.112Z</time></trkpt><trkpt lat="45.0836208" lon="7.4402022"><ele>335.5</ele><time>2026-05-03T16:54:46.1Z</time></trkpt><trkpt lat="45.0836102" lon="7.4398426"><ele>336.0</ele><time>2026-05-03T16:54:47.094Z</time></trkpt><trkpt lat="45.0836078" lon="7.4394765"><ele>336.0</ele><time>2026-05-03T16:54:48.092Z</time></trkpt><trkpt lat="45.0835925" lon="7.4391272"><ele>336.0</ele><time>2026-05-03T16:54:49.086Z</time></trkpt><trkpt lat="45.0835874" lon="7.4387945"><ele>336.0</ele><time>2026-05-03T16:54:50.093Z</time></trkpt><trkpt lat="45.0835794" lon="7.4384724"><ele>336.0</ele><time>2026-05-03T16:54:51.079Z</time></trkpt><trkpt lat="45.0835696" lon="7.4381623"><ele>336.0</ele><time>2026-05-03T16:54:52.088Z</time></trkpt><trkpt lat="45.0835674" lon="7.4378539"><ele>336.0</ele><time>2026-05-03T16:54:53.082Z</time></trkpt><trkpt lat="45.0835677" lon="7.4375553"><ele>336.0</ele><time>2026-05-03T16:54:54.091Z</time></trkpt><trkpt lat="45.0835698" lon="7.4372626"><ele>336.0</ele><time>2026-05-03T16:54:55.105Z</time></trkpt><trkpt lat="45.0835616" lon="7.436979"><ele>336.0</ele><time>2026-05-03T16:54:56.085Z</time></trkpt><trkpt lat="45.0835527" lon="7.4367186"><ele>336.0</ele><time>2026-05-03T16:54:57.098Z</time></trkpt><trkpt lat="45.0835447" lon="7.4364723"><ele>336.0</ele><time>2026-05-03T16:54:58.102Z</time></trkpt><trkpt lat="45.0835373" lon="7.4362382"><ele>336.0</ele><time>2026-05-03T16:54:59.1Z</time></trkpt><trkpt lat="45.0835182" lon="7.436022"><ele>336.0</ele><time>2026-05-03T16:55:00.09Z</time></trkpt><trkpt lat="45.0835133" lon="7.4358029"><ele>336.0</ele><time>2026-05-03T16:55:01.092Z</time></trkpt><trkpt lat="45.0835047" lon="7.4355811"><ele>337.3333333333333</ele><time>2026-05-03T16:55:02.101Z</time></trkpt><trkpt lat="45.0834915" lon="7.4353644"><ele>338.66666666666663</ele><time>2026-05-03T16:55:03.083Z</time></trkpt><trkpt lat="45.0834772" lon="7.4351489"><ele>340.0</ele><time>2026-05-03T16:55:04.053Z</time></trkpt><trkpt lat="45.0834715" lon="7.4349325"><ele>340.0</ele><time>2026-05-03T16:55:05.09Z</time></trkpt><trkpt lat="45.0834751" lon="7.4347107"><ele>340.0</ele><time>2026-05-03T16:55:06.075Z</time></trkpt><trkpt lat="45.0834789" lon="7.4344843"><ele>340.0</ele><time>2026-05-03T16:55:07.099Z</time></trkpt><trkpt lat="45.0834693" lon="7.4342435"><ele>339.66666666666663</ele><time>2026-05-03T16:55:08.107Z</time></trkpt><trkpt lat="45.0834584" lon="7.4340151"><ele>339.3333333333333</ele><time>2026-05-03T16:55:09.097Z</time></trkpt><trkpt lat="45.0834445" lon="7.4337866"><ele>339.0</ele><time>2026-05-03T16:55:10.089Z</time></trkpt><trkpt lat="45.0834354" lon="7.433568"><ele>339.0</ele><time>2026-05-03T16:55:11.101Z</time></trkpt><trkpt lat="45.0834275" lon="7.4333627"><ele>339.0</ele><time>2026-05-03T16:55:12.093Z</time></trkpt><trkpt lat="45.0834264" lon="7.4331738"><ele>339.0</ele><time>2026-05-03T16:55:13.104Z</time></trkpt><trkpt lat="45.0834268" lon="7.4329851"><ele>339.0</ele><time>2026-05-03T16:55:14.109Z</time></trkpt><trkpt lat="45.0834244" lon="7.432808"><ele>339.0</ele><time>2026-05-03T16:55:15.099Z</time></trkpt><trkpt lat="45.0834333" lon="7.4326168"><ele>339.0</ele><time>2026-05-03T16:55:16.094Z</time></trkpt><trkpt lat="45.0834338" lon="7.4324188"><ele>339.0</ele><time>2026-05-03T16:55:17.105Z</time></trkpt><trkpt lat="45.083442" lon="7.4322177"><ele>339.0</ele><time>2026-05-03T16:55:18.091Z</time></trkpt><trkpt lat="45.0834363" lon="7.4320078"><ele>339.0</ele><time>2026-05-03T16:55:19.1Z</time></trkpt><trkpt lat="45.0834307" lon="7.4318066"><ele>339.0</ele><time>2026-05-03T16:55:20.094Z</time></trkpt><trkpt lat="45.0834214" lon="7.4316129"><ele>339.0</ele><time>2026-05-03T16:55:21.096Z</time></trkpt><trkpt lat="45.0834024" lon="7.431429"><ele>339.0</ele><time>2026-05-03T16:55:22.087Z</time></trkpt><trkpt lat="45.0833901" lon="7.4312496"><ele>339.0</ele><time>2026-05-03T16:55:23.096Z</time></trkpt><trkpt lat="45.0833774" lon="7.4310711"><ele>339.0</ele><time>2026-05-03T16:55:24.085Z</time></trkpt><trkpt lat="45.0833627" lon="7.4308863"><ele>339.0</ele><time>2026-05-03T16:55:25.095Z</time></trkpt><trkpt lat="45.0833521" lon="7.4307057"><ele>339.0</ele><time>2026-05-03T16:55:26.091Z</time></trkpt><trkpt lat="45.0833461" lon="7.4305065"><ele>339.0</ele><time>2026-05-03T16:55:27.093Z</time></trkpt><trkpt lat="45.0833443" lon="7.4302965"><ele>339.0</ele><time>2026-05-03T16:55:28.099Z</time></trkpt><trkpt lat="45.0833465" lon="7.4300912"><ele>339.0</ele><time>2026-05-03T16:55:29.086Z</time></trkpt><trkpt lat="45.0833406" lon="7.4298924"><ele>339.0</ele><time>2026-05-03T16:55:30.099Z</time></trkpt><trkpt lat="45.0833359" lon="7.429705"><ele>339.0</ele><time>2026-05-03T16:55:31.074Z</time></trkpt><trkpt lat="45.0833325" lon="7.4295279"><ele>339.0</ele><time>2026-05-03T16:55:32.093Z</time></trkpt><trkpt lat="45.083325" lon="7.4293487"><ele>339.0</ele><time>2026-05-03T16:55:33.09Z</time></trkpt><trkpt lat="45.0833192" lon="7.4291721"><ele>339.0</ele><time>2026-05-03T16:55:34.08Z</time></trkpt><trkpt lat="45.0833141" lon="7.42899"><ele>339.0</ele><time>2026-05-03T16:55:35.086Z</time></trkpt><trkpt lat="45.0832989" lon="7.4288078"><ele>339.0</ele><time>2026-05-03T16:55:36.107Z</time></trkpt><trkpt lat="45.0833011" lon="7.4286257"><ele>339.0</ele><time>2026-05-03T16:55:37.073Z</time></trkpt><trkpt lat="45.0832989" lon="7.428437"><ele>339.0</ele><time>2026-05-03T16:55:38.09Z</time></trkpt><trkpt lat="45.0832945" lon="7.4282578"><ele>339.0</ele><time>2026-05-03T16:55:39.113Z</time></trkpt><trkpt lat="45.0832894" lon="7.4280791"><ele>339.0</ele><time>2026-05-03T16:55:40.097Z</time></trkpt><trkpt lat="45.0832963" lon="7.4278982"><ele>339.0</ele><time>2026-05-03T16:55:41.091Z</time></trkpt><trkpt lat="45.0832978" lon="7.4277239"><ele>339.0</ele><time>2026-05-03T16:55:42.102Z</time></trkpt><trkpt lat="45.0833027" lon="7.4275444"><ele>339.25</ele><time>2026-05-03T16:55:43.099Z</time></trkpt><trkpt lat="45.0832996" lon="7.4273689"><ele>339.5</ele><time>2026-05-03T16:55:44.101Z</time></trkpt><trkpt lat="45.0832933" lon="7.4271796"><ele>339.75</ele><time>2026-05-03T16:55:45.123Z</time></trkpt><trkpt lat="45.0832888" lon="7.4269814"><ele>340.0</ele><time>2026-05-03T16:55:46.107Z</time></trkpt><trkpt lat="45.0832905" lon="7.4268"><ele>340.25</ele><time>2026-05-03T16:55:47.032Z</time></trkpt><trkpt lat="45.0832841" lon="7.4266107"><ele>340.5</ele><time>2026-05-03T16:55:48.086Z</time></trkpt><trkpt lat="45.0832926" lon="7.4264122"><ele>340.75</ele><time>2026-05-03T16:55:49.085Z</time></trkpt><trkpt lat="45.0832891" lon="7.4262069"><ele>341.0</ele><time>2026-05-03T16:55:50.101Z</time></trkpt><trkpt lat="45.0832875" lon="7.4260008"><ele>341.25</ele><time>2026-05-03T16:55:51.057Z</time></trkpt><trkpt lat="45.0832913" lon="7.4257846"><ele>341.5</ele><time>2026-05-03T16:55:52.09Z</time></trkpt><trkpt lat="45.0832916" lon="7.4255709"><ele>341.75</ele><time>2026-05-03T16:55:53.083Z</time></trkpt><trkpt lat="45.0832784" lon="7.4253704"><ele>342.0</ele><time>2026-05-03T16:55:54.101Z</time></trkpt><trkpt lat="45.08328" lon="7.4251639"><ele>341.3333333333333</ele><time>2026-05-03T16:55:55.098Z</time></trkpt><trkpt lat="45.0832762" lon="7.4249462"><ele>340.66666666666663</ele><time>2026-05-03T16:55:56.104Z</time></trkpt><trkpt lat="45.0832819" lon="7.4247196"><ele>340.0</ele><time>2026-05-03T16:55:57.081Z</time></trkpt><trkpt lat="45.083275" lon="7.4245046"><ele>340.0</ele><time>2026-05-03T16:55:58.1Z</time></trkpt><trkpt lat="45.0832676" lon="7.4242913"><ele>340.0</ele><time>2026-05-03T16:55:59.092Z</time></trkpt><trkpt lat="45.0832513" lon="7.4240856"><ele>340.0</ele><time>2026-05-03T16:56:00.065Z</time></trkpt><trkpt lat="45.0832373" lon="7.4238723"><ele>340.0</ele><time>2026-05-03T16:56:01.094Z</time></trkpt><trkpt lat="45.083238" lon="7.4236469"><ele>341.0</ele><time>2026-05-03T16:56:02.093Z</time></trkpt><trkpt lat="45.0832132" lon="7.4234228"><ele>342.0</ele><time>2026-05-03T16:56:03.108Z</time></trkpt><trkpt lat="45.0832002" lon="7.4231989"><ele>343.0</ele><time>2026-05-03T16:56:04.085Z</time></trkpt><trkpt lat="45.0831652" lon="7.4229873"><ele>341.66666666666663</ele><time>2026-05-03T16:56:05.084Z</time></trkpt><trkpt lat="45.0831631" lon="7.422773"><ele>340.3333333333333</ele><time>2026-05-03T16:56:06.103Z</time></trkpt><trkpt lat="45.0831582" lon="7.4225673"><ele>339.0</ele><time>2026-05-03T16:56:07.098Z</time></trkpt><trkpt lat="45.0831554" lon="7.4223452"><ele>338.6666666666667</ele><time>2026-05-03T16:56:08.107Z</time></trkpt><trkpt lat="45.0831413" lon="7.4221129"><ele>338.33333333333337</ele><time>2026-05-03T16:56:09.091Z</time></trkpt><trkpt lat="45.0831305" lon="7.4218863"><ele>338.0</ele><time>2026-05-03T16:56:10.087Z</time></trkpt><trkpt lat="45.0831211" lon="7.4216492"><ele>338.0</ele><time>2026-05-03T16:56:11.075Z</time></trkpt><trkpt lat="45.0831128" lon="7.4214257"><ele>338.0</ele><time>2026-05-03T16:56:12.079Z</time></trkpt><trkpt lat="45.0831108" lon="7.4212107"><ele>338.0</ele><time>2026-05-03T16:56:13.095Z</time></trkpt><trkpt lat="45.0831196" lon="7.4209963"><ele>338.0</ele><time>2026-05-03T16:56:14.098Z</time></trkpt><trkpt lat="45.0831228" lon="7.4207844"><ele>338.0</ele><time>2026-05-03T16:56:15.096Z</time></trkpt><trkpt lat="45.0831235" lon="7.4205944"><ele>338.0</ele><time>2026-05-03T16:56:16.096Z</time></trkpt><trkpt lat="45.0831337" lon="7.4204136"><ele>338.0</ele><time>2026-05-03T16:56:17.063Z</time></trkpt><trkpt lat="45.0831346" lon="7.4202501"><ele>337.83333333333337</ele><time>2026-05-03T16:56:18.087Z</time></trkpt><trkpt lat="45.0831289" lon="7.4200994"><ele>337.6666666666667</ele><time>2026-05-03T16:56:19.078Z</time></trkpt><trkpt lat="45.0831342" lon="7.4199784"><ele>337.5</ele><time>2026-05-03T16:56:20.092Z</time></trkpt><trkpt lat="45.0831489" lon="7.4198639"><ele>337.3333333333333</ele><time>2026-05-03T16:56:22.112Z</time></trkpt><trkpt lat="45.0831871" lon="7.4197925"><ele>337.16666666666663</ele><time>2026-05-03T16:56:25.094Z</time></trkpt><trkpt lat="45.0832644" lon="7.4196894"><ele>337.0</ele><time>2026-05-03T16:56:28.099Z</time></trkpt><trkpt lat="45.0833489" lon="7.419571"><ele>337.3333333333333</ele><time>2026-05-03T16:56:30.117Z</time></trkpt><trkpt lat="45.0833681" lon="7.4194647"><ele>337.66666666666663</ele><time>2026-05-03T16:56:31.052Z</time></trkpt><trkpt lat="45.0833655" lon="7.4193622"><ele>338.0</ele><time>2026-05-03T16:56:32.061Z</time></trkpt><trkpt lat="45.083346" lon="7.4192605"><ele>338.3333333333333</ele><time>2026-05-03T16:56:33.092Z</time></trkpt><trkpt lat="45.0832941" lon="7.4191506"><ele>338.6666666666667</ele><time>2026-05-03T16:56:34.09Z</time></trkpt><trkpt lat="45.0832311" lon="7.4190667"><ele>339.0</ele><time>2026-05-03T16:56:35.08Z</time></trkpt><trkpt lat="45.0831548" lon="7.4189747"><ele>339.4</ele><time>2026-05-03T16:56:36.096Z</time></trkpt><trkpt lat="45.0830938" lon="7.4188673"><ele>339.79999999999995</ele><time>2026-05-03T16:56:37.122Z</time></trkpt><trkpt lat="45.0830496" lon="7.4187497"><ele>340.20000000000005</ele><time>2026-05-03T16:56:38.096Z</time></trkpt><trkpt lat="45.0830035" lon="7.4186049"><ele>340.6</ele><time>2026-05-03T16:56:39.1Z</time></trkpt><trkpt lat="45.0829775" lon="7.4184301"><ele>341.0</ele><time>2026-05-03T16:56:40.084Z</time></trkpt><trkpt lat="45.082966" lon="7.4182405"><ele>341.0</ele><time>2026-05-03T16:56:41.1Z</time></trkpt><trkpt lat="45.0829572" lon="7.4180475"><ele>341.0</ele><time>2026-05-03T16:56:42.12Z</time></trkpt><trkpt lat="45.0829496" lon="7.4178401"><ele>341.0</ele><time>2026-05-03T16:56:43.091Z</time></trkpt><trkpt lat="45.0829587" lon="7.4176098"><ele>341.0</ele><time>2026-05-03T16:56:44.09Z</time></trkpt><trkpt lat="45.0829919" lon="7.4173834"><ele>341.0</ele><time>2026-05-03T16:56:45.062Z</time></trkpt><trkpt lat="45.0830426" lon="7.4171775"><ele>341.0</ele><time>2026-05-03T16:56:46.085Z</time></trkpt><trkpt lat="45.0831054" lon="7.4169693"><ele>341.0</ele><time>2026-05-03T16:56:47.073Z</time></trkpt><trkpt lat="45.0831539" lon="7.4167661"><ele>340.6666666666667</ele><time>2026-05-03T16:56:48.102Z</time></trkpt><trkpt lat="45.0832146" lon="7.4165699"><ele>340.3333333333333</ele><time>2026-05-03T16:56:49.112Z</time></trkpt><trkpt lat="45.0832897" lon="7.4163749"><ele>340.0</ele><time>2026-05-03T16:56:50.099Z</time></trkpt><trkpt lat="45.0834168" lon="7.4161922"><ele>340.0</ele><time>2026-05-03T16:56:51.091Z</time></trkpt><trkpt lat="45.083506" lon="7.4159663"><ele>340.0</ele><time>2026-05-03T16:56:52.095Z</time></trkpt><trkpt lat="45.083587" lon="7.4157433"><ele>340.0</ele><time>2026-05-03T16:56:53.097Z</time></trkpt><trkpt lat="45.083665" lon="7.4155187"><ele>340.0</ele><time>2026-05-03T16:56:54.11Z</time></trkpt><trkpt lat="45.0837428" lon="7.415293"><ele>340.0</ele><time>2026-05-03T16:56:55.105Z</time></trkpt><trkpt lat="45.0838353" lon="7.4150593"><ele>340.0</ele><time>2026-05-03T16:56:56.114Z</time></trkpt><trkpt lat="45.0839231" lon="7.41483"><ele>340.66666666666663</ele><time>2026-05-03T16:56:57.089Z</time></trkpt><trkpt lat="45.084014" lon="7.4145977"><ele>341.3333333333333</ele><time>2026-05-03T16:56:58.097Z</time></trkpt><trkpt lat="45.0841024" lon="7.4143836"><ele>342.0</ele><time>2026-05-03T16:56:59.053Z</time></trkpt><trkpt lat="45.0841884" lon="7.4141912"><ele>342.0</ele><time>2026-05-03T16:57:00.062Z</time></trkpt><trkpt lat="45.0842639" lon="7.4140151"><ele>342.0</ele><time>2026-05-03T16:57:01.089Z</time></trkpt><trkpt lat="45.0843288" lon="7.4138381"><ele>342.0</ele><time>2026-05-03T16:57:02.072Z</time></trkpt><trkpt lat="45.0843765" lon="7.4136872"><ele>342.0</ele><time>2026-05-03T16:57:03.098Z</time></trkpt><trkpt lat="45.084433" lon="7.4135519"><ele>341.8333333333333</ele><time>2026-05-03T16:57:04.075Z</time></trkpt><trkpt lat="45.0844734" lon="7.4134238"><ele>341.6666666666667</ele><time>2026-05-03T16:57:05.089Z</time></trkpt><trkpt lat="45.0845152" lon="7.4133205"><ele>341.5</ele><time>2026-05-03T16:57:06.09Z</time></trkpt><trkpt lat="45.0845673" lon="7.4132367"><ele>341.33333333333337</ele><time>2026-05-03T16:57:07.043Z</time></trkpt><trkpt lat="45.0846123" lon="7.4131599"><ele>341.1666666666667</ele><time>2026-05-03T16:57:08.093Z</time></trkpt><trkpt lat="45.0846551" lon="7.4130855"><ele>341.0</ele><time>2026-05-03T16:57:09.091Z</time></trkpt><trkpt lat="45.0847172" lon="7.4130147"><ele>340.75</ele><time>2026-05-03T16:57:10.088Z</time></trkpt><trkpt lat="45.084813" lon="7.4129651"><ele>340.5</ele><time>2026-05-03T16:57:11.088Z</time></trkpt><trkpt lat="45.0849343" lon="7.4129282"><ele>340.25</ele><time>2026-05-03T16:57:12.095Z</time></trkpt><trkpt lat="45.0850548" lon="7.4128838"><ele>340.0</ele><time>2026-05-03T16:57:13.093Z</time></trkpt><trkpt lat="45.0851707" lon="7.4128005"><ele>340.0</ele><time>2026-05-03T16:57:14.081Z</time></trkpt><trkpt lat="45.0852794" lon="7.4126668"><ele>340.0</ele><time>2026-05-03T16:57:15.067Z</time></trkpt><trkpt lat="45.0853886" lon="7.4125652"><ele>340.0</ele><time>2026-05-03T16:57:16.109Z</time></trkpt><trkpt lat="45.085514" lon="7.4125144"><ele>340.0</ele><time>2026-05-03T16:57:17.098Z</time></trkpt><trkpt lat="45.0856584" lon="7.4125243"><ele>340.0</ele><time>2026-05-03T16:57:18.082Z</time></trkpt><trkpt lat="45.0858071" lon="7.4125574"><ele>340.0</ele><time>2026-05-03T16:57:19.072Z</time></trkpt><trkpt lat="45.0859791" lon="7.4126134"><ele>340.0</ele><time>2026-05-03T16:57:20.083Z</time></trkpt><trkpt lat="45.0861409" lon="7.4126482"><ele>340.0</ele><time>2026-05-03T16:57:21.083Z</time></trkpt><trkpt lat="45.086311" lon="7.4127105"><ele>340.0</ele><time>2026-05-03T16:57:22.083Z</time></trkpt><trkpt lat="45.086483" lon="7.4127662"><ele>340.0</ele><time>2026-05-03T16:57:23.058Z</time></trkpt><trkpt lat="45.0866518" lon="7.4128468"><ele>340.0</ele><time>2026-05-03T16:57:24.077Z</time></trkpt><trkpt lat="45.0868281" lon="7.4129464"><ele>340.0</ele><time>2026-05-03T16:57:25.091Z</time></trkpt><trkpt lat="45.0870018" lon="7.4130612"><ele>340.0</ele><time>2026-05-03T16:57:26.077Z</time></trkpt><trkpt lat="45.0871741" lon="7.4131847"><ele>340.0</ele><time>2026-05-03T16:57:27.05Z</time></trkpt><trkpt lat="45.0873393" lon="7.4133199"><ele>340.0</ele><time>2026-05-03T16:57:28.101Z</time></trkpt><trkpt lat="45.0874958" lon="7.4134759"><ele>340.0</ele><time>2026-05-03T16:57:29.076Z</time></trkpt><trkpt lat="45.0876486" lon="7.4136442"><ele>339.3333333333333</ele><time>2026-05-03T16:57:30.072Z</time></trkpt><trkpt lat="45.0878039" lon="7.4138204"><ele>338.6666666666667</ele><time>2026-05-03T16:57:31.062Z</time></trkpt><trkpt lat="45.0879636" lon="7.4140028"><ele>338.0</ele><time>2026-05-03T16:57:32.069Z</time></trkpt><trkpt lat="45.0881234" lon="7.4141921"><ele>337.6666666666667</ele><time>2026-05-03T16:57:33.091Z</time></trkpt><trkpt lat="45.0882899" lon="7.414385"><ele>337.3333333333333</ele><time>2026-05-03T16:57:34.078Z</time></trkpt><trkpt lat="45.088458" lon="7.414573"><ele>337.0</ele><time>2026-05-03T16:57:35.093Z</time></trkpt><trkpt lat="45.0886218" lon="7.4147581"><ele>337.0</ele><time>2026-05-03T16:57:36.081Z</time></trkpt><trkpt lat="45.0887942" lon="7.4149549"><ele>337.0</ele><time>2026-05-03T16:57:37.088Z</time></trkpt><trkpt lat="45.0889709" lon="7.4151568"><ele>337.0</ele><time>2026-05-03T16:57:38.1Z</time></trkpt><trkpt lat="45.0891472" lon="7.4153621"><ele>336.5</ele><time>2026-05-03T16:57:39.092Z</time></trkpt><trkpt lat="45.0893225" lon="7.4155766"><ele>336.0</ele><time>2026-05-03T16:57:40.109Z</time></trkpt><trkpt lat="45.0894896" lon="7.4157756"><ele>336.0</ele><time>2026-05-03T16:57:41.092Z</time></trkpt><trkpt lat="45.0896582" lon="7.415974"><ele>336.0</ele><time>2026-05-03T16:57:42.091Z</time></trkpt><trkpt lat="45.0898271" lon="7.4161678"><ele>336.0</ele><time>2026-05-03T16:57:43.098Z</time></trkpt><trkpt lat="45.0899955" lon="7.4163594"><ele>335.6666666666667</ele><time>2026-05-03T16:57:44.08Z</time></trkpt><trkpt lat="45.0901648" lon="7.4165445"><ele>335.33333333333337</ele><time>2026-05-03T16:57:45.094Z</time></trkpt><trkpt lat="45.0903242" lon="7.4167302"><ele>335.0</ele><time>2026-05-03T16:57:46.103Z</time></trkpt><trkpt lat="45.0904849" lon="7.416915"><ele>335.0</ele><time>2026-05-03T16:57:47.09Z</time></trkpt><trkpt lat="45.0906449" lon="7.4171001"><ele>335.0</ele><time>2026-05-03T16:57:48.081Z</time></trkpt><trkpt lat="45.0908139" lon="7.4172899"><ele>335.0</ele><time>2026-05-03T16:57:49.088Z</time></trkpt><trkpt lat="45.0909815" lon="7.4174824"><ele>335.33333333333337</ele><time>2026-05-03T16:57:50.111Z</time></trkpt><trkpt lat="45.0911503" lon="7.4176813"><ele>335.6666666666667</ele><time>2026-05-03T16:57:51.101Z</time></trkpt><trkpt lat="45.0913158" lon="7.4178732"><ele>336.0</ele><time>2026-05-03T16:57:52.091Z</time></trkpt><trkpt lat="45.0914852" lon="7.4180673"><ele>337.3333333333333</ele><time>2026-05-03T16:57:53.067Z</time></trkpt><trkpt lat="45.0916548" lon="7.4182609"><ele>338.66666666666663</ele><time>2026-05-03T16:57:54.097Z</time></trkpt><trkpt lat="45.0918294" lon="7.4184547"><ele>340.0</ele><time>2026-05-03T16:57:55.082Z</time></trkpt><trkpt lat="45.0920046" lon="7.4186304"><ele>340.0</ele><time>2026-05-03T16:57:56.087Z</time></trkpt><trkpt lat="45.0921866" lon="7.4187665"><ele>340.0</ele><time>2026-05-03T16:57:57.085Z</time></trkpt><trkpt lat="45.0923822" lon="7.4188717"><ele>340.0</ele><time>2026-05-03T16:57:58.073Z</time></trkpt><trkpt lat="45.0925898" lon="7.4189397"><ele>339.3333333333333</ele><time>2026-05-03T16:57:59.085Z</time></trkpt><trkpt lat="45.0928073" lon="7.4189724"><ele>338.6666666666667</ele><time>2026-05-03T16:58:00.067Z</time></trkpt><trkpt lat="45.0930061" lon="7.4189825"><ele>338.0</ele><time>2026-05-03T16:58:01.085Z</time></trkpt><trkpt lat="45.0932023" lon="7.4189691"><ele>337.33333333333337</ele><time>2026-05-03T16:58:02.083Z</time></trkpt><trkpt lat="45.0933888" lon="7.4189383"><ele>336.6666666666667</ele><time>2026-05-03T16:58:03.097Z</time></trkpt><trkpt lat="45.0935635" lon="7.4188861"><ele>336.0</ele><time>2026-05-03T16:58:04.078Z</time></trkpt><trkpt lat="45.0937352" lon="7.4188293"><ele>336.0</ele><time>2026-05-03T16:58:05.086Z</time></trkpt><trkpt lat="45.0938861" lon="7.418757"><ele>336.0</ele><time>2026-05-03T16:58:06.096Z</time></trkpt><trkpt lat="45.094016" lon="7.4186718"><ele>336.0</ele><time>2026-05-03T16:58:07.111Z</time></trkpt><trkpt lat="45.0941253" lon="7.4185998"><ele>336.0</ele><time>2026-05-03T16:58:08.093Z</time></trkpt><trkpt lat="45.0942164" lon="7.4185282"><ele>335.8333333333333</ele><time>2026-05-03T16:58:09.092Z</time></trkpt><trkpt lat="45.094312" lon="7.41846"><ele>335.6666666666667</ele><time>2026-05-03T16:58:10.08Z</time></trkpt><trkpt lat="45.0944014" lon="7.4184155"><ele>335.5</ele><time>2026-05-03T16:58:11.095Z</time></trkpt><trkpt lat="45.094482" lon="7.4184039"><ele>335.33333333333337</ele><time>2026-05-03T16:58:12.104Z</time></trkpt><trkpt lat="45.0945523" lon="7.4184037"><ele>335.1666666666667</ele><time>2026-05-03T16:58:13.1Z</time></trkpt><trkpt lat="45.0946285" lon="7.4184312"><ele>335.0</ele><time>2026-05-03T16:58:14.106Z</time></trkpt><trkpt lat="45.094709" lon="7.4184969"><ele>335.0</ele><time>2026-05-03T16:58:15.068Z</time></trkpt><trkpt lat="45.0947938" lon="7.4185848"><ele>335.0</ele><time>2026-05-03T16:58:16.111Z</time></trkpt><trkpt lat="45.0948527" lon="7.4186922"><ele>335.0</ele><time>2026-05-03T16:58:17.099Z</time></trkpt><trkpt lat="45.094882" lon="7.4188207"><ele>335.0</ele><time>2026-05-03T16:58:18.098Z</time></trkpt><trkpt lat="45.0949033" lon="7.4189996"><ele>335.0</ele><time>2026-05-03T16:58:19.078Z</time></trkpt><trkpt lat="45.0949033" lon="7.419204"><ele>335.6666666666667</ele><time>2026-05-03T16:58:20.089Z</time></trkpt><trkpt lat="45.0948975" lon="7.4194281"><ele>336.3333333333333</ele><time>2026-05-03T16:58:21.095Z</time></trkpt><trkpt lat="45.094887" lon="7.4196689"><ele>337.0</ele><time>2026-05-03T16:58:22.108Z</time></trkpt><trkpt lat="45.0948719" lon="7.4199357"><ele>337.0</ele><time>2026-05-03T16:58:23.091Z</time></trkpt><trkpt lat="45.0948718" lon="7.4202066"><ele>337.0</ele><time>2026-05-03T16:58:24.094Z</time></trkpt><trkpt lat="45.0948632" lon="7.4205056"><ele>337.0</ele><time>2026-05-03T16:58:25.117Z</time></trkpt><trkpt lat="45.0948522" lon="7.4207976"><ele>337.0</ele><time>2026-05-03T16:58:26.11Z</time></trkpt><trkpt lat="45.0948323" lon="7.4211139"><ele>337.0</ele><time>2026-05-03T16:58:27.089Z</time></trkpt><trkpt lat="45.0948263" lon="7.4214317"><ele>337.0</ele><time>2026-05-03T16:58:28.1Z</time></trkpt><trkpt lat="45.0948123" lon="7.4217696"><ele>337.5</ele><time>2026-05-03T16:58:29.09Z</time></trkpt><trkpt lat="45.0947982" lon="7.4221147"><ele>338.0</ele><time>2026-05-03T16:58:30.106Z</time></trkpt><trkpt lat="45.0947801" lon="7.4224451"><ele>338.5</ele><time>2026-05-03T16:58:31.091Z</time></trkpt><trkpt lat="45.0947703" lon="7.4227659"><ele>339.0</ele><time>2026-05-03T16:58:32.1Z</time></trkpt><trkpt lat="45.0947521" lon="7.4230856"><ele>339.0</ele><time>2026-05-03T16:58:33.093Z</time></trkpt><trkpt lat="45.0947357" lon="7.4233895"><ele>339.0</ele><time>2026-05-03T16:58:34.105Z</time></trkpt><trkpt lat="45.0947186" lon="7.4236924"><ele>339.0</ele><time>2026-05-03T16:58:35.087Z</time></trkpt><trkpt lat="45.0947023" lon="7.4239963"><ele>338.6666666666667</ele><time>2026-05-03T16:58:36.036Z</time></trkpt><trkpt lat="45.0946931" lon="7.4242976"><ele>338.33333333333337</ele><time>2026-05-03T16:58:37.079Z</time></trkpt><trkpt lat="45.0946757" lon="7.4246043"><ele>338.0</ele><time>2026-05-03T16:58:38.104Z</time></trkpt><trkpt lat="45.0946558" lon="7.424927"><ele>337.5</ele><time>2026-05-03T16:58:39.103Z</time></trkpt><trkpt lat="45.0946355" lon="7.4252648"><ele>337.0</ele><time>2026-05-03T16:58:40.084Z</time></trkpt><trkpt lat="45.0946205" lon="7.4255986"><ele>337.0</ele><time>2026-05-03T16:58:41.09Z</time></trkpt><trkpt lat="45.0946104" lon="7.4259238"><ele>337.0</ele><time>2026-05-03T16:58:42.094Z</time></trkpt><trkpt lat="45.0945922" lon="7.4262386"><ele>337.3333333333333</ele><time>2026-05-03T16:58:43.072Z</time></trkpt><trkpt lat="45.0945794" lon="7.4265411"><ele>337.6666666666667</ele><time>2026-05-03T16:58:44.067Z</time></trkpt><trkpt lat="45.0945707" lon="7.4268464"><ele>338.0</ele><time>2026-05-03T16:58:45.109Z</time></trkpt><trkpt lat="45.0945605" lon="7.4271443"><ele>337.33333333333337</ele><time>2026-05-03T16:58:46.117Z</time></trkpt><trkpt lat="45.0945526" lon="7.4274495"><ele>336.6666666666667</ele><time>2026-05-03T16:58:47.097Z</time></trkpt><trkpt lat="45.0945477" lon="7.4277605"><ele>336.0</ele><time>2026-05-03T16:58:48.111Z</time></trkpt><trkpt lat="45.0945405" lon="7.4280562"><ele>335.3333333333333</ele><time>2026-05-03T16:58:49.074Z</time></trkpt><trkpt lat="45.0945307" lon="7.4283457"><ele>334.66666666666663</ele><time>2026-05-03T16:58:50.105Z</time></trkpt><trkpt lat="45.0945194" lon="7.4286328"><ele>334.0</ele><time>2026-05-03T16:58:51.098Z</time></trkpt><trkpt lat="45.0945055" lon="7.4289157"><ele>334.0</ele><time>2026-05-03T16:58:52.089Z</time></trkpt><trkpt lat="45.094489" lon="7.4291966"><ele>334.0</ele><time>2026-05-03T16:58:53.111Z</time></trkpt><trkpt lat="45.0944718" lon="7.4294679"><ele>334.0</ele><time>2026-05-03T16:58:54.042Z</time></trkpt><trkpt lat="45.0944571" lon="7.4297419"><ele>334.0</ele><time>2026-05-03T16:58:55.083Z</time></trkpt><trkpt lat="45.094446" lon="7.4300116"><ele>334.0</ele><time>2026-05-03T16:58:56.086Z</time></trkpt><trkpt lat="45.0944403" lon="7.4302778"><ele>334.0</ele><time>2026-05-03T16:58:57.09Z</time></trkpt><trkpt lat="45.0944329" lon="7.4305313"><ele>334.0</ele><time>2026-05-03T16:58:58.101Z</time></trkpt><trkpt lat="45.0944186" lon="7.4307754"><ele>334.0</ele><time>2026-05-03T16:58:59.092Z</time></trkpt><trkpt lat="45.0944034" lon="7.4310146"><ele>334.0</ele><time>2026-05-03T16:59:00.091Z</time></trkpt><trkpt lat="45.0943925" lon="7.4312403"><ele>334.0</ele><time>2026-05-03T16:59:01.125Z</time></trkpt><trkpt lat="45.0943804" lon="7.4314636"><ele>334.0</ele><time>2026-05-03T16:59:02.104Z</time></trkpt><trkpt lat="45.0943732" lon="7.4316845"><ele>334.0</ele><time>2026-05-03T16:59:03.088Z</time></trkpt><trkpt lat="45.0943648" lon="7.431904"><ele>334.0</ele><time>2026-05-03T16:59:04.075Z</time></trkpt><trkpt lat="45.0943481" lon="7.4321291"><ele>334.0</ele><time>2026-05-03T16:59:05.082Z</time></trkpt><trkpt lat="45.0943436" lon="7.4323469"><ele>334.0</ele><time>2026-05-03T16:59:06.09Z</time></trkpt><trkpt lat="45.0943461" lon="7.4325633"><ele>334.0</ele><time>2026-05-03T16:59:07.092Z</time></trkpt><trkpt lat="45.0943475" lon="7.4327737"><ele>334.0</ele><time>2026-05-03T16:59:08.099Z</time></trkpt><trkpt lat="45.0943485" lon="7.4329829"><ele>334.0</ele><time>2026-05-03T16:59:09.075Z</time></trkpt><trkpt lat="45.0943545" lon="7.4331771"><ele>334.0</ele><time>2026-05-03T16:59:10.063Z</time></trkpt><trkpt lat="45.0943604" lon="7.4333638"><ele>334.0</ele><time>2026-05-03T16:59:11.069Z</time></trkpt><trkpt lat="45.0943687" lon="7.4335415"><ele>334.0</ele><time>2026-05-03T16:59:12.076Z</time></trkpt><trkpt lat="45.0943654" lon="7.4337044"><ele>334.0</ele><time>2026-05-03T16:59:13.084Z</time></trkpt><trkpt lat="45.0943694" lon="7.433859"><ele>334.0</ele><time>2026-05-03T16:59:14.085Z</time></trkpt><trkpt lat="45.0943781" lon="7.4340171"><ele>334.0</ele><time>2026-05-03T16:59:15.094Z</time></trkpt><trkpt lat="45.0943802" lon="7.4341643"><ele>334.0</ele><time>2026-05-03T16:59:16.092Z</time></trkpt><trkpt lat="45.0943846" lon="7.434311"><ele>334.0</ele><time>2026-05-03T16:59:17.076Z</time></trkpt><trkpt lat="45.0944015" lon="7.4344413"><ele>334.0</ele><time>2026-05-03T16:59:18.044Z</time></trkpt><trkpt lat="45.0944104" lon="7.4345615"><ele>334.0</ele><time>2026-05-03T16:59:19.097Z</time></trkpt><trkpt lat="45.0944251" lon="7.4346723"><ele>333.66666666666663</ele><time>2026-05-03T16:59:20.109Z</time></trkpt><trkpt lat="45.0944335" lon="7.4347855"><ele>333.3333333333333</ele><time>2026-05-03T16:59:21.106Z</time></trkpt><trkpt lat="45.0944449" lon="7.4349026"><ele>333.0</ele><time>2026-05-03T16:59:22.101Z</time></trkpt><trkpt lat="45.0944375" lon="7.4350266"><ele>332.6666666666667</ele><time>2026-05-03T16:59:23.098Z</time></trkpt><trkpt lat="45.0944167" lon="7.4351535"><ele>332.33333333333337</ele><time>2026-05-03T16:59:24.084Z</time></trkpt><trkpt lat="45.0943979" lon="7.4352815"><ele>332.0</ele><time>2026-05-03T16:59:25.1Z</time></trkpt><trkpt lat="45.0944049" lon="7.4354072"><ele>332.20000000000005</ele><time>2026-05-03T16:59:26.105Z</time></trkpt><trkpt lat="45.094455" lon="7.4355087"><ele>332.4</ele><time>2026-05-03T16:59:27.101Z</time></trkpt><trkpt lat="45.0945179" lon="7.4356163"><ele>332.6</ele><time>2026-05-03T16:59:28.102Z</time></trkpt><trkpt lat="45.0945778" lon="7.4357384"><ele>332.79999999999995</ele><time>2026-05-03T16:59:29.085Z</time></trkpt><trkpt lat="45.0946119" lon="7.4358918"><ele>333.0</ele><time>2026-05-03T16:59:30.086Z</time></trkpt><trkpt lat="45.0946435" lon="7.4360591"><ele>333.0</ele><time>2026-05-03T16:59:31.044Z</time></trkpt><trkpt lat="45.0946866" lon="7.4362667"><ele>333.0</ele><time>2026-05-03T16:59:32.09Z</time></trkpt><trkpt lat="45.0947226" lon="7.4365118"><ele>333.0</ele><time>2026-05-03T16:59:33.072Z</time></trkpt><trkpt lat="45.094779" lon="7.436793"><ele>333.0</ele><time>2026-05-03T16:59:34.077Z</time></trkpt><trkpt lat="45.0948386" lon="7.4371024"><ele>333.0</ele><time>2026-05-03T16:59:35.097Z</time></trkpt><trkpt lat="45.0949009" lon="7.4374474"><ele>333.5</ele><time>2026-05-03T16:59:36.094Z</time></trkpt><trkpt lat="45.0949538" lon="7.437805"><ele>334.0</ele><time>2026-05-03T16:59:37.092Z</time></trkpt><trkpt lat="45.0950064" lon="7.4381599"><ele>333.0</ele><time>2026-05-03T16:59:38.071Z</time></trkpt><trkpt lat="45.0950648" lon="7.4385001"><ele>332.0</ele><time>2026-05-03T16:59:39.085Z</time></trkpt><trkpt lat="45.0951271" lon="7.4388378"><ele>332.0</ele><time>2026-05-03T16:59:40.081Z</time></trkpt><trkpt lat="45.0951827" lon="7.4391625"><ele>332.0</ele><time>2026-05-03T16:59:41.096Z</time></trkpt><trkpt lat="45.0952456" lon="7.4394789"><ele>331.6666666666667</ele><time>2026-05-03T16:59:42.099Z</time></trkpt><trkpt lat="45.0953019" lon="7.439785"><ele>331.3333333333333</ele><time>2026-05-03T16:59:43.112Z</time></trkpt><trkpt lat="45.0953498" lon="7.440093"><ele>331.0</ele><time>2026-05-03T16:59:44.105Z</time></trkpt><trkpt lat="45.0953989" lon="7.4404058"><ele>330.66666666666663</ele><time>2026-05-03T16:59:45.093Z</time></trkpt><trkpt lat="45.0954489" lon="7.4407175"><ele>330.3333333333333</ele><time>2026-05-03T16:59:46.096Z</time></trkpt><trkpt lat="45.095493" lon="7.4410264"><ele>330.0</ele><time>2026-05-03T16:59:47.09Z</time></trkpt><trkpt lat="45.0955479" lon="7.4413384"><ele>330.0</ele><time>2026-05-03T16:59:48.084Z</time></trkpt><trkpt lat="45.0955989" lon="7.4416372"><ele>330.0</ele><time>2026-05-03T16:59:49.055Z</time></trkpt><trkpt lat="45.0956502" lon="7.4419335"><ele>330.0</ele><time>2026-05-03T16:59:50.075Z</time></trkpt><trkpt lat="45.0956911" lon="7.4422306"><ele>330.0</ele><time>2026-05-03T16:59:51.109Z</time></trkpt><trkpt lat="45.0957397" lon="7.4425212"><ele>330.0</ele><time>2026-05-03T16:59:52.098Z</time></trkpt><trkpt lat="45.0957854" lon="7.4428135"><ele>330.0</ele><time>2026-05-03T16:59:53.098Z</time></trkpt><trkpt lat="45.0958266" lon="7.4431142"><ele>330.0</ele><time>2026-05-03T16:59:54.081Z</time></trkpt><trkpt lat="45.0958679" lon="7.4434302"><ele>330.0</ele><time>2026-05-03T16:59:55.098Z</time></trkpt><trkpt lat="45.0959066" lon="7.4437611"><ele>329.5</ele><time>2026-05-03T16:59:56.095Z</time></trkpt><trkpt lat="45.0959326" lon="7.4441306"><ele>329.0</ele><time>2026-05-03T16:59:57.096Z</time></trkpt><trkpt lat="45.0959585" lon="7.4445068"><ele>329.0</ele><time>2026-05-03T16:59:58.051Z</time></trkpt><trkpt lat="45.0959699" lon="7.4448812"><ele>329.0</ele><time>2026-05-03T16:59:59.083Z</time></trkpt><trkpt lat="45.095972" lon="7.445265"><ele>329.5</ele><time>2026-05-03T17:00:00.08Z</time></trkpt><trkpt lat="45.0959717" lon="7.4456614"><ele>330.0</ele><time>2026-05-03T17:00:01.089Z</time></trkpt><trkpt lat="45.0959674" lon="7.4460818"><ele>330.5</ele><time>2026-05-03T17:00:02.098Z</time></trkpt><trkpt lat="45.0959642" lon="7.4465083"><ele>331.0</ele><time>2026-05-03T17:00:03.106Z</time></trkpt><trkpt lat="45.0959615" lon="7.4469369"><ele>331.0</ele><time>2026-05-03T17:00:04.091Z</time></trkpt><trkpt lat="45.0959534" lon="7.4473672"><ele>331.0</ele><time>2026-05-03T17:00:05.102Z</time></trkpt><trkpt lat="45.0959458" lon="7.4477968"><ele>332.5</ele><time>2026-05-03T17:00:06.087Z</time></trkpt><trkpt lat="45.0959433" lon="7.4482048"><ele>334.0</ele><time>2026-05-03T17:00:07.09Z</time></trkpt><trkpt lat="45.095939" lon="7.4485881"><ele>333.0</ele><time>2026-05-03T17:00:08.081Z</time></trkpt><trkpt lat="45.0959424" lon="7.4489621"><ele>332.0</ele><time>2026-05-03T17:00:09.099Z</time></trkpt><trkpt lat="45.0959481" lon="7.4493293"><ele>332.0</ele><time>2026-05-03T17:00:10.079Z</time></trkpt><trkpt lat="45.0959475" lon="7.4496938"><ele>332.0</ele><time>2026-05-03T17:00:11.08Z</time></trkpt><trkpt lat="45.095968" lon="7.4500566"><ele>332.0</ele><time>2026-05-03T17:00:12.083Z</time></trkpt><trkpt lat="45.0959911" lon="7.4504273"><ele>332.0</ele><time>2026-05-03T17:00:13.096Z</time></trkpt><trkpt lat="45.0960096" lon="7.4507951"><ele>333.0</ele><time>2026-05-03T17:00:14.071Z</time></trkpt><trkpt lat="45.096031" lon="7.4511568"><ele>334.0</ele><time>2026-05-03T17:00:15.106Z</time></trkpt><trkpt lat="45.0960571" lon="7.4515153"><ele>334.0</ele><time>2026-05-03T17:00:16.092Z</time></trkpt><trkpt lat="45.0960736" lon="7.4518768"><ele>334.0</ele><time>2026-05-03T17:00:17.086Z</time></trkpt><trkpt lat="45.0960927" lon="7.4522433"><ele>334.0</ele><time>2026-05-03T17:00:18.093Z</time></trkpt><trkpt lat="45.0961077" lon="7.4526047"><ele>334.0</ele><time>2026-05-03T17:00:19.088Z</time></trkpt><trkpt lat="45.0961302" lon="7.4529544"><ele>333.0</ele><time>2026-05-03T17:00:20.063Z</time></trkpt><trkpt lat="45.0961548" lon="7.4532888"><ele>332.0</ele><time>2026-05-03T17:00:21.108Z</time></trkpt><trkpt lat="45.0961913" lon="7.4536189"><ele>332.0</ele><time>2026-05-03T17:00:22.076Z</time></trkpt><trkpt lat="45.0962419" lon="7.4539468"><ele>332.0</ele><time>2026-05-03T17:00:23.101Z</time></trkpt><trkpt lat="45.0963073" lon="7.4542743"><ele>332.0</ele><time>2026-05-03T17:00:24.094Z</time></trkpt><trkpt lat="45.0963853" lon="7.4546074"><ele>332.0</ele><time>2026-05-03T17:00:25.082Z</time></trkpt><trkpt lat="45.0964601" lon="7.4549484"><ele>332.0</ele><time>2026-05-03T17:00:26.105Z</time></trkpt><trkpt lat="45.0965246" lon="7.4552805"><ele>332.0</ele><time>2026-05-03T17:00:27.095Z</time></trkpt><trkpt lat="45.0965876" lon="7.4556032"><ele>331.6666666666667</ele><time>2026-05-03T17:00:28.078Z</time></trkpt><trkpt lat="45.0966466" lon="7.4559143"><ele>331.3333333333333</ele><time>2026-05-03T17:00:29.083Z</time></trkpt><trkpt lat="45.0966941" lon="7.4562089"><ele>331.0</ele><time>2026-05-03T17:00:30.105Z</time></trkpt><trkpt lat="45.0967426" lon="7.4564801"><ele>331.0</ele><time>2026-05-03T17:00:31.082Z</time></trkpt><trkpt lat="45.0967913" lon="7.456744"><ele>331.0</ele><time>2026-05-03T17:00:32.099Z</time></trkpt><trkpt lat="45.0968392" lon="7.4570095"><ele>331.0</ele><time>2026-05-03T17:00:33.087Z</time></trkpt><trkpt lat="45.0968824" lon="7.4572669"><ele>331.0</ele><time>2026-05-03T17:00:34.091Z</time></trkpt><trkpt lat="45.0969179" lon="7.4575185"><ele>331.0</ele><time>2026-05-03T17:00:35.077Z</time></trkpt><trkpt lat="45.0969463" lon="7.4577841"><ele>331.0</ele><time>2026-05-03T17:00:36.091Z</time></trkpt><trkpt lat="45.0969586" lon="7.4580439"><ele>331.66666666666663</ele><time>2026-05-03T17:00:37.086Z</time></trkpt><trkpt lat="45.0969716" lon="7.4583045"><ele>332.3333333333333</ele><time>2026-05-03T17:00:38.047Z</time></trkpt><trkpt lat="45.0969759" lon="7.4585614"><ele>333.0</ele><time>2026-05-03T17:00:39.066Z</time></trkpt><trkpt lat="45.0969667" lon="7.4588172"><ele>333.6666666666667</ele><time>2026-05-03T17:00:40.032Z</time></trkpt><trkpt lat="45.0969621" lon="7.4590654"><ele>334.33333333333337</ele><time>2026-05-03T17:00:41.076Z</time></trkpt><trkpt lat="45.0969499" lon="7.4592985"><ele>335.0</ele><time>2026-05-03T17:00:42.088Z</time></trkpt><trkpt lat="45.0969198" lon="7.4595406"><ele>336.33333333333337</ele><time>2026-05-03T17:00:43.068Z</time></trkpt><trkpt lat="45.096889" lon="7.4597776"><ele>337.6666666666667</ele><time>2026-05-03T17:00:44.082Z</time></trkpt><trkpt lat="45.0968477" lon="7.4600097"><ele>339.0</ele><time>2026-05-03T17:00:45.073Z</time></trkpt><trkpt lat="45.0968076" lon="7.4602346"><ele>339.0</ele><time>2026-05-03T17:00:46.099Z</time></trkpt><trkpt lat="45.0967713" lon="7.4604399"><ele>339.0</ele><time>2026-05-03T17:00:47.076Z</time></trkpt><trkpt lat="45.0967427" lon="7.4606295"><ele>339.0</ele><time>2026-05-03T17:00:48.07Z</time></trkpt><trkpt lat="45.0967118" lon="7.4608237"><ele>339.0</ele><time>2026-05-03T17:00:49.071Z</time></trkpt><trkpt lat="45.0966825" lon="7.4610184"><ele>339.75</ele><time>2026-05-03T17:00:50.069Z</time></trkpt><trkpt lat="45.0966594" lon="7.4612122"><ele>340.5</ele><time>2026-05-03T17:00:51.067Z</time></trkpt><trkpt lat="45.0966412" lon="7.4613958"><ele>341.25</ele><time>2026-05-03T17:00:52.074Z</time></trkpt><trkpt lat="45.0966265" lon="7.4615795"><ele>342.0</ele><time>2026-05-03T17:00:53.069Z</time></trkpt><trkpt lat="45.0966089" lon="7.4617668"><ele>342.0</ele><time>2026-05-03T17:00:54.094Z</time></trkpt><trkpt lat="45.0965878" lon="7.4619733"><ele>342.0</ele><time>2026-05-03T17:00:55.093Z</time></trkpt><trkpt lat="45.0965625" lon="7.4621887"><ele>342.0</ele><time>2026-05-03T17:00:56.095Z</time></trkpt><trkpt lat="45.0965366" lon="7.4624022"><ele>342.0</ele><time>2026-05-03T17:00:57.084Z</time></trkpt><trkpt lat="45.0965065" lon="7.462595"><ele>342.0</ele><time>2026-05-03T17:00:58.09Z</time></trkpt><trkpt lat="45.0964831" lon="7.4627831"><ele>342.0</ele><time>2026-05-03T17:00:59.083Z</time></trkpt><trkpt lat="45.0964594" lon="7.462967"><ele>342.0</ele><time>2026-05-03T17:01:00.09Z</time></trkpt><trkpt lat="45.0964442" lon="7.4631504"><ele>342.0</ele><time>2026-05-03T17:01:01.096Z</time></trkpt><trkpt lat="45.0964351" lon="7.4633386"><ele>342.0</ele><time>2026-05-03T17:01:02.103Z</time></trkpt><trkpt lat="45.0964265" lon="7.4635315"><ele>342.0</ele><time>2026-05-03T17:01:03.088Z</time></trkpt><trkpt lat="45.0964436" lon="7.4637177"><ele>342.0</ele><time>2026-05-03T17:01:04.098Z</time></trkpt><trkpt lat="45.0964507" lon="7.4639093"><ele>341.3333333333333</ele><time>2026-05-03T17:01:05.073Z</time></trkpt><trkpt lat="45.0964725" lon="7.464113"><ele>340.66666666666663</ele><time>2026-05-03T17:01:06.075Z</time></trkpt><trkpt lat="45.096505" lon="7.4643324"><ele>340.0</ele><time>2026-05-03T17:01:07.073Z</time></trkpt><trkpt lat="45.0965516" lon="7.4645806"><ele>341.0</ele><time>2026-05-03T17:01:08.087Z</time></trkpt><trkpt lat="45.0966096" lon="7.4648526"><ele>342.0</ele><time>2026-05-03T17:01:09.09Z</time></trkpt><trkpt lat="45.0966971" lon="7.4651353"><ele>343.0</ele><time>2026-05-03T17:01:10.098Z</time></trkpt><trkpt lat="45.0968084" lon="7.4654203"><ele>342.0</ele><time>2026-05-03T17:01:11.084Z</time></trkpt><trkpt lat="45.0969294" lon="7.4657037"><ele>341.0</ele><time>2026-05-03T17:01:12.106Z</time></trkpt><trkpt lat="45.0970801" lon="7.465991"><ele>339.0</ele><time>2026-05-03T17:01:13.097Z</time></trkpt><trkpt lat="45.0972414" lon="7.4662937"><ele>337.0</ele><time>2026-05-03T17:01:14.093Z</time></trkpt><trkpt lat="45.0974107" lon="7.466609"><ele>338.5</ele><time>2026-05-03T17:01:15.09Z</time></trkpt><trkpt lat="45.0975658" lon="7.4669111"><ele>340.0</ele><time>2026-05-03T17:01:16.094Z</time></trkpt><trkpt lat="45.0977208" lon="7.4672183"><ele>340.5</ele><time>2026-05-03T17:01:17.076Z</time></trkpt><trkpt lat="45.0978802" lon="7.4675282"><ele>341.0</ele><time>2026-05-03T17:01:18.098Z</time></trkpt><trkpt lat="45.0980448" lon="7.4678306"><ele>340.5</ele><time>2026-05-03T17:01:19.106Z</time></trkpt><trkpt lat="45.0982032" lon="7.4681312"><ele>340.0</ele><time>2026-05-03T17:01:20.098Z</time></trkpt><trkpt lat="45.0983575" lon="7.4684188"><ele>340.0</ele><time>2026-05-03T17:01:21.113Z</time></trkpt><trkpt lat="45.0985188" lon="7.4686988"><ele>340.0</ele><time>2026-05-03T17:01:22.089Z</time></trkpt><trkpt lat="45.098682" lon="7.4689649"><ele>339.5</ele><time>2026-05-03T17:01:23.058Z</time></trkpt><trkpt lat="45.09886" lon="7.4692195"><ele>339.0</ele><time>2026-05-03T17:01:24.083Z</time></trkpt><trkpt lat="45.0990334" lon="7.4694884"><ele>338.5</ele><time>2026-05-03T17:01:25.11Z</time></trkpt><trkpt lat="45.0992136" lon="7.4697717"><ele>338.0</ele><time>2026-05-03T17:01:26.098Z</time></trkpt><trkpt lat="45.0993989" lon="7.4700622"><ele>338.0</ele><time>2026-05-03T17:01:27.1Z</time></trkpt><trkpt lat="45.099584" lon="7.4703433"><ele>338.0</ele><time>2026-05-03T17:01:28.101Z</time></trkpt><trkpt lat="45.0997524" lon="7.4706176"><ele>337.5</ele><time>2026-05-03T17:01:29.086Z</time></trkpt><trkpt lat="45.0999162" lon="7.4708811"><ele>337.0</ele><time>2026-05-03T17:01:30.089Z</time></trkpt><trkpt lat="45.1000628" lon="7.4711156"><ele>336.66666666666663</ele><time>2026-05-03T17:01:31.081Z</time></trkpt><trkpt lat="45.1002037" lon="7.4713369"><ele>336.3333333333333</ele><time>2026-05-03T17:01:32.1Z</time></trkpt><trkpt lat="45.1003462" lon="7.4715457"><ele>336.0</ele><time>2026-05-03T17:01:33.093Z</time></trkpt><trkpt lat="45.1004859" lon="7.4717489"><ele>336.0</ele><time>2026-05-03T17:01:34.057Z</time></trkpt><trkpt lat="45.100628" lon="7.4719567"><ele>336.0</ele><time>2026-05-03T17:01:35.089Z</time></trkpt><trkpt lat="45.1007669" lon="7.4721608"><ele>336.0</ele><time>2026-05-03T17:01:36.097Z</time></trkpt><trkpt lat="45.1008997" lon="7.4723635"><ele>337.3333333333333</ele><time>2026-05-03T17:01:37.091Z</time></trkpt><trkpt lat="45.1010209" lon="7.4725342"><ele>338.66666666666663</ele><time>2026-05-03T17:01:38.087Z</time></trkpt><trkpt lat="45.1011444" lon="7.4727053"><ele>340.0</ele><time>2026-05-03T17:01:39.075Z</time></trkpt><trkpt lat="45.1012634" lon="7.4728823"><ele>339.3333333333333</ele><time>2026-05-03T17:01:40.082Z</time></trkpt><trkpt lat="45.1013849" lon="7.4730664"><ele>338.6666666666667</ele><time>2026-05-03T17:01:41.1Z</time></trkpt><trkpt lat="45.1015161" lon="7.4732408"><ele>338.0</ele><time>2026-05-03T17:01:42.102Z</time></trkpt><trkpt lat="45.1016611" lon="7.4733935"><ele>339.6666666666667</ele><time>2026-05-03T17:01:43.076Z</time></trkpt><trkpt lat="45.1018318" lon="7.4735168"><ele>341.3333333333333</ele><time>2026-05-03T17:01:44.079Z</time></trkpt><trkpt lat="45.1019996" lon="7.4736055"><ele>343.0</ele><time>2026-05-03T17:01:45.102Z</time></trkpt><trkpt lat="45.1021476" lon="7.4736806"><ele>343.0</ele><time>2026-05-03T17:01:46.11Z</time></trkpt><trkpt lat="45.1022854" lon="7.4737524"><ele>343.0</ele><time>2026-05-03T17:01:47.04Z</time></trkpt><trkpt lat="45.1024034" lon="7.4738083"><ele>343.0</ele><time>2026-05-03T17:01:48.091Z</time></trkpt><trkpt lat="45.1025113" lon="7.4738504"><ele>343.0</ele><time>2026-05-03T17:01:49.089Z</time></trkpt><trkpt lat="45.1026125" lon="7.4738959"><ele>343.2</ele><time>2026-05-03T17:01:50.09Z</time></trkpt><trkpt lat="45.1027126" lon="7.4739395"><ele>343.4</ele><time>2026-05-03T17:01:51.085Z</time></trkpt><trkpt lat="45.102804" lon="7.4739862"><ele>343.59999999999997</ele><time>2026-05-03T17:01:52.096Z</time></trkpt><trkpt lat="45.1028969" lon="7.4740638"><ele>343.79999999999995</ele><time>2026-05-03T17:01:53.095Z</time></trkpt><trkpt lat="45.1029837" lon="7.4741473"><ele>344.0</ele><time>2026-05-03T17:01:54.062Z</time></trkpt><trkpt lat="45.1030685" lon="7.4742353"><ele>344.0</ele><time>2026-05-03T17:01:55.1Z</time></trkpt><trkpt lat="45.1031516" lon="7.4743404"><ele>344.0</ele><time>2026-05-03T17:01:56.092Z</time></trkpt><trkpt lat="45.1032272" lon="7.4744459"><ele>344.0</ele><time>2026-05-03T17:01:57.09Z</time></trkpt><trkpt lat="45.103299" lon="7.4745666"><ele>344.0</ele><time>2026-05-03T17:01:58.098Z</time></trkpt><trkpt lat="45.1033611" lon="7.4747044"><ele>344.0</ele><time>2026-05-03T17:01:59.067Z</time></trkpt><trkpt lat="45.1034173" lon="7.4748481"><ele>343.75</ele><time>2026-05-03T17:02:00.092Z</time></trkpt><trkpt lat="45.1034705" lon="7.4749803"><ele>343.5</ele><time>2026-05-03T17:02:01.09Z</time></trkpt><trkpt lat="45.1035268" lon="7.4751269"><ele>343.25</ele><time>2026-05-03T17:02:02.119Z</time></trkpt><trkpt lat="45.1035838" lon="7.475276"><ele>343.0</ele><time>2026-05-03T17:02:03.037Z</time></trkpt><trkpt lat="45.1036458" lon="7.4754326"><ele>342.59999999999997</ele><time>2026-05-03T17:02:04.109Z</time></trkpt><trkpt lat="45.1037062" lon="7.4755913"><ele>342.2</ele><time>2026-05-03T17:02:05.084Z</time></trkpt><trkpt lat="45.1037679" lon="7.4757427"><ele>341.8</ele><time>2026-05-03T17:02:06.088Z</time></trkpt><trkpt lat="45.1038211" lon="7.4758784"><ele>341.4</ele><time>2026-05-03T17:02:07.094Z</time></trkpt><trkpt lat="45.1038616" lon="7.4759872"><ele>341.0</ele><time>2026-05-03T17:02:08.112Z</time></trkpt><trkpt lat="45.1038938" lon="7.4760686"><ele>341.0</ele><time>2026-05-03T17:02:09.106Z</time></trkpt><trkpt lat="45.1039789" lon="7.4761662"><ele>341.0</ele><time>2026-05-03T17:02:11.09Z</time></trkpt><trkpt lat="45.1041114" lon="7.4761343"><ele>341.0</ele><time>2026-05-03T17:02:13.099Z</time></trkpt><trkpt lat="45.1041826" lon="7.4761121"><ele>341.0</ele><time>2026-05-03T17:02:14.102Z</time></trkpt><trkpt lat="45.1042601" lon="7.4760514"><ele>341.0</ele><time>2026-05-03T17:02:16.054Z</time></trkpt><trkpt lat="45.1042592" lon="7.4759603"><ele>341.0</ele><time>2026-05-03T17:02:18.083Z</time></trkpt><trkpt lat="45.1042024" lon="7.4760017"><ele>341.0</ele><time>2026-05-03T17:02:45.066Z</time></trkpt><trkpt lat="45.1042761" lon="7.475911"><ele>341.0</ele><time>2026-05-03T17:03:19.065Z</time></trkpt><trkpt lat="45.1042108" lon="7.4758851"><ele>341.0</ele><time>2026-05-03T17:03:37.067Z</time></trkpt><trkpt lat="45.1041837" lon="7.4757759"><ele>341.0</ele><time>2026-05-03T17:03:40.046Z</time></trkpt><trkpt lat="45.1040309" lon="7.4758241"><ele>346.0</ele><time>2026-05-03T17:06:58.242Z</time></trkpt><trkpt lat="45.1043456" lon="7.4763462"><ele>355.0</ele><time>2026-05-03T17:07:09.33Z</time></trkpt><trkpt lat="45.1041068" lon="7.4757696"><ele>350.5</ele><time>2026-05-03T17:07:34.303Z</time></trkpt><trkpt lat="45.1040389" lon="7.4758145"><ele>346.0</ele><time>2026-05-03T17:07:42.412Z</time></trkpt><trkpt lat="45.1046831" lon="7.4768939"><ele>346.0</ele><time>2026-05-03T17:07:54.035Z</time></trkpt><trkpt lat="45.1044807" lon="7.4768363"><ele>346.0</ele><time>2026-05-03T17:07:55.046Z</time></trkpt><trkpt lat="45.1043037" lon="7.4767229"><ele>346.0</ele><time>2026-05-03T17:07:56.049Z</time></trkpt><trkpt lat="45.1040907" lon="7.476605"><ele>343.3333333333333</ele><time>2026-05-03T17:07:57.048Z</time></trkpt><trkpt lat="45.103937" lon="7.4766022"><ele>340.6666666666667</ele><time>2026-05-03T17:07:58.038Z</time></trkpt><trkpt lat="45.1037299" lon="7.4765289"><ele>338.0</ele><time>2026-05-03T17:07:59.071Z</time></trkpt><trkpt lat="45.103588" lon="7.476476"><ele>338.0</ele><time>2026-05-03T17:08:00.066Z</time></trkpt><trkpt lat="45.1034591" lon="7.4764962"><ele>338.0</ele><time>2026-05-03T17:08:01.019Z</time></trkpt><trkpt lat="45.1033904" lon="7.4765315"><ele>338.0</ele><time>2026-05-03T17:08:02.057Z</time></trkpt><trkpt lat="45.1033008" lon="7.4766254"><ele>338.0</ele><time>2026-05-03T17:08:04.026Z</time></trkpt><trkpt lat="45.1032095" lon="7.4766778"><ele>338.0</ele><time>2026-05-03T17:08:05.062Z</time></trkpt><trkpt lat="45.1033752" lon="7.4766313"><ele>338.0</ele><time>2026-05-03T17:08:06.061Z</time></trkpt><trkpt lat="45.1035501" lon="7.4766138"><ele>338.0</ele><time>2026-05-03T17:08:07.045Z</time></trkpt><trkpt lat="45.1037243" lon="7.4764627"><ele>338.0</ele><time>2026-05-03T17:08:08.065Z</time></trkpt><trkpt lat="45.1037879" lon="7.4763069"><ele>338.42857142857144</ele><time>2026-05-03T17:08:09.086Z</time></trkpt><trkpt lat="45.1038385" lon="7.4762405"><ele>338.85714285714283</ele><time>2026-05-03T17:08:10.096Z</time></trkpt><trkpt lat="45.1038799" lon="7.4761715"><ele>339.2857142857143</ele><time>2026-05-03T17:08:11.046Z</time></trkpt><trkpt lat="45.1039273" lon="7.4761113"><ele>339.7142857142857</ele><time>2026-05-03T17:08:12.071Z</time></trkpt><trkpt lat="45.1039445" lon="7.4760142"><ele>340.14285714285717</ele><time>2026-05-03T17:08:15.079Z</time></trkpt><trkpt lat="45.1039314" lon="7.475924"><ele>340.57142857142856</ele><time>2026-05-03T17:08:23.018Z</time></trkpt><trkpt lat="45.1039703" lon="7.4757837"><ele>341.0</ele><time>2026-05-03T17:08:27.079Z</time></trkpt><trkpt lat="45.1040254" lon="7.4757007"><ele>341.0</ele><time>2026-05-03T17:08:31.062Z</time></trkpt><trkpt lat="45.1040475" lon="7.475608"><ele>341.0</ele><time>2026-05-03T17:08:33.067Z</time></trkpt><trkpt lat="45.1041088" lon="7.4757339"><ele>355.0</ele><time>2026-05-03T17:09:35.064Z</time></trkpt><trkpt lat="45.1040658" lon="7.4757997"><ele>341.0</ele><time>2026-05-03T17:09:50.07Z</time></trkpt><trkpt lat="45.1040102" lon="7.4760843"><ele>341.0</ele><time>2026-05-03T17:32:20.066Z</time></trkpt></trkseg></trk></gpx>